<?xml version="1.0" encoding="UTF-8" standalone="no" ?>
<gpx xmlns="http://www.topografix.com/GPX/1/1" xmlns:xsi="http://www.w3.org/2001/XMLSchema-instance" xsi:schemaLocation="http://www.topografix.com/GPX/1/1 http://www.topografix.com/GPX/1/1/gpx.xsd" version="1.1" creator="VisuGPX - https://www.visugpx.com">
  <metadata>
    <name>Arbizon</name>
    <desc><![CDATA[https://subircumbres.wordpress.com/2019/09/15/arbizon-2831m/]]></desc>
  </metadata>
  <trk>
    <name><![CDATA[ARBIZON9 13:07:27]]></name>
    <trkseg>
      <trkpt lat="42.85128" lon="0.27649">
        <ele>1407.03</ele>
        <time>2019-09-14T06:00:41Z</time>
      </trkpt>
      <trkpt lat="42.85128" lon="0.27649">
        <ele>1406.07</ele>
        <time>2019-09-14T06:00:42Z</time>
      </trkpt>
      <trkpt lat="42.85128" lon="0.27649">
        <ele>1406.07</ele>
        <time>2019-09-14T06:00:43Z</time>
      </trkpt>
      <trkpt lat="42.85128" lon="0.27649">
        <ele>1406.55</ele>
        <time>2019-09-14T06:00:46Z</time>
      </trkpt>
      <trkpt lat="42.85128" lon="0.27649">
        <ele>1407.51</ele>
        <time>2019-09-14T06:00:53Z</time>
      </trkpt>
      <trkpt lat="42.85128" lon="0.27649">
        <ele>1399.82</ele>
        <time>2019-09-14T06:00:57Z</time>
      </trkpt>
      <trkpt lat="42.85128" lon="0.27649">
        <ele>1407.03</ele>
        <time>2019-09-14T06:00:58Z</time>
      </trkpt>
      <trkpt lat="42.85128" lon="0.27648">
        <ele>1406.55</ele>
        <time>2019-09-14T06:01:05Z</time>
      </trkpt>
      <trkpt lat="42.85127" lon="0.27648">
        <ele>1406.07</ele>
        <time>2019-09-14T06:01:12Z</time>
      </trkpt>
      <trkpt lat="42.85128" lon="0.27648">
        <ele>1406.07</ele>
        <time>2019-09-14T06:01:21Z</time>
      </trkpt>
      <trkpt lat="42.85129" lon="0.27646">
        <ele>1406.07</ele>
        <time>2019-09-14T06:01:29Z</time>
      </trkpt>
      <trkpt lat="42.85128" lon="0.27645">
        <ele>1406.07</ele>
        <time>2019-09-14T06:01:37Z</time>
      </trkpt>
      <trkpt lat="42.85129" lon="0.27644">
        <ele>1406.07</ele>
        <time>2019-09-14T06:01:46Z</time>
      </trkpt>
      <trkpt lat="42.85128" lon="0.27644">
        <ele>1406.07</ele>
        <time>2019-09-14T06:01:54Z</time>
      </trkpt>
      <trkpt lat="42.85128" lon="0.27644">
        <ele>1406.07</ele>
        <time>2019-09-14T06:02:06Z</time>
      </trkpt>
      <trkpt lat="42.85131" lon="0.27641">
        <ele>1406.07</ele>
        <time>2019-09-14T06:02:15Z</time>
      </trkpt>
      <trkpt lat="42.85131" lon="0.27641">
        <ele>1406.07</ele>
        <time>2019-09-14T06:02:22Z</time>
      </trkpt>
      <trkpt lat="42.85129" lon="0.27641">
        <ele>1406.07</ele>
        <time>2019-09-14T06:02:28Z</time>
      </trkpt>
      <trkpt lat="42.85129" lon="0.27641">
        <ele>1406.07</ele>
        <time>2019-09-14T06:02:38Z</time>
      </trkpt>
      <trkpt lat="42.85129" lon="0.27641">
        <ele>1406.07</ele>
        <time>2019-09-14T06:02:47Z</time>
      </trkpt>
      <trkpt lat="42.85129" lon="0.2764">
        <ele>1406.07</ele>
        <time>2019-09-14T06:02:56Z</time>
      </trkpt>
      <trkpt lat="42.85129" lon="0.2764">
        <ele>1405.58</ele>
        <time>2019-09-14T06:03:13Z</time>
      </trkpt>
      <trkpt lat="42.85128" lon="0.2764">
        <ele>1407.03</ele>
        <time>2019-09-14T06:03:32Z</time>
      </trkpt>
      <trkpt lat="42.85128" lon="0.27639">
        <ele>1406.07</ele>
        <time>2019-09-14T06:03:51Z</time>
      </trkpt>
      <trkpt lat="42.85128" lon="0.27639">
        <ele>1406.07</ele>
        <time>2019-09-14T06:04:00Z</time>
      </trkpt>
      <trkpt lat="42.85128" lon="0.2764">
        <ele>1405.58</ele>
        <time>2019-09-14T06:04:10Z</time>
      </trkpt>
      <trkpt lat="42.85129" lon="0.27641">
        <ele>1405.58</ele>
        <time>2019-09-14T06:04:18Z</time>
      </trkpt>
      <trkpt lat="42.85129" lon="0.27642">
        <ele>1405.58</ele>
        <time>2019-09-14T06:04:28Z</time>
      </trkpt>
      <trkpt lat="42.85129" lon="0.27642">
        <ele>1405.58</ele>
        <time>2019-09-14T06:04:37Z</time>
      </trkpt>
      <trkpt lat="42.85128" lon="0.27642">
        <ele>1405.58</ele>
        <time>2019-09-14T06:04:52Z</time>
      </trkpt>
      <trkpt lat="42.85131" lon="0.27641">
        <ele>1405.58</ele>
        <time>2019-09-14T06:04:59Z</time>
      </trkpt>
      <trkpt lat="42.85131" lon="0.2764">
        <ele>1405.58</ele>
        <time>2019-09-14T06:05:00Z</time>
      </trkpt>
      <trkpt lat="42.85135" lon="0.27636">
        <ele>1406.55</ele>
        <time>2019-09-14T06:05:06Z</time>
      </trkpt>
      <trkpt lat="42.85137" lon="0.27636">
        <ele>1407.03</ele>
        <time>2019-09-14T06:05:11Z</time>
      </trkpt>
      <trkpt lat="42.85137" lon="0.27634">
        <ele>1407.51</ele>
        <time>2019-09-14T06:05:17Z</time>
      </trkpt>
      <trkpt lat="42.8514" lon="0.27627">
        <ele>1408.47</ele>
        <time>2019-09-14T06:05:23Z</time>
      </trkpt>
      <trkpt lat="42.8514" lon="0.27625">
        <ele>1408.47</ele>
        <time>2019-09-14T06:05:25Z</time>
      </trkpt>
      <trkpt lat="42.85144" lon="0.27618">
        <ele>1409.43</ele>
        <time>2019-09-14T06:05:32Z</time>
      </trkpt>
      <trkpt lat="42.85146" lon="0.27611">
        <ele>1410.39</ele>
        <time>2019-09-14T06:05:39Z</time>
      </trkpt>
      <trkpt lat="42.85149" lon="0.27605">
        <ele>1411.35</ele>
        <time>2019-09-14T06:05:46Z</time>
      </trkpt>
      <trkpt lat="42.85152" lon="0.27597">
        <ele>1412.31</ele>
        <time>2019-09-14T06:05:53Z</time>
      </trkpt>
      <trkpt lat="42.85153" lon="0.27596">
        <ele>1412.31</ele>
        <time>2019-09-14T06:05:54Z</time>
      </trkpt>
      <trkpt lat="42.85155" lon="0.27594">
        <ele>1412.31</ele>
        <time>2019-09-14T06:05:56Z</time>
      </trkpt>
      <trkpt lat="42.85156" lon="0.27592">
        <ele>1412.79</ele>
        <time>2019-09-14T06:05:58Z</time>
      </trkpt>
      <trkpt lat="42.85161" lon="0.27585">
        <ele>1413.76</ele>
        <time>2019-09-14T06:06:05Z</time>
      </trkpt>
      <trkpt lat="42.85166" lon="0.27577">
        <ele>1414.24</ele>
        <time>2019-09-14T06:06:14Z</time>
      </trkpt>
      <trkpt lat="42.85172" lon="0.27566">
        <ele>1414.72</ele>
        <time>2019-09-14T06:06:23Z</time>
      </trkpt>
      <trkpt lat="42.85176" lon="0.27556">
        <ele>1415.68</ele>
        <time>2019-09-14T06:06:31Z</time>
      </trkpt>
      <trkpt lat="42.85179" lon="0.27552">
        <ele>1416.64</ele>
        <time>2019-09-14T06:06:35Z</time>
      </trkpt>
      <trkpt lat="42.85181" lon="0.27549">
        <ele>1416.16</ele>
        <time>2019-09-14T06:06:38Z</time>
      </trkpt>
      <trkpt lat="42.85183" lon="0.27543">
        <ele>1416.64</ele>
        <time>2019-09-14T06:06:42Z</time>
      </trkpt>
      <trkpt lat="42.85187" lon="0.27535">
        <ele>1417.6</ele>
        <time>2019-09-14T06:06:49Z</time>
      </trkpt>
      <trkpt lat="42.85188" lon="0.27532">
        <ele>1417.6</ele>
        <time>2019-09-14T06:06:51Z</time>
      </trkpt>
      <trkpt lat="42.85193" lon="0.27524">
        <ele>1418.56</ele>
        <time>2019-09-14T06:06:59Z</time>
      </trkpt>
      <trkpt lat="42.85197" lon="0.27514">
        <ele>1419.52</ele>
        <time>2019-09-14T06:07:07Z</time>
      </trkpt>
      <trkpt lat="42.85202" lon="0.27505">
        <ele>1420.49</ele>
        <time>2019-09-14T06:07:16Z</time>
      </trkpt>
      <trkpt lat="42.85205" lon="0.27499">
        <ele>1421.45</ele>
        <time>2019-09-14T06:07:24Z</time>
      </trkpt>
      <trkpt lat="42.85208" lon="0.27493">
        <ele>1421.45</ele>
        <time>2019-09-14T06:07:30Z</time>
      </trkpt>
      <trkpt lat="42.85213" lon="0.27486">
        <ele>1422.41</ele>
        <time>2019-09-14T06:07:38Z</time>
      </trkpt>
      <trkpt lat="42.85213" lon="0.27482">
        <ele>1422.89</ele>
        <time>2019-09-14T06:07:42Z</time>
      </trkpt>
      <trkpt lat="42.85217" lon="0.27478">
        <ele>1423.37</ele>
        <time>2019-09-14T06:07:48Z</time>
      </trkpt>
      <trkpt lat="42.8522" lon="0.27473">
        <ele>1423.85</ele>
        <time>2019-09-14T06:07:53Z</time>
      </trkpt>
      <trkpt lat="42.85226" lon="0.27465">
        <ele>1424.81</ele>
        <time>2019-09-14T06:08:02Z</time>
      </trkpt>
      <trkpt lat="42.85227" lon="0.27464">
        <ele>1424.81</ele>
        <time>2019-09-14T06:08:03Z</time>
      </trkpt>
      <trkpt lat="42.85229" lon="0.27461">
        <ele>1425.29</ele>
        <time>2019-09-14T06:08:07Z</time>
      </trkpt>
      <trkpt lat="42.85235" lon="0.27455">
        <ele>1426.25</ele>
        <time>2019-09-14T06:08:14Z</time>
      </trkpt>
      <trkpt lat="42.85239" lon="0.27447">
        <ele>1426.73</ele>
        <time>2019-09-14T06:08:20Z</time>
      </trkpt>
      <trkpt lat="42.85244" lon="0.27438">
        <ele>1427.7</ele>
        <time>2019-09-14T06:08:27Z</time>
      </trkpt>
      <trkpt lat="42.85249" lon="0.27432">
        <ele>1428.66</ele>
        <time>2019-09-14T06:08:33Z</time>
      </trkpt>
      <trkpt lat="42.85254" lon="0.27425">
        <ele>1429.14</ele>
        <time>2019-09-14T06:08:40Z</time>
      </trkpt>
      <trkpt lat="42.85258" lon="0.27419">
        <ele>1429.62</ele>
        <time>2019-09-14T06:08:46Z</time>
      </trkpt>
      <trkpt lat="42.85261" lon="0.27412">
        <ele>1430.58</ele>
        <time>2019-09-14T06:08:53Z</time>
      </trkpt>
      <trkpt lat="42.85262" lon="0.27409">
        <ele>1430.58</ele>
        <time>2019-09-14T06:08:55Z</time>
      </trkpt>
      <trkpt lat="42.85267" lon="0.27399">
        <ele>1431.54</ele>
        <time>2019-09-14T06:09:02Z</time>
      </trkpt>
      <trkpt lat="42.85268" lon="0.27395">
        <ele>1432.02</ele>
        <time>2019-09-14T06:09:05Z</time>
      </trkpt>
      <trkpt lat="42.85273" lon="0.27386">
        <ele>1432.98</ele>
        <time>2019-09-14T06:09:13Z</time>
      </trkpt>
      <trkpt lat="42.85276" lon="0.27381">
        <ele>1433.46</ele>
        <time>2019-09-14T06:09:18Z</time>
      </trkpt>
      <trkpt lat="42.85279" lon="0.27376">
        <ele>1434.42</ele>
        <time>2019-09-14T06:09:22Z</time>
      </trkpt>
      <trkpt lat="42.85284" lon="0.2737">
        <ele>1435.39</ele>
        <time>2019-09-14T06:09:29Z</time>
      </trkpt>
      <trkpt lat="42.85291" lon="0.27362">
        <ele>1435.87</ele>
        <time>2019-09-14T06:09:37Z</time>
      </trkpt>
      <trkpt lat="42.85295" lon="0.2736">
        <ele>1436.35</ele>
        <time>2019-09-14T06:09:41Z</time>
      </trkpt>
      <trkpt lat="42.85302" lon="0.27355">
        <ele>1436.83</ele>
        <time>2019-09-14T06:09:48Z</time>
      </trkpt>
      <trkpt lat="42.85306" lon="0.27353">
        <ele>1437.31</ele>
        <time>2019-09-14T06:09:52Z</time>
      </trkpt>
      <trkpt lat="42.85314" lon="0.27344">
        <ele>1437.31</ele>
        <time>2019-09-14T06:10:00Z</time>
      </trkpt>
      <trkpt lat="42.85319" lon="0.27332">
        <ele>1437.79</ele>
        <time>2019-09-14T06:10:07Z</time>
      </trkpt>
      <trkpt lat="42.85322" lon="0.27326">
        <ele>1437.79</ele>
        <time>2019-09-14T06:10:12Z</time>
      </trkpt>
      <trkpt lat="42.85329" lon="0.27315">
        <ele>1438.27</ele>
        <time>2019-09-14T06:10:21Z</time>
      </trkpt>
      <trkpt lat="42.85335" lon="0.27307">
        <ele>1438.75</ele>
        <time>2019-09-14T06:10:28Z</time>
      </trkpt>
      <trkpt lat="42.85341" lon="0.27296">
        <ele>1439.23</ele>
        <time>2019-09-14T06:10:36Z</time>
      </trkpt>
      <trkpt lat="42.85348" lon="0.27284">
        <ele>1440.19</ele>
        <time>2019-09-14T06:10:46Z</time>
      </trkpt>
      <trkpt lat="42.85352" lon="0.27277">
        <ele>1440.67</ele>
        <time>2019-09-14T06:10:51Z</time>
      </trkpt>
      <trkpt lat="42.8536" lon="0.27271">
        <ele>1441.15</ele>
        <time>2019-09-14T06:10:59Z</time>
      </trkpt>
      <trkpt lat="42.85363" lon="0.27268">
        <ele>1441.15</ele>
        <time>2019-09-14T06:11:03Z</time>
      </trkpt>
      <trkpt lat="42.85364" lon="0.27266">
        <ele>1441.63</ele>
        <time>2019-09-14T06:11:04Z</time>
      </trkpt>
      <trkpt lat="42.85371" lon="0.27258">
        <ele>1441.15</ele>
        <time>2019-09-14T06:11:12Z</time>
      </trkpt>
      <trkpt lat="42.85373" lon="0.27257">
        <ele>1441.63</ele>
        <time>2019-09-14T06:11:14Z</time>
      </trkpt>
      <trkpt lat="42.85378" lon="0.27252">
        <ele>1441.63</ele>
        <time>2019-09-14T06:11:19Z</time>
      </trkpt>
      <trkpt lat="42.85381" lon="0.27241">
        <ele>1442.11</ele>
        <time>2019-09-14T06:11:26Z</time>
      </trkpt>
      <trkpt lat="42.85384" lon="0.27237">
        <ele>1442.6</ele>
        <time>2019-09-14T06:11:31Z</time>
      </trkpt>
      <trkpt lat="42.85386" lon="0.27235">
        <ele>1442.6</ele>
        <time>2019-09-14T06:11:33Z</time>
      </trkpt>
      <trkpt lat="42.85392" lon="0.27225">
        <ele>1443.08</ele>
        <time>2019-09-14T06:11:40Z</time>
      </trkpt>
      <trkpt lat="42.85395" lon="0.27223">
        <ele>1443.56</ele>
        <time>2019-09-14T06:11:43Z</time>
      </trkpt>
      <trkpt lat="42.85397" lon="0.2722">
        <ele>1443.56</ele>
        <time>2019-09-14T06:11:46Z</time>
      </trkpt>
      <trkpt lat="42.85405" lon="0.27212">
        <ele>1444.04</ele>
        <time>2019-09-14T06:11:54Z</time>
      </trkpt>
      <trkpt lat="42.85406" lon="0.27211">
        <ele>1444.04</ele>
        <time>2019-09-14T06:11:55Z</time>
      </trkpt>
      <trkpt lat="42.85413" lon="0.27202">
        <ele>1444.04</ele>
        <time>2019-09-14T06:12:02Z</time>
      </trkpt>
      <trkpt lat="42.8542" lon="0.27193">
        <ele>1444.52</ele>
        <time>2019-09-14T06:12:10Z</time>
      </trkpt>
      <trkpt lat="42.85423" lon="0.27182">
        <ele>1445</ele>
        <time>2019-09-14T06:12:17Z</time>
      </trkpt>
      <trkpt lat="42.85423" lon="0.27181">
        <ele>1445</ele>
        <time>2019-09-14T06:12:18Z</time>
      </trkpt>
      <trkpt lat="42.85425" lon="0.27178">
        <ele>1445</ele>
        <time>2019-09-14T06:12:20Z</time>
      </trkpt>
      <trkpt lat="42.85429" lon="0.2717">
        <ele>1445.48</ele>
        <time>2019-09-14T06:12:26Z</time>
      </trkpt>
      <trkpt lat="42.85432" lon="0.27165">
        <ele>1446.44</ele>
        <time>2019-09-14T06:12:31Z</time>
      </trkpt>
      <trkpt lat="42.85435" lon="0.27159">
        <ele>1446.44</ele>
        <time>2019-09-14T06:12:36Z</time>
      </trkpt>
      <trkpt lat="42.85438" lon="0.27154">
        <ele>1447.4</ele>
        <time>2019-09-14T06:12:41Z</time>
      </trkpt>
      <trkpt lat="42.85443" lon="0.2715">
        <ele>1448.36</ele>
        <time>2019-09-14T06:12:47Z</time>
      </trkpt>
      <trkpt lat="42.85445" lon="0.27146">
        <ele>1448.84</ele>
        <time>2019-09-14T06:12:50Z</time>
      </trkpt>
      <trkpt lat="42.85446" lon="0.27144">
        <ele>1449.32</ele>
        <time>2019-09-14T06:12:52Z</time>
      </trkpt>
      <trkpt lat="42.85451" lon="0.27137">
        <ele>1450.29</ele>
        <time>2019-09-14T06:12:59Z</time>
      </trkpt>
      <trkpt lat="42.85454" lon="0.27135">
        <ele>1450.77</ele>
        <time>2019-09-14T06:13:02Z</time>
      </trkpt>
      <trkpt lat="42.85458" lon="0.27129">
        <ele>1451.73</ele>
        <time>2019-09-14T06:13:09Z</time>
      </trkpt>
      <trkpt lat="42.8546" lon="0.27126">
        <ele>1452.21</ele>
        <time>2019-09-14T06:13:13Z</time>
      </trkpt>
      <trkpt lat="42.85468" lon="0.2712">
        <ele>1453.17</ele>
        <time>2019-09-14T06:13:21Z</time>
      </trkpt>
      <trkpt lat="42.85474" lon="0.27111">
        <ele>1454.13</ele>
        <time>2019-09-14T06:13:29Z</time>
      </trkpt>
      <trkpt lat="42.85478" lon="0.27105">
        <ele>1454.61</ele>
        <time>2019-09-14T06:13:35Z</time>
      </trkpt>
      <trkpt lat="42.85483" lon="0.27099">
        <ele>1455.57</ele>
        <time>2019-09-14T06:13:42Z</time>
      </trkpt>
      <trkpt lat="42.85489" lon="0.27094">
        <ele>1456.53</ele>
        <time>2019-09-14T06:13:48Z</time>
      </trkpt>
      <trkpt lat="42.8549" lon="0.27094">
        <ele>1456.53</ele>
        <time>2019-09-14T06:13:49Z</time>
      </trkpt>
      <trkpt lat="42.85496" lon="0.27088">
        <ele>1457.5</ele>
        <time>2019-09-14T06:13:56Z</time>
      </trkpt>
      <trkpt lat="42.85503" lon="0.2708">
        <ele>1458.94</ele>
        <time>2019-09-14T06:14:05Z</time>
      </trkpt>
      <trkpt lat="42.85504" lon="0.27075">
        <ele>1459.42</ele>
        <time>2019-09-14T06:14:07Z</time>
      </trkpt>
      <trkpt lat="42.85509" lon="0.27067">
        <ele>1460.38</ele>
        <time>2019-09-14T06:14:13Z</time>
      </trkpt>
      <trkpt lat="42.85513" lon="0.27055">
        <ele>1461.34</ele>
        <time>2019-09-14T06:14:21Z</time>
      </trkpt>
      <trkpt lat="42.85515" lon="0.2705">
        <ele>1461.82</ele>
        <time>2019-09-14T06:14:25Z</time>
      </trkpt>
      <trkpt lat="42.85519" lon="0.27037">
        <ele>1463.26</ele>
        <time>2019-09-14T06:14:33Z</time>
      </trkpt>
      <trkpt lat="42.85521" lon="0.27029">
        <ele>1464.23</ele>
        <time>2019-09-14T06:14:39Z</time>
      </trkpt>
      <trkpt lat="42.85525" lon="0.2702">
        <ele>1466.15</ele>
        <time>2019-09-14T06:14:47Z</time>
      </trkpt>
      <trkpt lat="42.85527" lon="0.27011">
        <ele>1468.55</ele>
        <time>2019-09-14T06:14:54Z</time>
      </trkpt>
      <trkpt lat="42.8553" lon="0.27003">
        <ele>1468.55</ele>
        <time>2019-09-14T06:15:01Z</time>
      </trkpt>
      <trkpt lat="42.85534" lon="0.26999">
        <ele>1469.51</ele>
        <time>2019-09-14T06:15:07Z</time>
      </trkpt>
      <trkpt lat="42.85538" lon="0.26991">
        <ele>1470.95</ele>
        <time>2019-09-14T06:15:14Z</time>
      </trkpt>
      <trkpt lat="42.8554" lon="0.26988">
        <ele>1471.44</ele>
        <time>2019-09-14T06:15:17Z</time>
      </trkpt>
      <trkpt lat="42.85545" lon="0.26982">
        <ele>1472.4</ele>
        <time>2019-09-14T06:15:24Z</time>
      </trkpt>
      <trkpt lat="42.85551" lon="0.26976">
        <ele>1473.36</ele>
        <time>2019-09-14T06:15:31Z</time>
      </trkpt>
      <trkpt lat="42.85556" lon="0.26968">
        <ele>1474.8</ele>
        <time>2019-09-14T06:15:38Z</time>
      </trkpt>
      <trkpt lat="42.85561" lon="0.26962">
        <ele>1475.76</ele>
        <time>2019-09-14T06:15:45Z</time>
      </trkpt>
      <trkpt lat="42.85569" lon="0.26955">
        <ele>1477.2</ele>
        <time>2019-09-14T06:15:54Z</time>
      </trkpt>
      <trkpt lat="42.85573" lon="0.26951">
        <ele>1478.16</ele>
        <time>2019-09-14T06:16:00Z</time>
      </trkpt>
      <trkpt lat="42.85576" lon="0.26948">
        <ele>1478.65</ele>
        <time>2019-09-14T06:16:04Z</time>
      </trkpt>
      <trkpt lat="42.85583" lon="0.26943">
        <ele>1480.09</ele>
        <time>2019-09-14T06:16:12Z</time>
      </trkpt>
      <trkpt lat="42.85588" lon="0.26939">
        <ele>1481.05</ele>
        <time>2019-09-14T06:16:18Z</time>
      </trkpt>
      <trkpt lat="42.8559" lon="0.26938">
        <ele>1481.53</ele>
        <time>2019-09-14T06:16:21Z</time>
      </trkpt>
      <trkpt lat="42.85593" lon="0.26934">
        <ele>1482.01</ele>
        <time>2019-09-14T06:16:25Z</time>
      </trkpt>
      <trkpt lat="42.85596" lon="0.26926">
        <ele>1482.97</ele>
        <time>2019-09-14T06:16:31Z</time>
      </trkpt>
      <trkpt lat="42.85598" lon="0.26921">
        <ele>1484.41</ele>
        <time>2019-09-14T06:16:37Z</time>
      </trkpt>
      <trkpt lat="42.856" lon="0.26912">
        <ele>1485.37</ele>
        <time>2019-09-14T06:16:43Z</time>
      </trkpt>
      <trkpt lat="42.85601" lon="0.26911">
        <ele>1485.37</ele>
        <time>2019-09-14T06:16:44Z</time>
      </trkpt>
      <trkpt lat="42.85601" lon="0.26909">
        <ele>1485.85</ele>
        <time>2019-09-14T06:16:45Z</time>
      </trkpt>
      <trkpt lat="42.85602" lon="0.26902">
        <ele>1486.82</ele>
        <time>2019-09-14T06:16:50Z</time>
      </trkpt>
      <trkpt lat="42.85604" lon="0.26898">
        <ele>1488.26</ele>
        <time>2019-09-14T06:16:54Z</time>
      </trkpt>
      <trkpt lat="42.85606" lon="0.26892">
        <ele>1488.26</ele>
        <time>2019-09-14T06:16:59Z</time>
      </trkpt>
      <trkpt lat="42.85608" lon="0.26882">
        <ele>1489.7</ele>
        <time>2019-09-14T06:17:05Z</time>
      </trkpt>
      <trkpt lat="42.8561" lon="0.26877">
        <ele>1490.66</ele>
        <time>2019-09-14T06:17:12Z</time>
      </trkpt>
      <trkpt lat="42.85614" lon="0.26875">
        <ele>1492.58</ele>
        <time>2019-09-14T06:17:18Z</time>
      </trkpt>
      <trkpt lat="42.85618" lon="0.26873">
        <ele>1493.55</ele>
        <time>2019-09-14T06:17:24Z</time>
      </trkpt>
      <trkpt lat="42.85622" lon="0.26871">
        <ele>1494.03</ele>
        <time>2019-09-14T06:17:29Z</time>
      </trkpt>
      <trkpt lat="42.85624" lon="0.26868">
        <ele>1494.99</ele>
        <time>2019-09-14T06:17:34Z</time>
      </trkpt>
      <trkpt lat="42.85629" lon="0.26864">
        <ele>1495.95</ele>
        <time>2019-09-14T06:17:40Z</time>
      </trkpt>
      <trkpt lat="42.85635" lon="0.26861">
        <ele>1497.87</ele>
        <time>2019-09-14T06:17:48Z</time>
      </trkpt>
      <trkpt lat="42.85641" lon="0.26859">
        <ele>1499.31</ele>
        <time>2019-09-14T06:17:56Z</time>
      </trkpt>
      <trkpt lat="42.85644" lon="0.26856">
        <ele>1500.76</ele>
        <time>2019-09-14T06:18:02Z</time>
      </trkpt>
      <trkpt lat="42.85648" lon="0.26852">
        <ele>1502.2</ele>
        <time>2019-09-14T06:18:10Z</time>
      </trkpt>
      <trkpt lat="42.85651" lon="0.26849">
        <ele>1503.64</ele>
        <time>2019-09-14T06:18:16Z</time>
      </trkpt>
      <trkpt lat="42.85651" lon="0.26848">
        <ele>1503.64</ele>
        <time>2019-09-14T06:18:17Z</time>
      </trkpt>
      <trkpt lat="42.85654" lon="0.26843">
        <ele>1505.08</ele>
        <time>2019-09-14T06:18:24Z</time>
      </trkpt>
      <trkpt lat="42.85658" lon="0.26841">
        <ele>1506.52</ele>
        <time>2019-09-14T06:18:30Z</time>
      </trkpt>
      <trkpt lat="42.85661" lon="0.26833">
        <ele>1507.97</ele>
        <time>2019-09-14T06:18:37Z</time>
      </trkpt>
      <trkpt lat="42.85664" lon="0.26826">
        <ele>1508.93</ele>
        <time>2019-09-14T06:18:44Z</time>
      </trkpt>
      <trkpt lat="42.85666" lon="0.2682">
        <ele>1510.37</ele>
        <time>2019-09-14T06:18:51Z</time>
      </trkpt>
      <trkpt lat="42.85668" lon="0.26811">
        <ele>1511.81</ele>
        <time>2019-09-14T06:18:59Z</time>
      </trkpt>
      <trkpt lat="42.85669" lon="0.26806">
        <ele>1513.25</ele>
        <time>2019-09-14T06:19:05Z</time>
      </trkpt>
      <trkpt lat="42.85672" lon="0.268">
        <ele>1515.18</ele>
        <time>2019-09-14T06:19:12Z</time>
      </trkpt>
      <trkpt lat="42.85675" lon="0.26793">
        <ele>1516.14</ele>
        <time>2019-09-14T06:19:19Z</time>
      </trkpt>
      <trkpt lat="42.85678" lon="0.26788">
        <ele>1517.58</ele>
        <time>2019-09-14T06:19:26Z</time>
      </trkpt>
      <trkpt lat="42.85682" lon="0.26784">
        <ele>1519.02</ele>
        <time>2019-09-14T06:19:32Z</time>
      </trkpt>
      <trkpt lat="42.85684" lon="0.26779">
        <ele>1519.98</ele>
        <time>2019-09-14T06:19:38Z</time>
      </trkpt>
      <trkpt lat="42.85684" lon="0.2677">
        <ele>1521.42</ele>
        <time>2019-09-14T06:19:45Z</time>
      </trkpt>
      <trkpt lat="42.85686" lon="0.26766">
        <ele>1522.39</ele>
        <time>2019-09-14T06:19:50Z</time>
      </trkpt>
      <trkpt lat="42.85688" lon="0.26761">
        <ele>1523.83</ele>
        <time>2019-09-14T06:19:56Z</time>
      </trkpt>
      <trkpt lat="42.85688" lon="0.26758">
        <ele>1524.31</ele>
        <time>2019-09-14T06:19:58Z</time>
      </trkpt>
      <trkpt lat="42.8569" lon="0.26751">
        <ele>1525.27</ele>
        <time>2019-09-14T06:20:05Z</time>
      </trkpt>
      <trkpt lat="42.85694" lon="0.26747">
        <ele>1527.19</ele>
        <time>2019-09-14T06:20:13Z</time>
      </trkpt>
      <trkpt lat="42.85694" lon="0.2674">
        <ele>1528.63</ele>
        <time>2019-09-14T06:20:21Z</time>
      </trkpt>
      <trkpt lat="42.85695" lon="0.26733">
        <ele>1530.08</ele>
        <time>2019-09-14T06:20:28Z</time>
      </trkpt>
      <trkpt lat="42.85697" lon="0.26725">
        <ele>1531.52</ele>
        <time>2019-09-14T06:20:35Z</time>
      </trkpt>
      <trkpt lat="42.85701" lon="0.26723">
        <ele>1532</ele>
        <time>2019-09-14T06:20:40Z</time>
      </trkpt>
      <trkpt lat="42.85708" lon="0.26721">
        <ele>1533.44</ele>
        <time>2019-09-14T06:20:48Z</time>
      </trkpt>
      <trkpt lat="42.85712" lon="0.26716">
        <ele>1534.4</ele>
        <time>2019-09-14T06:20:54Z</time>
      </trkpt>
      <trkpt lat="42.85713" lon="0.26713">
        <ele>1534.88</ele>
        <time>2019-09-14T06:20:56Z</time>
      </trkpt>
      <trkpt lat="42.85717" lon="0.26705">
        <ele>1535.84</ele>
        <time>2019-09-14T06:21:04Z</time>
      </trkpt>
      <trkpt lat="42.8572" lon="0.26701">
        <ele>1536.32</ele>
        <time>2019-09-14T06:21:09Z</time>
      </trkpt>
      <trkpt lat="42.85725" lon="0.26701">
        <ele>1537.77</ele>
        <time>2019-09-14T06:21:17Z</time>
      </trkpt>
      <trkpt lat="42.85727" lon="0.267">
        <ele>1538.25</ele>
        <time>2019-09-14T06:21:21Z</time>
      </trkpt>
      <trkpt lat="42.85727" lon="0.26695">
        <ele>1539.21</ele>
        <time>2019-09-14T06:21:26Z</time>
      </trkpt>
      <trkpt lat="42.85728" lon="0.26687">
        <ele>1538.73</ele>
        <time>2019-09-14T06:21:34Z</time>
      </trkpt>
      <trkpt lat="42.85728" lon="0.26679">
        <ele>1540.17</ele>
        <time>2019-09-14T06:21:41Z</time>
      </trkpt>
      <trkpt lat="42.85727" lon="0.26674">
        <ele>1540.65</ele>
        <time>2019-09-14T06:21:45Z</time>
      </trkpt>
      <trkpt lat="42.85727" lon="0.26667">
        <ele>1541.13</ele>
        <time>2019-09-14T06:21:50Z</time>
      </trkpt>
      <trkpt lat="42.85728" lon="0.26664">
        <ele>1542.09</ele>
        <time>2019-09-14T06:21:53Z</time>
      </trkpt>
      <trkpt lat="42.85729" lon="0.2666">
        <ele>1542.57</ele>
        <time>2019-09-14T06:21:56Z</time>
      </trkpt>
      <trkpt lat="42.85733" lon="0.26651">
        <ele>1542.57</ele>
        <time>2019-09-14T06:22:03Z</time>
      </trkpt>
      <trkpt lat="42.85737" lon="0.26642">
        <ele>1543.53</ele>
        <time>2019-09-14T06:22:10Z</time>
      </trkpt>
      <trkpt lat="42.8574" lon="0.26631">
        <ele>1544.5</ele>
        <time>2019-09-14T06:22:19Z</time>
      </trkpt>
      <trkpt lat="42.85741" lon="0.26625">
        <ele>1545.46</ele>
        <time>2019-09-14T06:22:24Z</time>
      </trkpt>
      <trkpt lat="42.85742" lon="0.26615">
        <ele>1546.9</ele>
        <time>2019-09-14T06:22:32Z</time>
      </trkpt>
      <trkpt lat="42.85743" lon="0.26613">
        <ele>1546.9</ele>
        <time>2019-09-14T06:22:34Z</time>
      </trkpt>
      <trkpt lat="42.85746" lon="0.26611">
        <ele>1548.34</ele>
        <time>2019-09-14T06:22:41Z</time>
      </trkpt>
      <trkpt lat="42.85749" lon="0.26607">
        <ele>1549.78</ele>
        <time>2019-09-14T06:22:48Z</time>
      </trkpt>
      <trkpt lat="42.85751" lon="0.26602">
        <ele>1551.71</ele>
        <time>2019-09-14T06:22:56Z</time>
      </trkpt>
      <trkpt lat="42.85753" lon="0.26597">
        <ele>1553.15</ele>
        <time>2019-09-14T06:23:02Z</time>
      </trkpt>
      <trkpt lat="42.85754" lon="0.26593">
        <ele>1553.63</ele>
        <time>2019-09-14T06:23:09Z</time>
      </trkpt>
      <trkpt lat="42.85757" lon="0.26586">
        <ele>1555.07</ele>
        <time>2019-09-14T06:23:17Z</time>
      </trkpt>
      <trkpt lat="42.85757" lon="0.26583">
        <ele>1555.55</ele>
        <time>2019-09-14T06:23:20Z</time>
      </trkpt>
      <trkpt lat="42.85759" lon="0.26577">
        <ele>1556.99</ele>
        <time>2019-09-14T06:23:27Z</time>
      </trkpt>
      <trkpt lat="42.85761" lon="0.26572">
        <ele>1558.43</ele>
        <time>2019-09-14T06:23:33Z</time>
      </trkpt>
      <trkpt lat="42.85761" lon="0.2657">
        <ele>1558.92</ele>
        <time>2019-09-14T06:23:36Z</time>
      </trkpt>
      <trkpt lat="42.85765" lon="0.26568">
        <ele>1560.36</ele>
        <time>2019-09-14T06:23:44Z</time>
      </trkpt>
      <trkpt lat="42.85766" lon="0.26563">
        <ele>1562.28</ele>
        <time>2019-09-14T06:23:51Z</time>
      </trkpt>
      <trkpt lat="42.85768" lon="0.26556">
        <ele>1563.24</ele>
        <time>2019-09-14T06:23:59Z</time>
      </trkpt>
      <trkpt lat="42.85769" lon="0.2655">
        <ele>1564.68</ele>
        <time>2019-09-14T06:24:05Z</time>
      </trkpt>
      <trkpt lat="42.85771" lon="0.26548">
        <ele>1565.64</ele>
        <time>2019-09-14T06:24:12Z</time>
      </trkpt>
      <trkpt lat="42.85773" lon="0.26542">
        <ele>1567.09</ele>
        <time>2019-09-14T06:24:19Z</time>
      </trkpt>
      <trkpt lat="42.85777" lon="0.26539">
        <ele>1568.53</ele>
        <time>2019-09-14T06:24:26Z</time>
      </trkpt>
      <trkpt lat="42.85778" lon="0.26535">
        <ele>1569.97</ele>
        <time>2019-09-14T06:24:32Z</time>
      </trkpt>
      <trkpt lat="42.85779" lon="0.26528">
        <ele>1570.93</ele>
        <time>2019-09-14T06:24:38Z</time>
      </trkpt>
      <trkpt lat="42.85782" lon="0.26522">
        <ele>1572.85</ele>
        <time>2019-09-14T06:24:47Z</time>
      </trkpt>
      <trkpt lat="42.85783" lon="0.26515">
        <ele>1575.26</ele>
        <time>2019-09-14T06:24:55Z</time>
      </trkpt>
      <trkpt lat="42.85786" lon="0.26511">
        <ele>1575.74</ele>
        <time>2019-09-14T06:25:02Z</time>
      </trkpt>
      <trkpt lat="42.85788" lon="0.26507">
        <ele>1577.18</ele>
        <time>2019-09-14T06:25:09Z</time>
      </trkpt>
      <trkpt lat="42.8579" lon="0.26504">
        <ele>1578.62</ele>
        <time>2019-09-14T06:25:16Z</time>
      </trkpt>
      <trkpt lat="42.85791" lon="0.26496">
        <ele>1580.06</ele>
        <time>2019-09-14T06:25:23Z</time>
      </trkpt>
      <trkpt lat="42.85794" lon="0.26489">
        <ele>1581.03</ele>
        <time>2019-09-14T06:25:30Z</time>
      </trkpt>
      <trkpt lat="42.85797" lon="0.26484">
        <ele>1582.47</ele>
        <time>2019-09-14T06:25:37Z</time>
      </trkpt>
      <trkpt lat="42.85798" lon="0.26477">
        <ele>1584.39</ele>
        <time>2019-09-14T06:25:44Z</time>
      </trkpt>
      <trkpt lat="42.85801" lon="0.26473">
        <ele>1585.35</ele>
        <time>2019-09-14T06:25:51Z</time>
      </trkpt>
      <trkpt lat="42.85804" lon="0.26468">
        <ele>1586.79</ele>
        <time>2019-09-14T06:25:58Z</time>
      </trkpt>
      <trkpt lat="42.85806" lon="0.2646">
        <ele>1588.72</ele>
        <time>2019-09-14T06:26:06Z</time>
      </trkpt>
      <trkpt lat="42.85807" lon="0.26453">
        <ele>1589.68</ele>
        <time>2019-09-14T06:26:12Z</time>
      </trkpt>
      <trkpt lat="42.85808" lon="0.2645">
        <ele>1590.16</ele>
        <time>2019-09-14T06:26:14Z</time>
      </trkpt>
      <trkpt lat="42.85809" lon="0.26446">
        <ele>1591.12</ele>
        <time>2019-09-14T06:26:20Z</time>
      </trkpt>
      <trkpt lat="42.85809" lon="0.26441">
        <ele>1592.56</ele>
        <time>2019-09-14T06:26:26Z</time>
      </trkpt>
      <trkpt lat="42.85812" lon="0.26432">
        <ele>1594</ele>
        <time>2019-09-14T06:26:34Z</time>
      </trkpt>
      <trkpt lat="42.85813" lon="0.26424">
        <ele>1595.45</ele>
        <time>2019-09-14T06:26:41Z</time>
      </trkpt>
      <trkpt lat="42.85815" lon="0.26414">
        <ele>1596.41</ele>
        <time>2019-09-14T06:26:48Z</time>
      </trkpt>
      <trkpt lat="42.85816" lon="0.26411">
        <ele>1598.81</ele>
        <time>2019-09-14T06:26:56Z</time>
      </trkpt>
      <trkpt lat="42.85818" lon="0.26408">
        <ele>1599.77</ele>
        <time>2019-09-14T06:27:01Z</time>
      </trkpt>
      <trkpt lat="42.85821" lon="0.26401">
        <ele>1601.21</ele>
        <time>2019-09-14T06:27:09Z</time>
      </trkpt>
      <trkpt lat="42.85825" lon="0.26397">
        <ele>1602.66</ele>
        <time>2019-09-14T06:27:15Z</time>
      </trkpt>
      <trkpt lat="42.85828" lon="0.26394">
        <ele>1604.1</ele>
        <time>2019-09-14T06:27:22Z</time>
      </trkpt>
      <trkpt lat="42.85831" lon="0.26392">
        <ele>1605.54</ele>
        <time>2019-09-14T06:27:28Z</time>
      </trkpt>
      <trkpt lat="42.85833" lon="0.26388">
        <ele>1606.98</ele>
        <time>2019-09-14T06:27:35Z</time>
      </trkpt>
      <trkpt lat="42.85836" lon="0.26383">
        <ele>1608.42</ele>
        <time>2019-09-14T06:27:42Z</time>
      </trkpt>
      <trkpt lat="42.85839" lon="0.26377">
        <ele>1609.86</ele>
        <time>2019-09-14T06:27:50Z</time>
      </trkpt>
      <trkpt lat="42.85841" lon="0.26374">
        <ele>1611.31</ele>
        <time>2019-09-14T06:27:56Z</time>
      </trkpt>
      <trkpt lat="42.85843" lon="0.26369">
        <ele>1612.27</ele>
        <time>2019-09-14T06:28:02Z</time>
      </trkpt>
      <trkpt lat="42.85845" lon="0.26366">
        <ele>1613.23</ele>
        <time>2019-09-14T06:28:07Z</time>
      </trkpt>
      <trkpt lat="42.8585" lon="0.26362">
        <ele>1614.67</ele>
        <time>2019-09-14T06:28:15Z</time>
      </trkpt>
      <trkpt lat="42.85853" lon="0.2636">
        <ele>1616.11</ele>
        <time>2019-09-14T06:28:22Z</time>
      </trkpt>
      <trkpt lat="42.85853" lon="0.26359">
        <ele>1616.59</ele>
        <time>2019-09-14T06:28:23Z</time>
      </trkpt>
      <trkpt lat="42.85856" lon="0.26355">
        <ele>1618.52</ele>
        <time>2019-09-14T06:28:31Z</time>
      </trkpt>
      <trkpt lat="42.85859" lon="0.26353">
        <ele>1619.96</ele>
        <time>2019-09-14T06:28:37Z</time>
      </trkpt>
      <trkpt lat="42.85862" lon="0.26354">
        <ele>1621.4</ele>
        <time>2019-09-14T06:28:44Z</time>
      </trkpt>
      <trkpt lat="42.85866" lon="0.26352">
        <ele>1622.36</ele>
        <time>2019-09-14T06:28:50Z</time>
      </trkpt>
      <trkpt lat="42.8587" lon="0.2635">
        <ele>1624.28</ele>
        <time>2019-09-14T06:28:57Z</time>
      </trkpt>
      <trkpt lat="42.85874" lon="0.26347">
        <ele>1625.25</ele>
        <time>2019-09-14T06:29:04Z</time>
      </trkpt>
      <trkpt lat="42.85876" lon="0.26343">
        <ele>1626.69</ele>
        <time>2019-09-14T06:29:10Z</time>
      </trkpt>
      <trkpt lat="42.8588" lon="0.26338">
        <ele>1627.65</ele>
        <time>2019-09-14T06:29:17Z</time>
      </trkpt>
      <trkpt lat="42.85882" lon="0.26336">
        <ele>1628.61</ele>
        <time>2019-09-14T06:29:24Z</time>
      </trkpt>
      <trkpt lat="42.85882" lon="0.26336">
        <ele>1627.65</ele>
        <time>2019-09-14T06:29:30Z</time>
      </trkpt>
      <trkpt lat="42.85882" lon="0.26335">
        <ele>1627.17</ele>
        <time>2019-09-14T06:29:47Z</time>
      </trkpt>
      <trkpt lat="42.85881" lon="0.26334">
        <ele>1627.17</ele>
        <time>2019-09-14T06:30:06Z</time>
      </trkpt>
      <trkpt lat="42.85881" lon="0.26334">
        <ele>1627.17</ele>
        <time>2019-09-14T06:30:22Z</time>
      </trkpt>
      <trkpt lat="42.85881" lon="0.26334">
        <ele>1627.17</ele>
        <time>2019-09-14T06:30:41Z</time>
      </trkpt>
      <trkpt lat="42.85881" lon="0.26332">
        <ele>1627.17</ele>
        <time>2019-09-14T06:31:00Z</time>
      </trkpt>
      <trkpt lat="42.85879" lon="0.26331">
        <ele>1627.65</ele>
        <time>2019-09-14T06:31:06Z</time>
      </trkpt>
      <trkpt lat="42.85879" lon="0.26331">
        <ele>1627.65</ele>
        <time>2019-09-14T06:31:13Z</time>
      </trkpt>
      <trkpt lat="42.85879" lon="0.26331">
        <ele>1628.13</ele>
        <time>2019-09-14T06:31:21Z</time>
      </trkpt>
      <trkpt lat="42.85879" lon="0.26331">
        <ele>1628.13</ele>
        <time>2019-09-14T06:31:30Z</time>
      </trkpt>
      <trkpt lat="42.8588" lon="0.26331">
        <ele>1628.13</ele>
        <time>2019-09-14T06:31:41Z</time>
      </trkpt>
      <trkpt lat="42.8588" lon="0.26331">
        <ele>1627.65</ele>
        <time>2019-09-14T06:31:54Z</time>
      </trkpt>
      <trkpt lat="42.8588" lon="0.26331">
        <ele>1628.13</ele>
        <time>2019-09-14T06:32:04Z</time>
      </trkpt>
      <trkpt lat="42.85881" lon="0.2633">
        <ele>1628.13</ele>
        <time>2019-09-14T06:32:13Z</time>
      </trkpt>
      <trkpt lat="42.8588" lon="0.26329">
        <ele>1628.61</ele>
        <time>2019-09-14T06:32:20Z</time>
      </trkpt>
      <trkpt lat="42.8588" lon="0.2633">
        <ele>1628.61</ele>
        <time>2019-09-14T06:32:30Z</time>
      </trkpt>
      <trkpt lat="42.8588" lon="0.2633">
        <ele>1628.13</ele>
        <time>2019-09-14T06:32:42Z</time>
      </trkpt>
      <trkpt lat="42.85881" lon="0.2633">
        <ele>1629.09</ele>
        <time>2019-09-14T06:32:56Z</time>
      </trkpt>
      <trkpt lat="42.85881" lon="0.2633">
        <ele>1628.13</ele>
        <time>2019-09-14T06:33:14Z</time>
      </trkpt>
      <trkpt lat="42.85882" lon="0.26328">
        <ele>1628.61</ele>
        <time>2019-09-14T06:33:22Z</time>
      </trkpt>
      <trkpt lat="42.85881" lon="0.26328">
        <ele>1629.09</ele>
        <time>2019-09-14T06:33:37Z</time>
      </trkpt>
      <trkpt lat="42.85882" lon="0.26327">
        <ele>1629.09</ele>
        <time>2019-09-14T06:33:46Z</time>
      </trkpt>
      <trkpt lat="42.85886" lon="0.26324">
        <ele>1630.05</ele>
        <time>2019-09-14T06:33:51Z</time>
      </trkpt>
      <trkpt lat="42.8589" lon="0.26321">
        <ele>1631.49</ele>
        <time>2019-09-14T06:33:57Z</time>
      </trkpt>
      <trkpt lat="42.85893" lon="0.26316">
        <ele>1632.94</ele>
        <time>2019-09-14T06:34:03Z</time>
      </trkpt>
      <trkpt lat="42.85897" lon="0.26312">
        <ele>1633.9</ele>
        <time>2019-09-14T06:34:09Z</time>
      </trkpt>
      <trkpt lat="42.85902" lon="0.26309">
        <ele>1635.34</ele>
        <time>2019-09-14T06:34:15Z</time>
      </trkpt>
      <trkpt lat="42.85907" lon="0.26304">
        <ele>1636.3</ele>
        <time>2019-09-14T06:34:21Z</time>
      </trkpt>
      <trkpt lat="42.85913" lon="0.26299">
        <ele>1638.22</ele>
        <time>2019-09-14T06:34:28Z</time>
      </trkpt>
      <trkpt lat="42.85914" lon="0.26298">
        <ele>1638.22</ele>
        <time>2019-09-14T06:34:29Z</time>
      </trkpt>
      <trkpt lat="42.85921" lon="0.26299">
        <ele>1639.67</ele>
        <time>2019-09-14T06:34:36Z</time>
      </trkpt>
      <trkpt lat="42.85926" lon="0.26298">
        <ele>1640.63</ele>
        <time>2019-09-14T06:34:42Z</time>
      </trkpt>
      <trkpt lat="42.85931" lon="0.26297">
        <ele>1642.55</ele>
        <time>2019-09-14T06:34:50Z</time>
      </trkpt>
      <trkpt lat="42.85937" lon="0.26294">
        <ele>1643.51</ele>
        <time>2019-09-14T06:34:59Z</time>
      </trkpt>
      <trkpt lat="42.85938" lon="0.26293">
        <ele>1644.95</ele>
        <time>2019-09-14T06:35:01Z</time>
      </trkpt>
      <trkpt lat="42.85944" lon="0.26289">
        <ele>1643.99</ele>
        <time>2019-09-14T06:35:08Z</time>
      </trkpt>
      <trkpt lat="42.85948" lon="0.26286">
        <ele>1644.95</ele>
        <time>2019-09-14T06:35:14Z</time>
      </trkpt>
      <trkpt lat="42.85956" lon="0.26283">
        <ele>1645.91</ele>
        <time>2019-09-14T06:35:21Z</time>
      </trkpt>
      <trkpt lat="42.85962" lon="0.26281">
        <ele>1647.36</ele>
        <time>2019-09-14T06:35:28Z</time>
      </trkpt>
      <trkpt lat="42.85964" lon="0.26281">
        <ele>1647.36</ele>
        <time>2019-09-14T06:35:38Z</time>
      </trkpt>
      <trkpt lat="42.85963" lon="0.2628">
        <ele>1647.36</ele>
        <time>2019-09-14T06:35:48Z</time>
      </trkpt>
      <trkpt lat="42.85968" lon="0.26279">
        <ele>1648.32</ele>
        <time>2019-09-14T06:35:53Z</time>
      </trkpt>
      <trkpt lat="42.85974" lon="0.2628">
        <ele>1649.76</ele>
        <time>2019-09-14T06:36:01Z</time>
      </trkpt>
      <trkpt lat="42.85974" lon="0.26279">
        <ele>1650.24</ele>
        <time>2019-09-14T06:36:07Z</time>
      </trkpt>
      <trkpt lat="42.85975" lon="0.26279">
        <ele>1650.72</ele>
        <time>2019-09-14T06:36:14Z</time>
      </trkpt>
      <trkpt lat="42.85973" lon="0.26278">
        <ele>1651.2</ele>
        <time>2019-09-14T06:36:33Z</time>
      </trkpt>
      <trkpt lat="42.85979" lon="0.26274">
        <ele>1652.16</ele>
        <time>2019-09-14T06:36:40Z</time>
      </trkpt>
      <trkpt lat="42.85985" lon="0.26274">
        <ele>1653.12</ele>
        <time>2019-09-14T06:36:47Z</time>
      </trkpt>
      <trkpt lat="42.8599" lon="0.26269">
        <ele>1654.09</ele>
        <time>2019-09-14T06:36:54Z</time>
      </trkpt>
      <trkpt lat="42.8599" lon="0.26269">
        <ele>1654.57</ele>
        <time>2019-09-14T06:37:00Z</time>
      </trkpt>
      <trkpt lat="42.85991" lon="0.26269">
        <ele>1655.05</ele>
        <time>2019-09-14T06:37:14Z</time>
      </trkpt>
      <trkpt lat="42.85992" lon="0.26268">
        <ele>1655.05</ele>
        <time>2019-09-14T06:37:15Z</time>
      </trkpt>
      <trkpt lat="42.85996" lon="0.26263">
        <ele>1656.01</ele>
        <time>2019-09-14T06:37:19Z</time>
      </trkpt>
      <trkpt lat="42.85998" lon="0.26262">
        <ele>1656.01</ele>
        <time>2019-09-14T06:37:21Z</time>
      </trkpt>
      <trkpt lat="42.86002" lon="0.26258">
        <ele>1657.93</ele>
        <time>2019-09-14T06:37:26Z</time>
      </trkpt>
      <trkpt lat="42.86004" lon="0.26255">
        <ele>1658.41</ele>
        <time>2019-09-14T06:37:29Z</time>
      </trkpt>
      <trkpt lat="42.86006" lon="0.26254">
        <ele>1658.89</ele>
        <time>2019-09-14T06:37:31Z</time>
      </trkpt>
      <trkpt lat="42.8601" lon="0.26248">
        <ele>1659.85</ele>
        <time>2019-09-14T06:37:35Z</time>
      </trkpt>
      <trkpt lat="42.86015" lon="0.26237">
        <ele>1661.3</ele>
        <time>2019-09-14T06:37:44Z</time>
      </trkpt>
      <trkpt lat="42.86017" lon="0.26232">
        <ele>1662.26</ele>
        <time>2019-09-14T06:37:48Z</time>
      </trkpt>
      <trkpt lat="42.86023" lon="0.26228">
        <ele>1663.7</ele>
        <time>2019-09-14T06:37:55Z</time>
      </trkpt>
      <trkpt lat="42.86028" lon="0.26224">
        <ele>1665.14</ele>
        <time>2019-09-14T06:38:01Z</time>
      </trkpt>
      <trkpt lat="42.86034" lon="0.26219">
        <ele>1666.58</ele>
        <time>2019-09-14T06:38:08Z</time>
      </trkpt>
      <trkpt lat="42.86041" lon="0.26216">
        <ele>1668.02</ele>
        <time>2019-09-14T06:38:16Z</time>
      </trkpt>
      <trkpt lat="42.86046" lon="0.26213">
        <ele>1668.99</ele>
        <time>2019-09-14T06:38:22Z</time>
      </trkpt>
      <trkpt lat="42.8605" lon="0.2621">
        <ele>1670.43</ele>
        <time>2019-09-14T06:38:29Z</time>
      </trkpt>
      <trkpt lat="42.86055" lon="0.26206">
        <ele>1671.39</ele>
        <time>2019-09-14T06:38:35Z</time>
      </trkpt>
      <trkpt lat="42.86056" lon="0.26205">
        <ele>1671.87</ele>
        <time>2019-09-14T06:38:41Z</time>
      </trkpt>
      <trkpt lat="42.86058" lon="0.26206">
        <ele>1672.83</ele>
        <time>2019-09-14T06:38:51Z</time>
      </trkpt>
      <trkpt lat="42.86063" lon="0.26204">
        <ele>1674.27</ele>
        <time>2019-09-14T06:38:57Z</time>
      </trkpt>
      <trkpt lat="42.86069" lon="0.26206">
        <ele>1675.23</ele>
        <time>2019-09-14T06:39:03Z</time>
      </trkpt>
      <trkpt lat="42.86073" lon="0.26206">
        <ele>1676.2</ele>
        <time>2019-09-14T06:39:08Z</time>
      </trkpt>
      <trkpt lat="42.86075" lon="0.26204">
        <ele>1677.16</ele>
        <time>2019-09-14T06:39:14Z</time>
      </trkpt>
      <trkpt lat="42.86081" lon="0.262">
        <ele>1679.08</ele>
        <time>2019-09-14T06:39:23Z</time>
      </trkpt>
      <trkpt lat="42.86087" lon="0.26194">
        <ele>1680.52</ele>
        <time>2019-09-14T06:39:31Z</time>
      </trkpt>
      <trkpt lat="42.86093" lon="0.26193">
        <ele>1681.96</ele>
        <time>2019-09-14T06:39:38Z</time>
      </trkpt>
      <trkpt lat="42.86095" lon="0.26192">
        <ele>1683.41</ele>
        <time>2019-09-14T06:39:45Z</time>
      </trkpt>
      <trkpt lat="42.86097" lon="0.26192">
        <ele>1684.85</ele>
        <time>2019-09-14T06:39:52Z</time>
      </trkpt>
      <trkpt lat="42.861" lon="0.2619">
        <ele>1685.81</ele>
        <time>2019-09-14T06:39:58Z</time>
      </trkpt>
      <trkpt lat="42.86101" lon="0.2619">
        <ele>1685.81</ele>
        <time>2019-09-14T06:39:59Z</time>
      </trkpt>
      <trkpt lat="42.8611" lon="0.26189">
        <ele>1687.73</ele>
        <time>2019-09-14T06:40:07Z</time>
      </trkpt>
      <trkpt lat="42.86116" lon="0.26189">
        <ele>1688.69</ele>
        <time>2019-09-14T06:40:14Z</time>
      </trkpt>
      <trkpt lat="42.8612" lon="0.26188">
        <ele>1690.14</ele>
        <time>2019-09-14T06:40:21Z</time>
      </trkpt>
      <trkpt lat="42.86126" lon="0.26188">
        <ele>1691.58</ele>
        <time>2019-09-14T06:40:27Z</time>
      </trkpt>
      <trkpt lat="42.86131" lon="0.26188">
        <ele>1692.54</ele>
        <time>2019-09-14T06:40:33Z</time>
      </trkpt>
      <trkpt lat="42.86137" lon="0.26187">
        <ele>1693.98</ele>
        <time>2019-09-14T06:40:42Z</time>
      </trkpt>
      <trkpt lat="42.86143" lon="0.26187">
        <ele>1695.9</ele>
        <time>2019-09-14T06:40:49Z</time>
      </trkpt>
      <trkpt lat="42.86144" lon="0.26187">
        <ele>1695.9</ele>
        <time>2019-09-14T06:40:50Z</time>
      </trkpt>
      <trkpt lat="42.86148" lon="0.26189">
        <ele>1697.83</ele>
        <time>2019-09-14T06:40:57Z</time>
      </trkpt>
      <trkpt lat="42.86153" lon="0.26189">
        <ele>1698.79</ele>
        <time>2019-09-14T06:41:05Z</time>
      </trkpt>
      <trkpt lat="42.86157" lon="0.26186">
        <ele>1700.23</ele>
        <time>2019-09-14T06:41:11Z</time>
      </trkpt>
      <trkpt lat="42.86161" lon="0.26184">
        <ele>1701.19</ele>
        <time>2019-09-14T06:41:18Z</time>
      </trkpt>
      <trkpt lat="42.86163" lon="0.26183">
        <ele>1701.67</ele>
        <time>2019-09-14T06:41:20Z</time>
      </trkpt>
      <trkpt lat="42.86168" lon="0.26182">
        <ele>1703.11</ele>
        <time>2019-09-14T06:41:27Z</time>
      </trkpt>
      <trkpt lat="42.86174" lon="0.2618">
        <ele>1704.55</ele>
        <time>2019-09-14T06:41:35Z</time>
      </trkpt>
      <trkpt lat="42.86179" lon="0.26181">
        <ele>1706</ele>
        <time>2019-09-14T06:41:42Z</time>
      </trkpt>
      <trkpt lat="42.86184" lon="0.26181">
        <ele>1707.44</ele>
        <time>2019-09-14T06:41:48Z</time>
      </trkpt>
      <trkpt lat="42.86187" lon="0.26183">
        <ele>1708.88</ele>
        <time>2019-09-14T06:41:55Z</time>
      </trkpt>
      <trkpt lat="42.86191" lon="0.26181">
        <ele>1709.84</ele>
        <time>2019-09-14T06:42:01Z</time>
      </trkpt>
      <trkpt lat="42.86195" lon="0.26181">
        <ele>1711.28</ele>
        <time>2019-09-14T06:42:09Z</time>
      </trkpt>
      <trkpt lat="42.86196" lon="0.2618">
        <ele>1712.73</ele>
        <time>2019-09-14T06:42:15Z</time>
      </trkpt>
      <trkpt lat="42.86201" lon="0.26181">
        <ele>1714.65</ele>
        <time>2019-09-14T06:42:23Z</time>
      </trkpt>
      <trkpt lat="42.86207" lon="0.26181">
        <ele>1716.09</ele>
        <time>2019-09-14T06:42:31Z</time>
      </trkpt>
      <trkpt lat="42.8621" lon="0.26184">
        <ele>1717.53</ele>
        <time>2019-09-14T06:42:40Z</time>
      </trkpt>
      <trkpt lat="42.86214" lon="0.26187">
        <ele>1718.97</ele>
        <time>2019-09-14T06:42:47Z</time>
      </trkpt>
      <trkpt lat="42.86216" lon="0.26191">
        <ele>1719.94</ele>
        <time>2019-09-14T06:42:53Z</time>
      </trkpt>
      <trkpt lat="42.86217" lon="0.26195">
        <ele>1721.38</ele>
        <time>2019-09-14T06:43:01Z</time>
      </trkpt>
      <trkpt lat="42.86219" lon="0.26198">
        <ele>1722.82</ele>
        <time>2019-09-14T06:43:08Z</time>
      </trkpt>
      <trkpt lat="42.86223" lon="0.26203">
        <ele>1724.74</ele>
        <time>2019-09-14T06:43:16Z</time>
      </trkpt>
      <trkpt lat="42.86227" lon="0.26206">
        <ele>1726.18</ele>
        <time>2019-09-14T06:43:24Z</time>
      </trkpt>
      <trkpt lat="42.86231" lon="0.26207">
        <ele>1727.63</ele>
        <time>2019-09-14T06:43:31Z</time>
      </trkpt>
      <trkpt lat="42.86234" lon="0.2621">
        <ele>1729.55</ele>
        <time>2019-09-14T06:43:40Z</time>
      </trkpt>
      <trkpt lat="42.86235" lon="0.26216">
        <ele>1730.51</ele>
        <time>2019-09-14T06:43:47Z</time>
      </trkpt>
      <trkpt lat="42.86238" lon="0.26219">
        <ele>1731.95</ele>
        <time>2019-09-14T06:43:55Z</time>
      </trkpt>
      <trkpt lat="42.86238" lon="0.26219">
        <ele>1732.43</ele>
        <time>2019-09-14T06:43:56Z</time>
      </trkpt>
      <trkpt lat="42.8624" lon="0.26222">
        <ele>1733.88</ele>
        <time>2019-09-14T06:44:02Z</time>
      </trkpt>
      <trkpt lat="42.86244" lon="0.26226">
        <ele>1734.84</ele>
        <time>2019-09-14T06:44:08Z</time>
      </trkpt>
      <trkpt lat="42.86245" lon="0.2623">
        <ele>1736.28</ele>
        <time>2019-09-14T06:44:15Z</time>
      </trkpt>
      <trkpt lat="42.86248" lon="0.26232">
        <ele>1737.24</ele>
        <time>2019-09-14T06:44:22Z</time>
      </trkpt>
      <trkpt lat="42.86249" lon="0.26235">
        <ele>1738.68</ele>
        <time>2019-09-14T06:44:29Z</time>
      </trkpt>
      <trkpt lat="42.86251" lon="0.26238">
        <ele>1740.6</ele>
        <time>2019-09-14T06:44:35Z</time>
      </trkpt>
      <trkpt lat="42.86252" lon="0.26243">
        <ele>1741.08</ele>
        <time>2019-09-14T06:44:40Z</time>
      </trkpt>
      <trkpt lat="42.86252" lon="0.26248">
        <ele>1742.53</ele>
        <time>2019-09-14T06:44:47Z</time>
      </trkpt>
      <trkpt lat="42.86251" lon="0.26253">
        <ele>1743.97</ele>
        <time>2019-09-14T06:44:54Z</time>
      </trkpt>
      <trkpt lat="42.86254" lon="0.26255">
        <ele>1745.41</ele>
        <time>2019-09-14T06:45:02Z</time>
      </trkpt>
      <trkpt lat="42.86256" lon="0.26257">
        <ele>1746.85</ele>
        <time>2019-09-14T06:45:10Z</time>
      </trkpt>
      <trkpt lat="42.86258" lon="0.26263">
        <ele>1748.29</ele>
        <time>2019-09-14T06:45:18Z</time>
      </trkpt>
      <trkpt lat="42.8626" lon="0.26265">
        <ele>1750.7</ele>
        <time>2019-09-14T06:45:28Z</time>
      </trkpt>
      <trkpt lat="42.86261" lon="0.26266">
        <ele>1752.14</ele>
        <time>2019-09-14T06:45:36Z</time>
      </trkpt>
      <trkpt lat="42.86265" lon="0.26271">
        <ele>1753.58</ele>
        <time>2019-09-14T06:45:44Z</time>
      </trkpt>
      <trkpt lat="42.86271" lon="0.26276">
        <ele>1755.5</ele>
        <time>2019-09-14T06:45:53Z</time>
      </trkpt>
      <trkpt lat="42.86273" lon="0.26278">
        <ele>1757.43</ele>
        <time>2019-09-14T06:46:01Z</time>
      </trkpt>
      <trkpt lat="42.86274" lon="0.2628">
        <ele>1758.39</ele>
        <time>2019-09-14T06:46:06Z</time>
      </trkpt>
      <trkpt lat="42.86279" lon="0.26283">
        <ele>1759.83</ele>
        <time>2019-09-14T06:46:13Z</time>
      </trkpt>
      <trkpt lat="42.86281" lon="0.26288">
        <ele>1761.27</ele>
        <time>2019-09-14T06:46:21Z</time>
      </trkpt>
      <trkpt lat="42.86282" lon="0.26288">
        <ele>1762.23</ele>
        <time>2019-09-14T06:46:28Z</time>
      </trkpt>
      <trkpt lat="42.86284" lon="0.2629">
        <ele>1763.68</ele>
        <time>2019-09-14T06:46:33Z</time>
      </trkpt>
      <trkpt lat="42.86288" lon="0.26296">
        <ele>1765.12</ele>
        <time>2019-09-14T06:46:41Z</time>
      </trkpt>
      <trkpt lat="42.86291" lon="0.263">
        <ele>1766.08</ele>
        <time>2019-09-14T06:46:48Z</time>
      </trkpt>
      <trkpt lat="42.86293" lon="0.26304">
        <ele>1767.52</ele>
        <time>2019-09-14T06:46:56Z</time>
      </trkpt>
      <trkpt lat="42.86295" lon="0.26308">
        <ele>1768.96</ele>
        <time>2019-09-14T06:47:02Z</time>
      </trkpt>
      <trkpt lat="42.86298" lon="0.2631">
        <ele>1769.92</ele>
        <time>2019-09-14T06:47:08Z</time>
      </trkpt>
      <trkpt lat="42.86299" lon="0.26311">
        <ele>1770.89</ele>
        <time>2019-09-14T06:47:15Z</time>
      </trkpt>
      <trkpt lat="42.86302" lon="0.26314">
        <ele>1772.33</ele>
        <time>2019-09-14T06:47:23Z</time>
      </trkpt>
      <trkpt lat="42.86306" lon="0.26318">
        <ele>1773.77</ele>
        <time>2019-09-14T06:47:30Z</time>
      </trkpt>
      <trkpt lat="42.86309" lon="0.2632">
        <ele>1774.73</ele>
        <time>2019-09-14T06:47:36Z</time>
      </trkpt>
      <trkpt lat="42.86311" lon="0.26322">
        <ele>1776.17</ele>
        <time>2019-09-14T06:47:41Z</time>
      </trkpt>
      <trkpt lat="42.86315" lon="0.26324">
        <ele>1777.13</ele>
        <time>2019-09-14T06:47:48Z</time>
      </trkpt>
      <trkpt lat="42.86318" lon="0.26326">
        <ele>1779.06</ele>
        <time>2019-09-14T06:47:56Z</time>
      </trkpt>
      <trkpt lat="42.86323" lon="0.26333">
        <ele>1780.5</ele>
        <time>2019-09-14T06:48:04Z</time>
      </trkpt>
      <trkpt lat="42.86328" lon="0.26337">
        <ele>1781.94</ele>
        <time>2019-09-14T06:48:12Z</time>
      </trkpt>
      <trkpt lat="42.86333" lon="0.26338">
        <ele>1782.9</ele>
        <time>2019-09-14T06:48:18Z</time>
      </trkpt>
      <trkpt lat="42.86336" lon="0.26342">
        <ele>1783.86</ele>
        <time>2019-09-14T06:48:25Z</time>
      </trkpt>
      <trkpt lat="42.86339" lon="0.26343">
        <ele>1784.82</ele>
        <time>2019-09-14T06:48:30Z</time>
      </trkpt>
      <trkpt lat="42.86344" lon="0.26343">
        <ele>1786.27</ele>
        <time>2019-09-14T06:48:37Z</time>
      </trkpt>
      <trkpt lat="42.86347" lon="0.26344">
        <ele>1787.23</ele>
        <time>2019-09-14T06:48:44Z</time>
      </trkpt>
      <trkpt lat="42.8635" lon="0.26345">
        <ele>1788.19</ele>
        <time>2019-09-14T06:48:49Z</time>
      </trkpt>
      <trkpt lat="42.86354" lon="0.26348">
        <ele>1789.63</ele>
        <time>2019-09-14T06:48:57Z</time>
      </trkpt>
      <trkpt lat="42.86359" lon="0.26352">
        <ele>1791.07</ele>
        <time>2019-09-14T06:49:04Z</time>
      </trkpt>
      <trkpt lat="42.86363" lon="0.26355">
        <ele>1792.52</ele>
        <time>2019-09-14T06:49:10Z</time>
      </trkpt>
      <trkpt lat="42.86365" lon="0.2636">
        <ele>1793.96</ele>
        <time>2019-09-14T06:49:18Z</time>
      </trkpt>
      <trkpt lat="42.86367" lon="0.26363">
        <ele>1795.88</ele>
        <time>2019-09-14T06:49:26Z</time>
      </trkpt>
      <trkpt lat="42.86369" lon="0.26365">
        <ele>1797.32</ele>
        <time>2019-09-14T06:49:33Z</time>
      </trkpt>
      <trkpt lat="42.86371" lon="0.26367">
        <ele>1798.76</ele>
        <time>2019-09-14T06:49:41Z</time>
      </trkpt>
      <trkpt lat="42.86372" lon="0.26367">
        <ele>1800.69</ele>
        <time>2019-09-14T06:49:49Z</time>
      </trkpt>
      <trkpt lat="42.86376" lon="0.26368">
        <ele>1802.13</ele>
        <time>2019-09-14T06:49:56Z</time>
      </trkpt>
      <trkpt lat="42.86383" lon="0.26367">
        <ele>1803.57</ele>
        <time>2019-09-14T06:50:04Z</time>
      </trkpt>
      <trkpt lat="42.86388" lon="0.26368">
        <ele>1804.53</ele>
        <time>2019-09-14T06:50:11Z</time>
      </trkpt>
      <trkpt lat="42.86391" lon="0.26371">
        <ele>1805.97</ele>
        <time>2019-09-14T06:50:18Z</time>
      </trkpt>
      <trkpt lat="42.86395" lon="0.26374">
        <ele>1806.94</ele>
        <time>2019-09-14T06:50:23Z</time>
      </trkpt>
      <trkpt lat="42.864" lon="0.26379">
        <ele>1808.38</ele>
        <time>2019-09-14T06:50:29Z</time>
      </trkpt>
      <trkpt lat="42.86404" lon="0.2638">
        <ele>1809.82</ele>
        <time>2019-09-14T06:50:36Z</time>
      </trkpt>
      <trkpt lat="42.86405" lon="0.26381">
        <ele>1811.26</ele>
        <time>2019-09-14T06:50:43Z</time>
      </trkpt>
      <trkpt lat="42.86409" lon="0.2638">
        <ele>1812.7</ele>
        <time>2019-09-14T06:50:49Z</time>
      </trkpt>
      <trkpt lat="42.86411" lon="0.26385">
        <ele>1813.66</ele>
        <time>2019-09-14T06:50:56Z</time>
      </trkpt>
      <trkpt lat="42.86412" lon="0.26388">
        <ele>1815.11</ele>
        <time>2019-09-14T06:51:02Z</time>
      </trkpt>
      <trkpt lat="42.86414" lon="0.26389">
        <ele>1816.55</ele>
        <time>2019-09-14T06:51:10Z</time>
      </trkpt>
      <trkpt lat="42.86415" lon="0.2639">
        <ele>1816.55</ele>
        <time>2019-09-14T06:51:11Z</time>
      </trkpt>
      <trkpt lat="42.86418" lon="0.26392">
        <ele>1818.47</ele>
        <time>2019-09-14T06:51:18Z</time>
      </trkpt>
      <trkpt lat="42.8642" lon="0.26394">
        <ele>1819.43</ele>
        <time>2019-09-14T06:51:24Z</time>
      </trkpt>
      <trkpt lat="42.86421" lon="0.26394">
        <ele>1820.87</ele>
        <time>2019-09-14T06:51:31Z</time>
      </trkpt>
      <trkpt lat="42.86424" lon="0.26395">
        <ele>1822.32</ele>
        <time>2019-09-14T06:51:39Z</time>
      </trkpt>
      <trkpt lat="42.86428" lon="0.26398">
        <ele>1823.76</ele>
        <time>2019-09-14T06:51:46Z</time>
      </trkpt>
      <trkpt lat="42.86433" lon="0.264">
        <ele>1824.72</ele>
        <time>2019-09-14T06:51:52Z</time>
      </trkpt>
      <trkpt lat="42.86438" lon="0.26399">
        <ele>1826.16</ele>
        <time>2019-09-14T06:51:59Z</time>
      </trkpt>
      <trkpt lat="42.86444" lon="0.26399">
        <ele>1827.6</ele>
        <time>2019-09-14T06:52:08Z</time>
      </trkpt>
      <trkpt lat="42.86447" lon="0.264">
        <ele>1829.05</ele>
        <time>2019-09-14T06:52:16Z</time>
      </trkpt>
      <trkpt lat="42.86451" lon="0.264">
        <ele>1830.49</ele>
        <time>2019-09-14T06:52:24Z</time>
      </trkpt>
      <trkpt lat="42.86457" lon="0.26404">
        <ele>1831.45</ele>
        <time>2019-09-14T06:52:30Z</time>
      </trkpt>
      <trkpt lat="42.86463" lon="0.26403">
        <ele>1833.37</ele>
        <time>2019-09-14T06:52:39Z</time>
      </trkpt>
      <trkpt lat="42.86466" lon="0.26405">
        <ele>1834.33</ele>
        <time>2019-09-14T06:52:46Z</time>
      </trkpt>
      <trkpt lat="42.86468" lon="0.26405">
        <ele>1835.77</ele>
        <time>2019-09-14T06:52:53Z</time>
      </trkpt>
      <trkpt lat="42.8647" lon="0.26405">
        <ele>1837.22</ele>
        <time>2019-09-14T06:53:01Z</time>
      </trkpt>
      <trkpt lat="42.86473" lon="0.26402">
        <ele>1838.66</ele>
        <time>2019-09-14T06:53:08Z</time>
      </trkpt>
      <trkpt lat="42.86477" lon="0.26403">
        <ele>1840.1</ele>
        <time>2019-09-14T06:53:16Z</time>
      </trkpt>
      <trkpt lat="42.86481" lon="0.26403">
        <ele>1841.54</ele>
        <time>2019-09-14T06:53:23Z</time>
      </trkpt>
      <trkpt lat="42.86485" lon="0.26402">
        <ele>1842.98</ele>
        <time>2019-09-14T06:53:31Z</time>
      </trkpt>
      <trkpt lat="42.86489" lon="0.26403">
        <ele>1843.95</ele>
        <time>2019-09-14T06:53:38Z</time>
      </trkpt>
      <trkpt lat="42.86491" lon="0.26402">
        <ele>1844.91</ele>
        <time>2019-09-14T06:53:45Z</time>
      </trkpt>
      <trkpt lat="42.86497" lon="0.26403">
        <ele>1846.83</ele>
        <time>2019-09-14T06:53:52Z</time>
      </trkpt>
      <trkpt lat="42.86504" lon="0.26404">
        <ele>1847.31</ele>
        <time>2019-09-14T06:53:59Z</time>
      </trkpt>
      <trkpt lat="42.86508" lon="0.26402">
        <ele>1848.75</ele>
        <time>2019-09-14T06:54:06Z</time>
      </trkpt>
      <trkpt lat="42.86513" lon="0.26402">
        <ele>1850.19</ele>
        <time>2019-09-14T06:54:14Z</time>
      </trkpt>
      <trkpt lat="42.86517" lon="0.26401">
        <ele>1851.16</ele>
        <time>2019-09-14T06:54:20Z</time>
      </trkpt>
      <trkpt lat="42.86521" lon="0.26404">
        <ele>1852.12</ele>
        <time>2019-09-14T06:54:26Z</time>
      </trkpt>
      <trkpt lat="42.86526" lon="0.26408">
        <ele>1854.04</ele>
        <time>2019-09-14T06:54:35Z</time>
      </trkpt>
      <trkpt lat="42.8653" lon="0.26409">
        <ele>1855.96</ele>
        <time>2019-09-14T06:54:44Z</time>
      </trkpt>
      <trkpt lat="42.86532" lon="0.26409">
        <ele>1856.44</ele>
        <time>2019-09-14T06:54:49Z</time>
      </trkpt>
      <trkpt lat="42.86536" lon="0.26409">
        <ele>1857.89</ele>
        <time>2019-09-14T06:54:56Z</time>
      </trkpt>
      <trkpt lat="42.86537" lon="0.26408">
        <ele>1858.85</ele>
        <time>2019-09-14T06:55:02Z</time>
      </trkpt>
      <trkpt lat="42.86541" lon="0.26404">
        <ele>1859.81</ele>
        <time>2019-09-14T06:55:08Z</time>
      </trkpt>
      <trkpt lat="42.86545" lon="0.26402">
        <ele>1860.77</ele>
        <time>2019-09-14T06:55:15Z</time>
      </trkpt>
      <trkpt lat="42.8655" lon="0.26399">
        <ele>1862.21</ele>
        <time>2019-09-14T06:55:23Z</time>
      </trkpt>
      <trkpt lat="42.86549" lon="0.26397">
        <ele>1862.21</ele>
        <time>2019-09-14T06:55:25Z</time>
      </trkpt>
      <trkpt lat="42.86551" lon="0.26395">
        <ele>1862.69</ele>
        <time>2019-09-14T06:55:28Z</time>
      </trkpt>
      <trkpt lat="42.86555" lon="0.26394">
        <ele>1864.61</ele>
        <time>2019-09-14T06:55:36Z</time>
      </trkpt>
      <trkpt lat="42.8656" lon="0.26394">
        <ele>1865.58</ele>
        <time>2019-09-14T06:55:43Z</time>
      </trkpt>
      <trkpt lat="42.86565" lon="0.26392">
        <ele>1867.02</ele>
        <time>2019-09-14T06:55:50Z</time>
      </trkpt>
      <trkpt lat="42.86567" lon="0.26395">
        <ele>1868.46</ele>
        <time>2019-09-14T06:55:57Z</time>
      </trkpt>
      <trkpt lat="42.86569" lon="0.26395">
        <ele>1869.9</ele>
        <time>2019-09-14T06:56:05Z</time>
      </trkpt>
      <trkpt lat="42.86572" lon="0.26396">
        <ele>1871.34</ele>
        <time>2019-09-14T06:56:11Z</time>
      </trkpt>
      <trkpt lat="42.86575" lon="0.26393">
        <ele>1872.3</ele>
        <time>2019-09-14T06:56:18Z</time>
      </trkpt>
      <trkpt lat="42.86578" lon="0.26396">
        <ele>1873.75</ele>
        <time>2019-09-14T06:56:24Z</time>
      </trkpt>
      <trkpt lat="42.86581" lon="0.26394">
        <ele>1875.19</ele>
        <time>2019-09-14T06:56:31Z</time>
      </trkpt>
      <trkpt lat="42.86582" lon="0.26393">
        <ele>1876.63</ele>
        <time>2019-09-14T06:56:37Z</time>
      </trkpt>
      <trkpt lat="42.86586" lon="0.26389">
        <ele>1877.59</ele>
        <time>2019-09-14T06:56:44Z</time>
      </trkpt>
      <trkpt lat="42.8659" lon="0.26384">
        <ele>1879.03</ele>
        <time>2019-09-14T06:56:51Z</time>
      </trkpt>
      <trkpt lat="42.86595" lon="0.26378">
        <ele>1880</ele>
        <time>2019-09-14T06:57:00Z</time>
      </trkpt>
      <trkpt lat="42.866" lon="0.26374">
        <ele>1881.92</ele>
        <time>2019-09-14T06:57:09Z</time>
      </trkpt>
      <trkpt lat="42.86604" lon="0.26373">
        <ele>1882.88</ele>
        <time>2019-09-14T06:57:16Z</time>
      </trkpt>
      <trkpt lat="42.86605" lon="0.26368">
        <ele>1884.32</ele>
        <time>2019-09-14T06:57:23Z</time>
      </trkpt>
      <trkpt lat="42.86607" lon="0.26366">
        <ele>1886.24</ele>
        <time>2019-09-14T06:57:32Z</time>
      </trkpt>
      <trkpt lat="42.86613" lon="0.2637">
        <ele>1887.21</ele>
        <time>2019-09-14T06:57:39Z</time>
      </trkpt>
      <trkpt lat="42.86616" lon="0.26369">
        <ele>1888.65</ele>
        <time>2019-09-14T06:57:46Z</time>
      </trkpt>
      <trkpt lat="42.86617" lon="0.26366">
        <ele>1890.09</ele>
        <time>2019-09-14T06:57:54Z</time>
      </trkpt>
      <trkpt lat="42.86617" lon="0.26365">
        <ele>1891.05</ele>
        <time>2019-09-14T06:58:00Z</time>
      </trkpt>
      <trkpt lat="42.86619" lon="0.26364">
        <ele>1892.49</ele>
        <time>2019-09-14T06:58:07Z</time>
      </trkpt>
      <trkpt lat="42.86623" lon="0.26362">
        <ele>1893.93</ele>
        <time>2019-09-14T06:58:16Z</time>
      </trkpt>
      <trkpt lat="42.86628" lon="0.26366">
        <ele>1894.9</ele>
        <time>2019-09-14T06:58:22Z</time>
      </trkpt>
      <trkpt lat="42.86628" lon="0.26365">
        <ele>1895.86</ele>
        <time>2019-09-14T06:58:29Z</time>
      </trkpt>
      <trkpt lat="42.8663" lon="0.26366">
        <ele>1897.3</ele>
        <time>2019-09-14T06:58:35Z</time>
      </trkpt>
      <trkpt lat="42.86631" lon="0.26362">
        <ele>1898.26</ele>
        <time>2019-09-14T06:58:40Z</time>
      </trkpt>
      <trkpt lat="42.86634" lon="0.26364">
        <ele>1899.7</ele>
        <time>2019-09-14T06:58:49Z</time>
      </trkpt>
      <trkpt lat="42.86636" lon="0.26366">
        <ele>1901.14</ele>
        <time>2019-09-14T06:58:56Z</time>
      </trkpt>
      <trkpt lat="42.86639" lon="0.26362">
        <ele>1902.11</ele>
        <time>2019-09-14T06:59:04Z</time>
      </trkpt>
      <trkpt lat="42.8664" lon="0.26362">
        <ele>1904.03</ele>
        <time>2019-09-14T06:59:12Z</time>
      </trkpt>
      <trkpt lat="42.86642" lon="0.26362">
        <ele>1905.47</ele>
        <time>2019-09-14T06:59:21Z</time>
      </trkpt>
      <trkpt lat="42.86649" lon="0.2636">
        <ele>1907.39</ele>
        <time>2019-09-14T06:59:30Z</time>
      </trkpt>
      <trkpt lat="42.86653" lon="0.26363">
        <ele>1908.83</ele>
        <time>2019-09-14T06:59:37Z</time>
      </trkpt>
      <trkpt lat="42.86656" lon="0.26358">
        <ele>1910.28</ele>
        <time>2019-09-14T06:59:45Z</time>
      </trkpt>
      <trkpt lat="42.8666" lon="0.26354">
        <ele>1911.24</ele>
        <time>2019-09-14T06:59:53Z</time>
      </trkpt>
      <trkpt lat="42.86663" lon="0.26355">
        <ele>1912.68</ele>
        <time>2019-09-14T07:00:00Z</time>
      </trkpt>
      <trkpt lat="42.86665" lon="0.26356">
        <ele>1913.64</ele>
        <time>2019-09-14T07:00:06Z</time>
      </trkpt>
      <trkpt lat="42.86668" lon="0.26353">
        <ele>1915.56</ele>
        <time>2019-09-14T07:00:15Z</time>
      </trkpt>
      <trkpt lat="42.8667" lon="0.2635">
        <ele>1917.01</ele>
        <time>2019-09-14T07:00:23Z</time>
      </trkpt>
      <trkpt lat="42.86672" lon="0.2635">
        <ele>1918.45</ele>
        <time>2019-09-14T07:00:32Z</time>
      </trkpt>
      <trkpt lat="42.86674" lon="0.26348">
        <ele>1920.37</ele>
        <time>2019-09-14T07:00:40Z</time>
      </trkpt>
      <trkpt lat="42.86677" lon="0.26346">
        <ele>1921.81</ele>
        <time>2019-09-14T07:00:47Z</time>
      </trkpt>
      <trkpt lat="42.86679" lon="0.26342">
        <ele>1922.77</ele>
        <time>2019-09-14T07:00:53Z</time>
      </trkpt>
      <trkpt lat="42.86683" lon="0.2634">
        <ele>1925.18</ele>
        <time>2019-09-14T07:00:59Z</time>
      </trkpt>
      <trkpt lat="42.86689" lon="0.26334">
        <ele>1924.7</ele>
        <time>2019-09-14T07:01:06Z</time>
      </trkpt>
      <trkpt lat="42.86692" lon="0.26331">
        <ele>1926.14</ele>
        <time>2019-09-14T07:01:13Z</time>
      </trkpt>
      <trkpt lat="42.86695" lon="0.26329">
        <ele>1927.1</ele>
        <time>2019-09-14T07:01:19Z</time>
      </trkpt>
      <trkpt lat="42.86697" lon="0.26324">
        <ele>1928.54</ele>
        <time>2019-09-14T07:01:27Z</time>
      </trkpt>
      <trkpt lat="42.867" lon="0.26327">
        <ele>1929.5</ele>
        <time>2019-09-14T07:01:32Z</time>
      </trkpt>
      <trkpt lat="42.86702" lon="0.26332">
        <ele>1930.95</ele>
        <time>2019-09-14T07:01:39Z</time>
      </trkpt>
      <trkpt lat="42.86703" lon="0.26334">
        <ele>1931.91</ele>
        <time>2019-09-14T07:01:45Z</time>
      </trkpt>
      <trkpt lat="42.86707" lon="0.26339">
        <ele>1933.35</ele>
        <time>2019-09-14T07:01:52Z</time>
      </trkpt>
      <trkpt lat="42.86709" lon="0.26344">
        <ele>1934.79</ele>
        <time>2019-09-14T07:02:00Z</time>
      </trkpt>
      <trkpt lat="42.8671" lon="0.26346">
        <ele>1936.23</ele>
        <time>2019-09-14T07:02:10Z</time>
      </trkpt>
      <trkpt lat="42.86712" lon="0.26348">
        <ele>1937.19</ele>
        <time>2019-09-14T07:02:18Z</time>
      </trkpt>
      <trkpt lat="42.86715" lon="0.26344">
        <ele>1938.16</ele>
        <time>2019-09-14T07:02:27Z</time>
      </trkpt>
      <trkpt lat="42.8672" lon="0.2634">
        <ele>1938.64</ele>
        <time>2019-09-14T07:02:34Z</time>
      </trkpt>
      <trkpt lat="42.86726" lon="0.26337">
        <ele>1940.08</ele>
        <time>2019-09-14T07:02:42Z</time>
      </trkpt>
      <trkpt lat="42.86731" lon="0.26333">
        <ele>1941.52</ele>
        <time>2019-09-14T07:02:50Z</time>
      </trkpt>
      <trkpt lat="42.86732" lon="0.26332">
        <ele>1943.92</ele>
        <time>2019-09-14T07:02:59Z</time>
      </trkpt>
      <trkpt lat="42.86729" lon="0.26333">
        <ele>1942.48</ele>
        <time>2019-09-14T07:03:11Z</time>
      </trkpt>
      <trkpt lat="42.86729" lon="0.26332">
        <ele>1942</ele>
        <time>2019-09-14T07:03:20Z</time>
      </trkpt>
      <trkpt lat="42.86729" lon="0.26332">
        <ele>1942.48</ele>
        <time>2019-09-14T07:03:30Z</time>
      </trkpt>
      <trkpt lat="42.86729" lon="0.26332">
        <ele>1942.48</ele>
        <time>2019-09-14T07:03:40Z</time>
      </trkpt>
      <trkpt lat="42.86729" lon="0.26332">
        <ele>1942.48</ele>
        <time>2019-09-14T07:03:49Z</time>
      </trkpt>
      <trkpt lat="42.8673" lon="0.26332">
        <ele>1942.96</ele>
        <time>2019-09-14T07:03:57Z</time>
      </trkpt>
      <trkpt lat="42.86734" lon="0.26328">
        <ele>1944.4</ele>
        <time>2019-09-14T07:04:03Z</time>
      </trkpt>
      <trkpt lat="42.86738" lon="0.26329">
        <ele>1946.33</ele>
        <time>2019-09-14T07:04:10Z</time>
      </trkpt>
      <trkpt lat="42.86741" lon="0.26326">
        <ele>1947.77</ele>
        <time>2019-09-14T07:04:17Z</time>
      </trkpt>
      <trkpt lat="42.86743" lon="0.26327">
        <ele>1948.73</ele>
        <time>2019-09-14T07:04:23Z</time>
      </trkpt>
      <trkpt lat="42.86745" lon="0.26326">
        <ele>1949.69</ele>
        <time>2019-09-14T07:04:31Z</time>
      </trkpt>
      <trkpt lat="42.86747" lon="0.26321">
        <ele>1950.17</ele>
        <time>2019-09-14T07:04:38Z</time>
      </trkpt>
      <trkpt lat="42.86746" lon="0.26315">
        <ele>1950.65</ele>
        <time>2019-09-14T07:04:45Z</time>
      </trkpt>
      <trkpt lat="42.86749" lon="0.26304">
        <ele>1952.09</ele>
        <time>2019-09-14T07:04:55Z</time>
      </trkpt>
      <trkpt lat="42.86751" lon="0.26292">
        <ele>1953.54</ele>
        <time>2019-09-14T07:05:03Z</time>
      </trkpt>
      <trkpt lat="42.86754" lon="0.26288">
        <ele>1953.06</ele>
        <time>2019-09-14T07:05:09Z</time>
      </trkpt>
      <trkpt lat="42.86756" lon="0.2628">
        <ele>1953.54</ele>
        <time>2019-09-14T07:05:16Z</time>
      </trkpt>
      <trkpt lat="42.86758" lon="0.26271">
        <ele>1955.46</ele>
        <time>2019-09-14T07:05:24Z</time>
      </trkpt>
      <trkpt lat="42.86761" lon="0.26267">
        <ele>1956.42</ele>
        <time>2019-09-14T07:05:31Z</time>
      </trkpt>
      <trkpt lat="42.86766" lon="0.2626">
        <ele>1957.38</ele>
        <time>2019-09-14T07:05:39Z</time>
      </trkpt>
      <trkpt lat="42.8677" lon="0.26255">
        <ele>1958.82</ele>
        <time>2019-09-14T07:05:46Z</time>
      </trkpt>
      <trkpt lat="42.86775" lon="0.2625">
        <ele>1960.75</ele>
        <time>2019-09-14T07:05:54Z</time>
      </trkpt>
      <trkpt lat="42.86779" lon="0.26247">
        <ele>1961.71</ele>
        <time>2019-09-14T07:06:00Z</time>
      </trkpt>
      <trkpt lat="42.86781" lon="0.26239">
        <ele>1962.67</ele>
        <time>2019-09-14T07:06:06Z</time>
      </trkpt>
      <trkpt lat="42.86786" lon="0.26233">
        <ele>1964.11</ele>
        <time>2019-09-14T07:06:13Z</time>
      </trkpt>
      <trkpt lat="42.86793" lon="0.2623">
        <ele>1965.55</ele>
        <time>2019-09-14T07:06:21Z</time>
      </trkpt>
      <trkpt lat="42.86798" lon="0.26229">
        <ele>1966.51</ele>
        <time>2019-09-14T07:06:27Z</time>
      </trkpt>
      <trkpt lat="42.86805" lon="0.26226">
        <ele>1967.48</ele>
        <time>2019-09-14T07:06:34Z</time>
      </trkpt>
      <trkpt lat="42.86809" lon="0.26223">
        <ele>1968.92</ele>
        <time>2019-09-14T07:06:40Z</time>
      </trkpt>
      <trkpt lat="42.8681" lon="0.26222">
        <ele>1970.36</ele>
        <time>2019-09-14T07:06:47Z</time>
      </trkpt>
      <trkpt lat="42.86815" lon="0.26217">
        <ele>1971.8</ele>
        <time>2019-09-14T07:06:55Z</time>
      </trkpt>
      <trkpt lat="42.86816" lon="0.26216">
        <ele>1972.76</ele>
        <time>2019-09-14T07:07:02Z</time>
      </trkpt>
      <trkpt lat="42.86818" lon="0.26212">
        <ele>1974.2</ele>
        <time>2019-09-14T07:07:09Z</time>
      </trkpt>
      <trkpt lat="42.86821" lon="0.26208">
        <ele>1975.17</ele>
        <time>2019-09-14T07:07:15Z</time>
      </trkpt>
      <trkpt lat="42.86824" lon="0.26206">
        <ele>1976.61</ele>
        <time>2019-09-14T07:07:22Z</time>
      </trkpt>
      <trkpt lat="42.86827" lon="0.26203">
        <ele>1977.57</ele>
        <time>2019-09-14T07:07:28Z</time>
      </trkpt>
      <trkpt lat="42.86828" lon="0.26197">
        <ele>1979.01</ele>
        <time>2019-09-14T07:07:35Z</time>
      </trkpt>
      <trkpt lat="42.86831" lon="0.26192">
        <ele>1980.45</ele>
        <time>2019-09-14T07:07:41Z</time>
      </trkpt>
      <trkpt lat="42.86831" lon="0.26189">
        <ele>1980.93</ele>
        <time>2019-09-14T07:07:45Z</time>
      </trkpt>
      <trkpt lat="42.86833" lon="0.26183">
        <ele>1982.38</ele>
        <time>2019-09-14T07:07:51Z</time>
      </trkpt>
      <trkpt lat="42.86836" lon="0.26178">
        <ele>1984.3</ele>
        <time>2019-09-14T07:07:58Z</time>
      </trkpt>
      <trkpt lat="42.86838" lon="0.26174">
        <ele>1985.74</ele>
        <time>2019-09-14T07:08:06Z</time>
      </trkpt>
      <trkpt lat="42.86843" lon="0.26168">
        <ele>1987.66</ele>
        <time>2019-09-14T07:08:15Z</time>
      </trkpt>
      <trkpt lat="42.86844" lon="0.26168">
        <ele>1988.14</ele>
        <time>2019-09-14T07:08:23Z</time>
      </trkpt>
      <trkpt lat="42.86845" lon="0.26166">
        <ele>1987.18</ele>
        <time>2019-09-14T07:08:31Z</time>
      </trkpt>
      <trkpt lat="42.86844" lon="0.26166">
        <ele>1991.99</ele>
        <time>2019-09-14T07:08:32Z</time>
      </trkpt>
      <trkpt lat="42.86844" lon="0.26166">
        <ele>1988.62</ele>
        <time>2019-09-14T07:08:33Z</time>
      </trkpt>
      <trkpt lat="42.86845" lon="0.26166">
        <ele>1988.62</ele>
        <time>2019-09-14T07:08:48Z</time>
      </trkpt>
      <trkpt lat="42.86844" lon="0.26166">
        <ele>1988.62</ele>
        <time>2019-09-14T07:09:03Z</time>
      </trkpt>
      <trkpt lat="42.86844" lon="0.26166">
        <ele>1988.62</ele>
        <time>2019-09-14T07:09:15Z</time>
      </trkpt>
      <trkpt lat="42.86844" lon="0.26166">
        <ele>1988.62</ele>
        <time>2019-09-14T07:09:30Z</time>
      </trkpt>
      <trkpt lat="42.86844" lon="0.26167">
        <ele>1988.62</ele>
        <time>2019-09-14T07:09:42Z</time>
      </trkpt>
      <trkpt lat="42.86845" lon="0.26166">
        <ele>1988.62</ele>
        <time>2019-09-14T07:09:52Z</time>
      </trkpt>
      <trkpt lat="42.86845" lon="0.26167">
        <ele>1988.62</ele>
        <time>2019-09-14T07:10:07Z</time>
      </trkpt>
      <trkpt lat="42.86845" lon="0.26166">
        <ele>1988.62</ele>
        <time>2019-09-14T07:10:23Z</time>
      </trkpt>
      <trkpt lat="42.86846" lon="0.26165">
        <ele>1989.1</ele>
        <time>2019-09-14T07:10:34Z</time>
      </trkpt>
      <trkpt lat="42.86851" lon="0.26159">
        <ele>1990.55</ele>
        <time>2019-09-14T07:10:41Z</time>
      </trkpt>
      <trkpt lat="42.86852" lon="0.26159">
        <ele>1991.03</ele>
        <time>2019-09-14T07:10:43Z</time>
      </trkpt>
      <trkpt lat="42.86856" lon="0.26155">
        <ele>1991.99</ele>
        <time>2019-09-14T07:10:49Z</time>
      </trkpt>
      <trkpt lat="42.86859" lon="0.26148">
        <ele>1993.91</ele>
        <time>2019-09-14T07:10:56Z</time>
      </trkpt>
      <trkpt lat="42.86863" lon="0.26142">
        <ele>1995.35</ele>
        <time>2019-09-14T07:11:02Z</time>
      </trkpt>
      <trkpt lat="42.86867" lon="0.26136">
        <ele>1997.28</ele>
        <time>2019-09-14T07:11:09Z</time>
      </trkpt>
      <trkpt lat="42.86866" lon="0.26136">
        <ele>1997.28</ele>
        <time>2019-09-14T07:11:17Z</time>
      </trkpt>
      <trkpt lat="42.86868" lon="0.26133">
        <ele>1998.72</ele>
        <time>2019-09-14T07:11:23Z</time>
      </trkpt>
      <trkpt lat="42.86871" lon="0.26131">
        <ele>1999.68</ele>
        <time>2019-09-14T07:11:29Z</time>
      </trkpt>
      <trkpt lat="42.86875" lon="0.26128">
        <ele>2000.64</ele>
        <time>2019-09-14T07:11:36Z</time>
      </trkpt>
      <trkpt lat="42.86878" lon="0.26124">
        <ele>2001.6</ele>
        <time>2019-09-14T07:11:42Z</time>
      </trkpt>
      <trkpt lat="42.8688" lon="0.26121">
        <ele>2002.56</ele>
        <time>2019-09-14T07:11:49Z</time>
      </trkpt>
      <trkpt lat="42.86883" lon="0.26116">
        <ele>2004.01</ele>
        <time>2019-09-14T07:11:57Z</time>
      </trkpt>
      <trkpt lat="42.86888" lon="0.26112">
        <ele>2004.97</ele>
        <time>2019-09-14T07:12:03Z</time>
      </trkpt>
      <trkpt lat="42.86892" lon="0.26109">
        <ele>2006.41</ele>
        <time>2019-09-14T07:12:10Z</time>
      </trkpt>
      <trkpt lat="42.86896" lon="0.26109">
        <ele>2007.37</ele>
        <time>2019-09-14T07:12:16Z</time>
      </trkpt>
      <trkpt lat="42.86897" lon="0.26108">
        <ele>2008.81</ele>
        <time>2019-09-14T07:12:22Z</time>
      </trkpt>
      <trkpt lat="42.869" lon="0.26106">
        <ele>2009.77</ele>
        <time>2019-09-14T07:12:28Z</time>
      </trkpt>
      <trkpt lat="42.86901" lon="0.26104">
        <ele>2011.7</ele>
        <time>2019-09-14T07:12:35Z</time>
      </trkpt>
      <trkpt lat="42.86902" lon="0.26104">
        <ele>2012.18</ele>
        <time>2019-09-14T07:12:40Z</time>
      </trkpt>
      <trkpt lat="42.86904" lon="0.26102">
        <ele>2014.1</ele>
        <time>2019-09-14T07:12:48Z</time>
      </trkpt>
      <trkpt lat="42.86906" lon="0.26101">
        <ele>2015.06</ele>
        <time>2019-09-14T07:12:55Z</time>
      </trkpt>
      <trkpt lat="42.86909" lon="0.26098">
        <ele>2016.5</ele>
        <time>2019-09-14T07:13:01Z</time>
      </trkpt>
      <trkpt lat="42.8691" lon="0.26097">
        <ele>2017.46</ele>
        <time>2019-09-14T07:13:08Z</time>
      </trkpt>
      <trkpt lat="42.86912" lon="0.26094">
        <ele>2018.91</ele>
        <time>2019-09-14T07:13:13Z</time>
      </trkpt>
      <trkpt lat="42.86914" lon="0.26093">
        <ele>2019.87</ele>
        <time>2019-09-14T07:13:21Z</time>
      </trkpt>
      <trkpt lat="42.86916" lon="0.26091">
        <ele>2020.83</ele>
        <time>2019-09-14T07:13:28Z</time>
      </trkpt>
      <trkpt lat="42.86918" lon="0.26089">
        <ele>2021.79</ele>
        <time>2019-09-14T07:13:33Z</time>
      </trkpt>
      <trkpt lat="42.86922" lon="0.26083">
        <ele>2023.23</ele>
        <time>2019-09-14T07:13:40Z</time>
      </trkpt>
      <trkpt lat="42.86928" lon="0.26079">
        <ele>2024.67</ele>
        <time>2019-09-14T07:13:49Z</time>
      </trkpt>
      <trkpt lat="42.8693" lon="0.26078">
        <ele>2025.64</ele>
        <time>2019-09-14T07:13:54Z</time>
      </trkpt>
      <trkpt lat="42.86933" lon="0.26076">
        <ele>2026.6</ele>
        <time>2019-09-14T07:14:01Z</time>
      </trkpt>
      <trkpt lat="42.86938" lon="0.26074">
        <ele>2028.04</ele>
        <time>2019-09-14T07:14:08Z</time>
      </trkpt>
      <trkpt lat="42.86942" lon="0.26073">
        <ele>2029</ele>
        <time>2019-09-14T07:14:14Z</time>
      </trkpt>
      <trkpt lat="42.86949" lon="0.26069">
        <ele>2030.44</ele>
        <time>2019-09-14T07:14:22Z</time>
      </trkpt>
      <trkpt lat="42.86951" lon="0.26064">
        <ele>2031.4</ele>
        <time>2019-09-14T07:14:28Z</time>
      </trkpt>
      <trkpt lat="42.86954" lon="0.26064">
        <ele>2032.36</ele>
        <time>2019-09-14T07:14:34Z</time>
      </trkpt>
      <trkpt lat="42.86958" lon="0.26058">
        <ele>2033.81</ele>
        <time>2019-09-14T07:14:40Z</time>
      </trkpt>
      <trkpt lat="42.86961" lon="0.26055">
        <ele>2034.77</ele>
        <time>2019-09-14T07:14:46Z</time>
      </trkpt>
      <trkpt lat="42.86965" lon="0.26049">
        <ele>2036.21</ele>
        <time>2019-09-14T07:14:54Z</time>
      </trkpt>
      <trkpt lat="42.8697" lon="0.26041">
        <ele>2038.13</ele>
        <time>2019-09-14T07:15:03Z</time>
      </trkpt>
      <trkpt lat="42.86974" lon="0.26039">
        <ele>2038.61</ele>
        <time>2019-09-14T07:15:09Z</time>
      </trkpt>
      <trkpt lat="42.86975" lon="0.26042">
        <ele>2040.05</ele>
        <time>2019-09-14T07:15:15Z</time>
      </trkpt>
      <trkpt lat="42.86977" lon="0.26044">
        <ele>2041.5</ele>
        <time>2019-09-14T07:15:22Z</time>
      </trkpt>
      <trkpt lat="42.86981" lon="0.26041">
        <ele>2043.42</ele>
        <time>2019-09-14T07:15:29Z</time>
      </trkpt>
      <trkpt lat="42.86984" lon="0.26036">
        <ele>2044.86</ele>
        <time>2019-09-14T07:15:37Z</time>
      </trkpt>
      <trkpt lat="42.86989" lon="0.26034">
        <ele>2045.82</ele>
        <time>2019-09-14T07:15:44Z</time>
      </trkpt>
      <trkpt lat="42.86992" lon="0.26032">
        <ele>2046.78</ele>
        <time>2019-09-14T07:15:50Z</time>
      </trkpt>
      <trkpt lat="42.86994" lon="0.26027">
        <ele>2047.26</ele>
        <time>2019-09-14T07:15:57Z</time>
      </trkpt>
      <trkpt lat="42.86993" lon="0.26022">
        <ele>2048.71</ele>
        <time>2019-09-14T07:16:05Z</time>
      </trkpt>
      <trkpt lat="42.86996" lon="0.26021">
        <ele>2050.15</ele>
        <time>2019-09-14T07:16:11Z</time>
      </trkpt>
      <trkpt lat="42.86997" lon="0.26021">
        <ele>2051.11</ele>
        <time>2019-09-14T07:16:17Z</time>
      </trkpt>
      <trkpt lat="42.86998" lon="0.26018">
        <ele>2052.55</ele>
        <time>2019-09-14T07:16:23Z</time>
      </trkpt>
      <trkpt lat="42.87002" lon="0.26019">
        <ele>2053.51</ele>
        <time>2019-09-14T07:16:28Z</time>
      </trkpt>
      <trkpt lat="42.87005" lon="0.26019">
        <ele>2054.96</ele>
        <time>2019-09-14T07:16:35Z</time>
      </trkpt>
      <trkpt lat="42.87006" lon="0.26016">
        <ele>2056.4</ele>
        <time>2019-09-14T07:16:42Z</time>
      </trkpt>
      <trkpt lat="42.87008" lon="0.26016">
        <ele>2057.36</ele>
        <time>2019-09-14T07:16:48Z</time>
      </trkpt>
      <trkpt lat="42.87013" lon="0.26017">
        <ele>2058.32</ele>
        <time>2019-09-14T07:16:55Z</time>
      </trkpt>
      <trkpt lat="42.87015" lon="0.26015">
        <ele>2060.72</ele>
        <time>2019-09-14T07:17:01Z</time>
      </trkpt>
      <trkpt lat="42.87017" lon="0.26013">
        <ele>2061.2</ele>
        <time>2019-09-14T07:17:09Z</time>
      </trkpt>
      <trkpt lat="42.87018" lon="0.26012">
        <ele>2062.17</ele>
        <time>2019-09-14T07:17:15Z</time>
      </trkpt>
      <trkpt lat="42.87021" lon="0.26015">
        <ele>2063.61</ele>
        <time>2019-09-14T07:17:22Z</time>
      </trkpt>
      <trkpt lat="42.87023" lon="0.26017">
        <ele>2064.57</ele>
        <time>2019-09-14T07:17:28Z</time>
      </trkpt>
      <trkpt lat="42.87028" lon="0.26016">
        <ele>2066.01</ele>
        <time>2019-09-14T07:17:36Z</time>
      </trkpt>
      <trkpt lat="42.87032" lon="0.26015">
        <ele>2067.45</ele>
        <time>2019-09-14T07:17:43Z</time>
      </trkpt>
      <trkpt lat="42.87036" lon="0.26011">
        <ele>2068.89</ele>
        <time>2019-09-14T07:17:51Z</time>
      </trkpt>
      <trkpt lat="42.87042" lon="0.26006">
        <ele>2069.86</ele>
        <time>2019-09-14T07:17:58Z</time>
      </trkpt>
      <trkpt lat="42.87045" lon="0.26004">
        <ele>2070.82</ele>
        <time>2019-09-14T07:18:05Z</time>
      </trkpt>
      <trkpt lat="42.87046" lon="0.26">
        <ele>2071.78</ele>
        <time>2019-09-14T07:18:13Z</time>
      </trkpt>
      <trkpt lat="42.87047" lon="0.26001">
        <ele>2072.74</ele>
        <time>2019-09-14T07:18:20Z</time>
      </trkpt>
      <trkpt lat="42.87049" lon="0.25999">
        <ele>2074.18</ele>
        <time>2019-09-14T07:18:28Z</time>
      </trkpt>
      <trkpt lat="42.87049" lon="0.25996">
        <ele>2075.14</ele>
        <time>2019-09-14T07:18:35Z</time>
      </trkpt>
      <trkpt lat="42.87054" lon="0.25996">
        <ele>2076.59</ele>
        <time>2019-09-14T07:18:43Z</time>
      </trkpt>
      <trkpt lat="42.87057" lon="0.25993">
        <ele>2078.03</ele>
        <time>2019-09-14T07:18:50Z</time>
      </trkpt>
      <trkpt lat="42.87063" lon="0.25992">
        <ele>2079.47</ele>
        <time>2019-09-14T07:18:58Z</time>
      </trkpt>
      <trkpt lat="42.87065" lon="0.25991">
        <ele>2080.43</ele>
        <time>2019-09-14T07:19:06Z</time>
      </trkpt>
      <trkpt lat="42.87067" lon="0.25993">
        <ele>2081.87</ele>
        <time>2019-09-14T07:19:14Z</time>
      </trkpt>
      <trkpt lat="42.87069" lon="0.25992">
        <ele>2083.31</ele>
        <time>2019-09-14T07:19:22Z</time>
      </trkpt>
      <trkpt lat="42.87073" lon="0.25992">
        <ele>2084.76</ele>
        <time>2019-09-14T07:19:28Z</time>
      </trkpt>
      <trkpt lat="42.87075" lon="0.25997">
        <ele>2085.72</ele>
        <time>2019-09-14T07:19:34Z</time>
      </trkpt>
      <trkpt lat="42.87076" lon="0.25997">
        <ele>2087.16</ele>
        <time>2019-09-14T07:19:42Z</time>
      </trkpt>
      <trkpt lat="42.87078" lon="0.25997">
        <ele>2088.12</ele>
        <time>2019-09-14T07:19:49Z</time>
      </trkpt>
      <trkpt lat="42.87081" lon="0.25995">
        <ele>2089.08</ele>
        <time>2019-09-14T07:19:55Z</time>
      </trkpt>
      <trkpt lat="42.87084" lon="0.25992">
        <ele>2090.52</ele>
        <time>2019-09-14T07:20:03Z</time>
      </trkpt>
      <trkpt lat="42.87084" lon="0.25988">
        <ele>2091.97</ele>
        <time>2019-09-14T07:20:10Z</time>
      </trkpt>
      <trkpt lat="42.87087" lon="0.25991">
        <ele>2092.93</ele>
        <time>2019-09-14T07:20:17Z</time>
      </trkpt>
      <trkpt lat="42.8709" lon="0.2599">
        <ele>2090.04</ele>
        <time>2019-09-14T07:20:24Z</time>
      </trkpt>
      <trkpt lat="42.87089" lon="0.25991">
        <ele>2096.77</ele>
        <time>2019-09-14T07:20:25Z</time>
      </trkpt>
      <trkpt lat="42.8709" lon="0.25992">
        <ele>2093.89</ele>
        <time>2019-09-14T07:20:27Z</time>
      </trkpt>
      <trkpt lat="42.87093" lon="0.25991">
        <ele>2095.81</ele>
        <time>2019-09-14T07:20:34Z</time>
      </trkpt>
      <trkpt lat="42.87093" lon="0.25991">
        <ele>2086.2</ele>
        <time>2019-09-14T07:20:38Z</time>
      </trkpt>
      <trkpt lat="42.87093" lon="0.25991">
        <ele>2106.39</ele>
        <time>2019-09-14T07:20:39Z</time>
      </trkpt>
      <trkpt lat="42.87093" lon="0.25991">
        <ele>2096.77</ele>
        <time>2019-09-14T07:20:40Z</time>
      </trkpt>
      <trkpt lat="42.87096" lon="0.2599">
        <ele>2100.62</ele>
        <time>2019-09-14T07:20:47Z</time>
      </trkpt>
      <trkpt lat="42.87098" lon="0.25994">
        <ele>2088.12</ele>
        <time>2019-09-14T07:20:52Z</time>
      </trkpt>
      <trkpt lat="42.87098" lon="0.25994">
        <ele>2106.87</ele>
        <time>2019-09-14T07:20:53Z</time>
      </trkpt>
      <trkpt lat="42.87097" lon="0.25995">
        <ele>2096.29</ele>
        <time>2019-09-14T07:20:54Z</time>
      </trkpt>
      <trkpt lat="42.87097" lon="0.25996">
        <ele>2100.62</ele>
        <time>2019-09-14T07:20:55Z</time>
      </trkpt>
      <trkpt lat="42.87098" lon="0.25997">
        <ele>2096.77</ele>
        <time>2019-09-14T07:20:57Z</time>
      </trkpt>
      <trkpt lat="42.87099" lon="0.25996">
        <ele>2100.14</ele>
        <time>2019-09-14T07:20:59Z</time>
      </trkpt>
      <trkpt lat="42.87102" lon="0.25994">
        <ele>2100.14</ele>
        <time>2019-09-14T07:21:06Z</time>
      </trkpt>
      <trkpt lat="42.87102" lon="0.25997">
        <ele>2101.58</ele>
        <time>2019-09-14T07:21:14Z</time>
      </trkpt>
      <trkpt lat="42.87106" lon="0.25992">
        <ele>2103.02</ele>
        <time>2019-09-14T07:21:21Z</time>
      </trkpt>
      <trkpt lat="42.87107" lon="0.25992">
        <ele>2099.66</ele>
        <time>2019-09-14T07:21:23Z</time>
      </trkpt>
      <trkpt lat="42.87108" lon="0.25991">
        <ele>2106.39</ele>
        <time>2019-09-14T07:21:24Z</time>
      </trkpt>
      <trkpt lat="42.8711" lon="0.25989">
        <ele>2104.46</ele>
        <time>2019-09-14T07:21:31Z</time>
      </trkpt>
      <trkpt lat="42.87112" lon="0.25987">
        <ele>2105.91</ele>
        <time>2019-09-14T07:21:38Z</time>
      </trkpt>
      <trkpt lat="42.87114" lon="0.25986">
        <ele>2106.87</ele>
        <time>2019-09-14T07:21:46Z</time>
      </trkpt>
      <trkpt lat="42.87115" lon="0.25991">
        <ele>2109.75</ele>
        <time>2019-09-14T07:21:55Z</time>
      </trkpt>
      <trkpt lat="42.87119" lon="0.25992">
        <ele>2110.71</ele>
        <time>2019-09-14T07:22:03Z</time>
      </trkpt>
      <trkpt lat="42.87122" lon="0.2599">
        <ele>2111.67</ele>
        <time>2019-09-14T07:22:10Z</time>
      </trkpt>
      <trkpt lat="42.87122" lon="0.25994">
        <ele>2113.12</ele>
        <time>2019-09-14T07:22:17Z</time>
      </trkpt>
      <trkpt lat="42.87127" lon="0.25992">
        <ele>2114.56</ele>
        <time>2019-09-14T07:22:25Z</time>
      </trkpt>
      <trkpt lat="42.8713" lon="0.25992">
        <ele>2116.48</ele>
        <time>2019-09-14T07:22:32Z</time>
      </trkpt>
      <trkpt lat="42.87132" lon="0.25992">
        <ele>2117.44</ele>
        <time>2019-09-14T07:22:39Z</time>
      </trkpt>
      <trkpt lat="42.87132" lon="0.25997">
        <ele>2118.88</ele>
        <time>2019-09-14T07:22:46Z</time>
      </trkpt>
      <trkpt lat="42.87135" lon="0.25999">
        <ele>2120.32</ele>
        <time>2019-09-14T07:22:53Z</time>
      </trkpt>
      <trkpt lat="42.87135" lon="0.26002">
        <ele>2121.77</ele>
        <time>2019-09-14T07:23:00Z</time>
      </trkpt>
      <trkpt lat="42.87136" lon="0.26005">
        <ele>2122.73</ele>
        <time>2019-09-14T07:23:06Z</time>
      </trkpt>
      <trkpt lat="42.87139" lon="0.26004">
        <ele>2124.17</ele>
        <time>2019-09-14T07:23:14Z</time>
      </trkpt>
      <trkpt lat="42.87139" lon="0.26007">
        <ele>2125.61</ele>
        <time>2019-09-14T07:23:21Z</time>
      </trkpt>
      <trkpt lat="42.87142" lon="0.26006">
        <ele>2126.57</ele>
        <time>2019-09-14T07:23:27Z</time>
      </trkpt>
      <trkpt lat="42.8714" lon="0.26008">
        <ele>2126.57</ele>
        <time>2019-09-14T07:23:35Z</time>
      </trkpt>
      <trkpt lat="42.87139" lon="0.26012">
        <ele>2128.02</ele>
        <time>2019-09-14T07:23:41Z</time>
      </trkpt>
      <trkpt lat="42.87142" lon="0.26014">
        <ele>2128.98</ele>
        <time>2019-09-14T07:23:46Z</time>
      </trkpt>
      <trkpt lat="42.87144" lon="0.26015">
        <ele>2130.42</ele>
        <time>2019-09-14T07:23:54Z</time>
      </trkpt>
      <trkpt lat="42.87146" lon="0.26017">
        <ele>2131.86</ele>
        <time>2019-09-14T07:24:00Z</time>
      </trkpt>
      <trkpt lat="42.87147" lon="0.26019">
        <ele>2133.3</ele>
        <time>2019-09-14T07:24:06Z</time>
      </trkpt>
      <trkpt lat="42.8715" lon="0.26021">
        <ele>2134.74</ele>
        <time>2019-09-14T07:24:12Z</time>
      </trkpt>
      <trkpt lat="42.87151" lon="0.26022">
        <ele>2136.67</ele>
        <time>2019-09-14T07:24:19Z</time>
      </trkpt>
      <trkpt lat="42.87153" lon="0.26026">
        <ele>2137.63</ele>
        <time>2019-09-14T07:24:27Z</time>
      </trkpt>
      <trkpt lat="42.87157" lon="0.26026">
        <ele>2139.55</ele>
        <time>2019-09-14T07:24:34Z</time>
      </trkpt>
      <trkpt lat="42.87159" lon="0.26027">
        <ele>2140.51</ele>
        <time>2019-09-14T07:24:39Z</time>
      </trkpt>
      <trkpt lat="42.87163" lon="0.26027">
        <ele>2141.95</ele>
        <time>2019-09-14T07:24:45Z</time>
      </trkpt>
      <trkpt lat="42.87165" lon="0.26024">
        <ele>2142.92</ele>
        <time>2019-09-14T07:24:53Z</time>
      </trkpt>
      <trkpt lat="42.87166" lon="0.26024">
        <ele>2143.88</ele>
        <time>2019-09-14T07:24:59Z</time>
      </trkpt>
      <trkpt lat="42.87164" lon="0.26028">
        <ele>2145.8</ele>
        <time>2019-09-14T07:25:07Z</time>
      </trkpt>
      <trkpt lat="42.87164" lon="0.26029">
        <ele>2146.28</ele>
        <time>2019-09-14T07:25:13Z</time>
      </trkpt>
      <trkpt lat="42.87167" lon="0.26029">
        <ele>2147.72</ele>
        <time>2019-09-14T07:25:19Z</time>
      </trkpt>
      <trkpt lat="42.87169" lon="0.26028">
        <ele>2149.16</ele>
        <time>2019-09-14T07:25:25Z</time>
      </trkpt>
      <trkpt lat="42.87169" lon="0.2603">
        <ele>2150.13</ele>
        <time>2019-09-14T07:25:33Z</time>
      </trkpt>
      <trkpt lat="42.8717" lon="0.26032">
        <ele>2151.09</ele>
        <time>2019-09-14T07:25:38Z</time>
      </trkpt>
      <trkpt lat="42.8717" lon="0.26031">
        <ele>2153.49</ele>
        <time>2019-09-14T07:25:49Z</time>
      </trkpt>
      <trkpt lat="42.8717" lon="0.26031">
        <ele>2150.13</ele>
        <time>2019-09-14T07:25:57Z</time>
      </trkpt>
      <trkpt lat="42.8717" lon="0.26031">
        <ele>2152.05</ele>
        <time>2019-09-14T07:26:05Z</time>
      </trkpt>
      <trkpt lat="42.87171" lon="0.26031">
        <ele>2153.01</ele>
        <time>2019-09-14T07:26:14Z</time>
      </trkpt>
      <trkpt lat="42.87172" lon="0.26031">
        <ele>2153.49</ele>
        <time>2019-09-14T07:26:21Z</time>
      </trkpt>
      <trkpt lat="42.87172" lon="0.2603">
        <ele>2153.01</ele>
        <time>2019-09-14T07:26:31Z</time>
      </trkpt>
      <trkpt lat="42.87173" lon="0.26031">
        <ele>2152.53</ele>
        <time>2019-09-14T07:26:46Z</time>
      </trkpt>
      <trkpt lat="42.87173" lon="0.26031">
        <ele>2154.45</ele>
        <time>2019-09-14T07:26:54Z</time>
      </trkpt>
      <trkpt lat="42.87172" lon="0.2603">
        <ele>2153.97</ele>
        <time>2019-09-14T07:27:06Z</time>
      </trkpt>
      <trkpt lat="42.87172" lon="0.2603">
        <ele>2153.97</ele>
        <time>2019-09-14T07:27:21Z</time>
      </trkpt>
      <trkpt lat="42.87172" lon="0.2603">
        <ele>2153.97</ele>
        <time>2019-09-14T07:27:32Z</time>
      </trkpt>
      <trkpt lat="42.87172" lon="0.2603">
        <ele>2153.97</ele>
        <time>2019-09-14T07:27:48Z</time>
      </trkpt>
      <trkpt lat="42.87173" lon="0.26032">
        <ele>2153.97</ele>
        <time>2019-09-14T07:28:02Z</time>
      </trkpt>
      <trkpt lat="42.87172" lon="0.26032">
        <ele>2154.45</ele>
        <time>2019-09-14T07:28:13Z</time>
      </trkpt>
      <trkpt lat="42.87172" lon="0.26031">
        <ele>2154.45</ele>
        <time>2019-09-14T07:28:28Z</time>
      </trkpt>
      <trkpt lat="42.87172" lon="0.26032">
        <ele>2154.93</ele>
        <time>2019-09-14T07:28:40Z</time>
      </trkpt>
      <trkpt lat="42.87172" lon="0.26032">
        <ele>2154.93</ele>
        <time>2019-09-14T07:28:46Z</time>
      </trkpt>
      <trkpt lat="42.87172" lon="0.26032">
        <ele>2155.41</ele>
        <time>2019-09-14T07:28:52Z</time>
      </trkpt>
      <trkpt lat="42.87172" lon="0.26032">
        <ele>2155.41</ele>
        <time>2019-09-14T07:28:55Z</time>
      </trkpt>
      <trkpt lat="42.87172" lon="0.26034">
        <ele>2157.34</ele>
        <time>2019-09-14T07:29:02Z</time>
      </trkpt>
      <trkpt lat="42.87171" lon="0.26035">
        <ele>2157.82</ele>
        <time>2019-09-14T07:29:07Z</time>
      </trkpt>
      <trkpt lat="42.87172" lon="0.26039">
        <ele>2158.78</ele>
        <time>2019-09-14T07:29:15Z</time>
      </trkpt>
      <trkpt lat="42.87173" lon="0.26041">
        <ele>2160.22</ele>
        <time>2019-09-14T07:29:25Z</time>
      </trkpt>
      <trkpt lat="42.87172" lon="0.26044">
        <ele>2162.14</ele>
        <time>2019-09-14T07:29:33Z</time>
      </trkpt>
      <trkpt lat="42.87172" lon="0.26047">
        <ele>2164.06</ele>
        <time>2019-09-14T07:29:39Z</time>
      </trkpt>
      <trkpt lat="42.87171" lon="0.26048">
        <ele>2165.03</ele>
        <time>2019-09-14T07:29:45Z</time>
      </trkpt>
      <trkpt lat="42.87171" lon="0.26048">
        <ele>2165.51</ele>
        <time>2019-09-14T07:29:52Z</time>
      </trkpt>
      <trkpt lat="42.8717" lon="0.26049">
        <ele>2166.47</ele>
        <time>2019-09-14T07:30:00Z</time>
      </trkpt>
      <trkpt lat="42.87169" lon="0.26051">
        <ele>2165.99</ele>
        <time>2019-09-14T07:30:08Z</time>
      </trkpt>
      <trkpt lat="42.87169" lon="0.26052">
        <ele>2165.99</ele>
        <time>2019-09-14T07:30:14Z</time>
      </trkpt>
      <trkpt lat="42.87168" lon="0.26053">
        <ele>2166.47</ele>
        <time>2019-09-14T07:30:18Z</time>
      </trkpt>
      <trkpt lat="42.87166" lon="0.26054">
        <ele>2166.47</ele>
        <time>2019-09-14T07:30:20Z</time>
      </trkpt>
      <trkpt lat="42.87164" lon="0.26056">
        <ele>2167.43</ele>
        <time>2019-09-14T07:30:25Z</time>
      </trkpt>
      <trkpt lat="42.87162" lon="0.26056">
        <ele>2168.39</ele>
        <time>2019-09-14T07:30:32Z</time>
      </trkpt>
      <trkpt lat="42.87162" lon="0.2606">
        <ele>2169.83</ele>
        <time>2019-09-14T07:30:39Z</time>
      </trkpt>
      <trkpt lat="42.87161" lon="0.26062">
        <ele>2171.27</ele>
        <time>2019-09-14T07:30:47Z</time>
      </trkpt>
      <trkpt lat="42.87159" lon="0.26062">
        <ele>2171.27</ele>
        <time>2019-09-14T07:30:56Z</time>
      </trkpt>
      <trkpt lat="42.87159" lon="0.26062">
        <ele>2168.87</ele>
        <time>2019-09-14T07:31:03Z</time>
      </trkpt>
      <trkpt lat="42.87159" lon="0.26062">
        <ele>2174.64</ele>
        <time>2019-09-14T07:31:04Z</time>
      </trkpt>
      <trkpt lat="42.87159" lon="0.26062">
        <ele>2168.39</ele>
        <time>2019-09-14T07:31:05Z</time>
      </trkpt>
      <trkpt lat="42.87159" lon="0.26062">
        <ele>2173.68</ele>
        <time>2019-09-14T07:31:06Z</time>
      </trkpt>
      <trkpt lat="42.87159" lon="0.26062">
        <ele>2170.79</ele>
        <time>2019-09-14T07:31:07Z</time>
      </trkpt>
      <trkpt lat="42.87159" lon="0.26062">
        <ele>2167.43</ele>
        <time>2019-09-14T07:31:20Z</time>
      </trkpt>
      <trkpt lat="42.87159" lon="0.26063">
        <ele>2170.79</ele>
        <time>2019-09-14T07:31:21Z</time>
      </trkpt>
      <trkpt lat="42.87159" lon="0.26063">
        <ele>2172.24</ele>
        <time>2019-09-14T07:31:23Z</time>
      </trkpt>
      <trkpt lat="42.87159" lon="0.26063">
        <ele>2167.91</ele>
        <time>2019-09-14T07:31:24Z</time>
      </trkpt>
      <trkpt lat="42.87159" lon="0.26062">
        <ele>2173.2</ele>
        <time>2019-09-14T07:31:25Z</time>
      </trkpt>
      <trkpt lat="42.87159" lon="0.26062">
        <ele>2169.35</ele>
        <time>2019-09-14T07:31:34Z</time>
      </trkpt>
      <trkpt lat="42.87159" lon="0.26062">
        <ele>2173.68</ele>
        <time>2019-09-14T07:31:35Z</time>
      </trkpt>
      <trkpt lat="42.87159" lon="0.26062">
        <ele>2170.31</ele>
        <time>2019-09-14T07:31:47Z</time>
      </trkpt>
      <trkpt lat="42.87158" lon="0.26063">
        <ele>2171.27</ele>
        <time>2019-09-14T07:31:54Z</time>
      </trkpt>
      <trkpt lat="42.87157" lon="0.26065">
        <ele>2172.72</ele>
        <time>2019-09-14T07:32:00Z</time>
      </trkpt>
      <trkpt lat="42.87156" lon="0.2607">
        <ele>2173.68</ele>
        <time>2019-09-14T07:32:06Z</time>
      </trkpt>
      <trkpt lat="42.87155" lon="0.26074">
        <ele>2176.08</ele>
        <time>2019-09-14T07:32:14Z</time>
      </trkpt>
      <trkpt lat="42.87156" lon="0.26074">
        <ele>2176.56</ele>
        <time>2019-09-14T07:32:20Z</time>
      </trkpt>
      <trkpt lat="42.87156" lon="0.26079">
        <ele>2176.56</ele>
        <time>2019-09-14T07:32:26Z</time>
      </trkpt>
      <trkpt lat="42.87156" lon="0.26079">
        <ele>2177.04</ele>
        <time>2019-09-14T07:32:28Z</time>
      </trkpt>
      <trkpt lat="42.87155" lon="0.26084">
        <ele>2178.48</ele>
        <time>2019-09-14T07:32:34Z</time>
      </trkpt>
      <trkpt lat="42.87156" lon="0.26082">
        <ele>2178.97</ele>
        <time>2019-09-14T07:32:45Z</time>
      </trkpt>
      <trkpt lat="42.87155" lon="0.26083">
        <ele>2178.97</ele>
        <time>2019-09-14T07:32:58Z</time>
      </trkpt>
      <trkpt lat="42.87154" lon="0.26083">
        <ele>2178.97</ele>
        <time>2019-09-14T07:33:13Z</time>
      </trkpt>
      <trkpt lat="42.87154" lon="0.26083">
        <ele>2178.97</ele>
        <time>2019-09-14T07:33:27Z</time>
      </trkpt>
      <trkpt lat="42.87155" lon="0.26083">
        <ele>2179.45</ele>
        <time>2019-09-14T07:33:41Z</time>
      </trkpt>
      <trkpt lat="42.87155" lon="0.26083">
        <ele>2179.45</ele>
        <time>2019-09-14T07:33:56Z</time>
      </trkpt>
      <trkpt lat="42.87155" lon="0.26083">
        <ele>2179.93</ele>
        <time>2019-09-14T07:34:07Z</time>
      </trkpt>
      <trkpt lat="42.87157" lon="0.26083">
        <ele>2181.37</ele>
        <time>2019-09-14T07:34:12Z</time>
      </trkpt>
      <trkpt lat="42.87161" lon="0.2608">
        <ele>2182.81</ele>
        <time>2019-09-14T07:34:18Z</time>
      </trkpt>
      <trkpt lat="42.87164" lon="0.2608">
        <ele>2184.25</ele>
        <time>2019-09-14T07:34:24Z</time>
      </trkpt>
      <trkpt lat="42.87168" lon="0.26081">
        <ele>2186.18</ele>
        <time>2019-09-14T07:34:30Z</time>
      </trkpt>
      <trkpt lat="42.87166" lon="0.26085">
        <ele>2187.14</ele>
        <time>2019-09-14T07:34:35Z</time>
      </trkpt>
      <trkpt lat="42.87162" lon="0.2609">
        <ele>2188.58</ele>
        <time>2019-09-14T07:34:40Z</time>
      </trkpt>
      <trkpt lat="42.87159" lon="0.26096">
        <ele>2189.54</ele>
        <time>2019-09-14T07:34:46Z</time>
      </trkpt>
      <trkpt lat="42.87156" lon="0.26099">
        <ele>2190.98</ele>
        <time>2019-09-14T07:34:51Z</time>
      </trkpt>
      <trkpt lat="42.87153" lon="0.26104">
        <ele>2192.42</ele>
        <time>2019-09-14T07:34:58Z</time>
      </trkpt>
      <trkpt lat="42.87152" lon="0.26105">
        <ele>2193.39</ele>
        <time>2019-09-14T07:35:05Z</time>
      </trkpt>
      <trkpt lat="42.87152" lon="0.26105">
        <ele>2192.9</ele>
        <time>2019-09-14T07:35:17Z</time>
      </trkpt>
      <trkpt lat="42.87148" lon="0.2611">
        <ele>2194.35</ele>
        <time>2019-09-14T07:35:25Z</time>
      </trkpt>
      <trkpt lat="42.87147" lon="0.26116">
        <ele>2195.31</ele>
        <time>2019-09-14T07:35:33Z</time>
      </trkpt>
      <trkpt lat="42.87146" lon="0.26121">
        <ele>2196.75</ele>
        <time>2019-09-14T07:35:39Z</time>
      </trkpt>
      <trkpt lat="42.87145" lon="0.26127">
        <ele>2198.19</ele>
        <time>2019-09-14T07:35:46Z</time>
      </trkpt>
      <trkpt lat="42.87144" lon="0.26134">
        <ele>2199.63</ele>
        <time>2019-09-14T07:35:53Z</time>
      </trkpt>
      <trkpt lat="42.87143" lon="0.26138">
        <ele>2201.08</ele>
        <time>2019-09-14T07:35:59Z</time>
      </trkpt>
      <trkpt lat="42.87143" lon="0.26143">
        <ele>2202.52</ele>
        <time>2019-09-14T07:36:05Z</time>
      </trkpt>
      <trkpt lat="42.87143" lon="0.26146">
        <ele>2203.96</ele>
        <time>2019-09-14T07:36:11Z</time>
      </trkpt>
      <trkpt lat="42.87142" lon="0.2615">
        <ele>2205.4</ele>
        <time>2019-09-14T07:36:18Z</time>
      </trkpt>
      <trkpt lat="42.87142" lon="0.26156">
        <ele>2206.84</ele>
        <time>2019-09-14T07:36:26Z</time>
      </trkpt>
      <trkpt lat="42.87143" lon="0.2616">
        <ele>2208.29</ele>
        <time>2019-09-14T07:36:33Z</time>
      </trkpt>
      <trkpt lat="42.87143" lon="0.26162">
        <ele>2209.73</ele>
        <time>2019-09-14T07:36:41Z</time>
      </trkpt>
      <trkpt lat="42.87144" lon="0.26164">
        <ele>2211.17</ele>
        <time>2019-09-14T07:36:49Z</time>
      </trkpt>
      <trkpt lat="42.87145" lon="0.26166">
        <ele>2212.13</ele>
        <time>2019-09-14T07:36:55Z</time>
      </trkpt>
      <trkpt lat="42.87146" lon="0.26167">
        <ele>2213.57</ele>
        <time>2019-09-14T07:37:04Z</time>
      </trkpt>
      <trkpt lat="42.87146" lon="0.26169">
        <ele>2215.01</ele>
        <time>2019-09-14T07:37:10Z</time>
      </trkpt>
      <trkpt lat="42.87147" lon="0.26171">
        <ele>2216.46</ele>
        <time>2019-09-14T07:37:17Z</time>
      </trkpt>
      <trkpt lat="42.87146" lon="0.26172">
        <ele>2216.94</ele>
        <time>2019-09-14T07:37:27Z</time>
      </trkpt>
      <trkpt lat="42.87145" lon="0.26174">
        <ele>2216.94</ele>
        <time>2019-09-14T07:37:35Z</time>
      </trkpt>
      <trkpt lat="42.87143" lon="0.26175">
        <ele>2217.9</ele>
        <time>2019-09-14T07:37:41Z</time>
      </trkpt>
      <trkpt lat="42.87142" lon="0.26175">
        <ele>2217.9</ele>
        <time>2019-09-14T07:37:43Z</time>
      </trkpt>
      <trkpt lat="42.87139" lon="0.26179">
        <ele>2217.9</ele>
        <time>2019-09-14T07:37:50Z</time>
      </trkpt>
      <trkpt lat="42.87137" lon="0.26182">
        <ele>2219.34</ele>
        <time>2019-09-14T07:37:57Z</time>
      </trkpt>
      <trkpt lat="42.87136" lon="0.26186">
        <ele>2221.26</ele>
        <time>2019-09-14T07:38:06Z</time>
      </trkpt>
      <trkpt lat="42.87139" lon="0.26188">
        <ele>2222.71</ele>
        <time>2019-09-14T07:38:14Z</time>
      </trkpt>
      <trkpt lat="42.87142" lon="0.2619">
        <ele>2223.67</ele>
        <time>2019-09-14T07:38:20Z</time>
      </trkpt>
      <trkpt lat="42.87142" lon="0.26194">
        <ele>2225.59</ele>
        <time>2019-09-14T07:38:27Z</time>
      </trkpt>
      <trkpt lat="42.87142" lon="0.26197">
        <ele>2226.55</ele>
        <time>2019-09-14T07:38:36Z</time>
      </trkpt>
      <trkpt lat="42.87141" lon="0.262">
        <ele>2227.51</ele>
        <time>2019-09-14T07:38:39Z</time>
      </trkpt>
      <trkpt lat="42.8714" lon="0.26206">
        <ele>2228.47</ele>
        <time>2019-09-14T07:38:46Z</time>
      </trkpt>
      <trkpt lat="42.87143" lon="0.26207">
        <ele>2229.43</ele>
        <time>2019-09-14T07:38:52Z</time>
      </trkpt>
      <trkpt lat="42.87145" lon="0.26209">
        <ele>2231.36</ele>
        <time>2019-09-14T07:39:01Z</time>
      </trkpt>
      <trkpt lat="42.87147" lon="0.26212">
        <ele>2232.8</ele>
        <time>2019-09-14T07:39:08Z</time>
      </trkpt>
      <trkpt lat="42.8715" lon="0.26213">
        <ele>2233.76</ele>
        <time>2019-09-14T07:39:15Z</time>
      </trkpt>
      <trkpt lat="42.87154" lon="0.26211">
        <ele>2235.68</ele>
        <time>2019-09-14T07:39:22Z</time>
      </trkpt>
      <trkpt lat="42.87156" lon="0.26211">
        <ele>2236.64</ele>
        <time>2019-09-14T07:39:28Z</time>
      </trkpt>
      <trkpt lat="42.87153" lon="0.26216">
        <ele>2238.09</ele>
        <time>2019-09-14T07:39:36Z</time>
      </trkpt>
      <trkpt lat="42.87153" lon="0.26218">
        <ele>2239.05</ele>
        <time>2019-09-14T07:39:42Z</time>
      </trkpt>
      <trkpt lat="42.87153" lon="0.26218">
        <ele>2240.01</ele>
        <time>2019-09-14T07:39:48Z</time>
      </trkpt>
      <trkpt lat="42.87152" lon="0.2622">
        <ele>2241.45</ele>
        <time>2019-09-14T07:39:55Z</time>
      </trkpt>
      <trkpt lat="42.87151" lon="0.26223">
        <ele>2242.89</ele>
        <time>2019-09-14T07:40:03Z</time>
      </trkpt>
      <trkpt lat="42.87154" lon="0.26227">
        <ele>2243.85</ele>
        <time>2019-09-14T07:40:08Z</time>
      </trkpt>
      <trkpt lat="42.8716" lon="0.26227">
        <ele>2245.3</ele>
        <time>2019-09-14T07:40:16Z</time>
      </trkpt>
      <trkpt lat="42.87162" lon="0.26229">
        <ele>2246.74</ele>
        <time>2019-09-14T07:40:23Z</time>
      </trkpt>
      <trkpt lat="42.87165" lon="0.2623">
        <ele>2248.18</ele>
        <time>2019-09-14T07:40:30Z</time>
      </trkpt>
      <trkpt lat="42.87167" lon="0.26233">
        <ele>2249.62</ele>
        <time>2019-09-14T07:40:37Z</time>
      </trkpt>
      <trkpt lat="42.87169" lon="0.26234">
        <ele>2251.06</ele>
        <time>2019-09-14T07:40:44Z</time>
      </trkpt>
      <trkpt lat="42.8717" lon="0.26236">
        <ele>2251.54</ele>
        <time>2019-09-14T07:40:46Z</time>
      </trkpt>
      <trkpt lat="42.87173" lon="0.26236">
        <ele>2252.51</ele>
        <time>2019-09-14T07:40:52Z</time>
      </trkpt>
      <trkpt lat="42.87175" lon="0.26238">
        <ele>2253.95</ele>
        <time>2019-09-14T07:40:58Z</time>
      </trkpt>
      <trkpt lat="42.87176" lon="0.26239">
        <ele>2255.39</ele>
        <time>2019-09-14T07:41:04Z</time>
      </trkpt>
      <trkpt lat="42.87179" lon="0.26242">
        <ele>2256.83</ele>
        <time>2019-09-14T07:41:12Z</time>
      </trkpt>
      <trkpt lat="42.8718" lon="0.26246">
        <ele>2258.27</ele>
        <time>2019-09-14T07:41:22Z</time>
      </trkpt>
      <trkpt lat="42.87182" lon="0.26251">
        <ele>2260.2</ele>
        <time>2019-09-14T07:41:31Z</time>
      </trkpt>
      <trkpt lat="42.87182" lon="0.26255">
        <ele>2261.16</ele>
        <time>2019-09-14T07:41:38Z</time>
      </trkpt>
      <trkpt lat="42.87183" lon="0.26255">
        <ele>2261.64</ele>
        <time>2019-09-14T07:41:39Z</time>
      </trkpt>
      <trkpt lat="42.87184" lon="0.26262">
        <ele>2262.6</ele>
        <time>2019-09-14T07:41:45Z</time>
      </trkpt>
      <trkpt lat="42.87188" lon="0.26265">
        <ele>2264.52</ele>
        <time>2019-09-14T07:41:53Z</time>
      </trkpt>
      <trkpt lat="42.87191" lon="0.26271">
        <ele>2265.48</ele>
        <time>2019-09-14T07:42:00Z</time>
      </trkpt>
      <trkpt lat="42.87191" lon="0.26275">
        <ele>2266.93</ele>
        <time>2019-09-14T07:42:06Z</time>
      </trkpt>
      <trkpt lat="42.87196" lon="0.26279">
        <ele>2267.89</ele>
        <time>2019-09-14T07:42:15Z</time>
      </trkpt>
      <trkpt lat="42.87197" lon="0.26286">
        <ele>2269.33</ele>
        <time>2019-09-14T07:42:23Z</time>
      </trkpt>
      <trkpt lat="42.87195" lon="0.26293">
        <ele>2269.81</ele>
        <time>2019-09-14T07:42:28Z</time>
      </trkpt>
      <trkpt lat="42.87195" lon="0.26299">
        <ele>2270.29</ele>
        <time>2019-09-14T07:42:34Z</time>
      </trkpt>
      <trkpt lat="42.87195" lon="0.263">
        <ele>2270.29</ele>
        <time>2019-09-14T07:42:35Z</time>
      </trkpt>
      <trkpt lat="42.87197" lon="0.26305">
        <ele>2271.73</ele>
        <time>2019-09-14T07:42:43Z</time>
      </trkpt>
      <trkpt lat="42.87198" lon="0.2631">
        <ele>2270.77</ele>
        <time>2019-09-14T07:42:49Z</time>
      </trkpt>
      <trkpt lat="42.87201" lon="0.26323">
        <ele>2270.77</ele>
        <time>2019-09-14T07:42:57Z</time>
      </trkpt>
      <trkpt lat="42.87202" lon="0.26334">
        <ele>2271.73</ele>
        <time>2019-09-14T07:43:04Z</time>
      </trkpt>
      <trkpt lat="42.87203" lon="0.2634">
        <ele>2271.73</ele>
        <time>2019-09-14T07:43:10Z</time>
      </trkpt>
      <trkpt lat="42.87203" lon="0.26342">
        <ele>2272.69</ele>
        <time>2019-09-14T07:43:18Z</time>
      </trkpt>
      <trkpt lat="42.87202" lon="0.26343">
        <ele>2272.21</ele>
        <time>2019-09-14T07:43:28Z</time>
      </trkpt>
      <trkpt lat="42.87202" lon="0.26343">
        <ele>2272.69</ele>
        <time>2019-09-14T07:43:39Z</time>
      </trkpt>
      <trkpt lat="42.87201" lon="0.26347">
        <ele>2273.17</ele>
        <time>2019-09-14T07:43:55Z</time>
      </trkpt>
      <trkpt lat="42.87205" lon="0.26352">
        <ele>2274.62</ele>
        <time>2019-09-14T07:44:03Z</time>
      </trkpt>
      <trkpt lat="42.87204" lon="0.26356">
        <ele>2276.54</ele>
        <time>2019-09-14T07:44:11Z</time>
      </trkpt>
      <trkpt lat="42.87203" lon="0.2636">
        <ele>2277.5</ele>
        <time>2019-09-14T07:44:20Z</time>
      </trkpt>
      <trkpt lat="42.87204" lon="0.26368">
        <ele>2277.98</ele>
        <time>2019-09-14T07:44:28Z</time>
      </trkpt>
      <trkpt lat="42.87204" lon="0.26367">
        <ele>2279.42</ele>
        <time>2019-09-14T07:44:38Z</time>
      </trkpt>
      <trkpt lat="42.87209" lon="0.26375">
        <ele>2281.35</ele>
        <time>2019-09-14T07:44:47Z</time>
      </trkpt>
      <trkpt lat="42.87209" lon="0.26381">
        <ele>2282.79</ele>
        <time>2019-09-14T07:44:54Z</time>
      </trkpt>
      <trkpt lat="42.87212" lon="0.26381">
        <ele>2284.71</ele>
        <time>2019-09-14T07:45:00Z</time>
      </trkpt>
      <trkpt lat="42.87213" lon="0.26388">
        <ele>2286.15</ele>
        <time>2019-09-14T07:45:06Z</time>
      </trkpt>
      <trkpt lat="42.87215" lon="0.26389">
        <ele>2287.59</ele>
        <time>2019-09-14T07:45:12Z</time>
      </trkpt>
      <trkpt lat="42.87219" lon="0.26393">
        <ele>2289.04</ele>
        <time>2019-09-14T07:45:18Z</time>
      </trkpt>
      <trkpt lat="42.87221" lon="0.26397">
        <ele>2290</ele>
        <time>2019-09-14T07:45:25Z</time>
      </trkpt>
      <trkpt lat="42.87224" lon="0.26398">
        <ele>2291.44</ele>
        <time>2019-09-14T07:45:32Z</time>
      </trkpt>
      <trkpt lat="42.87225" lon="0.26401">
        <ele>2292.4</ele>
        <time>2019-09-14T07:45:35Z</time>
      </trkpt>
      <trkpt lat="42.87227" lon="0.26405">
        <ele>2293.84</ele>
        <time>2019-09-14T07:45:42Z</time>
      </trkpt>
      <trkpt lat="42.8723" lon="0.26408">
        <ele>2294.8</ele>
        <time>2019-09-14T07:45:48Z</time>
      </trkpt>
      <trkpt lat="42.8723" lon="0.26414">
        <ele>2296.73</ele>
        <time>2019-09-14T07:45:56Z</time>
      </trkpt>
      <trkpt lat="42.87227" lon="0.2642">
        <ele>2297.69</ele>
        <time>2019-09-14T07:46:04Z</time>
      </trkpt>
      <trkpt lat="42.87227" lon="0.26426">
        <ele>2298.65</ele>
        <time>2019-09-14T07:46:10Z</time>
      </trkpt>
      <trkpt lat="42.87226" lon="0.26436">
        <ele>2300.57</ele>
        <time>2019-09-14T07:46:18Z</time>
      </trkpt>
      <trkpt lat="42.87224" lon="0.26442">
        <ele>2302.01</ele>
        <time>2019-09-14T07:46:24Z</time>
      </trkpt>
      <trkpt lat="42.87225" lon="0.26449">
        <ele>2303.46</ele>
        <time>2019-09-14T07:46:31Z</time>
      </trkpt>
      <trkpt lat="42.8723" lon="0.2645">
        <ele>2304.9</ele>
        <time>2019-09-14T07:46:39Z</time>
      </trkpt>
      <trkpt lat="42.87232" lon="0.26451">
        <ele>2306.34</ele>
        <time>2019-09-14T07:46:45Z</time>
      </trkpt>
      <trkpt lat="42.87235" lon="0.26452">
        <ele>2307.3</ele>
        <time>2019-09-14T07:46:51Z</time>
      </trkpt>
      <trkpt lat="42.87236" lon="0.26454">
        <ele>2308.74</ele>
        <time>2019-09-14T07:46:56Z</time>
      </trkpt>
      <trkpt lat="42.87237" lon="0.26457">
        <ele>2309.7</ele>
        <time>2019-09-14T07:47:03Z</time>
      </trkpt>
      <trkpt lat="42.8724" lon="0.26459">
        <ele>2311.15</ele>
        <time>2019-09-14T07:47:10Z</time>
      </trkpt>
      <trkpt lat="42.87239" lon="0.26463">
        <ele>2313.07</ele>
        <time>2019-09-14T07:47:18Z</time>
      </trkpt>
      <trkpt lat="42.87242" lon="0.26466">
        <ele>2314.03</ele>
        <time>2019-09-14T07:47:26Z</time>
      </trkpt>
      <trkpt lat="42.87246" lon="0.26468">
        <ele>2315.95</ele>
        <time>2019-09-14T07:47:35Z</time>
      </trkpt>
      <trkpt lat="42.87245" lon="0.26469">
        <ele>2317.4</ele>
        <time>2019-09-14T07:47:43Z</time>
      </trkpt>
      <trkpt lat="42.87248" lon="0.26471">
        <ele>2318.36</ele>
        <time>2019-09-14T07:47:50Z</time>
      </trkpt>
      <trkpt lat="42.87249" lon="0.26475">
        <ele>2319.32</ele>
        <time>2019-09-14T07:47:57Z</time>
      </trkpt>
      <trkpt lat="42.87251" lon="0.26475">
        <ele>2320.76</ele>
        <time>2019-09-14T07:48:06Z</time>
      </trkpt>
      <trkpt lat="42.87253" lon="0.26477">
        <ele>2322.2</ele>
        <time>2019-09-14T07:48:16Z</time>
      </trkpt>
      <trkpt lat="42.87256" lon="0.26477">
        <ele>2323.16</ele>
        <time>2019-09-14T07:48:23Z</time>
      </trkpt>
      <trkpt lat="42.87258" lon="0.26476">
        <ele>2324.12</ele>
        <time>2019-09-14T07:48:29Z</time>
      </trkpt>
      <trkpt lat="42.87259" lon="0.26478">
        <ele>2325.09</ele>
        <time>2019-09-14T07:48:35Z</time>
      </trkpt>
      <trkpt lat="42.8726" lon="0.2648">
        <ele>2326.53</ele>
        <time>2019-09-14T07:48:42Z</time>
      </trkpt>
      <trkpt lat="42.87261" lon="0.2648">
        <ele>2327.01</ele>
        <time>2019-09-14T07:48:47Z</time>
      </trkpt>
      <trkpt lat="42.87264" lon="0.26481">
        <ele>2327.97</ele>
        <time>2019-09-14T07:48:54Z</time>
      </trkpt>
      <trkpt lat="42.87265" lon="0.26485">
        <ele>2328.93</ele>
        <time>2019-09-14T07:49:00Z</time>
      </trkpt>
      <trkpt lat="42.87267" lon="0.26489">
        <ele>2329.89</ele>
        <time>2019-09-14T07:49:07Z</time>
      </trkpt>
      <trkpt lat="42.87266" lon="0.26493">
        <ele>2330.85</ele>
        <time>2019-09-14T07:49:15Z</time>
      </trkpt>
      <trkpt lat="42.87266" lon="0.26495">
        <ele>2332.78</ele>
        <time>2019-09-14T07:49:23Z</time>
      </trkpt>
      <trkpt lat="42.87267" lon="0.26501">
        <ele>2333.74</ele>
        <time>2019-09-14T07:49:30Z</time>
      </trkpt>
      <trkpt lat="42.87267" lon="0.26504">
        <ele>2334.7</ele>
        <time>2019-09-14T07:49:37Z</time>
      </trkpt>
      <trkpt lat="42.87267" lon="0.2651">
        <ele>2335.66</ele>
        <time>2019-09-14T07:49:45Z</time>
      </trkpt>
      <trkpt lat="42.8727" lon="0.2651">
        <ele>2337.1</ele>
        <time>2019-09-14T07:49:53Z</time>
      </trkpt>
      <trkpt lat="42.87274" lon="0.26511">
        <ele>2338.54</ele>
        <time>2019-09-14T07:50:01Z</time>
      </trkpt>
      <trkpt lat="42.87277" lon="0.2651">
        <ele>2339.51</ele>
        <time>2019-09-14T07:50:08Z</time>
      </trkpt>
      <trkpt lat="42.8728" lon="0.26512">
        <ele>2340.95</ele>
        <time>2019-09-14T07:50:17Z</time>
      </trkpt>
      <trkpt lat="42.87283" lon="0.26511">
        <ele>2342.87</ele>
        <time>2019-09-14T07:50:25Z</time>
      </trkpt>
      <trkpt lat="42.87283" lon="0.26513">
        <ele>2343.35</ele>
        <time>2019-09-14T07:50:32Z</time>
      </trkpt>
      <trkpt lat="42.87283" lon="0.26514">
        <ele>2344.31</ele>
        <time>2019-09-14T07:50:38Z</time>
      </trkpt>
      <trkpt lat="42.87283" lon="0.26515">
        <ele>2345.75</ele>
        <time>2019-09-14T07:50:46Z</time>
      </trkpt>
      <trkpt lat="42.87285" lon="0.26518">
        <ele>2346.72</ele>
        <time>2019-09-14T07:50:53Z</time>
      </trkpt>
      <trkpt lat="42.87285" lon="0.26523">
        <ele>2348.16</ele>
        <time>2019-09-14T07:51:01Z</time>
      </trkpt>
      <trkpt lat="42.87286" lon="0.26528">
        <ele>2349.12</ele>
        <time>2019-09-14T07:51:09Z</time>
      </trkpt>
      <trkpt lat="42.87287" lon="0.2653">
        <ele>2350.08</ele>
        <time>2019-09-14T07:51:17Z</time>
      </trkpt>
      <trkpt lat="42.87286" lon="0.2653">
        <ele>2350.56</ele>
        <time>2019-09-14T07:51:23Z</time>
      </trkpt>
      <trkpt lat="42.87288" lon="0.26533">
        <ele>2352</ele>
        <time>2019-09-14T07:51:32Z</time>
      </trkpt>
      <trkpt lat="42.87288" lon="0.26535">
        <ele>2353.93</ele>
        <time>2019-09-14T07:51:41Z</time>
      </trkpt>
      <trkpt lat="42.87287" lon="0.26539">
        <ele>2354.89</ele>
        <time>2019-09-14T07:51:48Z</time>
      </trkpt>
      <trkpt lat="42.87287" lon="0.26541">
        <ele>2355.85</ele>
        <time>2019-09-14T07:51:54Z</time>
      </trkpt>
      <trkpt lat="42.87289" lon="0.26542">
        <ele>2356.81</ele>
        <time>2019-09-14T07:51:59Z</time>
      </trkpt>
      <trkpt lat="42.87293" lon="0.26544">
        <ele>2358.25</ele>
        <time>2019-09-14T07:52:06Z</time>
      </trkpt>
      <trkpt lat="42.87295" lon="0.26545">
        <ele>2359.69</ele>
        <time>2019-09-14T07:52:14Z</time>
      </trkpt>
      <trkpt lat="42.87295" lon="0.26548">
        <ele>2360.65</ele>
        <time>2019-09-14T07:52:21Z</time>
      </trkpt>
      <trkpt lat="42.87295" lon="0.26551">
        <ele>2361.62</ele>
        <time>2019-09-14T07:52:27Z</time>
      </trkpt>
      <trkpt lat="42.87295" lon="0.26553">
        <ele>2362.1</ele>
        <time>2019-09-14T07:52:29Z</time>
      </trkpt>
      <trkpt lat="42.87295" lon="0.26558">
        <ele>2363.06</ele>
        <time>2019-09-14T07:52:36Z</time>
      </trkpt>
      <trkpt lat="42.87294" lon="0.2656">
        <ele>2364.5</ele>
        <time>2019-09-14T07:52:43Z</time>
      </trkpt>
      <trkpt lat="42.87296" lon="0.26562">
        <ele>2364.98</ele>
        <time>2019-09-14T07:52:50Z</time>
      </trkpt>
      <trkpt lat="42.87299" lon="0.2656">
        <ele>2366.9</ele>
        <time>2019-09-14T07:52:58Z</time>
      </trkpt>
      <trkpt lat="42.87302" lon="0.26557">
        <ele>2367.86</ele>
        <time>2019-09-14T07:53:06Z</time>
      </trkpt>
      <trkpt lat="42.87304" lon="0.26557">
        <ele>2368.83</ele>
        <time>2019-09-14T07:53:14Z</time>
      </trkpt>
      <trkpt lat="42.87305" lon="0.26559">
        <ele>2369.31</ele>
        <time>2019-09-14T07:53:22Z</time>
      </trkpt>
      <trkpt lat="42.87305" lon="0.26561">
        <ele>2371.23</ele>
        <time>2019-09-14T07:53:27Z</time>
      </trkpt>
      <trkpt lat="42.87305" lon="0.2656">
        <ele>2372.19</ele>
        <time>2019-09-14T07:53:33Z</time>
      </trkpt>
      <trkpt lat="42.87306" lon="0.2656">
        <ele>2372.67</ele>
        <time>2019-09-14T07:53:42Z</time>
      </trkpt>
      <trkpt lat="42.87306" lon="0.26565">
        <ele>2374.11</ele>
        <time>2019-09-14T07:53:48Z</time>
      </trkpt>
      <trkpt lat="42.87307" lon="0.26567">
        <ele>2375.55</ele>
        <time>2019-09-14T07:53:54Z</time>
      </trkpt>
      <trkpt lat="42.87307" lon="0.26573">
        <ele>2377.48</ele>
        <time>2019-09-14T07:54:04Z</time>
      </trkpt>
      <trkpt lat="42.87308" lon="0.26579">
        <ele>2378.44</ele>
        <time>2019-09-14T07:54:11Z</time>
      </trkpt>
      <trkpt lat="42.87309" lon="0.26584">
        <ele>2379.88</ele>
        <time>2019-09-14T07:54:20Z</time>
      </trkpt>
      <trkpt lat="42.87308" lon="0.26586">
        <ele>2380.84</ele>
        <time>2019-09-14T07:54:25Z</time>
      </trkpt>
      <trkpt lat="42.87309" lon="0.26588">
        <ele>2381.32</ele>
        <time>2019-09-14T07:54:31Z</time>
      </trkpt>
      <trkpt lat="42.87311" lon="0.26586">
        <ele>2383.25</ele>
        <time>2019-09-14T07:54:39Z</time>
      </trkpt>
      <trkpt lat="42.87312" lon="0.26586">
        <ele>2385.17</ele>
        <time>2019-09-14T07:54:48Z</time>
      </trkpt>
      <trkpt lat="42.87313" lon="0.26589">
        <ele>2386.13</ele>
        <time>2019-09-14T07:54:55Z</time>
      </trkpt>
      <trkpt lat="42.87315" lon="0.2659">
        <ele>2387.57</ele>
        <time>2019-09-14T07:55:02Z</time>
      </trkpt>
      <trkpt lat="42.87316" lon="0.26592">
        <ele>2388.05</ele>
        <time>2019-09-14T07:55:06Z</time>
      </trkpt>
      <trkpt lat="42.87319" lon="0.26591">
        <ele>2388.53</ele>
        <time>2019-09-14T07:55:13Z</time>
      </trkpt>
      <trkpt lat="42.87319" lon="0.26594">
        <ele>2389.97</ele>
        <time>2019-09-14T07:55:20Z</time>
      </trkpt>
      <trkpt lat="42.87319" lon="0.266">
        <ele>2391.9</ele>
        <time>2019-09-14T07:55:28Z</time>
      </trkpt>
      <trkpt lat="42.87319" lon="0.26606">
        <ele>2392.38</ele>
        <time>2019-09-14T07:55:37Z</time>
      </trkpt>
      <trkpt lat="42.87322" lon="0.26609">
        <ele>2393.82</ele>
        <time>2019-09-14T07:55:43Z</time>
      </trkpt>
      <trkpt lat="42.87326" lon="0.26605">
        <ele>2395.26</ele>
        <time>2019-09-14T07:55:50Z</time>
      </trkpt>
      <trkpt lat="42.8733" lon="0.26604">
        <ele>2396.22</ele>
        <time>2019-09-14T07:55:58Z</time>
      </trkpt>
      <trkpt lat="42.87333" lon="0.26601">
        <ele>2397.67</ele>
        <time>2019-09-14T07:56:06Z</time>
      </trkpt>
      <trkpt lat="42.87334" lon="0.26605">
        <ele>2399.11</ele>
        <time>2019-09-14T07:56:14Z</time>
      </trkpt>
      <trkpt lat="42.87334" lon="0.26607">
        <ele>2400.07</ele>
        <time>2019-09-14T07:56:20Z</time>
      </trkpt>
      <trkpt lat="42.87335" lon="0.26613">
        <ele>2401.03</ele>
        <time>2019-09-14T07:56:27Z</time>
      </trkpt>
      <trkpt lat="42.87335" lon="0.26621">
        <ele>2402.47</ele>
        <time>2019-09-14T07:56:34Z</time>
      </trkpt>
      <trkpt lat="42.87335" lon="0.26625">
        <ele>2403.43</ele>
        <time>2019-09-14T07:56:42Z</time>
      </trkpt>
      <trkpt lat="42.87336" lon="0.26623">
        <ele>2404.39</ele>
        <time>2019-09-14T07:56:48Z</time>
      </trkpt>
      <trkpt lat="42.87339" lon="0.26618">
        <ele>2405.84</ele>
        <time>2019-09-14T07:56:56Z</time>
      </trkpt>
      <trkpt lat="42.87342" lon="0.26615">
        <ele>2406.8</ele>
        <time>2019-09-14T07:57:02Z</time>
      </trkpt>
      <trkpt lat="42.87343" lon="0.26618">
        <ele>2407.76</ele>
        <time>2019-09-14T07:57:09Z</time>
      </trkpt>
      <trkpt lat="42.87344" lon="0.26627">
        <ele>2409.2</ele>
        <time>2019-09-14T07:57:18Z</time>
      </trkpt>
      <trkpt lat="42.87342" lon="0.26632">
        <ele>2410.64</ele>
        <time>2019-09-14T07:57:26Z</time>
      </trkpt>
      <trkpt lat="42.87342" lon="0.26636">
        <ele>2411.6</ele>
        <time>2019-09-14T07:57:33Z</time>
      </trkpt>
      <trkpt lat="42.87344" lon="0.26639">
        <ele>2412.57</ele>
        <time>2019-09-14T07:57:40Z</time>
      </trkpt>
      <trkpt lat="42.87347" lon="0.26637">
        <ele>2413.53</ele>
        <time>2019-09-14T07:57:46Z</time>
      </trkpt>
      <trkpt lat="42.87353" lon="0.26632">
        <ele>2415.45</ele>
        <time>2019-09-14T07:57:55Z</time>
      </trkpt>
      <trkpt lat="42.87357" lon="0.26626">
        <ele>2416.41</ele>
        <time>2019-09-14T07:58:03Z</time>
      </trkpt>
      <trkpt lat="42.8736" lon="0.26622">
        <ele>2416.41</ele>
        <time>2019-09-14T07:58:09Z</time>
      </trkpt>
      <trkpt lat="42.87362" lon="0.26617">
        <ele>2417.85</ele>
        <time>2019-09-14T07:58:16Z</time>
      </trkpt>
      <trkpt lat="42.87365" lon="0.26616">
        <ele>2418.81</ele>
        <time>2019-09-14T07:58:22Z</time>
      </trkpt>
      <trkpt lat="42.87368" lon="0.26611">
        <ele>2419.3</ele>
        <time>2019-09-14T07:58:29Z</time>
      </trkpt>
      <trkpt lat="42.87371" lon="0.26608">
        <ele>2419.78</ele>
        <time>2019-09-14T07:58:32Z</time>
      </trkpt>
      <trkpt lat="42.87375" lon="0.266">
        <ele>2421.22</ele>
        <time>2019-09-14T07:58:41Z</time>
      </trkpt>
      <trkpt lat="42.87378" lon="0.26597">
        <ele>2422.18</ele>
        <time>2019-09-14T07:58:50Z</time>
      </trkpt>
      <trkpt lat="42.87379" lon="0.26596">
        <ele>2423.62</ele>
        <time>2019-09-14T07:58:57Z</time>
      </trkpt>
      <trkpt lat="42.87384" lon="0.26592">
        <ele>2426.02</ele>
        <time>2019-09-14T07:59:05Z</time>
      </trkpt>
      <trkpt lat="42.87385" lon="0.26589">
        <ele>2426.02</ele>
        <time>2019-09-14T07:59:13Z</time>
      </trkpt>
      <trkpt lat="42.87388" lon="0.26587">
        <ele>2427.47</ele>
        <time>2019-09-14T07:59:21Z</time>
      </trkpt>
      <trkpt lat="42.8739" lon="0.26584">
        <ele>2428.91</ele>
        <time>2019-09-14T07:59:28Z</time>
      </trkpt>
      <trkpt lat="42.87393" lon="0.26581">
        <ele>2430.35</ele>
        <time>2019-09-14T07:59:36Z</time>
      </trkpt>
      <trkpt lat="42.87396" lon="0.26577">
        <ele>2431.79</ele>
        <time>2019-09-14T07:59:44Z</time>
      </trkpt>
      <trkpt lat="42.87396" lon="0.26575">
        <ele>2432.27</ele>
        <time>2019-09-14T07:59:52Z</time>
      </trkpt>
      <trkpt lat="42.87397" lon="0.26574">
        <ele>2433.23</ele>
        <time>2019-09-14T07:59:59Z</time>
      </trkpt>
      <trkpt lat="42.874" lon="0.26572">
        <ele>2435.16</ele>
        <time>2019-09-14T08:00:07Z</time>
      </trkpt>
      <trkpt lat="42.87402" lon="0.26568">
        <ele>2437.08</ele>
        <time>2019-09-14T08:00:16Z</time>
      </trkpt>
      <trkpt lat="42.87405" lon="0.26563">
        <ele>2438.52</ele>
        <time>2019-09-14T08:00:24Z</time>
      </trkpt>
      <trkpt lat="42.87408" lon="0.26563">
        <ele>2439</ele>
        <time>2019-09-14T08:00:30Z</time>
      </trkpt>
      <trkpt lat="42.87408" lon="0.26565">
        <ele>2440.44</ele>
        <time>2019-09-14T08:00:37Z</time>
      </trkpt>
      <trkpt lat="42.87411" lon="0.26568">
        <ele>2442.37</ele>
        <time>2019-09-14T08:00:46Z</time>
      </trkpt>
      <trkpt lat="42.87413" lon="0.26569">
        <ele>2442.85</ele>
        <time>2019-09-14T08:00:51Z</time>
      </trkpt>
      <trkpt lat="42.87415" lon="0.26571">
        <ele>2443.81</ele>
        <time>2019-09-14T08:00:57Z</time>
      </trkpt>
      <trkpt lat="42.87417" lon="0.26575">
        <ele>2445.25</ele>
        <time>2019-09-14T08:01:04Z</time>
      </trkpt>
      <trkpt lat="42.8742" lon="0.26575">
        <ele>2446.21</ele>
        <time>2019-09-14T08:01:09Z</time>
      </trkpt>
      <trkpt lat="42.87423" lon="0.26577">
        <ele>2448.13</ele>
        <time>2019-09-14T08:01:19Z</time>
      </trkpt>
      <trkpt lat="42.87424" lon="0.26576">
        <ele>2449.58</ele>
        <time>2019-09-14T08:01:26Z</time>
      </trkpt>
      <trkpt lat="42.87424" lon="0.26576">
        <ele>2451.02</ele>
        <time>2019-09-14T08:01:33Z</time>
      </trkpt>
      <trkpt lat="42.87424" lon="0.26578">
        <ele>2451.98</ele>
        <time>2019-09-14T08:01:39Z</time>
      </trkpt>
      <trkpt lat="42.87424" lon="0.2658">
        <ele>2453.42</ele>
        <time>2019-09-14T08:01:47Z</time>
      </trkpt>
      <trkpt lat="42.87424" lon="0.26583">
        <ele>2454.86</ele>
        <time>2019-09-14T08:01:53Z</time>
      </trkpt>
      <trkpt lat="42.87429" lon="0.26589">
        <ele>2456.31</ele>
        <time>2019-09-14T08:02:00Z</time>
      </trkpt>
      <trkpt lat="42.87431" lon="0.26594">
        <ele>2457.27</ele>
        <time>2019-09-14T08:02:06Z</time>
      </trkpt>
      <trkpt lat="42.87433" lon="0.26598">
        <ele>2458.71</ele>
        <time>2019-09-14T08:02:13Z</time>
      </trkpt>
      <trkpt lat="42.87434" lon="0.26601">
        <ele>2460.15</ele>
        <time>2019-09-14T08:02:21Z</time>
      </trkpt>
      <trkpt lat="42.87433" lon="0.26606">
        <ele>2461.59</ele>
        <time>2019-09-14T08:02:28Z</time>
      </trkpt>
      <trkpt lat="42.87433" lon="0.26607">
        <ele>2461.59</ele>
        <time>2019-09-14T08:02:29Z</time>
      </trkpt>
      <trkpt lat="42.87432" lon="0.2661">
        <ele>2463.04</ele>
        <time>2019-09-14T08:02:36Z</time>
      </trkpt>
      <trkpt lat="42.87431" lon="0.26611">
        <ele>2464</ele>
        <time>2019-09-14T08:02:44Z</time>
      </trkpt>
      <trkpt lat="42.8743" lon="0.26612">
        <ele>2465.44</ele>
        <time>2019-09-14T08:02:52Z</time>
      </trkpt>
      <trkpt lat="42.8743" lon="0.26614">
        <ele>2466.4</ele>
        <time>2019-09-14T08:02:59Z</time>
      </trkpt>
      <trkpt lat="42.8743" lon="0.26615">
        <ele>2466.88</ele>
        <time>2019-09-14T08:03:04Z</time>
      </trkpt>
      <trkpt lat="42.87427" lon="0.26619">
        <ele>2468.32</ele>
        <time>2019-09-14T08:03:10Z</time>
      </trkpt>
      <trkpt lat="42.87428" lon="0.26621">
        <ele>2469.76</ele>
        <time>2019-09-14T08:03:16Z</time>
      </trkpt>
      <trkpt lat="42.87428" lon="0.26624">
        <ele>2471.21</ele>
        <time>2019-09-14T08:03:24Z</time>
      </trkpt>
      <trkpt lat="42.87428" lon="0.26627">
        <ele>2472.17</ele>
        <time>2019-09-14T08:03:30Z</time>
      </trkpt>
      <trkpt lat="42.87428" lon="0.26629">
        <ele>2473.13</ele>
        <time>2019-09-14T08:03:35Z</time>
      </trkpt>
      <trkpt lat="42.87429" lon="0.26637">
        <ele>2474.57</ele>
        <time>2019-09-14T08:03:42Z</time>
      </trkpt>
      <trkpt lat="42.87429" lon="0.26643">
        <ele>2475.53</ele>
        <time>2019-09-14T08:03:49Z</time>
      </trkpt>
      <trkpt lat="42.87429" lon="0.26644">
        <ele>2476.97</ele>
        <time>2019-09-14T08:03:55Z</time>
      </trkpt>
      <trkpt lat="42.87429" lon="0.26647">
        <ele>2478.42</ele>
        <time>2019-09-14T08:04:03Z</time>
      </trkpt>
      <trkpt lat="42.87428" lon="0.26652">
        <ele>2479.86</ele>
        <time>2019-09-14T08:04:10Z</time>
      </trkpt>
      <trkpt lat="42.87429" lon="0.26656">
        <ele>2480.34</ele>
        <time>2019-09-14T08:04:15Z</time>
      </trkpt>
      <trkpt lat="42.87427" lon="0.2666">
        <ele>2481.78</ele>
        <time>2019-09-14T08:04:23Z</time>
      </trkpt>
      <trkpt lat="42.87426" lon="0.26666">
        <ele>2483.22</ele>
        <time>2019-09-14T08:04:30Z</time>
      </trkpt>
      <trkpt lat="42.87426" lon="0.26672">
        <ele>2484.18</ele>
        <time>2019-09-14T08:04:37Z</time>
      </trkpt>
      <trkpt lat="42.87423" lon="0.26677">
        <ele>2485.63</ele>
        <time>2019-09-14T08:04:45Z</time>
      </trkpt>
      <trkpt lat="42.87421" lon="0.26681">
        <ele>2487.07</ele>
        <time>2019-09-14T08:04:53Z</time>
      </trkpt>
      <trkpt lat="42.87423" lon="0.26687">
        <ele>2487.55</ele>
        <time>2019-09-14T08:05:00Z</time>
      </trkpt>
      <trkpt lat="42.87425" lon="0.26686">
        <ele>2489.47</ele>
        <time>2019-09-14T08:05:06Z</time>
      </trkpt>
      <trkpt lat="42.8743" lon="0.26684">
        <ele>2489.47</ele>
        <time>2019-09-14T08:05:12Z</time>
      </trkpt>
      <trkpt lat="42.87434" lon="0.2668">
        <ele>2489.95</ele>
        <time>2019-09-14T08:05:19Z</time>
      </trkpt>
      <trkpt lat="42.8744" lon="0.26677">
        <ele>2490.91</ele>
        <time>2019-09-14T08:05:26Z</time>
      </trkpt>
      <trkpt lat="42.87444" lon="0.26673">
        <ele>2491.87</ele>
        <time>2019-09-14T08:05:32Z</time>
      </trkpt>
      <trkpt lat="42.87448" lon="0.2667">
        <ele>2493.32</ele>
        <time>2019-09-14T08:05:41Z</time>
      </trkpt>
      <trkpt lat="42.8745" lon="0.26666">
        <ele>2494.76</ele>
        <time>2019-09-14T08:05:50Z</time>
      </trkpt>
      <trkpt lat="42.87453" lon="0.2666">
        <ele>2496.2</ele>
        <time>2019-09-14T08:05:57Z</time>
      </trkpt>
      <trkpt lat="42.87456" lon="0.26655">
        <ele>2496.68</ele>
        <time>2019-09-14T08:06:04Z</time>
      </trkpt>
      <trkpt lat="42.87458" lon="0.26652">
        <ele>2498.12</ele>
        <time>2019-09-14T08:06:12Z</time>
      </trkpt>
      <trkpt lat="42.8746" lon="0.26648">
        <ele>2500.05</ele>
        <time>2019-09-14T08:06:21Z</time>
      </trkpt>
      <trkpt lat="42.87462" lon="0.26644">
        <ele>2501.01</ele>
        <time>2019-09-14T08:06:27Z</time>
      </trkpt>
      <trkpt lat="42.87464" lon="0.2664">
        <ele>2502.45</ele>
        <time>2019-09-14T08:06:34Z</time>
      </trkpt>
      <trkpt lat="42.87466" lon="0.26637">
        <ele>2503.41</ele>
        <time>2019-09-14T08:06:41Z</time>
      </trkpt>
      <trkpt lat="42.87468" lon="0.26634">
        <ele>2504.85</ele>
        <time>2019-09-14T08:06:49Z</time>
      </trkpt>
      <trkpt lat="42.87469" lon="0.26637">
        <ele>2506.29</ele>
        <time>2019-09-14T08:06:56Z</time>
      </trkpt>
      <trkpt lat="42.87476" lon="0.26638">
        <ele>2507.74</ele>
        <time>2019-09-14T08:07:04Z</time>
      </trkpt>
      <trkpt lat="42.87477" lon="0.26635">
        <ele>2508.7</ele>
        <time>2019-09-14T08:07:11Z</time>
      </trkpt>
      <trkpt lat="42.87479" lon="0.26632">
        <ele>2510.14</ele>
        <time>2019-09-14T08:07:20Z</time>
      </trkpt>
      <trkpt lat="42.8748" lon="0.26632">
        <ele>2512.06</ele>
        <time>2019-09-14T08:07:28Z</time>
      </trkpt>
      <trkpt lat="42.87481" lon="0.26629">
        <ele>2513.02</ele>
        <time>2019-09-14T08:07:36Z</time>
      </trkpt>
      <trkpt lat="42.87485" lon="0.26628">
        <ele>2513.98</ele>
        <time>2019-09-14T08:07:42Z</time>
      </trkpt>
      <trkpt lat="42.87486" lon="0.26625">
        <ele>2515.43</ele>
        <time>2019-09-14T08:07:49Z</time>
      </trkpt>
      <trkpt lat="42.87488" lon="0.26622">
        <ele>2516.87</ele>
        <time>2019-09-14T08:07:57Z</time>
      </trkpt>
      <trkpt lat="42.8749" lon="0.26619">
        <ele>2518.31</ele>
        <time>2019-09-14T08:08:06Z</time>
      </trkpt>
      <trkpt lat="42.87493" lon="0.26615">
        <ele>2520.23</ele>
        <time>2019-09-14T08:08:14Z</time>
      </trkpt>
      <trkpt lat="42.87495" lon="0.26612">
        <ele>2521.19</ele>
        <time>2019-09-14T08:08:20Z</time>
      </trkpt>
      <trkpt lat="42.87497" lon="0.26609">
        <ele>2522.16</ele>
        <time>2019-09-14T08:08:27Z</time>
      </trkpt>
      <trkpt lat="42.87499" lon="0.26606">
        <ele>2523.6</ele>
        <time>2019-09-14T08:08:35Z</time>
      </trkpt>
      <trkpt lat="42.87501" lon="0.26603">
        <ele>2524.56</ele>
        <time>2019-09-14T08:08:42Z</time>
      </trkpt>
      <trkpt lat="42.87502" lon="0.26601">
        <ele>2525.52</ele>
        <time>2019-09-14T08:08:51Z</time>
      </trkpt>
      <trkpt lat="42.87503" lon="0.266">
        <ele>2526.48</ele>
        <time>2019-09-14T08:08:59Z</time>
      </trkpt>
      <trkpt lat="42.87504" lon="0.26599">
        <ele>2526.48</ele>
        <time>2019-09-14T08:09:10Z</time>
      </trkpt>
      <trkpt lat="42.87505" lon="0.26598">
        <ele>2527.44</ele>
        <time>2019-09-14T08:09:17Z</time>
      </trkpt>
      <trkpt lat="42.87509" lon="0.26594">
        <ele>2528.89</ele>
        <time>2019-09-14T08:09:24Z</time>
      </trkpt>
      <trkpt lat="42.87512" lon="0.2659">
        <ele>2530.33</ele>
        <time>2019-09-14T08:09:32Z</time>
      </trkpt>
      <trkpt lat="42.87514" lon="0.26588">
        <ele>2531.29</ele>
        <time>2019-09-14T08:09:39Z</time>
      </trkpt>
      <trkpt lat="42.87516" lon="0.26584">
        <ele>2532.73</ele>
        <time>2019-09-14T08:09:48Z</time>
      </trkpt>
      <trkpt lat="42.87518" lon="0.26582">
        <ele>2534.17</ele>
        <time>2019-09-14T08:09:55Z</time>
      </trkpt>
      <trkpt lat="42.87521" lon="0.26585">
        <ele>2535.13</ele>
        <time>2019-09-14T08:10:02Z</time>
      </trkpt>
      <trkpt lat="42.87521" lon="0.26586">
        <ele>2536.58</ele>
        <time>2019-09-14T08:10:08Z</time>
      </trkpt>
      <trkpt lat="42.87522" lon="0.26585">
        <ele>2538.02</ele>
        <time>2019-09-14T08:10:15Z</time>
      </trkpt>
      <trkpt lat="42.87524" lon="0.26582">
        <ele>2539.46</ele>
        <time>2019-09-14T08:10:22Z</time>
      </trkpt>
      <trkpt lat="42.87527" lon="0.26579">
        <ele>2540.9</ele>
        <time>2019-09-14T08:10:30Z</time>
      </trkpt>
      <trkpt lat="42.87529" lon="0.26573">
        <ele>2541.86</ele>
        <time>2019-09-14T08:10:39Z</time>
      </trkpt>
      <trkpt lat="42.87533" lon="0.26573">
        <ele>2543.31</ele>
        <time>2019-09-14T08:10:46Z</time>
      </trkpt>
      <trkpt lat="42.87535" lon="0.26574">
        <ele>2544.75</ele>
        <time>2019-09-14T08:10:53Z</time>
      </trkpt>
      <trkpt lat="42.87537" lon="0.2657">
        <ele>2546.19</ele>
        <time>2019-09-14T08:11:01Z</time>
      </trkpt>
      <trkpt lat="42.87539" lon="0.26566">
        <ele>2547.63</ele>
        <time>2019-09-14T08:11:10Z</time>
      </trkpt>
      <trkpt lat="42.8754" lon="0.26568">
        <ele>2549.07</ele>
        <time>2019-09-14T08:11:18Z</time>
      </trkpt>
      <trkpt lat="42.8754" lon="0.26571">
        <ele>2549.55</ele>
        <time>2019-09-14T08:11:24Z</time>
      </trkpt>
      <trkpt lat="42.87541" lon="0.26574">
        <ele>2550.03</ele>
        <time>2019-09-14T08:11:35Z</time>
      </trkpt>
      <trkpt lat="42.87542" lon="0.26574">
        <ele>2551</ele>
        <time>2019-09-14T08:11:40Z</time>
      </trkpt>
      <trkpt lat="42.87543" lon="0.26573">
        <ele>2551.96</ele>
        <time>2019-09-14T08:11:49Z</time>
      </trkpt>
      <trkpt lat="42.87544" lon="0.26573">
        <ele>2552.44</ele>
        <time>2019-09-14T08:11:55Z</time>
      </trkpt>
      <trkpt lat="42.87546" lon="0.2657">
        <ele>2554.36</ele>
        <time>2019-09-14T08:12:02Z</time>
      </trkpt>
      <trkpt lat="42.87549" lon="0.26567">
        <ele>2555.32</ele>
        <time>2019-09-14T08:12:10Z</time>
      </trkpt>
      <trkpt lat="42.87552" lon="0.2656">
        <ele>2557.24</ele>
        <time>2019-09-14T08:12:19Z</time>
      </trkpt>
      <trkpt lat="42.87554" lon="0.26557">
        <ele>2558.21</ele>
        <time>2019-09-14T08:12:26Z</time>
      </trkpt>
      <trkpt lat="42.87556" lon="0.26554">
        <ele>2560.13</ele>
        <time>2019-09-14T08:12:36Z</time>
      </trkpt>
      <trkpt lat="42.87558" lon="0.26552">
        <ele>2562.05</ele>
        <time>2019-09-14T08:12:46Z</time>
      </trkpt>
      <trkpt lat="42.87561" lon="0.2655">
        <ele>2563.97</ele>
        <time>2019-09-14T08:12:55Z</time>
      </trkpt>
      <trkpt lat="42.87562" lon="0.26547">
        <ele>2565.42</ele>
        <time>2019-09-14T08:13:02Z</time>
      </trkpt>
      <trkpt lat="42.87566" lon="0.26544">
        <ele>2566.38</ele>
        <time>2019-09-14T08:13:09Z</time>
      </trkpt>
      <trkpt lat="42.87569" lon="0.26543">
        <ele>2568.3</ele>
        <time>2019-09-14T08:13:19Z</time>
      </trkpt>
      <trkpt lat="42.8757" lon="0.26542">
        <ele>2569.26</ele>
        <time>2019-09-14T08:13:27Z</time>
      </trkpt>
      <trkpt lat="42.87571" lon="0.26542">
        <ele>2570.22</ele>
        <time>2019-09-14T08:13:34Z</time>
      </trkpt>
      <trkpt lat="42.87574" lon="0.26546">
        <ele>2572.14</ele>
        <time>2019-09-14T08:13:43Z</time>
      </trkpt>
      <trkpt lat="42.87575" lon="0.26549">
        <ele>2573.59</ele>
        <time>2019-09-14T08:13:53Z</time>
      </trkpt>
      <trkpt lat="42.87577" lon="0.26553">
        <ele>2575.03</ele>
        <time>2019-09-14T08:14:00Z</time>
      </trkpt>
      <trkpt lat="42.87577" lon="0.26553">
        <ele>2575.51</ele>
        <time>2019-09-14T08:14:11Z</time>
      </trkpt>
      <trkpt lat="42.87577" lon="0.26553">
        <ele>2575.51</ele>
        <time>2019-09-14T08:14:23Z</time>
      </trkpt>
      <trkpt lat="42.87577" lon="0.26553">
        <ele>2575.51</ele>
        <time>2019-09-14T08:14:35Z</time>
      </trkpt>
      <trkpt lat="42.87577" lon="0.26553">
        <ele>2575.99</ele>
        <time>2019-09-14T08:14:50Z</time>
      </trkpt>
      <trkpt lat="42.87578" lon="0.26554">
        <ele>2575.99</ele>
        <time>2019-09-14T08:15:03Z</time>
      </trkpt>
      <trkpt lat="42.87578" lon="0.26557">
        <ele>2577.43</ele>
        <time>2019-09-14T08:15:10Z</time>
      </trkpt>
      <trkpt lat="42.87578" lon="0.26558">
        <ele>2577.91</ele>
        <time>2019-09-14T08:15:20Z</time>
      </trkpt>
      <trkpt lat="42.87579" lon="0.26559">
        <ele>2577.43</ele>
        <time>2019-09-14T08:15:32Z</time>
      </trkpt>
      <trkpt lat="42.87579" lon="0.26563">
        <ele>2578.87</ele>
        <time>2019-09-14T08:15:39Z</time>
      </trkpt>
      <trkpt lat="42.87579" lon="0.26567">
        <ele>2580.32</ele>
        <time>2019-09-14T08:15:46Z</time>
      </trkpt>
      <trkpt lat="42.87578" lon="0.26567">
        <ele>2580.32</ele>
        <time>2019-09-14T08:16:00Z</time>
      </trkpt>
      <trkpt lat="42.87579" lon="0.26568">
        <ele>2580.8</ele>
        <time>2019-09-14T08:16:18Z</time>
      </trkpt>
      <trkpt lat="42.87579" lon="0.26567">
        <ele>2580.8</ele>
        <time>2019-09-14T08:16:28Z</time>
      </trkpt>
      <trkpt lat="42.8758" lon="0.26568">
        <ele>2581.28</ele>
        <time>2019-09-14T08:16:43Z</time>
      </trkpt>
      <trkpt lat="42.87579" lon="0.26572">
        <ele>2582.24</ele>
        <time>2019-09-14T08:16:49Z</time>
      </trkpt>
      <trkpt lat="42.87579" lon="0.26574">
        <ele>2582.72</ele>
        <time>2019-09-14T08:16:57Z</time>
      </trkpt>
      <trkpt lat="42.8758" lon="0.26575">
        <ele>2584.16</ele>
        <time>2019-09-14T08:17:07Z</time>
      </trkpt>
      <trkpt lat="42.8758" lon="0.26573">
        <ele>2582.72</ele>
        <time>2019-09-14T08:17:15Z</time>
      </trkpt>
      <trkpt lat="42.8758" lon="0.26573">
        <ele>2582.72</ele>
        <time>2019-09-14T08:17:25Z</time>
      </trkpt>
      <trkpt lat="42.8758" lon="0.26572">
        <ele>2582.72</ele>
        <time>2019-09-14T08:17:36Z</time>
      </trkpt>
      <trkpt lat="42.87581" lon="0.26571">
        <ele>2583.2</ele>
        <time>2019-09-14T08:17:58Z</time>
      </trkpt>
      <trkpt lat="42.87581" lon="0.26572">
        <ele>2583.2</ele>
        <time>2019-09-14T08:18:15Z</time>
      </trkpt>
      <trkpt lat="42.87581" lon="0.26572">
        <ele>2583.2</ele>
        <time>2019-09-14T08:18:21Z</time>
      </trkpt>
      <trkpt lat="42.87581" lon="0.26573">
        <ele>2583.68</ele>
        <time>2019-09-14T08:18:28Z</time>
      </trkpt>
      <trkpt lat="42.87581" lon="0.26573">
        <ele>2582.72</ele>
        <time>2019-09-14T08:18:35Z</time>
      </trkpt>
      <trkpt lat="42.87581" lon="0.26576">
        <ele>2582.72</ele>
        <time>2019-09-14T08:18:57Z</time>
      </trkpt>
      <trkpt lat="42.8758" lon="0.26576">
        <ele>2582.72</ele>
        <time>2019-09-14T08:19:11Z</time>
      </trkpt>
      <trkpt lat="42.87582" lon="0.26577">
        <ele>2583.68</ele>
        <time>2019-09-14T08:19:15Z</time>
      </trkpt>
      <trkpt lat="42.87582" lon="0.26576">
        <ele>2584.16</ele>
        <time>2019-09-14T08:19:22Z</time>
      </trkpt>
      <trkpt lat="42.87581" lon="0.26575">
        <ele>2584.16</ele>
        <time>2019-09-14T08:19:30Z</time>
      </trkpt>
      <trkpt lat="42.87581" lon="0.26575">
        <ele>2584.16</ele>
        <time>2019-09-14T08:19:39Z</time>
      </trkpt>
      <trkpt lat="42.8758" lon="0.2658">
        <ele>2585.6</ele>
        <time>2019-09-14T08:19:46Z</time>
      </trkpt>
      <trkpt lat="42.87581" lon="0.26584">
        <ele>2586.56</ele>
        <time>2019-09-14T08:19:52Z</time>
      </trkpt>
      <trkpt lat="42.87582" lon="0.26589">
        <ele>2588.49</ele>
        <time>2019-09-14T08:19:59Z</time>
      </trkpt>
      <trkpt lat="42.87583" lon="0.26597">
        <ele>2590.41</ele>
        <time>2019-09-14T08:20:07Z</time>
      </trkpt>
      <trkpt lat="42.87584" lon="0.26602">
        <ele>2591.37</ele>
        <time>2019-09-14T08:20:14Z</time>
      </trkpt>
      <trkpt lat="42.87583" lon="0.26606">
        <ele>2592.33</ele>
        <time>2019-09-14T08:20:19Z</time>
      </trkpt>
      <trkpt lat="42.87583" lon="0.2661">
        <ele>2593.77</ele>
        <time>2019-09-14T08:20:25Z</time>
      </trkpt>
      <trkpt lat="42.87582" lon="0.26617">
        <ele>2595.22</ele>
        <time>2019-09-14T08:20:33Z</time>
      </trkpt>
      <trkpt lat="42.87582" lon="0.26621">
        <ele>2596.18</ele>
        <time>2019-09-14T08:20:40Z</time>
      </trkpt>
      <trkpt lat="42.87581" lon="0.26624">
        <ele>2597.14</ele>
        <time>2019-09-14T08:20:47Z</time>
      </trkpt>
      <trkpt lat="42.87581" lon="0.26629">
        <ele>2599.06</ele>
        <time>2019-09-14T08:20:56Z</time>
      </trkpt>
      <trkpt lat="42.87581" lon="0.26632">
        <ele>2600.5</ele>
        <time>2019-09-14T08:21:04Z</time>
      </trkpt>
      <trkpt lat="42.87581" lon="0.26636">
        <ele>2601.95</ele>
        <time>2019-09-14T08:21:12Z</time>
      </trkpt>
      <trkpt lat="42.87581" lon="0.26641">
        <ele>2602.91</ele>
        <time>2019-09-14T08:21:19Z</time>
      </trkpt>
      <trkpt lat="42.87582" lon="0.26642">
        <ele>2603.87</ele>
        <time>2019-09-14T08:21:26Z</time>
      </trkpt>
      <trkpt lat="42.87582" lon="0.26643">
        <ele>2603.87</ele>
        <time>2019-09-14T08:21:36Z</time>
      </trkpt>
      <trkpt lat="42.87583" lon="0.26644">
        <ele>2604.35</ele>
        <time>2019-09-14T08:21:48Z</time>
      </trkpt>
      <trkpt lat="42.87583" lon="0.26647">
        <ele>2604.83</ele>
        <time>2019-09-14T08:21:53Z</time>
      </trkpt>
      <trkpt lat="42.87582" lon="0.26653">
        <ele>2606.75</ele>
        <time>2019-09-14T08:22:00Z</time>
      </trkpt>
      <trkpt lat="42.87582" lon="0.2666">
        <ele>2609.16</ele>
        <time>2019-09-14T08:22:08Z</time>
      </trkpt>
      <trkpt lat="42.87582" lon="0.26661">
        <ele>2609.64</ele>
        <time>2019-09-14T08:22:09Z</time>
      </trkpt>
      <trkpt lat="42.87583" lon="0.26669">
        <ele>2611.56</ele>
        <time>2019-09-14T08:22:17Z</time>
      </trkpt>
      <trkpt lat="42.87582" lon="0.26677">
        <ele>2613</ele>
        <time>2019-09-14T08:22:24Z</time>
      </trkpt>
      <trkpt lat="42.87582" lon="0.26684">
        <ele>2613.96</ele>
        <time>2019-09-14T08:22:32Z</time>
      </trkpt>
      <trkpt lat="42.8758" lon="0.26689">
        <ele>2614.44</ele>
        <time>2019-09-14T08:22:38Z</time>
      </trkpt>
      <trkpt lat="42.87581" lon="0.26696">
        <ele>2614.92</ele>
        <time>2019-09-14T08:22:45Z</time>
      </trkpt>
      <trkpt lat="42.87583" lon="0.26702">
        <ele>2616.37</ele>
        <time>2019-09-14T08:22:53Z</time>
      </trkpt>
      <trkpt lat="42.87585" lon="0.26708">
        <ele>2617.33</ele>
        <time>2019-09-14T08:23:00Z</time>
      </trkpt>
      <trkpt lat="42.87585" lon="0.26709">
        <ele>2619.25</ele>
        <time>2019-09-14T08:23:08Z</time>
      </trkpt>
      <trkpt lat="42.87586" lon="0.26713">
        <ele>2620.21</ele>
        <time>2019-09-14T08:23:15Z</time>
      </trkpt>
      <trkpt lat="42.87586" lon="0.26721">
        <ele>2620.21</ele>
        <time>2019-09-14T08:23:22Z</time>
      </trkpt>
      <trkpt lat="42.87586" lon="0.26723">
        <ele>2620.69</ele>
        <time>2019-09-14T08:23:31Z</time>
      </trkpt>
      <trkpt lat="42.87586" lon="0.26724">
        <ele>2620.21</ele>
        <time>2019-09-14T08:23:43Z</time>
      </trkpt>
      <trkpt lat="42.87587" lon="0.26725">
        <ele>2620.69</ele>
        <time>2019-09-14T08:23:54Z</time>
      </trkpt>
      <trkpt lat="42.87588" lon="0.26731">
        <ele>2621.17</ele>
        <time>2019-09-14T08:23:58Z</time>
      </trkpt>
      <trkpt lat="42.87586" lon="0.2674">
        <ele>2622.13</ele>
        <time>2019-09-14T08:24:06Z</time>
      </trkpt>
      <trkpt lat="42.87586" lon="0.26745">
        <ele>2623.09</ele>
        <time>2019-09-14T08:24:13Z</time>
      </trkpt>
      <trkpt lat="42.87587" lon="0.26747">
        <ele>2624.06</ele>
        <time>2019-09-14T08:24:20Z</time>
      </trkpt>
      <trkpt lat="42.87587" lon="0.2675">
        <ele>2624.06</ele>
        <time>2019-09-14T08:24:32Z</time>
      </trkpt>
      <trkpt lat="42.87588" lon="0.26756">
        <ele>2625.5</ele>
        <time>2019-09-14T08:24:39Z</time>
      </trkpt>
      <trkpt lat="42.87588" lon="0.26764">
        <ele>2626.94</ele>
        <time>2019-09-14T08:24:47Z</time>
      </trkpt>
      <trkpt lat="42.87588" lon="0.26768">
        <ele>2628.38</ele>
        <time>2019-09-14T08:24:55Z</time>
      </trkpt>
      <trkpt lat="42.87588" lon="0.26774">
        <ele>2630.3</ele>
        <time>2019-09-14T08:25:02Z</time>
      </trkpt>
      <trkpt lat="42.8759" lon="0.26777">
        <ele>2631.75</ele>
        <time>2019-09-14T08:25:10Z</time>
      </trkpt>
      <trkpt lat="42.87589" lon="0.26779">
        <ele>2633.19</ele>
        <time>2019-09-14T08:25:17Z</time>
      </trkpt>
      <trkpt lat="42.87589" lon="0.26782">
        <ele>2634.15</ele>
        <time>2019-09-14T08:25:27Z</time>
      </trkpt>
      <trkpt lat="42.87591" lon="0.26782">
        <ele>2634.15</ele>
        <time>2019-09-14T08:25:39Z</time>
      </trkpt>
      <trkpt lat="42.87595" lon="0.26784">
        <ele>2636.07</ele>
        <time>2019-09-14T08:25:46Z</time>
      </trkpt>
      <trkpt lat="42.87595" lon="0.26784">
        <ele>2636.07</ele>
        <time>2019-09-14T08:26:00Z</time>
      </trkpt>
      <trkpt lat="42.87595" lon="0.26785">
        <ele>2636.55</ele>
        <time>2019-09-14T08:26:08Z</time>
      </trkpt>
      <trkpt lat="42.87595" lon="0.26785">
        <ele>2636.55</ele>
        <time>2019-09-14T08:26:27Z</time>
      </trkpt>
      <trkpt lat="42.87594" lon="0.26787">
        <ele>2637.03</ele>
        <time>2019-09-14T08:26:35Z</time>
      </trkpt>
      <trkpt lat="42.87595" lon="0.26793">
        <ele>2638.96</ele>
        <time>2019-09-14T08:26:41Z</time>
      </trkpt>
      <trkpt lat="42.87593" lon="0.268">
        <ele>2640.4</ele>
        <time>2019-09-14T08:26:49Z</time>
      </trkpt>
      <trkpt lat="42.8759" lon="0.26805">
        <ele>2641.36</ele>
        <time>2019-09-14T08:26:57Z</time>
      </trkpt>
      <trkpt lat="42.87589" lon="0.26809">
        <ele>2642.32</ele>
        <time>2019-09-14T08:27:03Z</time>
      </trkpt>
      <trkpt lat="42.87587" lon="0.26816">
        <ele>2643.76</ele>
        <time>2019-09-14T08:27:11Z</time>
      </trkpt>
      <trkpt lat="42.87586" lon="0.26821">
        <ele>2645.21</ele>
        <time>2019-09-14T08:27:18Z</time>
      </trkpt>
      <trkpt lat="42.87585" lon="0.26829">
        <ele>2646.17</ele>
        <time>2019-09-14T08:27:25Z</time>
      </trkpt>
      <trkpt lat="42.87583" lon="0.26836">
        <ele>2647.13</ele>
        <time>2019-09-14T08:27:32Z</time>
      </trkpt>
      <trkpt lat="42.87583" lon="0.26842">
        <ele>2648.09</ele>
        <time>2019-09-14T08:27:39Z</time>
      </trkpt>
      <trkpt lat="42.87584" lon="0.26843">
        <ele>2649.05</ele>
        <time>2019-09-14T08:27:47Z</time>
      </trkpt>
      <trkpt lat="42.87586" lon="0.26841">
        <ele>2650.97</ele>
        <time>2019-09-14T08:27:57Z</time>
      </trkpt>
      <trkpt lat="42.87588" lon="0.26841">
        <ele>2652.42</ele>
        <time>2019-09-14T08:28:07Z</time>
      </trkpt>
      <trkpt lat="42.8759" lon="0.26846">
        <ele>2653.86</ele>
        <time>2019-09-14T08:28:13Z</time>
      </trkpt>
      <trkpt lat="42.87592" lon="0.2685">
        <ele>2655.3</ele>
        <time>2019-09-14T08:28:20Z</time>
      </trkpt>
      <trkpt lat="42.87592" lon="0.26853">
        <ele>2656.26</ele>
        <time>2019-09-14T08:28:27Z</time>
      </trkpt>
      <trkpt lat="42.87593" lon="0.26855">
        <ele>2657.7</ele>
        <time>2019-09-14T08:28:35Z</time>
      </trkpt>
      <trkpt lat="42.87593" lon="0.26859">
        <ele>2659.62</ele>
        <time>2019-09-14T08:28:45Z</time>
      </trkpt>
      <trkpt lat="42.8759" lon="0.26864">
        <ele>2659.14</ele>
        <time>2019-09-14T08:28:51Z</time>
      </trkpt>
      <trkpt lat="42.87587" lon="0.2687">
        <ele>2658.66</ele>
        <time>2019-09-14T08:28:57Z</time>
      </trkpt>
      <trkpt lat="42.87585" lon="0.26877">
        <ele>2658.66</ele>
        <time>2019-09-14T08:29:04Z</time>
      </trkpt>
      <trkpt lat="42.87584" lon="0.26883">
        <ele>2659.14</ele>
        <time>2019-09-14T08:29:12Z</time>
      </trkpt>
      <trkpt lat="42.87584" lon="0.26884">
        <ele>2659.62</ele>
        <time>2019-09-14T08:29:13Z</time>
      </trkpt>
      <trkpt lat="42.87581" lon="0.26891">
        <ele>2659.62</ele>
        <time>2019-09-14T08:29:20Z</time>
      </trkpt>
      <trkpt lat="42.87579" lon="0.26898">
        <ele>2660.11</ele>
        <time>2019-09-14T08:29:27Z</time>
      </trkpt>
      <trkpt lat="42.87573" lon="0.26904">
        <ele>2660.11</ele>
        <time>2019-09-14T08:29:36Z</time>
      </trkpt>
      <trkpt lat="42.87568" lon="0.26909">
        <ele>2660.59</ele>
        <time>2019-09-14T08:29:43Z</time>
      </trkpt>
      <trkpt lat="42.87566" lon="0.26914">
        <ele>2661.55</ele>
        <time>2019-09-14T08:29:50Z</time>
      </trkpt>
      <trkpt lat="42.87563" lon="0.2692">
        <ele>2662.99</ele>
        <time>2019-09-14T08:29:58Z</time>
      </trkpt>
      <trkpt lat="42.8756" lon="0.26926">
        <ele>2663.95</ele>
        <time>2019-09-14T08:30:07Z</time>
      </trkpt>
      <trkpt lat="42.87558" lon="0.26931">
        <ele>2665.39</ele>
        <time>2019-09-14T08:30:14Z</time>
      </trkpt>
      <trkpt lat="42.87559" lon="0.26935">
        <ele>2666.35</ele>
        <time>2019-09-14T08:30:21Z</time>
      </trkpt>
      <trkpt lat="42.87558" lon="0.26937">
        <ele>2667.31</ele>
        <time>2019-09-14T08:30:25Z</time>
      </trkpt>
      <trkpt lat="42.87554" lon="0.26943">
        <ele>2668.76</ele>
        <time>2019-09-14T08:30:33Z</time>
      </trkpt>
      <trkpt lat="42.87552" lon="0.26947">
        <ele>2670.2</ele>
        <time>2019-09-14T08:30:42Z</time>
      </trkpt>
      <trkpt lat="42.87549" lon="0.2695">
        <ele>2671.64</ele>
        <time>2019-09-14T08:30:50Z</time>
      </trkpt>
      <trkpt lat="42.87547" lon="0.26956">
        <ele>2673.08</ele>
        <time>2019-09-14T08:30:58Z</time>
      </trkpt>
      <trkpt lat="42.87546" lon="0.2696">
        <ele>2674.04</ele>
        <time>2019-09-14T08:31:04Z</time>
      </trkpt>
      <trkpt lat="42.87545" lon="0.26965">
        <ele>2675.49</ele>
        <time>2019-09-14T08:31:12Z</time>
      </trkpt>
      <trkpt lat="42.87544" lon="0.26968">
        <ele>2676.93</ele>
        <time>2019-09-14T08:31:19Z</time>
      </trkpt>
      <trkpt lat="42.87544" lon="0.26974">
        <ele>2678.37</ele>
        <time>2019-09-14T08:31:27Z</time>
      </trkpt>
      <trkpt lat="42.87544" lon="0.26977">
        <ele>2679.33</ele>
        <time>2019-09-14T08:31:36Z</time>
      </trkpt>
      <trkpt lat="42.87543" lon="0.26984">
        <ele>2681.25</ele>
        <time>2019-09-14T08:31:44Z</time>
      </trkpt>
      <trkpt lat="42.87541" lon="0.26988">
        <ele>2681.73</ele>
        <time>2019-09-14T08:31:50Z</time>
      </trkpt>
      <trkpt lat="42.87541" lon="0.26989">
        <ele>2683.18</ele>
        <time>2019-09-14T08:31:56Z</time>
      </trkpt>
      <trkpt lat="42.87541" lon="0.26994">
        <ele>2684.62</ele>
        <time>2019-09-14T08:32:03Z</time>
      </trkpt>
      <trkpt lat="42.87539" lon="0.26998">
        <ele>2685.58</ele>
        <time>2019-09-14T08:32:10Z</time>
      </trkpt>
      <trkpt lat="42.87536" lon="0.27003">
        <ele>2686.06</ele>
        <time>2019-09-14T08:32:17Z</time>
      </trkpt>
      <trkpt lat="42.87535" lon="0.27006">
        <ele>2687.02</ele>
        <time>2019-09-14T08:32:24Z</time>
      </trkpt>
      <trkpt lat="42.87534" lon="0.27012">
        <ele>2688.94</ele>
        <time>2019-09-14T08:32:33Z</time>
      </trkpt>
      <trkpt lat="42.87533" lon="0.27017">
        <ele>2689.91</ele>
        <time>2019-09-14T08:32:39Z</time>
      </trkpt>
      <trkpt lat="42.87533" lon="0.27019">
        <ele>2691.35</ele>
        <time>2019-09-14T08:32:47Z</time>
      </trkpt>
      <trkpt lat="42.87531" lon="0.27024">
        <ele>2692.31</ele>
        <time>2019-09-14T08:32:53Z</time>
      </trkpt>
      <trkpt lat="42.87529" lon="0.27028">
        <ele>2693.75</ele>
        <time>2019-09-14T08:32:59Z</time>
      </trkpt>
      <trkpt lat="42.87528" lon="0.27032">
        <ele>2695.19</ele>
        <time>2019-09-14T08:33:08Z</time>
      </trkpt>
      <trkpt lat="42.87526" lon="0.27037">
        <ele>2696.64</ele>
        <time>2019-09-14T08:33:16Z</time>
      </trkpt>
      <trkpt lat="42.87525" lon="0.27041">
        <ele>2698.08</ele>
        <time>2019-09-14T08:33:24Z</time>
      </trkpt>
      <trkpt lat="42.87524" lon="0.27047">
        <ele>2699.04</ele>
        <time>2019-09-14T08:33:31Z</time>
      </trkpt>
      <trkpt lat="42.87522" lon="0.27052">
        <ele>2700.48</ele>
        <time>2019-09-14T08:33:39Z</time>
      </trkpt>
      <trkpt lat="42.87521" lon="0.27056">
        <ele>2701.92</ele>
        <time>2019-09-14T08:33:47Z</time>
      </trkpt>
      <trkpt lat="42.87521" lon="0.27062">
        <ele>2703.36</ele>
        <time>2019-09-14T08:33:54Z</time>
      </trkpt>
      <trkpt lat="42.8752" lon="0.27063">
        <ele>2704.81</ele>
        <time>2019-09-14T08:34:01Z</time>
      </trkpt>
      <trkpt lat="42.87519" lon="0.27066">
        <ele>2705.77</ele>
        <time>2019-09-14T08:34:09Z</time>
      </trkpt>
      <trkpt lat="42.87518" lon="0.2707">
        <ele>2706.73</ele>
        <time>2019-09-14T08:34:16Z</time>
      </trkpt>
      <trkpt lat="42.87516" lon="0.27075">
        <ele>2708.65</ele>
        <time>2019-09-14T08:34:24Z</time>
      </trkpt>
      <trkpt lat="42.87517" lon="0.27076">
        <ele>2709.13</ele>
        <time>2019-09-14T08:34:31Z</time>
      </trkpt>
      <trkpt lat="42.87519" lon="0.27077">
        <ele>2710.57</ele>
        <time>2019-09-14T08:34:37Z</time>
      </trkpt>
      <trkpt lat="42.8752" lon="0.27078">
        <ele>2712.5</ele>
        <time>2019-09-14T08:34:47Z</time>
      </trkpt>
      <trkpt lat="42.87521" lon="0.2708">
        <ele>2713.46</ele>
        <time>2019-09-14T08:34:55Z</time>
      </trkpt>
      <trkpt lat="42.87522" lon="0.27081">
        <ele>2714.9</ele>
        <time>2019-09-14T08:35:04Z</time>
      </trkpt>
      <trkpt lat="42.87524" lon="0.27082">
        <ele>2715.86</ele>
        <time>2019-09-14T08:35:10Z</time>
      </trkpt>
      <trkpt lat="42.87525" lon="0.27086">
        <ele>2717.3</ele>
        <time>2019-09-14T08:35:19Z</time>
      </trkpt>
      <trkpt lat="42.87525" lon="0.27092">
        <ele>2718.75</ele>
        <time>2019-09-14T08:35:26Z</time>
      </trkpt>
      <trkpt lat="42.87525" lon="0.27092">
        <ele>2719.71</ele>
        <time>2019-09-14T08:35:33Z</time>
      </trkpt>
      <trkpt lat="42.87523" lon="0.27096">
        <ele>2720.67</ele>
        <time>2019-09-14T08:35:42Z</time>
      </trkpt>
      <trkpt lat="42.87522" lon="0.271">
        <ele>2721.63</ele>
        <time>2019-09-14T08:35:50Z</time>
      </trkpt>
      <trkpt lat="42.87518" lon="0.27104">
        <ele>2722.11</ele>
        <time>2019-09-14T08:35:58Z</time>
      </trkpt>
      <trkpt lat="42.87517" lon="0.27107">
        <ele>2723.55</ele>
        <time>2019-09-14T08:36:05Z</time>
      </trkpt>
      <trkpt lat="42.87515" lon="0.27112">
        <ele>2724.99</ele>
        <time>2019-09-14T08:36:11Z</time>
      </trkpt>
      <trkpt lat="42.87513" lon="0.27116">
        <ele>2719.71</ele>
        <time>2019-09-14T08:36:19Z</time>
      </trkpt>
      <trkpt lat="42.87513" lon="0.27117">
        <ele>2732.2</ele>
        <time>2019-09-14T08:36:20Z</time>
      </trkpt>
      <trkpt lat="42.87513" lon="0.27117">
        <ele>2726.44</ele>
        <time>2019-09-14T08:36:21Z</time>
      </trkpt>
      <trkpt lat="42.8751" lon="0.27119">
        <ele>2726.44</ele>
        <time>2019-09-14T08:36:27Z</time>
      </trkpt>
      <trkpt lat="42.87507" lon="0.27122">
        <ele>2727.88</ele>
        <time>2019-09-14T08:36:33Z</time>
      </trkpt>
      <trkpt lat="42.87504" lon="0.27125">
        <ele>2729.32</ele>
        <time>2019-09-14T08:36:41Z</time>
      </trkpt>
      <trkpt lat="42.875" lon="0.27131">
        <ele>2731.24</ele>
        <time>2019-09-14T08:36:50Z</time>
      </trkpt>
      <trkpt lat="42.87499" lon="0.27134">
        <ele>2732.68</ele>
        <time>2019-09-14T08:36:59Z</time>
      </trkpt>
      <trkpt lat="42.87496" lon="0.27137">
        <ele>2734.13</ele>
        <time>2019-09-14T08:37:07Z</time>
      </trkpt>
      <trkpt lat="42.87499" lon="0.27149">
        <ele>2684.62</ele>
        <time>2019-09-14T08:38:40Z</time>
      </trkpt>
      <trkpt lat="42.87496" lon="0.27151">
        <ele>2685.1</ele>
        <time>2019-09-14T08:38:41Z</time>
      </trkpt>
      <trkpt lat="42.87493" lon="0.27152">
        <ele>2689.91</ele>
        <time>2019-09-14T08:38:46Z</time>
      </trkpt>
      <trkpt lat="42.87495" lon="0.27153">
        <ele>2693.75</ele>
        <time>2019-09-14T08:38:48Z</time>
      </trkpt>
      <trkpt lat="42.87496" lon="0.27152">
        <ele>2698.08</ele>
        <time>2019-09-14T08:38:50Z</time>
      </trkpt>
      <trkpt lat="42.87496" lon="0.27152">
        <ele>2701.92</ele>
        <time>2019-09-14T08:38:52Z</time>
      </trkpt>
      <trkpt lat="42.87495" lon="0.27152">
        <ele>2705.29</ele>
        <time>2019-09-14T08:38:54Z</time>
      </trkpt>
      <trkpt lat="42.87495" lon="0.27152">
        <ele>2708.65</ele>
        <time>2019-09-14T08:38:56Z</time>
      </trkpt>
      <trkpt lat="42.87495" lon="0.27152">
        <ele>2711.54</ele>
        <time>2019-09-14T08:38:58Z</time>
      </trkpt>
      <trkpt lat="42.87495" lon="0.27153">
        <ele>2715.38</ele>
        <time>2019-09-14T08:39:01Z</time>
      </trkpt>
      <trkpt lat="42.87495" lon="0.27153">
        <ele>2718.75</ele>
        <time>2019-09-14T08:39:04Z</time>
      </trkpt>
      <trkpt lat="42.87494" lon="0.27154">
        <ele>2722.59</ele>
        <time>2019-09-14T08:39:07Z</time>
      </trkpt>
      <trkpt lat="42.87493" lon="0.27154">
        <ele>2725.48</ele>
        <time>2019-09-14T08:39:10Z</time>
      </trkpt>
      <trkpt lat="42.87493" lon="0.27154">
        <ele>2725.96</ele>
        <time>2019-09-14T08:39:11Z</time>
      </trkpt>
      <trkpt lat="42.87493" lon="0.27154">
        <ele>2727.4</ele>
        <time>2019-09-14T08:39:13Z</time>
      </trkpt>
      <trkpt lat="42.87493" lon="0.27154">
        <ele>2731.24</ele>
        <time>2019-09-14T08:39:14Z</time>
      </trkpt>
      <trkpt lat="42.87493" lon="0.27153">
        <ele>2730.28</ele>
        <time>2019-09-14T08:39:15Z</time>
      </trkpt>
      <trkpt lat="42.87494" lon="0.27154">
        <ele>2731.72</ele>
        <time>2019-09-14T08:39:18Z</time>
      </trkpt>
      <trkpt lat="42.87495" lon="0.27156">
        <ele>2734.61</ele>
        <time>2019-09-14T08:39:21Z</time>
      </trkpt>
      <trkpt lat="42.87498" lon="0.27155">
        <ele>2737.97</ele>
        <time>2019-09-14T08:39:25Z</time>
      </trkpt>
      <trkpt lat="42.875" lon="0.27156">
        <ele>2741.34</ele>
        <time>2019-09-14T08:39:29Z</time>
      </trkpt>
      <trkpt lat="42.875" lon="0.27156">
        <ele>2741.82</ele>
        <time>2019-09-14T08:39:30Z</time>
      </trkpt>
      <trkpt lat="42.87501" lon="0.27158">
        <ele>2744.7</ele>
        <time>2019-09-14T08:39:33Z</time>
      </trkpt>
      <trkpt lat="42.87502" lon="0.27161">
        <ele>2747.1</ele>
        <time>2019-09-14T08:39:36Z</time>
      </trkpt>
      <trkpt lat="42.87506" lon="0.27162">
        <ele>2749.99</ele>
        <time>2019-09-14T08:39:42Z</time>
      </trkpt>
      <trkpt lat="42.87506" lon="0.27162">
        <ele>2749.99</ele>
        <time>2019-09-14T08:39:43Z</time>
      </trkpt>
      <trkpt lat="42.8751" lon="0.27161">
        <ele>2752.87</ele>
        <time>2019-09-14T08:39:50Z</time>
      </trkpt>
      <trkpt lat="42.87511" lon="0.27162">
        <ele>2755.28</ele>
        <time>2019-09-14T08:40:03Z</time>
      </trkpt>
      <trkpt lat="42.87512" lon="0.27163">
        <ele>2756.24</ele>
        <time>2019-09-14T08:40:16Z</time>
      </trkpt>
      <trkpt lat="42.87512" lon="0.27162">
        <ele>2757.2</ele>
        <time>2019-09-14T08:40:27Z</time>
      </trkpt>
      <trkpt lat="42.87514" lon="0.27163">
        <ele>2758.64</ele>
        <time>2019-09-14T08:40:34Z</time>
      </trkpt>
      <trkpt lat="42.87514" lon="0.27166">
        <ele>2760.56</ele>
        <time>2019-09-14T08:40:38Z</time>
      </trkpt>
      <trkpt lat="42.87515" lon="0.27171">
        <ele>2762.49</ele>
        <time>2019-09-14T08:40:45Z</time>
      </trkpt>
      <trkpt lat="42.87517" lon="0.27175">
        <ele>2764.41</ele>
        <time>2019-09-14T08:40:52Z</time>
      </trkpt>
      <trkpt lat="42.87518" lon="0.27178">
        <ele>2765.85</ele>
        <time>2019-09-14T08:41:00Z</time>
      </trkpt>
      <trkpt lat="42.87518" lon="0.27182">
        <ele>2767.29</ele>
        <time>2019-09-14T08:41:05Z</time>
      </trkpt>
      <trkpt lat="42.87521" lon="0.27183">
        <ele>2768.73</ele>
        <time>2019-09-14T08:41:12Z</time>
      </trkpt>
      <trkpt lat="42.87522" lon="0.27188">
        <ele>2770.66</ele>
        <time>2019-09-14T08:41:19Z</time>
      </trkpt>
      <trkpt lat="42.87523" lon="0.27191">
        <ele>2772.1</ele>
        <time>2019-09-14T08:41:25Z</time>
      </trkpt>
      <trkpt lat="42.87524" lon="0.27197">
        <ele>2774.02</ele>
        <time>2019-09-14T08:41:33Z</time>
      </trkpt>
      <trkpt lat="42.87525" lon="0.272">
        <ele>2775.46</ele>
        <time>2019-09-14T08:41:40Z</time>
      </trkpt>
      <trkpt lat="42.87529" lon="0.27198">
        <ele>2777.87</ele>
        <time>2019-09-14T08:41:49Z</time>
      </trkpt>
      <trkpt lat="42.87533" lon="0.27199">
        <ele>2779.79</ele>
        <time>2019-09-14T08:41:57Z</time>
      </trkpt>
      <trkpt lat="42.87537" lon="0.27199">
        <ele>2780.75</ele>
        <time>2019-09-14T08:42:03Z</time>
      </trkpt>
      <trkpt lat="42.8754" lon="0.272">
        <ele>2782.19</ele>
        <time>2019-09-14T08:42:10Z</time>
      </trkpt>
      <trkpt lat="42.87542" lon="0.27203">
        <ele>2783.63</ele>
        <time>2019-09-14T08:42:18Z</time>
      </trkpt>
      <trkpt lat="42.87541" lon="0.27207">
        <ele>2785.56</ele>
        <time>2019-09-14T08:42:25Z</time>
      </trkpt>
      <trkpt lat="42.87544" lon="0.27208">
        <ele>2786.52</ele>
        <time>2019-09-14T08:42:31Z</time>
      </trkpt>
      <trkpt lat="42.87544" lon="0.27213">
        <ele>2787.96</ele>
        <time>2019-09-14T08:42:38Z</time>
      </trkpt>
      <trkpt lat="42.87545" lon="0.27216">
        <ele>2789.4</ele>
        <time>2019-09-14T08:42:44Z</time>
      </trkpt>
      <trkpt lat="42.87548" lon="0.27217">
        <ele>2790.84</ele>
        <time>2019-09-14T08:42:51Z</time>
      </trkpt>
      <trkpt lat="42.87551" lon="0.27217">
        <ele>2792.29</ele>
        <time>2019-09-14T08:42:58Z</time>
      </trkpt>
      <trkpt lat="42.87556" lon="0.27216">
        <ele>2794.21</ele>
        <time>2019-09-14T08:43:06Z</time>
      </trkpt>
      <trkpt lat="42.87559" lon="0.27217">
        <ele>2795.17</ele>
        <time>2019-09-14T08:43:13Z</time>
      </trkpt>
      <trkpt lat="42.8756" lon="0.27218">
        <ele>2796.61</ele>
        <time>2019-09-14T08:43:16Z</time>
      </trkpt>
      <trkpt lat="42.87558" lon="0.27225">
        <ele>2797.57</ele>
        <time>2019-09-14T08:43:24Z</time>
      </trkpt>
      <trkpt lat="42.87557" lon="0.27231">
        <ele>2798.54</ele>
        <time>2019-09-14T08:43:30Z</time>
      </trkpt>
      <trkpt lat="42.87558" lon="0.27236">
        <ele>2799.98</ele>
        <time>2019-09-14T08:43:37Z</time>
      </trkpt>
      <trkpt lat="42.8756" lon="0.27237">
        <ele>2801.42</ele>
        <time>2019-09-14T08:43:43Z</time>
      </trkpt>
      <trkpt lat="42.87564" lon="0.27232">
        <ele>2802.86</ele>
        <time>2019-09-14T08:43:51Z</time>
      </trkpt>
      <trkpt lat="42.87568" lon="0.27231">
        <ele>2803.82</ele>
        <time>2019-09-14T08:43:57Z</time>
      </trkpt>
      <trkpt lat="42.87571" lon="0.27231">
        <ele>2805.26</ele>
        <time>2019-09-14T08:44:04Z</time>
      </trkpt>
      <trkpt lat="42.87574" lon="0.27231">
        <ele>2806.71</ele>
        <time>2019-09-14T08:44:12Z</time>
      </trkpt>
      <trkpt lat="42.87577" lon="0.27231">
        <ele>2808.15</ele>
        <time>2019-09-14T08:44:20Z</time>
      </trkpt>
      <trkpt lat="42.87578" lon="0.27231">
        <ele>2808.63</ele>
        <time>2019-09-14T08:44:27Z</time>
      </trkpt>
      <trkpt lat="42.87578" lon="0.27234">
        <ele>2809.59</ele>
        <time>2019-09-14T08:44:35Z</time>
      </trkpt>
      <trkpt lat="42.87579" lon="0.27239">
        <ele>2811.51</ele>
        <time>2019-09-14T08:44:43Z</time>
      </trkpt>
      <trkpt lat="42.87582" lon="0.2724">
        <ele>2812.96</ele>
        <time>2019-09-14T08:44:51Z</time>
      </trkpt>
      <trkpt lat="42.87584" lon="0.2724">
        <ele>2814.4</ele>
        <time>2019-09-14T08:44:56Z</time>
      </trkpt>
      <trkpt lat="42.87585" lon="0.27242">
        <ele>2816.32</ele>
        <time>2019-09-14T08:45:05Z</time>
      </trkpt>
      <trkpt lat="42.87589" lon="0.27244">
        <ele>2817.76</ele>
        <time>2019-09-14T08:45:12Z</time>
      </trkpt>
      <trkpt lat="42.87593" lon="0.27244">
        <ele>2819.2</ele>
        <time>2019-09-14T08:45:19Z</time>
      </trkpt>
      <trkpt lat="42.87594" lon="0.27245">
        <ele>2820.16</ele>
        <time>2019-09-14T08:45:27Z</time>
      </trkpt>
      <trkpt lat="42.87594" lon="0.27247">
        <ele>2821.61</ele>
        <time>2019-09-14T08:45:37Z</time>
      </trkpt>
      <trkpt lat="42.87593" lon="0.2725">
        <ele>2821.61</ele>
        <time>2019-09-14T08:45:49Z</time>
      </trkpt>
      <trkpt lat="42.87595" lon="0.27258">
        <ele>2822.09</ele>
        <time>2019-09-14T08:45:56Z</time>
      </trkpt>
      <trkpt lat="42.87596" lon="0.27263">
        <ele>2822.09</ele>
        <time>2019-09-14T08:46:08Z</time>
      </trkpt>
      <trkpt lat="42.87595" lon="0.27265">
        <ele>2822.09</ele>
        <time>2019-09-14T08:46:18Z</time>
      </trkpt>
      <trkpt lat="42.87595" lon="0.27267">
        <ele>2822.09</ele>
        <time>2019-09-14T08:46:29Z</time>
      </trkpt>
      <trkpt lat="42.87596" lon="0.27268">
        <ele>2821.61</ele>
        <time>2019-09-14T08:46:41Z</time>
      </trkpt>
      <trkpt lat="42.87596" lon="0.27268">
        <ele>2822.57</ele>
        <time>2019-09-14T08:46:52Z</time>
      </trkpt>
      <trkpt lat="42.87595" lon="0.27267">
        <ele>2821.61</ele>
        <time>2019-09-14T08:47:04Z</time>
      </trkpt>
      <trkpt lat="42.87595" lon="0.27267">
        <ele>2821.13</ele>
        <time>2019-09-14T08:47:14Z</time>
      </trkpt>
      <trkpt lat="42.87596" lon="0.27267">
        <ele>2821.61</ele>
        <time>2019-09-14T08:47:34Z</time>
      </trkpt>
      <trkpt lat="42.87597" lon="0.27267">
        <ele>2821.13</ele>
        <time>2019-09-14T08:47:49Z</time>
      </trkpt>
      <trkpt lat="42.87598" lon="0.27267">
        <ele>2821.61</ele>
        <time>2019-09-14T08:48:05Z</time>
      </trkpt>
      <trkpt lat="42.87598" lon="0.27267">
        <ele>2821.61</ele>
        <time>2019-09-14T08:48:27Z</time>
      </trkpt>
      <trkpt lat="42.87599" lon="0.27267">
        <ele>2821.13</ele>
        <time>2019-09-14T08:48:41Z</time>
      </trkpt>
      <trkpt lat="42.87599" lon="0.27266">
        <ele>2821.61</ele>
        <time>2019-09-14T08:48:59Z</time>
      </trkpt>
      <trkpt lat="42.87599" lon="0.27266">
        <ele>2821.61</ele>
        <time>2019-09-14T08:49:18Z</time>
      </trkpt>
      <trkpt lat="42.87599" lon="0.27266">
        <ele>2821.61</ele>
        <time>2019-09-14T08:49:35Z</time>
      </trkpt>
      <trkpt lat="42.87598" lon="0.27266">
        <ele>2821.61</ele>
        <time>2019-09-14T08:49:51Z</time>
      </trkpt>
      <trkpt lat="42.87598" lon="0.27266">
        <ele>2821.61</ele>
        <time>2019-09-14T08:50:11Z</time>
      </trkpt>
      <trkpt lat="42.87598" lon="0.27266">
        <ele>2821.61</ele>
        <time>2019-09-14T08:50:32Z</time>
      </trkpt>
      <trkpt lat="42.87598" lon="0.27267">
        <ele>2821.61</ele>
        <time>2019-09-14T08:50:47Z</time>
      </trkpt>
      <trkpt lat="42.87598" lon="0.27267">
        <ele>2821.61</ele>
        <time>2019-09-14T08:51:02Z</time>
      </trkpt>
      <trkpt lat="42.87598" lon="0.27266">
        <ele>2821.61</ele>
        <time>2019-09-14T08:51:25Z</time>
      </trkpt>
      <trkpt lat="42.87598" lon="0.27266">
        <ele>2822.09</ele>
        <time>2019-09-14T08:51:46Z</time>
      </trkpt>
      <trkpt lat="42.87598" lon="0.27267">
        <ele>2822.09</ele>
        <time>2019-09-14T08:52:05Z</time>
      </trkpt>
      <trkpt lat="42.87598" lon="0.27267">
        <ele>2822.09</ele>
        <time>2019-09-14T08:52:23Z</time>
      </trkpt>
      <trkpt lat="42.87598" lon="0.27267">
        <ele>2822.09</ele>
        <time>2019-09-14T08:52:39Z</time>
      </trkpt>
      <trkpt lat="42.87598" lon="0.27267">
        <ele>2822.09</ele>
        <time>2019-09-14T08:53:01Z</time>
      </trkpt>
      <trkpt lat="42.87598" lon="0.27267">
        <ele>2822.09</ele>
        <time>2019-09-14T08:53:22Z</time>
      </trkpt>
      <trkpt lat="42.87598" lon="0.27267">
        <ele>2822.57</ele>
        <time>2019-09-14T08:53:42Z</time>
      </trkpt>
      <trkpt lat="42.87598" lon="0.27267">
        <ele>2822.57</ele>
        <time>2019-09-14T08:54:04Z</time>
      </trkpt>
      <trkpt lat="42.87598" lon="0.27267">
        <ele>2822.57</ele>
        <time>2019-09-14T08:54:24Z</time>
      </trkpt>
      <trkpt lat="42.87598" lon="0.27267">
        <ele>2822.57</ele>
        <time>2019-09-14T08:54:38Z</time>
      </trkpt>
      <trkpt lat="42.87599" lon="0.27267">
        <ele>2822.57</ele>
        <time>2019-09-14T08:54:57Z</time>
      </trkpt>
      <trkpt lat="42.87599" lon="0.27267">
        <ele>2823.05</ele>
        <time>2019-09-14T08:55:17Z</time>
      </trkpt>
      <trkpt lat="42.87599" lon="0.27267">
        <ele>2823.05</ele>
        <time>2019-09-14T08:55:37Z</time>
      </trkpt>
      <trkpt lat="42.87599" lon="0.27267">
        <ele>2823.05</ele>
        <time>2019-09-14T08:55:57Z</time>
      </trkpt>
      <trkpt lat="42.87599" lon="0.27268">
        <ele>2823.05</ele>
        <time>2019-09-14T08:56:18Z</time>
      </trkpt>
      <trkpt lat="42.87599" lon="0.27267">
        <ele>2823.05</ele>
        <time>2019-09-14T08:56:38Z</time>
      </trkpt>
      <trkpt lat="42.87599" lon="0.27267">
        <ele>2823.53</ele>
        <time>2019-09-14T08:57:00Z</time>
      </trkpt>
      <trkpt lat="42.87599" lon="0.27268">
        <ele>2823.53</ele>
        <time>2019-09-14T08:57:21Z</time>
      </trkpt>
      <trkpt lat="42.87599" lon="0.27268">
        <ele>2823.53</ele>
        <time>2019-09-14T08:57:41Z</time>
      </trkpt>
      <trkpt lat="42.87599" lon="0.27268">
        <ele>2823.53</ele>
        <time>2019-09-14T08:57:59Z</time>
      </trkpt>
      <trkpt lat="42.87599" lon="0.27268">
        <ele>2823.53</ele>
        <time>2019-09-14T08:58:16Z</time>
      </trkpt>
      <trkpt lat="42.87599" lon="0.27268">
        <ele>2824.01</ele>
        <time>2019-09-14T08:58:33Z</time>
      </trkpt>
      <trkpt lat="42.87599" lon="0.27268">
        <ele>2824.01</ele>
        <time>2019-09-14T08:58:51Z</time>
      </trkpt>
      <trkpt lat="42.87599" lon="0.27268">
        <ele>2824.01</ele>
        <time>2019-09-14T08:59:11Z</time>
      </trkpt>
      <trkpt lat="42.87599" lon="0.27268">
        <ele>2824.01</ele>
        <time>2019-09-14T08:59:29Z</time>
      </trkpt>
      <trkpt lat="42.87599" lon="0.27268">
        <ele>2824.01</ele>
        <time>2019-09-14T08:59:49Z</time>
      </trkpt>
      <trkpt lat="42.87599" lon="0.27268">
        <ele>2824.01</ele>
        <time>2019-09-14T09:00:07Z</time>
      </trkpt>
      <trkpt lat="42.87599" lon="0.27268">
        <ele>2824.01</ele>
        <time>2019-09-14T09:00:26Z</time>
      </trkpt>
      <trkpt lat="42.87599" lon="0.27268">
        <ele>2824.01</ele>
        <time>2019-09-14T09:00:45Z</time>
      </trkpt>
      <trkpt lat="42.87599" lon="0.27268">
        <ele>2824.49</ele>
        <time>2019-09-14T09:01:03Z</time>
      </trkpt>
      <trkpt lat="42.87599" lon="0.27268">
        <ele>2824.49</ele>
        <time>2019-09-14T09:01:21Z</time>
      </trkpt>
      <trkpt lat="42.87599" lon="0.27268">
        <ele>2824.49</ele>
        <time>2019-09-14T09:01:40Z</time>
      </trkpt>
      <trkpt lat="42.87599" lon="0.27269">
        <ele>2824.97</ele>
        <time>2019-09-14T09:01:57Z</time>
      </trkpt>
      <trkpt lat="42.87599" lon="0.27269">
        <ele>2824.97</ele>
        <time>2019-09-14T09:02:17Z</time>
      </trkpt>
      <trkpt lat="42.87599" lon="0.27269">
        <ele>2824.97</ele>
        <time>2019-09-14T09:02:38Z</time>
      </trkpt>
      <trkpt lat="42.87599" lon="0.27269">
        <ele>2824.97</ele>
        <time>2019-09-14T09:02:54Z</time>
      </trkpt>
      <trkpt lat="42.87599" lon="0.27269">
        <ele>2824.97</ele>
        <time>2019-09-14T09:03:11Z</time>
      </trkpt>
      <trkpt lat="42.87599" lon="0.27269">
        <ele>2824.97</ele>
        <time>2019-09-14T09:03:32Z</time>
      </trkpt>
      <trkpt lat="42.87599" lon="0.27269">
        <ele>2824.97</ele>
        <time>2019-09-14T09:03:50Z</time>
      </trkpt>
      <trkpt lat="42.87599" lon="0.27269">
        <ele>2825.45</ele>
        <time>2019-09-14T09:04:10Z</time>
      </trkpt>
      <trkpt lat="42.87599" lon="0.27269">
        <ele>2825.45</ele>
        <time>2019-09-14T09:04:29Z</time>
      </trkpt>
      <trkpt lat="42.87599" lon="0.27269">
        <ele>2824.97</ele>
        <time>2019-09-14T09:04:43Z</time>
      </trkpt>
      <trkpt lat="42.87599" lon="0.27269">
        <ele>2824.97</ele>
        <time>2019-09-14T09:04:59Z</time>
      </trkpt>
      <trkpt lat="42.87599" lon="0.27269">
        <ele>2825.45</ele>
        <time>2019-09-14T09:05:16Z</time>
      </trkpt>
      <trkpt lat="42.87599" lon="0.27269">
        <ele>2825.45</ele>
        <time>2019-09-14T09:05:29Z</time>
      </trkpt>
      <trkpt lat="42.87599" lon="0.27269">
        <ele>2825.45</ele>
        <time>2019-09-14T09:05:45Z</time>
      </trkpt>
      <trkpt lat="42.87599" lon="0.27269">
        <ele>2824.97</ele>
        <time>2019-09-14T09:06:00Z</time>
      </trkpt>
      <trkpt lat="42.87599" lon="0.27268">
        <ele>2825.45</ele>
        <time>2019-09-14T09:06:16Z</time>
      </trkpt>
      <trkpt lat="42.87598" lon="0.27268">
        <ele>2825.45</ele>
        <time>2019-09-14T09:06:33Z</time>
      </trkpt>
      <trkpt lat="42.87598" lon="0.27268">
        <ele>2825.45</ele>
        <time>2019-09-14T09:06:51Z</time>
      </trkpt>
      <trkpt lat="42.87598" lon="0.27269">
        <ele>2825.45</ele>
        <time>2019-09-14T09:07:06Z</time>
      </trkpt>
      <trkpt lat="42.87598" lon="0.27268">
        <ele>2825.45</ele>
        <time>2019-09-14T09:07:22Z</time>
      </trkpt>
      <trkpt lat="42.87598" lon="0.27268">
        <ele>2825.45</ele>
        <time>2019-09-14T09:07:41Z</time>
      </trkpt>
      <trkpt lat="42.87598" lon="0.27268">
        <ele>2825.45</ele>
        <time>2019-09-14T09:07:58Z</time>
      </trkpt>
      <trkpt lat="42.87598" lon="0.27268">
        <ele>2825.45</ele>
        <time>2019-09-14T09:08:18Z</time>
      </trkpt>
      <trkpt lat="42.87598" lon="0.27268">
        <ele>2825.45</ele>
        <time>2019-09-14T09:08:33Z</time>
      </trkpt>
      <trkpt lat="42.87598" lon="0.27268">
        <ele>2825.45</ele>
        <time>2019-09-14T09:08:51Z</time>
      </trkpt>
      <trkpt lat="42.87598" lon="0.27268">
        <ele>2825.45</ele>
        <time>2019-09-14T09:09:12Z</time>
      </trkpt>
      <trkpt lat="42.87598" lon="0.27268">
        <ele>2825.45</ele>
        <time>2019-09-14T09:09:25Z</time>
      </trkpt>
      <trkpt lat="42.87598" lon="0.27268">
        <ele>2825.45</ele>
        <time>2019-09-14T09:09:42Z</time>
      </trkpt>
      <trkpt lat="42.87598" lon="0.27268">
        <ele>2825.45</ele>
        <time>2019-09-14T09:10:00Z</time>
      </trkpt>
      <trkpt lat="42.87598" lon="0.27268">
        <ele>2825.45</ele>
        <time>2019-09-14T09:10:19Z</time>
      </trkpt>
      <trkpt lat="42.87598" lon="0.27268">
        <ele>2825.45</ele>
        <time>2019-09-14T09:10:36Z</time>
      </trkpt>
      <trkpt lat="42.87598" lon="0.27268">
        <ele>2825.45</ele>
        <time>2019-09-14T09:10:56Z</time>
      </trkpt>
      <trkpt lat="42.87598" lon="0.27268">
        <ele>2825.45</ele>
        <time>2019-09-14T09:11:19Z</time>
      </trkpt>
      <trkpt lat="42.87598" lon="0.27268">
        <ele>2825.45</ele>
        <time>2019-09-14T09:11:38Z</time>
      </trkpt>
      <trkpt lat="42.87598" lon="0.27268">
        <ele>2825.45</ele>
        <time>2019-09-14T09:11:59Z</time>
      </trkpt>
      <trkpt lat="42.87598" lon="0.27269">
        <ele>2824.97</ele>
        <time>2019-09-14T09:12:16Z</time>
      </trkpt>
      <trkpt lat="42.87598" lon="0.27269">
        <ele>2825.45</ele>
        <time>2019-09-14T09:12:31Z</time>
      </trkpt>
      <trkpt lat="42.87598" lon="0.27269">
        <ele>2825.45</ele>
        <time>2019-09-14T09:12:52Z</time>
      </trkpt>
      <trkpt lat="42.87598" lon="0.27269">
        <ele>2825.45</ele>
        <time>2019-09-14T09:13:09Z</time>
      </trkpt>
      <trkpt lat="42.87598" lon="0.27269">
        <ele>2825.45</ele>
        <time>2019-09-14T09:13:27Z</time>
      </trkpt>
      <trkpt lat="42.87598" lon="0.27269">
        <ele>2825.45</ele>
        <time>2019-09-14T09:13:48Z</time>
      </trkpt>
      <trkpt lat="42.87598" lon="0.27269">
        <ele>2825.45</ele>
        <time>2019-09-14T09:14:09Z</time>
      </trkpt>
      <trkpt lat="42.87598" lon="0.27269">
        <ele>2825.45</ele>
        <time>2019-09-14T09:14:27Z</time>
      </trkpt>
      <trkpt lat="42.87598" lon="0.27269">
        <ele>2825.45</ele>
        <time>2019-09-14T09:14:47Z</time>
      </trkpt>
      <trkpt lat="42.87598" lon="0.27268">
        <ele>2825.45</ele>
        <time>2019-09-14T09:15:03Z</time>
      </trkpt>
      <trkpt lat="42.87598" lon="0.27268">
        <ele>2825.45</ele>
        <time>2019-09-14T09:15:16Z</time>
      </trkpt>
      <trkpt lat="42.87598" lon="0.27268">
        <ele>2825.45</ele>
        <time>2019-09-14T09:15:30Z</time>
      </trkpt>
      <trkpt lat="42.87597" lon="0.27268">
        <ele>2825.45</ele>
        <time>2019-09-14T09:15:42Z</time>
      </trkpt>
      <trkpt lat="42.87597" lon="0.27268">
        <ele>2825.45</ele>
        <time>2019-09-14T09:15:53Z</time>
      </trkpt>
      <trkpt lat="42.87599" lon="0.27266">
        <ele>2826.41</ele>
        <time>2019-09-14T09:15:58Z</time>
      </trkpt>
      <trkpt lat="42.87599" lon="0.27266">
        <ele>2826.41</ele>
        <time>2019-09-14T09:16:07Z</time>
      </trkpt>
      <trkpt lat="42.87599" lon="0.27266">
        <ele>2826.41</ele>
        <time>2019-09-14T09:16:17Z</time>
      </trkpt>
      <trkpt lat="42.87599" lon="0.27267">
        <ele>2826.41</ele>
        <time>2019-09-14T09:16:27Z</time>
      </trkpt>
      <trkpt lat="42.87599" lon="0.27267">
        <ele>2826.41</ele>
        <time>2019-09-14T09:16:36Z</time>
      </trkpt>
      <trkpt lat="42.87599" lon="0.27267">
        <ele>2826.41</ele>
        <time>2019-09-14T09:16:46Z</time>
      </trkpt>
      <trkpt lat="42.87596" lon="0.27266">
        <ele>2825.93</ele>
        <time>2019-09-14T09:16:53Z</time>
      </trkpt>
      <trkpt lat="42.87595" lon="0.27264">
        <ele>2826.41</ele>
        <time>2019-09-14T09:16:55Z</time>
      </trkpt>
      <trkpt lat="42.87591" lon="0.27258">
        <ele>2825.45</ele>
        <time>2019-09-14T09:17:02Z</time>
      </trkpt>
      <trkpt lat="42.8759" lon="0.27254">
        <ele>2824.97</ele>
        <time>2019-09-14T09:17:07Z</time>
      </trkpt>
      <trkpt lat="42.87589" lon="0.27249">
        <ele>2824.01</ele>
        <time>2019-09-14T09:17:14Z</time>
      </trkpt>
      <trkpt lat="42.87588" lon="0.27247">
        <ele>2822.09</ele>
        <time>2019-09-14T09:17:20Z</time>
      </trkpt>
      <trkpt lat="42.87588" lon="0.27244">
        <ele>2821.13</ele>
        <time>2019-09-14T09:17:27Z</time>
      </trkpt>
      <trkpt lat="42.87586" lon="0.27243">
        <ele>2820.16</ele>
        <time>2019-09-14T09:17:34Z</time>
      </trkpt>
      <trkpt lat="42.87586" lon="0.27243">
        <ele>2820.16</ele>
        <time>2019-09-14T09:17:47Z</time>
      </trkpt>
      <trkpt lat="42.87586" lon="0.27243">
        <ele>2820.16</ele>
        <time>2019-09-14T09:18:00Z</time>
      </trkpt>
      <trkpt lat="42.87585" lon="0.27243">
        <ele>2819.68</ele>
        <time>2019-09-14T09:18:18Z</time>
      </trkpt>
      <trkpt lat="42.87585" lon="0.27241">
        <ele>2819.68</ele>
        <time>2019-09-14T09:18:33Z</time>
      </trkpt>
      <trkpt lat="42.87582" lon="0.27239">
        <ele>2816.8</ele>
        <time>2019-09-14T09:18:40Z</time>
      </trkpt>
      <trkpt lat="42.8758" lon="0.27238">
        <ele>2815.36</ele>
        <time>2019-09-14T09:18:47Z</time>
      </trkpt>
      <trkpt lat="42.87581" lon="0.27232">
        <ele>2813.92</ele>
        <time>2019-09-14T09:18:54Z</time>
      </trkpt>
      <trkpt lat="42.87578" lon="0.2723">
        <ele>2811.51</ele>
        <time>2019-09-14T09:18:59Z</time>
      </trkpt>
      <trkpt lat="42.87573" lon="0.27231">
        <ele>2809.59</ele>
        <time>2019-09-14T09:19:06Z</time>
      </trkpt>
      <trkpt lat="42.87571" lon="0.27232">
        <ele>2808.63</ele>
        <time>2019-09-14T09:19:08Z</time>
      </trkpt>
      <trkpt lat="42.87565" lon="0.27233">
        <ele>2806.23</ele>
        <time>2019-09-14T09:19:16Z</time>
      </trkpt>
      <trkpt lat="42.87563" lon="0.27235">
        <ele>2806.23</ele>
        <time>2019-09-14T09:19:18Z</time>
      </trkpt>
      <trkpt lat="42.8756" lon="0.27238">
        <ele>2805.26</ele>
        <time>2019-09-14T09:19:24Z</time>
      </trkpt>
      <trkpt lat="42.87559" lon="0.27234">
        <ele>2804.78</ele>
        <time>2019-09-14T09:19:31Z</time>
      </trkpt>
      <trkpt lat="42.87558" lon="0.27231">
        <ele>2803.82</ele>
        <time>2019-09-14T09:19:35Z</time>
      </trkpt>
      <trkpt lat="42.87559" lon="0.27225">
        <ele>2801.9</ele>
        <time>2019-09-14T09:19:40Z</time>
      </trkpt>
      <trkpt lat="42.87561" lon="0.27221">
        <ele>2801.42</ele>
        <time>2019-09-14T09:19:43Z</time>
      </trkpt>
      <trkpt lat="42.8756" lon="0.27216">
        <ele>2799.98</ele>
        <time>2019-09-14T09:19:49Z</time>
      </trkpt>
      <trkpt lat="42.87558" lon="0.27216">
        <ele>2798.54</ele>
        <time>2019-09-14T09:19:52Z</time>
      </trkpt>
      <trkpt lat="42.87554" lon="0.27217">
        <ele>2797.57</ele>
        <time>2019-09-14T09:19:58Z</time>
      </trkpt>
      <trkpt lat="42.87552" lon="0.27216">
        <ele>2797.09</ele>
        <time>2019-09-14T09:20:01Z</time>
      </trkpt>
      <trkpt lat="42.87548" lon="0.27214">
        <ele>2794.69</ele>
        <time>2019-09-14T09:20:08Z</time>
      </trkpt>
      <trkpt lat="42.87545" lon="0.27216">
        <ele>2793.25</ele>
        <time>2019-09-14T09:20:11Z</time>
      </trkpt>
      <trkpt lat="42.87545" lon="0.27214">
        <ele>2793.73</ele>
        <time>2019-09-14T09:20:14Z</time>
      </trkpt>
      <trkpt lat="42.87545" lon="0.27208">
        <ele>2790.84</ele>
        <time>2019-09-14T09:20:21Z</time>
      </trkpt>
      <trkpt lat="42.87543" lon="0.27208">
        <ele>2789.88</ele>
        <time>2019-09-14T09:20:23Z</time>
      </trkpt>
      <trkpt lat="42.87542" lon="0.27206">
        <ele>2789.88</ele>
        <time>2019-09-14T09:20:27Z</time>
      </trkpt>
      <trkpt lat="42.87542" lon="0.272">
        <ele>2786.52</ele>
        <time>2019-09-14T09:20:34Z</time>
      </trkpt>
      <trkpt lat="42.87541" lon="0.272">
        <ele>2786.52</ele>
        <time>2019-09-14T09:20:35Z</time>
      </trkpt>
      <trkpt lat="42.87539" lon="0.27201">
        <ele>2786.52</ele>
        <time>2019-09-14T09:20:42Z</time>
      </trkpt>
      <trkpt lat="42.87539" lon="0.27201">
        <ele>2784.6</ele>
        <time>2019-09-14T09:20:46Z</time>
      </trkpt>
      <trkpt lat="42.87533" lon="0.27201">
        <ele>2783.15</ele>
        <time>2019-09-14T09:20:54Z</time>
      </trkpt>
      <trkpt lat="42.87528" lon="0.27202">
        <ele>2780.75</ele>
        <time>2019-09-14T09:21:01Z</time>
      </trkpt>
      <trkpt lat="42.87525" lon="0.27201">
        <ele>2780.27</ele>
        <time>2019-09-14T09:21:06Z</time>
      </trkpt>
      <trkpt lat="42.87525" lon="0.27197">
        <ele>2778.83</ele>
        <time>2019-09-14T09:21:11Z</time>
      </trkpt>
      <trkpt lat="42.87524" lon="0.27192">
        <ele>2777.39</ele>
        <time>2019-09-14T09:21:15Z</time>
      </trkpt>
      <trkpt lat="42.87523" lon="0.2719">
        <ele>2775.94</ele>
        <time>2019-09-14T09:21:19Z</time>
      </trkpt>
      <trkpt lat="42.87523" lon="0.27188">
        <ele>2774.98</ele>
        <time>2019-09-14T09:21:25Z</time>
      </trkpt>
      <trkpt lat="42.87522" lon="0.27183">
        <ele>2771.62</ele>
        <time>2019-09-14T09:21:32Z</time>
      </trkpt>
      <trkpt lat="42.87521" lon="0.27181">
        <ele>2770.18</ele>
        <time>2019-09-14T09:21:35Z</time>
      </trkpt>
      <trkpt lat="42.87519" lon="0.27178">
        <ele>2769.7</ele>
        <time>2019-09-14T09:21:42Z</time>
      </trkpt>
      <trkpt lat="42.87516" lon="0.27174">
        <ele>2767.77</ele>
        <time>2019-09-14T09:21:49Z</time>
      </trkpt>
      <trkpt lat="42.87515" lon="0.2717">
        <ele>2766.33</ele>
        <time>2019-09-14T09:21:54Z</time>
      </trkpt>
      <trkpt lat="42.87516" lon="0.27167">
        <ele>2765.37</ele>
        <time>2019-09-14T09:21:57Z</time>
      </trkpt>
      <trkpt lat="42.87515" lon="0.27162">
        <ele>2762.97</ele>
        <time>2019-09-14T09:22:03Z</time>
      </trkpt>
      <trkpt lat="42.87512" lon="0.27163">
        <ele>2762</ele>
        <time>2019-09-14T09:22:06Z</time>
      </trkpt>
      <trkpt lat="42.8751" lon="0.27163">
        <ele>2762</ele>
        <time>2019-09-14T09:22:08Z</time>
      </trkpt>
      <trkpt lat="42.87507" lon="0.27163">
        <ele>2760.56</ele>
        <time>2019-09-14T09:22:12Z</time>
      </trkpt>
      <trkpt lat="42.87503" lon="0.27162">
        <ele>2759.6</ele>
        <time>2019-09-14T09:22:18Z</time>
      </trkpt>
      <trkpt lat="42.87502" lon="0.27159">
        <ele>2758.64</ele>
        <time>2019-09-14T09:22:21Z</time>
      </trkpt>
      <trkpt lat="42.87501" lon="0.27156">
        <ele>2757.2</ele>
        <time>2019-09-14T09:22:23Z</time>
      </trkpt>
      <trkpt lat="42.87497" lon="0.27156">
        <ele>2755.76</ele>
        <time>2019-09-14T09:22:27Z</time>
      </trkpt>
      <trkpt lat="42.87494" lon="0.27153">
        <ele>2754.8</ele>
        <time>2019-09-14T09:22:32Z</time>
      </trkpt>
      <trkpt lat="42.87493" lon="0.27146">
        <ele>2754.31</ele>
        <time>2019-09-14T09:22:39Z</time>
      </trkpt>
      <trkpt lat="42.87494" lon="0.27144">
        <ele>2752.87</ele>
        <time>2019-09-14T09:22:41Z</time>
      </trkpt>
      <trkpt lat="42.87499" lon="0.27137">
        <ele>2750.47</ele>
        <time>2019-09-14T09:22:49Z</time>
      </trkpt>
      <trkpt lat="42.87502" lon="0.2713">
        <ele>2749.51</ele>
        <time>2019-09-14T09:22:56Z</time>
      </trkpt>
      <trkpt lat="42.87507" lon="0.27126">
        <ele>2746.62</ele>
        <time>2019-09-14T09:23:02Z</time>
      </trkpt>
      <trkpt lat="42.87513" lon="0.27119">
        <ele>2742.78</ele>
        <time>2019-09-14T09:23:12Z</time>
      </trkpt>
      <trkpt lat="42.87515" lon="0.27116">
        <ele>2742.3</ele>
        <time>2019-09-14T09:23:18Z</time>
      </trkpt>
      <trkpt lat="42.87519" lon="0.27111">
        <ele>2740.38</ele>
        <time>2019-09-14T09:23:25Z</time>
      </trkpt>
      <trkpt lat="42.8752" lon="0.27109">
        <ele>2739.89</ele>
        <time>2019-09-14T09:23:32Z</time>
      </trkpt>
      <trkpt lat="42.87521" lon="0.27106">
        <ele>2738.45</ele>
        <time>2019-09-14T09:23:37Z</time>
      </trkpt>
      <trkpt lat="42.87522" lon="0.27103">
        <ele>2737.01</ele>
        <time>2019-09-14T09:23:43Z</time>
      </trkpt>
      <trkpt lat="42.87522" lon="0.271">
        <ele>2735.57</ele>
        <time>2019-09-14T09:23:51Z</time>
      </trkpt>
      <trkpt lat="42.87522" lon="0.27098">
        <ele>2734.61</ele>
        <time>2019-09-14T09:23:59Z</time>
      </trkpt>
      <trkpt lat="42.87521" lon="0.27096">
        <ele>2733.17</ele>
        <time>2019-09-14T09:24:03Z</time>
      </trkpt>
      <trkpt lat="42.87521" lon="0.27092">
        <ele>2731.24</ele>
        <time>2019-09-14T09:24:10Z</time>
      </trkpt>
      <trkpt lat="42.87521" lon="0.27089">
        <ele>2730.28</ele>
        <time>2019-09-14T09:24:17Z</time>
      </trkpt>
      <trkpt lat="42.87521" lon="0.27085">
        <ele>2729.32</ele>
        <time>2019-09-14T09:24:24Z</time>
      </trkpt>
      <trkpt lat="42.8752" lon="0.27084">
        <ele>2727.4</ele>
        <time>2019-09-14T09:24:32Z</time>
      </trkpt>
      <trkpt lat="42.87521" lon="0.27081">
        <ele>2726.92</ele>
        <time>2019-09-14T09:24:38Z</time>
      </trkpt>
      <trkpt lat="42.87521" lon="0.27079">
        <ele>2724.99</ele>
        <time>2019-09-14T09:24:43Z</time>
      </trkpt>
      <trkpt lat="42.8752" lon="0.27075">
        <ele>2724.99</ele>
        <time>2019-09-14T09:24:48Z</time>
      </trkpt>
      <trkpt lat="42.8752" lon="0.27071">
        <ele>2723.07</ele>
        <time>2019-09-14T09:24:56Z</time>
      </trkpt>
      <trkpt lat="42.87522" lon="0.27067">
        <ele>2721.63</ele>
        <time>2019-09-14T09:25:02Z</time>
      </trkpt>
      <trkpt lat="42.87524" lon="0.2706">
        <ele>2720.19</ele>
        <time>2019-09-14T09:25:09Z</time>
      </trkpt>
      <trkpt lat="42.87526" lon="0.27055">
        <ele>2718.27</ele>
        <time>2019-09-14T09:25:16Z</time>
      </trkpt>
      <trkpt lat="42.87526" lon="0.27048">
        <ele>2716.34</ele>
        <time>2019-09-14T09:25:23Z</time>
      </trkpt>
      <trkpt lat="42.87528" lon="0.27041">
        <ele>2714.9</ele>
        <time>2019-09-14T09:25:29Z</time>
      </trkpt>
      <trkpt lat="42.87531" lon="0.27031">
        <ele>2712.02</ele>
        <time>2019-09-14T09:25:38Z</time>
      </trkpt>
      <trkpt lat="42.87534" lon="0.27023">
        <ele>2709.61</ele>
        <time>2019-09-14T09:25:46Z</time>
      </trkpt>
      <trkpt lat="42.87536" lon="0.27015">
        <ele>2707.21</ele>
        <time>2019-09-14T09:25:54Z</time>
      </trkpt>
      <trkpt lat="42.87538" lon="0.27007">
        <ele>2704.81</ele>
        <time>2019-09-14T09:26:02Z</time>
      </trkpt>
      <trkpt lat="42.8754" lon="0.27001">
        <ele>2703.85</ele>
        <time>2019-09-14T09:26:08Z</time>
      </trkpt>
      <trkpt lat="42.87542" lon="0.26994">
        <ele>2701.92</ele>
        <time>2019-09-14T09:26:14Z</time>
      </trkpt>
      <trkpt lat="42.87543" lon="0.26989">
        <ele>2700.96</ele>
        <time>2019-09-14T09:26:19Z</time>
      </trkpt>
      <trkpt lat="42.87545" lon="0.26982">
        <ele>2699.04</ele>
        <time>2019-09-14T09:26:26Z</time>
      </trkpt>
      <trkpt lat="42.87546" lon="0.26976">
        <ele>2695.67</ele>
        <time>2019-09-14T09:26:33Z</time>
      </trkpt>
      <trkpt lat="42.87546" lon="0.26975">
        <ele>2695.67</ele>
        <time>2019-09-14T09:26:34Z</time>
      </trkpt>
      <trkpt lat="42.87546" lon="0.26968">
        <ele>2694.23</ele>
        <time>2019-09-14T09:26:40Z</time>
      </trkpt>
      <trkpt lat="42.87546" lon="0.26966">
        <ele>2693.27</ele>
        <time>2019-09-14T09:26:42Z</time>
      </trkpt>
      <trkpt lat="42.8755" lon="0.26958">
        <ele>2691.83</ele>
        <time>2019-09-14T09:26:50Z</time>
      </trkpt>
      <trkpt lat="42.87551" lon="0.26955">
        <ele>2690.87</ele>
        <time>2019-09-14T09:26:53Z</time>
      </trkpt>
      <trkpt lat="42.87554" lon="0.2695">
        <ele>2689.91</ele>
        <time>2019-09-14T09:26:57Z</time>
      </trkpt>
      <trkpt lat="42.87555" lon="0.26947">
        <ele>2688.46</ele>
        <time>2019-09-14T09:27:00Z</time>
      </trkpt>
      <trkpt lat="42.87558" lon="0.26941">
        <ele>2686.54</ele>
        <time>2019-09-14T09:27:06Z</time>
      </trkpt>
      <trkpt lat="42.87561" lon="0.26934">
        <ele>2684.62</ele>
        <time>2019-09-14T09:27:15Z</time>
      </trkpt>
      <trkpt lat="42.87563" lon="0.2693">
        <ele>2683.66</ele>
        <time>2019-09-14T09:27:21Z</time>
      </trkpt>
      <trkpt lat="42.87563" lon="0.26926">
        <ele>2682.22</ele>
        <time>2019-09-14T09:27:27Z</time>
      </trkpt>
      <trkpt lat="42.87564" lon="0.26924">
        <ele>2681.73</ele>
        <time>2019-09-14T09:27:28Z</time>
      </trkpt>
      <trkpt lat="42.87568" lon="0.26913">
        <ele>2680.77</ele>
        <time>2019-09-14T09:27:36Z</time>
      </trkpt>
      <trkpt lat="42.8757" lon="0.26911">
        <ele>2680.29</ele>
        <time>2019-09-14T09:27:38Z</time>
      </trkpt>
      <trkpt lat="42.87574" lon="0.26906">
        <ele>2678.37</ele>
        <time>2019-09-14T09:27:43Z</time>
      </trkpt>
      <trkpt lat="42.87578" lon="0.26897">
        <ele>2678.37</ele>
        <time>2019-09-14T09:27:50Z</time>
      </trkpt>
      <trkpt lat="42.87583" lon="0.26889">
        <ele>2678.37</ele>
        <time>2019-09-14T09:27:59Z</time>
      </trkpt>
      <trkpt lat="42.87585" lon="0.26885">
        <ele>2678.85</ele>
        <time>2019-09-14T09:28:02Z</time>
      </trkpt>
      <trkpt lat="42.8759" lon="0.26876">
        <ele>2679.33</ele>
        <time>2019-09-14T09:28:08Z</time>
      </trkpt>
      <trkpt lat="42.87593" lon="0.2687">
        <ele>2680.29</ele>
        <time>2019-09-14T09:28:14Z</time>
      </trkpt>
      <trkpt lat="42.87593" lon="0.26865">
        <ele>2678.37</ele>
        <time>2019-09-14T09:28:21Z</time>
      </trkpt>
      <trkpt lat="42.87594" lon="0.26861">
        <ele>2677.41</ele>
        <time>2019-09-14T09:28:28Z</time>
      </trkpt>
      <trkpt lat="42.87593" lon="0.26857">
        <ele>2676.45</ele>
        <time>2019-09-14T09:28:33Z</time>
      </trkpt>
      <trkpt lat="42.87593" lon="0.26851">
        <ele>2674.04</ele>
        <time>2019-09-14T09:28:41Z</time>
      </trkpt>
      <trkpt lat="42.87594" lon="0.26849">
        <ele>2673.56</ele>
        <time>2019-09-14T09:28:48Z</time>
      </trkpt>
      <trkpt lat="42.87591" lon="0.26844">
        <ele>2672.12</ele>
        <time>2019-09-14T09:28:56Z</time>
      </trkpt>
      <trkpt lat="42.87588" lon="0.26845">
        <ele>2670.68</ele>
        <time>2019-09-14T09:29:02Z</time>
      </trkpt>
      <trkpt lat="42.87587" lon="0.26847">
        <ele>2669.72</ele>
        <time>2019-09-14T09:29:05Z</time>
      </trkpt>
      <trkpt lat="42.87585" lon="0.26847">
        <ele>2668.28</ele>
        <time>2019-09-14T09:29:11Z</time>
      </trkpt>
      <trkpt lat="42.87585" lon="0.26846">
        <ele>2667.8</ele>
        <time>2019-09-14T09:29:12Z</time>
      </trkpt>
      <trkpt lat="42.87584" lon="0.26837">
        <ele>2666.35</ele>
        <time>2019-09-14T09:29:19Z</time>
      </trkpt>
      <trkpt lat="42.87587" lon="0.26828">
        <ele>2663.95</ele>
        <time>2019-09-14T09:29:28Z</time>
      </trkpt>
      <trkpt lat="42.87589" lon="0.2682">
        <ele>2662.03</ele>
        <time>2019-09-14T09:29:34Z</time>
      </trkpt>
      <trkpt lat="42.87591" lon="0.26812">
        <ele>2661.07</ele>
        <time>2019-09-14T09:29:41Z</time>
      </trkpt>
      <trkpt lat="42.87593" lon="0.26805">
        <ele>2660.11</ele>
        <time>2019-09-14T09:29:48Z</time>
      </trkpt>
      <trkpt lat="42.87595" lon="0.26797">
        <ele>2658.18</ele>
        <time>2019-09-14T09:29:55Z</time>
      </trkpt>
      <trkpt lat="42.87595" lon="0.2679">
        <ele>2656.74</ele>
        <time>2019-09-14T09:30:01Z</time>
      </trkpt>
      <trkpt lat="42.87594" lon="0.26786">
        <ele>2654.82</ele>
        <time>2019-09-14T09:30:05Z</time>
      </trkpt>
      <trkpt lat="42.87592" lon="0.26784">
        <ele>2653.86</ele>
        <time>2019-09-14T09:30:08Z</time>
      </trkpt>
      <trkpt lat="42.87589" lon="0.2678">
        <ele>2652.42</ele>
        <time>2019-09-14T09:30:16Z</time>
      </trkpt>
      <trkpt lat="42.87588" lon="0.26774">
        <ele>2650.01</ele>
        <time>2019-09-14T09:30:23Z</time>
      </trkpt>
      <trkpt lat="42.87587" lon="0.2677">
        <ele>2647.61</ele>
        <time>2019-09-14T09:30:28Z</time>
      </trkpt>
      <trkpt lat="42.87587" lon="0.26768">
        <ele>2647.61</ele>
        <time>2019-09-14T09:30:31Z</time>
      </trkpt>
      <trkpt lat="42.87587" lon="0.2676">
        <ele>2645.21</ele>
        <time>2019-09-14T09:30:38Z</time>
      </trkpt>
      <trkpt lat="42.87587" lon="0.26751">
        <ele>2643.28</ele>
        <time>2019-09-14T09:30:45Z</time>
      </trkpt>
      <trkpt lat="42.87587" lon="0.26749">
        <ele>2643.28</ele>
        <time>2019-09-14T09:30:46Z</time>
      </trkpt>
      <trkpt lat="42.87586" lon="0.26741">
        <ele>2641.84</ele>
        <time>2019-09-14T09:30:53Z</time>
      </trkpt>
      <trkpt lat="42.87586" lon="0.26733">
        <ele>2640.88</ele>
        <time>2019-09-14T09:30:59Z</time>
      </trkpt>
      <trkpt lat="42.87586" lon="0.26728">
        <ele>2639.92</ele>
        <time>2019-09-14T09:31:04Z</time>
      </trkpt>
      <trkpt lat="42.87585" lon="0.26718">
        <ele>2639.92</ele>
        <time>2019-09-14T09:31:11Z</time>
      </trkpt>
      <trkpt lat="42.87584" lon="0.26713">
        <ele>2637.51</ele>
        <time>2019-09-14T09:31:18Z</time>
      </trkpt>
      <trkpt lat="42.87584" lon="0.26712">
        <ele>2637.99</ele>
        <time>2019-09-14T09:31:19Z</time>
      </trkpt>
      <trkpt lat="42.87584" lon="0.26709">
        <ele>2637.51</ele>
        <time>2019-09-14T09:31:21Z</time>
      </trkpt>
      <trkpt lat="42.87582" lon="0.26703">
        <ele>2636.07</ele>
        <time>2019-09-14T09:31:26Z</time>
      </trkpt>
      <trkpt lat="42.87581" lon="0.267">
        <ele>2635.11</ele>
        <time>2019-09-14T09:31:29Z</time>
      </trkpt>
      <trkpt lat="42.8758" lon="0.26695">
        <ele>2634.15</ele>
        <time>2019-09-14T09:31:33Z</time>
      </trkpt>
      <trkpt lat="42.87583" lon="0.26685">
        <ele>2633.67</ele>
        <time>2019-09-14T09:31:42Z</time>
      </trkpt>
      <trkpt lat="42.87584" lon="0.2668">
        <ele>2632.71</ele>
        <time>2019-09-14T09:31:45Z</time>
      </trkpt>
      <trkpt lat="42.87584" lon="0.26669">
        <ele>2631.27</ele>
        <time>2019-09-14T09:31:54Z</time>
      </trkpt>
      <trkpt lat="42.87583" lon="0.2666">
        <ele>2628.38</ele>
        <time>2019-09-14T09:32:02Z</time>
      </trkpt>
      <trkpt lat="42.87585" lon="0.26653">
        <ele>2626.94</ele>
        <time>2019-09-14T09:32:10Z</time>
      </trkpt>
      <trkpt lat="42.87585" lon="0.26644">
        <ele>2624.06</ele>
        <time>2019-09-14T09:32:18Z</time>
      </trkpt>
      <trkpt lat="42.87585" lon="0.2664">
        <ele>2621.17</ele>
        <time>2019-09-14T09:32:24Z</time>
      </trkpt>
      <trkpt lat="42.87585" lon="0.26639">
        <ele>2621.17</ele>
        <time>2019-09-14T09:32:25Z</time>
      </trkpt>
      <trkpt lat="42.87584" lon="0.26634">
        <ele>2619.73</ele>
        <time>2019-09-14T09:32:31Z</time>
      </trkpt>
      <trkpt lat="42.87585" lon="0.26626">
        <ele>2617.33</ele>
        <time>2019-09-14T09:32:40Z</time>
      </trkpt>
      <trkpt lat="42.87585" lon="0.26618">
        <ele>2615.4</ele>
        <time>2019-09-14T09:32:46Z</time>
      </trkpt>
      <trkpt lat="42.87586" lon="0.2661">
        <ele>2613.48</ele>
        <time>2019-09-14T09:32:54Z</time>
      </trkpt>
      <trkpt lat="42.87585" lon="0.26602">
        <ele>2611.56</ele>
        <time>2019-09-14T09:33:02Z</time>
      </trkpt>
      <trkpt lat="42.87584" lon="0.26596">
        <ele>2610.6</ele>
        <time>2019-09-14T09:33:08Z</time>
      </trkpt>
      <trkpt lat="42.87584" lon="0.26594">
        <ele>2608.19</ele>
        <time>2019-09-14T09:33:16Z</time>
      </trkpt>
      <trkpt lat="42.87583" lon="0.26589">
        <ele>2606.75</ele>
        <time>2019-09-14T09:33:22Z</time>
      </trkpt>
      <trkpt lat="42.87582" lon="0.26583">
        <ele>2605.31</ele>
        <time>2019-09-14T09:33:28Z</time>
      </trkpt>
      <trkpt lat="42.87583" lon="0.2658">
        <ele>2603.87</ele>
        <time>2019-09-14T09:33:35Z</time>
      </trkpt>
      <trkpt lat="42.87584" lon="0.26573">
        <ele>2602.43</ele>
        <time>2019-09-14T09:33:42Z</time>
      </trkpt>
      <trkpt lat="42.87581" lon="0.26565">
        <ele>2600.5</ele>
        <time>2019-09-14T09:33:49Z</time>
      </trkpt>
      <trkpt lat="42.87579" lon="0.26558">
        <ele>2598.1</ele>
        <time>2019-09-14T09:33:55Z</time>
      </trkpt>
      <trkpt lat="42.87577" lon="0.26557">
        <ele>2597.62</ele>
        <time>2019-09-14T09:33:57Z</time>
      </trkpt>
      <trkpt lat="42.87576" lon="0.2655">
        <ele>2595.7</ele>
        <time>2019-09-14T09:34:03Z</time>
      </trkpt>
      <trkpt lat="42.87575" lon="0.26545">
        <ele>2593.77</ele>
        <time>2019-09-14T09:34:09Z</time>
      </trkpt>
      <trkpt lat="42.87575" lon="0.26544">
        <ele>2593.77</ele>
        <time>2019-09-14T09:34:23Z</time>
      </trkpt>
      <trkpt lat="42.87574" lon="0.26543">
        <ele>2592.81</ele>
        <time>2019-09-14T09:34:30Z</time>
      </trkpt>
      <trkpt lat="42.87572" lon="0.26546">
        <ele>2591.85</ele>
        <time>2019-09-14T09:34:37Z</time>
      </trkpt>
      <trkpt lat="42.87569" lon="0.26549">
        <ele>2590.41</ele>
        <time>2019-09-14T09:34:42Z</time>
      </trkpt>
      <trkpt lat="42.87567" lon="0.26551">
        <ele>2589.93</ele>
        <time>2019-09-14T09:34:44Z</time>
      </trkpt>
      <trkpt lat="42.87563" lon="0.26555">
        <ele>2588.49</ele>
        <time>2019-09-14T09:34:48Z</time>
      </trkpt>
      <trkpt lat="42.87559" lon="0.26557">
        <ele>2585.6</ele>
        <time>2019-09-14T09:34:56Z</time>
      </trkpt>
      <trkpt lat="42.87558" lon="0.26557">
        <ele>2585.12</ele>
        <time>2019-09-14T09:34:58Z</time>
      </trkpt>
      <trkpt lat="42.87554" lon="0.26559">
        <ele>2583.68</ele>
        <time>2019-09-14T09:35:05Z</time>
      </trkpt>
      <trkpt lat="42.8755" lon="0.26564">
        <ele>2581.28</ele>
        <time>2019-09-14T09:35:13Z</time>
      </trkpt>
      <trkpt lat="42.8755" lon="0.26565">
        <ele>2580.32</ele>
        <time>2019-09-14T09:35:18Z</time>
      </trkpt>
      <trkpt lat="42.87545" lon="0.26571">
        <ele>2578.39</ele>
        <time>2019-09-14T09:35:25Z</time>
      </trkpt>
      <trkpt lat="42.87543" lon="0.26572">
        <ele>2576.95</ele>
        <time>2019-09-14T09:35:31Z</time>
      </trkpt>
      <trkpt lat="42.87543" lon="0.26572">
        <ele>2575.99</ele>
        <time>2019-09-14T09:35:36Z</time>
      </trkpt>
      <trkpt lat="42.87541" lon="0.26572">
        <ele>2575.03</ele>
        <time>2019-09-14T09:35:43Z</time>
      </trkpt>
      <trkpt lat="42.87539" lon="0.26572">
        <ele>2572.63</ele>
        <time>2019-09-14T09:35:51Z</time>
      </trkpt>
      <trkpt lat="42.87534" lon="0.26576">
        <ele>2570.7</ele>
        <time>2019-09-14T09:35:58Z</time>
      </trkpt>
      <trkpt lat="42.87531" lon="0.26575">
        <ele>2568.78</ele>
        <time>2019-09-14T09:36:04Z</time>
      </trkpt>
      <trkpt lat="42.87528" lon="0.26579">
        <ele>2566.86</ele>
        <time>2019-09-14T09:36:10Z</time>
      </trkpt>
      <trkpt lat="42.87523" lon="0.26585">
        <ele>2564.93</ele>
        <time>2019-09-14T09:36:17Z</time>
      </trkpt>
      <trkpt lat="42.87522" lon="0.26587">
        <ele>2563.49</ele>
        <time>2019-09-14T09:36:20Z</time>
      </trkpt>
      <trkpt lat="42.8752" lon="0.26586">
        <ele>2562.53</ele>
        <time>2019-09-14T09:36:26Z</time>
      </trkpt>
      <trkpt lat="42.87518" lon="0.26582">
        <ele>2561.57</ele>
        <time>2019-09-14T09:36:32Z</time>
      </trkpt>
      <trkpt lat="42.87517" lon="0.26583">
        <ele>2560.13</ele>
        <time>2019-09-14T09:36:35Z</time>
      </trkpt>
      <trkpt lat="42.87514" lon="0.26586">
        <ele>2558.21</ele>
        <time>2019-09-14T09:36:41Z</time>
      </trkpt>
      <trkpt lat="42.87511" lon="0.2659">
        <ele>2557.24</ele>
        <time>2019-09-14T09:36:47Z</time>
      </trkpt>
      <trkpt lat="42.87509" lon="0.26594">
        <ele>2555.32</ele>
        <time>2019-09-14T09:36:53Z</time>
      </trkpt>
      <trkpt lat="42.87504" lon="0.266">
        <ele>2553.88</ele>
        <time>2019-09-14T09:37:00Z</time>
      </trkpt>
      <trkpt lat="42.87502" lon="0.26607">
        <ele>2551</ele>
        <time>2019-09-14T09:37:07Z</time>
      </trkpt>
      <trkpt lat="42.87498" lon="0.26611">
        <ele>2549.07</ele>
        <time>2019-09-14T09:37:14Z</time>
      </trkpt>
      <trkpt lat="42.87494" lon="0.26617">
        <ele>2547.15</ele>
        <time>2019-09-14T09:37:22Z</time>
      </trkpt>
      <trkpt lat="42.87492" lon="0.2662">
        <ele>2545.71</ele>
        <time>2019-09-14T09:37:26Z</time>
      </trkpt>
      <trkpt lat="42.8749" lon="0.26622">
        <ele>2543.79</ele>
        <time>2019-09-14T09:37:32Z</time>
      </trkpt>
      <trkpt lat="42.87486" lon="0.26626">
        <ele>2542.34</ele>
        <time>2019-09-14T09:37:38Z</time>
      </trkpt>
      <trkpt lat="42.87482" lon="0.26631">
        <ele>2539.94</ele>
        <time>2019-09-14T09:37:45Z</time>
      </trkpt>
      <trkpt lat="42.87479" lon="0.26635">
        <ele>2538.02</ele>
        <time>2019-09-14T09:37:52Z</time>
      </trkpt>
      <trkpt lat="42.87475" lon="0.26637">
        <ele>2536.1</ele>
        <time>2019-09-14T09:37:59Z</time>
      </trkpt>
      <trkpt lat="42.87472" lon="0.26639">
        <ele>2534.17</ele>
        <time>2019-09-14T09:38:05Z</time>
      </trkpt>
      <trkpt lat="42.87469" lon="0.26635">
        <ele>2532.25</ele>
        <time>2019-09-14T09:38:12Z</time>
      </trkpt>
      <trkpt lat="42.87469" lon="0.26634">
        <ele>2532.25</ele>
        <time>2019-09-14T09:38:23Z</time>
      </trkpt>
      <trkpt lat="42.87466" lon="0.26637">
        <ele>2531.29</ele>
        <time>2019-09-14T09:38:32Z</time>
      </trkpt>
      <trkpt lat="42.87465" lon="0.26638">
        <ele>2529.85</ele>
        <time>2019-09-14T09:38:39Z</time>
      </trkpt>
      <trkpt lat="42.8746" lon="0.26647">
        <ele>2527.44</ele>
        <time>2019-09-14T09:38:45Z</time>
      </trkpt>
      <trkpt lat="42.87456" lon="0.26655">
        <ele>2524.56</ele>
        <time>2019-09-14T09:38:52Z</time>
      </trkpt>
      <trkpt lat="42.87454" lon="0.2666">
        <ele>2523.6</ele>
        <time>2019-09-14T09:38:55Z</time>
      </trkpt>
      <trkpt lat="42.87452" lon="0.26661">
        <ele>2523.12</ele>
        <time>2019-09-14T09:38:57Z</time>
      </trkpt>
      <trkpt lat="42.8745" lon="0.26667">
        <ele>2523.12</ele>
        <time>2019-09-14T09:39:01Z</time>
      </trkpt>
      <trkpt lat="42.87445" lon="0.26671">
        <ele>2521.68</ele>
        <time>2019-09-14T09:39:05Z</time>
      </trkpt>
      <trkpt lat="42.87441" lon="0.26675">
        <ele>2520.23</ele>
        <time>2019-09-14T09:39:09Z</time>
      </trkpt>
      <trkpt lat="42.87434" lon="0.2668">
        <ele>2518.31</ele>
        <time>2019-09-14T09:39:16Z</time>
      </trkpt>
      <trkpt lat="42.87427" lon="0.26685">
        <ele>2516.87</ele>
        <time>2019-09-14T09:39:23Z</time>
      </trkpt>
      <trkpt lat="42.87424" lon="0.26689">
        <ele>2516.39</ele>
        <time>2019-09-14T09:39:29Z</time>
      </trkpt>
      <trkpt lat="42.87421" lon="0.2669">
        <ele>2515.43</ele>
        <time>2019-09-14T09:39:32Z</time>
      </trkpt>
      <trkpt lat="42.87422" lon="0.26682">
        <ele>2514.47</ele>
        <time>2019-09-14T09:39:36Z</time>
      </trkpt>
      <trkpt lat="42.87424" lon="0.26677">
        <ele>2513.98</ele>
        <time>2019-09-14T09:39:39Z</time>
      </trkpt>
      <trkpt lat="42.87428" lon="0.26669">
        <ele>2512.06</ele>
        <time>2019-09-14T09:39:46Z</time>
      </trkpt>
      <trkpt lat="42.87431" lon="0.26659">
        <ele>2509.66</ele>
        <time>2019-09-14T09:39:54Z</time>
      </trkpt>
      <trkpt lat="42.87431" lon="0.26651">
        <ele>2506.77</ele>
        <time>2019-09-14T09:40:02Z</time>
      </trkpt>
      <trkpt lat="42.8743" lon="0.26648">
        <ele>2505.81</ele>
        <time>2019-09-14T09:40:08Z</time>
      </trkpt>
      <trkpt lat="42.87429" lon="0.26644">
        <ele>2504.85</ele>
        <time>2019-09-14T09:40:11Z</time>
      </trkpt>
      <trkpt lat="42.87429" lon="0.26641">
        <ele>2503.41</ele>
        <time>2019-09-14T09:40:14Z</time>
      </trkpt>
      <trkpt lat="42.87429" lon="0.26637">
        <ele>2501.97</ele>
        <time>2019-09-14T09:40:18Z</time>
      </trkpt>
      <trkpt lat="42.8743" lon="0.26629">
        <ele>2500.05</ele>
        <time>2019-09-14T09:40:25Z</time>
      </trkpt>
      <trkpt lat="42.8743" lon="0.26623">
        <ele>2498.12</ele>
        <time>2019-09-14T09:40:31Z</time>
      </trkpt>
      <trkpt lat="42.87427" lon="0.2662">
        <ele>2497.16</ele>
        <time>2019-09-14T09:40:38Z</time>
      </trkpt>
      <trkpt lat="42.8743" lon="0.26618">
        <ele>2496.2</ele>
        <time>2019-09-14T09:40:45Z</time>
      </trkpt>
      <trkpt lat="42.87431" lon="0.26617">
        <ele>2496.2</ele>
        <time>2019-09-14T09:40:57Z</time>
      </trkpt>
      <trkpt lat="42.87431" lon="0.26618">
        <ele>2496.2</ele>
        <time>2019-09-14T09:41:14Z</time>
      </trkpt>
      <trkpt lat="42.87431" lon="0.26617">
        <ele>2495.72</ele>
        <time>2019-09-14T09:41:24Z</time>
      </trkpt>
      <trkpt lat="42.87431" lon="0.26617">
        <ele>2496.2</ele>
        <time>2019-09-14T09:41:37Z</time>
      </trkpt>
      <trkpt lat="42.8743" lon="0.26618">
        <ele>2496.68</ele>
        <time>2019-09-14T09:41:44Z</time>
      </trkpt>
      <trkpt lat="42.8743" lon="0.26618">
        <ele>2495.24</ele>
        <time>2019-09-14T09:41:53Z</time>
      </trkpt>
      <trkpt lat="42.8743" lon="0.26618">
        <ele>2495.24</ele>
        <time>2019-09-14T09:42:12Z</time>
      </trkpt>
      <trkpt lat="42.8743" lon="0.26618">
        <ele>2495.24</ele>
        <time>2019-09-14T09:42:21Z</time>
      </trkpt>
      <trkpt lat="42.8743" lon="0.2662">
        <ele>2496.2</ele>
        <time>2019-09-14T09:42:27Z</time>
      </trkpt>
      <trkpt lat="42.8743" lon="0.26619">
        <ele>2496.2</ele>
        <time>2019-09-14T09:42:34Z</time>
      </trkpt>
      <trkpt lat="42.87429" lon="0.26619">
        <ele>2496.2</ele>
        <time>2019-09-14T09:42:45Z</time>
      </trkpt>
      <trkpt lat="42.8743" lon="0.26619">
        <ele>2495.72</ele>
        <time>2019-09-14T09:42:54Z</time>
      </trkpt>
      <trkpt lat="42.87431" lon="0.26617">
        <ele>2494.76</ele>
        <time>2019-09-14T09:43:01Z</time>
      </trkpt>
      <trkpt lat="42.87431" lon="0.26615">
        <ele>2492.84</ele>
        <time>2019-09-14T09:43:10Z</time>
      </trkpt>
      <trkpt lat="42.87431" lon="0.26614">
        <ele>2491.87</ele>
        <time>2019-09-14T09:43:16Z</time>
      </trkpt>
      <trkpt lat="42.87431" lon="0.26611">
        <ele>2489.95</ele>
        <time>2019-09-14T09:43:22Z</time>
      </trkpt>
      <trkpt lat="42.8743" lon="0.26602">
        <ele>2488.03</ele>
        <time>2019-09-14T09:43:29Z</time>
      </trkpt>
      <trkpt lat="42.87429" lon="0.26596">
        <ele>2486.11</ele>
        <time>2019-09-14T09:43:35Z</time>
      </trkpt>
      <trkpt lat="42.87425" lon="0.26589">
        <ele>2483.7</ele>
        <time>2019-09-14T09:43:42Z</time>
      </trkpt>
      <trkpt lat="42.87421" lon="0.26581">
        <ele>2481.3</ele>
        <time>2019-09-14T09:43:49Z</time>
      </trkpt>
      <trkpt lat="42.87419" lon="0.26578">
        <ele>2478.9</ele>
        <time>2019-09-14T09:43:57Z</time>
      </trkpt>
      <trkpt lat="42.87416" lon="0.26581">
        <ele>2476.97</ele>
        <time>2019-09-14T09:44:03Z</time>
      </trkpt>
      <trkpt lat="42.87413" lon="0.26577">
        <ele>2475.05</ele>
        <time>2019-09-14T09:44:09Z</time>
      </trkpt>
      <trkpt lat="42.8741" lon="0.26572">
        <ele>2472.65</ele>
        <time>2019-09-14T09:44:16Z</time>
      </trkpt>
      <trkpt lat="42.87409" lon="0.26572">
        <ele>2472.17</ele>
        <time>2019-09-14T09:44:19Z</time>
      </trkpt>
      <trkpt lat="42.87404" lon="0.26566">
        <ele>2469.76</ele>
        <time>2019-09-14T09:44:25Z</time>
      </trkpt>
      <trkpt lat="42.87401" lon="0.26565">
        <ele>2467.84</ele>
        <time>2019-09-14T09:44:31Z</time>
      </trkpt>
      <trkpt lat="42.874" lon="0.26569">
        <ele>2466.88</ele>
        <time>2019-09-14T09:44:34Z</time>
      </trkpt>
      <trkpt lat="42.87394" lon="0.26574">
        <ele>2464.96</ele>
        <time>2019-09-14T09:44:41Z</time>
      </trkpt>
      <trkpt lat="42.87392" lon="0.26577">
        <ele>2463.04</ele>
        <time>2019-09-14T09:44:44Z</time>
      </trkpt>
      <trkpt lat="42.87391" lon="0.26577">
        <ele>2462.55</ele>
        <time>2019-09-14T09:44:45Z</time>
      </trkpt>
      <trkpt lat="42.87391" lon="0.26581">
        <ele>2462.07</ele>
        <time>2019-09-14T09:44:48Z</time>
      </trkpt>
      <trkpt lat="42.8739" lon="0.26583">
        <ele>2460.63</ele>
        <time>2019-09-14T09:44:51Z</time>
      </trkpt>
      <trkpt lat="42.87386" lon="0.26587">
        <ele>2458.71</ele>
        <time>2019-09-14T09:44:57Z</time>
      </trkpt>
      <trkpt lat="42.87385" lon="0.2659">
        <ele>2456.79</ele>
        <time>2019-09-14T09:45:00Z</time>
      </trkpt>
      <trkpt lat="42.87379" lon="0.26599">
        <ele>2454.86</ele>
        <time>2019-09-14T09:45:08Z</time>
      </trkpt>
      <trkpt lat="42.87376" lon="0.26599">
        <ele>2452.94</ele>
        <time>2019-09-14T09:45:12Z</time>
      </trkpt>
      <trkpt lat="42.87369" lon="0.26605">
        <ele>2451.02</ele>
        <time>2019-09-14T09:45:20Z</time>
      </trkpt>
      <trkpt lat="42.87366" lon="0.26611">
        <ele>2451.02</ele>
        <time>2019-09-14T09:45:24Z</time>
      </trkpt>
      <trkpt lat="42.87361" lon="0.26617">
        <ele>2449.1</ele>
        <time>2019-09-14T09:45:31Z</time>
      </trkpt>
      <trkpt lat="42.87359" lon="0.26623">
        <ele>2448.13</ele>
        <time>2019-09-14T09:45:36Z</time>
      </trkpt>
      <trkpt lat="42.87355" lon="0.26627">
        <ele>2446.21</ele>
        <time>2019-09-14T09:45:44Z</time>
      </trkpt>
      <trkpt lat="42.87349" lon="0.26626">
        <ele>2442.85</ele>
        <time>2019-09-14T09:45:50Z</time>
      </trkpt>
      <trkpt lat="42.87344" lon="0.26624">
        <ele>2440.44</ele>
        <time>2019-09-14T09:45:57Z</time>
      </trkpt>
      <trkpt lat="42.87343" lon="0.26621">
        <ele>2438.52</ele>
        <time>2019-09-14T09:46:01Z</time>
      </trkpt>
      <trkpt lat="42.87341" lon="0.26617">
        <ele>2437.56</ele>
        <time>2019-09-14T09:46:07Z</time>
      </trkpt>
      <trkpt lat="42.87338" lon="0.2662">
        <ele>2435.64</ele>
        <time>2019-09-14T09:46:13Z</time>
      </trkpt>
      <trkpt lat="42.87336" lon="0.26619">
        <ele>2434.68</ele>
        <time>2019-09-14T09:46:17Z</time>
      </trkpt>
      <trkpt lat="42.87336" lon="0.26613">
        <ele>2432.75</ele>
        <time>2019-09-14T09:46:23Z</time>
      </trkpt>
      <trkpt lat="42.87335" lon="0.26612">
        <ele>2432.75</ele>
        <time>2019-09-14T09:46:24Z</time>
      </trkpt>
      <trkpt lat="42.87333" lon="0.26604">
        <ele>2430.83</ele>
        <time>2019-09-14T09:46:31Z</time>
      </trkpt>
      <trkpt lat="42.87331" lon="0.26599">
        <ele>2428.91</ele>
        <time>2019-09-14T09:46:38Z</time>
      </trkpt>
      <trkpt lat="42.87328" lon="0.266">
        <ele>2426.99</ele>
        <time>2019-09-14T09:46:44Z</time>
      </trkpt>
      <trkpt lat="42.87326" lon="0.26602">
        <ele>2426.02</ele>
        <time>2019-09-14T09:46:48Z</time>
      </trkpt>
      <trkpt lat="42.87322" lon="0.266">
        <ele>2424.1</ele>
        <time>2019-09-14T09:46:55Z</time>
      </trkpt>
      <trkpt lat="42.8732" lon="0.26592">
        <ele>2421.7</ele>
        <time>2019-09-14T09:47:04Z</time>
      </trkpt>
      <trkpt lat="42.87318" lon="0.26588">
        <ele>2419.78</ele>
        <time>2019-09-14T09:47:11Z</time>
      </trkpt>
      <trkpt lat="42.87316" lon="0.26588">
        <ele>2418.33</ele>
        <time>2019-09-14T09:47:17Z</time>
      </trkpt>
      <trkpt lat="42.87316" lon="0.26584">
        <ele>2416.41</ele>
        <time>2019-09-14T09:47:23Z</time>
      </trkpt>
      <trkpt lat="42.87314" lon="0.26583">
        <ele>2414.49</ele>
        <time>2019-09-14T09:47:28Z</time>
      </trkpt>
      <trkpt lat="42.87312" lon="0.26583">
        <ele>2413.53</ele>
        <time>2019-09-14T09:47:32Z</time>
      </trkpt>
      <trkpt lat="42.87311" lon="0.26586">
        <ele>2413.05</ele>
        <time>2019-09-14T09:47:34Z</time>
      </trkpt>
      <trkpt lat="42.8731" lon="0.2658">
        <ele>2411.6</ele>
        <time>2019-09-14T09:47:39Z</time>
      </trkpt>
      <trkpt lat="42.87307" lon="0.26575">
        <ele>2410.16</ele>
        <time>2019-09-14T09:47:46Z</time>
      </trkpt>
      <trkpt lat="42.87307" lon="0.26572">
        <ele>2408.72</ele>
        <time>2019-09-14T09:47:52Z</time>
      </trkpt>
      <trkpt lat="42.87306" lon="0.2657">
        <ele>2407.28</ele>
        <time>2019-09-14T09:48:00Z</time>
      </trkpt>
      <trkpt lat="42.87305" lon="0.26564">
        <ele>2405.84</ele>
        <time>2019-09-14T09:48:06Z</time>
      </trkpt>
      <trkpt lat="42.87306" lon="0.26558">
        <ele>2403.91</ele>
        <time>2019-09-14T09:48:13Z</time>
      </trkpt>
      <trkpt lat="42.87305" lon="0.26558">
        <ele>2401.99</ele>
        <time>2019-09-14T09:48:20Z</time>
      </trkpt>
      <trkpt lat="42.87306" lon="0.26552">
        <ele>2400.55</ele>
        <time>2019-09-14T09:48:27Z</time>
      </trkpt>
      <trkpt lat="42.87303" lon="0.26553">
        <ele>2399.59</ele>
        <time>2019-09-14T09:48:33Z</time>
      </trkpt>
      <trkpt lat="42.87301" lon="0.26554">
        <ele>2398.63</ele>
        <time>2019-09-14T09:48:39Z</time>
      </trkpt>
      <trkpt lat="42.87298" lon="0.26556">
        <ele>2397.18</ele>
        <time>2019-09-14T09:48:44Z</time>
      </trkpt>
      <trkpt lat="42.87296" lon="0.26555">
        <ele>2396.22</ele>
        <time>2019-09-14T09:48:47Z</time>
      </trkpt>
      <trkpt lat="42.87296" lon="0.26555">
        <ele>2394.78</ele>
        <time>2019-09-14T09:48:55Z</time>
      </trkpt>
      <trkpt lat="42.87296" lon="0.26553">
        <ele>2392.86</ele>
        <time>2019-09-14T09:49:04Z</time>
      </trkpt>
      <trkpt lat="42.87297" lon="0.26546">
        <ele>2390.94</ele>
        <time>2019-09-14T09:49:10Z</time>
      </trkpt>
      <trkpt lat="42.87294" lon="0.26546">
        <ele>2389.97</ele>
        <time>2019-09-14T09:49:16Z</time>
      </trkpt>
      <trkpt lat="42.87288" lon="0.26545">
        <ele>2387.09</ele>
        <time>2019-09-14T09:49:25Z</time>
      </trkpt>
      <trkpt lat="42.87289" lon="0.26536">
        <ele>2384.69</ele>
        <time>2019-09-14T09:49:34Z</time>
      </trkpt>
      <trkpt lat="42.8729" lon="0.2653">
        <ele>2383.25</ele>
        <time>2019-09-14T09:49:41Z</time>
      </trkpt>
      <trkpt lat="42.87288" lon="0.26526">
        <ele>2381.32</ele>
        <time>2019-09-14T09:49:48Z</time>
      </trkpt>
      <trkpt lat="42.87285" lon="0.26525">
        <ele>2379.4</ele>
        <time>2019-09-14T09:49:55Z</time>
      </trkpt>
      <trkpt lat="42.87285" lon="0.26522">
        <ele>2377.48</ele>
        <time>2019-09-14T09:50:01Z</time>
      </trkpt>
      <trkpt lat="42.87285" lon="0.26517">
        <ele>2376.52</ele>
        <time>2019-09-14T09:50:08Z</time>
      </trkpt>
      <trkpt lat="42.87286" lon="0.2651">
        <ele>2374.11</ele>
        <time>2019-09-14T09:50:15Z</time>
      </trkpt>
      <trkpt lat="42.87285" lon="0.26509">
        <ele>2373.15</ele>
        <time>2019-09-14T09:50:18Z</time>
      </trkpt>
      <trkpt lat="42.87281" lon="0.2651">
        <ele>2371.71</ele>
        <time>2019-09-14T09:50:22Z</time>
      </trkpt>
      <trkpt lat="42.87276" lon="0.26509">
        <ele>2369.79</ele>
        <time>2019-09-14T09:50:28Z</time>
      </trkpt>
      <trkpt lat="42.87276" lon="0.26508">
        <ele>2369.31</ele>
        <time>2019-09-14T09:50:29Z</time>
      </trkpt>
      <trkpt lat="42.87271" lon="0.26507">
        <ele>2367.38</ele>
        <time>2019-09-14T09:50:36Z</time>
      </trkpt>
      <trkpt lat="42.8727" lon="0.26502">
        <ele>2365.46</ele>
        <time>2019-09-14T09:50:43Z</time>
      </trkpt>
      <trkpt lat="42.8727" lon="0.26497">
        <ele>2364.5</ele>
        <time>2019-09-14T09:50:48Z</time>
      </trkpt>
      <trkpt lat="42.87269" lon="0.26494">
        <ele>2363.06</ele>
        <time>2019-09-14T09:50:51Z</time>
      </trkpt>
      <trkpt lat="42.87268" lon="0.26484">
        <ele>2360.65</ele>
        <time>2019-09-14T09:50:58Z</time>
      </trkpt>
      <trkpt lat="42.87267" lon="0.26478">
        <ele>2358.73</ele>
        <time>2019-09-14T09:51:05Z</time>
      </trkpt>
      <trkpt lat="42.87261" lon="0.26481">
        <ele>2356.81</ele>
        <time>2019-09-14T09:51:13Z</time>
      </trkpt>
      <trkpt lat="42.87259" lon="0.26479">
        <ele>2354.89</ele>
        <time>2019-09-14T09:51:20Z</time>
      </trkpt>
      <trkpt lat="42.87255" lon="0.26479">
        <ele>2352.96</ele>
        <time>2019-09-14T09:51:25Z</time>
      </trkpt>
      <trkpt lat="42.87254" lon="0.26474">
        <ele>2351.52</ele>
        <time>2019-09-14T09:51:30Z</time>
      </trkpt>
      <trkpt lat="42.87248" lon="0.26473">
        <ele>2350.08</ele>
        <time>2019-09-14T09:51:36Z</time>
      </trkpt>
      <trkpt lat="42.87246" lon="0.26467">
        <ele>2347.68</ele>
        <time>2019-09-14T09:51:43Z</time>
      </trkpt>
      <trkpt lat="42.87244" lon="0.26463">
        <ele>2345.75</ele>
        <time>2019-09-14T09:51:48Z</time>
      </trkpt>
      <trkpt lat="42.87243" lon="0.26459">
        <ele>2343.83</ele>
        <time>2019-09-14T09:51:55Z</time>
      </trkpt>
      <trkpt lat="42.8724" lon="0.26454">
        <ele>2341.43</ele>
        <time>2019-09-14T09:52:03Z</time>
      </trkpt>
      <trkpt lat="42.87238" lon="0.26451">
        <ele>2338.54</ele>
        <time>2019-09-14T09:52:08Z</time>
      </trkpt>
      <trkpt lat="42.87233" lon="0.26448">
        <ele>2336.14</ele>
        <time>2019-09-14T09:52:15Z</time>
      </trkpt>
      <trkpt lat="42.8723" lon="0.26442">
        <ele>2333.74</ele>
        <time>2019-09-14T09:52:23Z</time>
      </trkpt>
      <trkpt lat="42.8723" lon="0.2644">
        <ele>2332.3</ele>
        <time>2019-09-14T09:52:30Z</time>
      </trkpt>
      <trkpt lat="42.8723" lon="0.26434">
        <ele>2330.85</ele>
        <time>2019-09-14T09:52:36Z</time>
      </trkpt>
      <trkpt lat="42.87229" lon="0.2643">
        <ele>2329.89</ele>
        <time>2019-09-14T09:52:43Z</time>
      </trkpt>
      <trkpt lat="42.87229" lon="0.2643">
        <ele>2329.89</ele>
        <time>2019-09-14T09:52:44Z</time>
      </trkpt>
      <trkpt lat="42.8723" lon="0.2642">
        <ele>2328.45</ele>
        <time>2019-09-14T09:52:52Z</time>
      </trkpt>
      <trkpt lat="42.87232" lon="0.26413">
        <ele>2327.01</ele>
        <time>2019-09-14T09:52:59Z</time>
      </trkpt>
      <trkpt lat="42.8723" lon="0.26408">
        <ele>2325.09</ele>
        <time>2019-09-14T09:53:06Z</time>
      </trkpt>
      <trkpt lat="42.87228" lon="0.26407">
        <ele>2324.12</ele>
        <time>2019-09-14T09:53:08Z</time>
      </trkpt>
      <trkpt lat="42.87227" lon="0.26402">
        <ele>2323.16</ele>
        <time>2019-09-14T09:53:14Z</time>
      </trkpt>
      <trkpt lat="42.87225" lon="0.26397">
        <ele>2321.24</ele>
        <time>2019-09-14T09:53:20Z</time>
      </trkpt>
      <trkpt lat="42.87222" lon="0.26394">
        <ele>2319.8</ele>
        <time>2019-09-14T09:53:27Z</time>
      </trkpt>
      <trkpt lat="42.87218" lon="0.26387">
        <ele>2318.36</ele>
        <time>2019-09-14T09:53:34Z</time>
      </trkpt>
      <trkpt lat="42.87218" lon="0.26386">
        <ele>2317.88</ele>
        <time>2019-09-14T09:53:35Z</time>
      </trkpt>
      <trkpt lat="42.87216" lon="0.26384">
        <ele>2316.43</ele>
        <time>2019-09-14T09:53:38Z</time>
      </trkpt>
      <trkpt lat="42.87215" lon="0.26383">
        <ele>2315.95</ele>
        <time>2019-09-14T09:53:40Z</time>
      </trkpt>
      <trkpt lat="42.87211" lon="0.26379">
        <ele>2313.55</ele>
        <time>2019-09-14T09:53:45Z</time>
      </trkpt>
      <trkpt lat="42.87211" lon="0.26377">
        <ele>2313.07</ele>
        <time>2019-09-14T09:53:47Z</time>
      </trkpt>
      <trkpt lat="42.8721" lon="0.26375">
        <ele>2312.11</ele>
        <time>2019-09-14T09:53:49Z</time>
      </trkpt>
      <trkpt lat="42.87209" lon="0.2637">
        <ele>2310.67</ele>
        <time>2019-09-14T09:53:53Z</time>
      </trkpt>
      <trkpt lat="42.87204" lon="0.26363">
        <ele>2307.78</ele>
        <time>2019-09-14T09:54:01Z</time>
      </trkpt>
      <trkpt lat="42.87204" lon="0.26359">
        <ele>2306.82</ele>
        <time>2019-09-14T09:54:05Z</time>
      </trkpt>
      <trkpt lat="42.87206" lon="0.26351">
        <ele>2305.38</ele>
        <time>2019-09-14T09:54:10Z</time>
      </trkpt>
      <trkpt lat="42.87204" lon="0.26347">
        <ele>2304.42</ele>
        <time>2019-09-14T09:54:15Z</time>
      </trkpt>
      <trkpt lat="42.87204" lon="0.26342">
        <ele>2302.49</ele>
        <time>2019-09-14T09:54:23Z</time>
      </trkpt>
      <trkpt lat="42.87204" lon="0.26342">
        <ele>2302.49</ele>
        <time>2019-09-14T09:54:35Z</time>
      </trkpt>
      <trkpt lat="42.87204" lon="0.2634">
        <ele>2302.49</ele>
        <time>2019-09-14T09:54:50Z</time>
      </trkpt>
      <trkpt lat="42.87203" lon="0.26339">
        <ele>2302.49</ele>
        <time>2019-09-14T09:55:04Z</time>
      </trkpt>
      <trkpt lat="42.87201" lon="0.26326">
        <ele>2300.57</ele>
        <time>2019-09-14T09:55:12Z</time>
      </trkpt>
      <trkpt lat="42.872" lon="0.26315">
        <ele>2300.09</ele>
        <time>2019-09-14T09:55:19Z</time>
      </trkpt>
      <trkpt lat="42.87198" lon="0.26305">
        <ele>2300.57</ele>
        <time>2019-09-14T09:55:26Z</time>
      </trkpt>
      <trkpt lat="42.87196" lon="0.26296">
        <ele>2300.09</ele>
        <time>2019-09-14T09:55:32Z</time>
      </trkpt>
      <trkpt lat="42.87196" lon="0.26281">
        <ele>2299.13</ele>
        <time>2019-09-14T09:55:42Z</time>
      </trkpt>
      <trkpt lat="42.87195" lon="0.26279">
        <ele>2298.65</ele>
        <time>2019-09-14T09:55:44Z</time>
      </trkpt>
      <trkpt lat="42.8719" lon="0.2627">
        <ele>2296.73</ele>
        <time>2019-09-14T09:55:53Z</time>
      </trkpt>
      <trkpt lat="42.87188" lon="0.26268">
        <ele>2296.25</ele>
        <time>2019-09-14T09:55:55Z</time>
      </trkpt>
      <trkpt lat="42.87184" lon="0.2626">
        <ele>2293.84</ele>
        <time>2019-09-14T09:56:04Z</time>
      </trkpt>
      <trkpt lat="42.87183" lon="0.26255">
        <ele>2291.44</ele>
        <time>2019-09-14T09:56:13Z</time>
      </trkpt>
      <trkpt lat="42.87183" lon="0.26254">
        <ele>2290</ele>
        <time>2019-09-14T09:56:15Z</time>
      </trkpt>
      <trkpt lat="42.87182" lon="0.2625">
        <ele>2288.56</ele>
        <time>2019-09-14T09:56:20Z</time>
      </trkpt>
      <trkpt lat="42.87179" lon="0.26245">
        <ele>2286.15</ele>
        <time>2019-09-14T09:56:27Z</time>
      </trkpt>
      <trkpt lat="42.87177" lon="0.26242">
        <ele>2284.23</ele>
        <time>2019-09-14T09:56:34Z</time>
      </trkpt>
      <trkpt lat="42.87171" lon="0.26239">
        <ele>2281.83</ele>
        <time>2019-09-14T09:56:41Z</time>
      </trkpt>
      <trkpt lat="42.87167" lon="0.26236">
        <ele>2279.9</ele>
        <time>2019-09-14T09:56:48Z</time>
      </trkpt>
      <trkpt lat="42.87165" lon="0.26233">
        <ele>2278.94</ele>
        <time>2019-09-14T09:56:52Z</time>
      </trkpt>
      <trkpt lat="42.8716" lon="0.26231">
        <ele>2277.02</ele>
        <time>2019-09-14T09:57:00Z</time>
      </trkpt>
      <trkpt lat="42.87156" lon="0.2623">
        <ele>2275.1</ele>
        <time>2019-09-14T09:57:07Z</time>
      </trkpt>
      <trkpt lat="42.87154" lon="0.26227">
        <ele>2273.17</ele>
        <time>2019-09-14T09:57:15Z</time>
      </trkpt>
      <trkpt lat="42.87153" lon="0.26223">
        <ele>2272.21</ele>
        <time>2019-09-14T09:57:21Z</time>
      </trkpt>
      <trkpt lat="42.87154" lon="0.2622">
        <ele>2271.25</ele>
        <time>2019-09-14T09:57:27Z</time>
      </trkpt>
      <trkpt lat="42.87154" lon="0.26216">
        <ele>2269.33</ele>
        <time>2019-09-14T09:57:32Z</time>
      </trkpt>
      <trkpt lat="42.87155" lon="0.26211">
        <ele>2267.41</ele>
        <time>2019-09-14T09:57:38Z</time>
      </trkpt>
      <trkpt lat="42.87151" lon="0.2621">
        <ele>2265.96</ele>
        <time>2019-09-14T09:57:45Z</time>
      </trkpt>
      <trkpt lat="42.87146" lon="0.26211">
        <ele>2263.56</ele>
        <time>2019-09-14T09:57:52Z</time>
      </trkpt>
      <trkpt lat="42.87142" lon="0.2621">
        <ele>2261.16</ele>
        <time>2019-09-14T09:57:58Z</time>
      </trkpt>
      <trkpt lat="42.8714" lon="0.26204">
        <ele>2259.72</ele>
        <time>2019-09-14T09:58:06Z</time>
      </trkpt>
      <trkpt lat="42.87143" lon="0.26196">
        <ele>2256.83</ele>
        <time>2019-09-14T09:58:15Z</time>
      </trkpt>
      <trkpt lat="42.87141" lon="0.26195">
        <ele>2254.91</ele>
        <time>2019-09-14T09:58:22Z</time>
      </trkpt>
      <trkpt lat="42.87139" lon="0.26193">
        <ele>2253.47</ele>
        <time>2019-09-14T09:58:29Z</time>
      </trkpt>
      <trkpt lat="42.87137" lon="0.26191">
        <ele>2252.51</ele>
        <time>2019-09-14T09:58:35Z</time>
      </trkpt>
      <trkpt lat="42.8714" lon="0.26189">
        <ele>2251.54</ele>
        <time>2019-09-14T09:58:42Z</time>
      </trkpt>
      <trkpt lat="42.8714" lon="0.26186">
        <ele>2249.62</ele>
        <time>2019-09-14T09:58:48Z</time>
      </trkpt>
      <trkpt lat="42.87141" lon="0.26182">
        <ele>2248.18</ele>
        <time>2019-09-14T09:58:56Z</time>
      </trkpt>
      <trkpt lat="42.87139" lon="0.26179">
        <ele>2246.26</ele>
        <time>2019-09-14T09:59:04Z</time>
      </trkpt>
      <trkpt lat="42.87139" lon="0.26179">
        <ele>2245.78</ele>
        <time>2019-09-14T09:59:11Z</time>
      </trkpt>
      <trkpt lat="42.8714" lon="0.26176">
        <ele>2244.33</ele>
        <time>2019-09-14T09:59:18Z</time>
      </trkpt>
      <trkpt lat="42.87141" lon="0.26176">
        <ele>2244.82</ele>
        <time>2019-09-14T09:59:25Z</time>
      </trkpt>
      <trkpt lat="42.87142" lon="0.26176">
        <ele>2243.85</ele>
        <time>2019-09-14T09:59:32Z</time>
      </trkpt>
      <trkpt lat="42.87142" lon="0.26174">
        <ele>2242.89</ele>
        <time>2019-09-14T09:59:38Z</time>
      </trkpt>
      <trkpt lat="42.87142" lon="0.26173">
        <ele>2241.93</ele>
        <time>2019-09-14T09:59:44Z</time>
      </trkpt>
      <trkpt lat="42.87144" lon="0.2617">
        <ele>2240.49</ele>
        <time>2019-09-14T09:59:49Z</time>
      </trkpt>
      <trkpt lat="42.87145" lon="0.26168">
        <ele>2240.01</ele>
        <time>2019-09-14T09:59:55Z</time>
      </trkpt>
      <trkpt lat="42.87146" lon="0.26166">
        <ele>2238.57</ele>
        <time>2019-09-14T10:00:02Z</time>
      </trkpt>
      <trkpt lat="42.87146" lon="0.26163">
        <ele>2237.61</ele>
        <time>2019-09-14T10:00:09Z</time>
      </trkpt>
      <trkpt lat="42.87146" lon="0.26161">
        <ele>2237.61</ele>
        <time>2019-09-14T10:00:21Z</time>
      </trkpt>
      <trkpt lat="42.87146" lon="0.2616">
        <ele>2237.61</ele>
        <time>2019-09-14T10:00:34Z</time>
      </trkpt>
      <trkpt lat="42.87147" lon="0.26159">
        <ele>2237.13</ele>
        <time>2019-09-14T10:00:44Z</time>
      </trkpt>
      <trkpt lat="42.87147" lon="0.26158">
        <ele>2236.16</ele>
        <time>2019-09-14T10:00:51Z</time>
      </trkpt>
      <trkpt lat="42.87147" lon="0.26158">
        <ele>2234.72</ele>
        <time>2019-09-14T10:00:58Z</time>
      </trkpt>
      <trkpt lat="42.87147" lon="0.26153">
        <ele>2232.8</ele>
        <time>2019-09-14T10:01:04Z</time>
      </trkpt>
      <trkpt lat="42.87147" lon="0.26142">
        <ele>2231.36</ele>
        <time>2019-09-14T10:01:12Z</time>
      </trkpt>
      <trkpt lat="42.87148" lon="0.26136">
        <ele>2230.4</ele>
        <time>2019-09-14T10:01:17Z</time>
      </trkpt>
      <trkpt lat="42.87148" lon="0.26122">
        <ele>2227.99</ele>
        <time>2019-09-14T10:01:26Z</time>
      </trkpt>
      <trkpt lat="42.87148" lon="0.2612">
        <ele>2227.51</ele>
        <time>2019-09-14T10:01:29Z</time>
      </trkpt>
      <trkpt lat="42.87151" lon="0.26108">
        <ele>2225.59</ele>
        <time>2019-09-14T10:01:38Z</time>
      </trkpt>
      <trkpt lat="42.87155" lon="0.26105">
        <ele>2224.63</ele>
        <time>2019-09-14T10:01:44Z</time>
      </trkpt>
      <trkpt lat="42.87158" lon="0.26102">
        <ele>2223.19</ele>
        <time>2019-09-14T10:01:52Z</time>
      </trkpt>
      <trkpt lat="42.87161" lon="0.26096">
        <ele>2221.74</ele>
        <time>2019-09-14T10:01:59Z</time>
      </trkpt>
      <trkpt lat="42.87161" lon="0.26093">
        <ele>2219.82</ele>
        <time>2019-09-14T10:02:08Z</time>
      </trkpt>
      <trkpt lat="42.87164" lon="0.26088">
        <ele>2218.38</ele>
        <time>2019-09-14T10:02:15Z</time>
      </trkpt>
      <trkpt lat="42.87165" lon="0.26086">
        <ele>2217.9</ele>
        <time>2019-09-14T10:02:22Z</time>
      </trkpt>
      <trkpt lat="42.87165" lon="0.26085">
        <ele>2215.98</ele>
        <time>2019-09-14T10:02:29Z</time>
      </trkpt>
      <trkpt lat="42.87164" lon="0.26084">
        <ele>2214.53</ele>
        <time>2019-09-14T10:02:37Z</time>
      </trkpt>
      <trkpt lat="42.87164" lon="0.26084">
        <ele>2213.09</ele>
        <time>2019-09-14T10:02:44Z</time>
      </trkpt>
      <trkpt lat="42.87164" lon="0.26086">
        <ele>2212.61</ele>
        <time>2019-09-14T10:02:56Z</time>
      </trkpt>
      <trkpt lat="42.87163" lon="0.26087">
        <ele>2212.13</ele>
        <time>2019-09-14T10:03:03Z</time>
      </trkpt>
      <trkpt lat="42.87162" lon="0.26088">
        <ele>2210.21</ele>
        <time>2019-09-14T10:03:10Z</time>
      </trkpt>
      <trkpt lat="42.87162" lon="0.26088">
        <ele>2208.29</ele>
        <time>2019-09-14T10:03:19Z</time>
      </trkpt>
      <trkpt lat="42.87161" lon="0.26087">
        <ele>2206.36</ele>
        <time>2019-09-14T10:03:26Z</time>
      </trkpt>
      <trkpt lat="42.87161" lon="0.26085">
        <ele>2205.88</ele>
        <time>2019-09-14T10:03:35Z</time>
      </trkpt>
      <trkpt lat="42.87161" lon="0.26083">
        <ele>2204.92</ele>
        <time>2019-09-14T10:03:46Z</time>
      </trkpt>
      <trkpt lat="42.87163" lon="0.26082">
        <ele>2203</ele>
        <time>2019-09-14T10:03:53Z</time>
      </trkpt>
      <trkpt lat="42.87164" lon="0.2608">
        <ele>2202.52</ele>
        <time>2019-09-14T10:04:00Z</time>
      </trkpt>
      <trkpt lat="42.87163" lon="0.26076">
        <ele>2200.11</ele>
        <time>2019-09-14T10:04:09Z</time>
      </trkpt>
      <trkpt lat="42.87163" lon="0.26071">
        <ele>2198.67</ele>
        <time>2019-09-14T10:04:16Z</time>
      </trkpt>
      <trkpt lat="42.87164" lon="0.26071">
        <ele>2198.19</ele>
        <time>2019-09-14T10:04:23Z</time>
      </trkpt>
      <trkpt lat="42.87167" lon="0.26066">
        <ele>2197.71</ele>
        <time>2019-09-14T10:04:28Z</time>
      </trkpt>
      <trkpt lat="42.87168" lon="0.26064">
        <ele>2197.71</ele>
        <time>2019-09-14T10:04:37Z</time>
      </trkpt>
      <trkpt lat="42.87169" lon="0.26062">
        <ele>2198.19</ele>
        <time>2019-09-14T10:04:44Z</time>
      </trkpt>
      <trkpt lat="42.87169" lon="0.26061">
        <ele>2197.23</ele>
        <time>2019-09-14T10:04:52Z</time>
      </trkpt>
      <trkpt lat="42.8717" lon="0.2606">
        <ele>2196.27</ele>
        <time>2019-09-14T10:05:01Z</time>
      </trkpt>
      <trkpt lat="42.87171" lon="0.26059">
        <ele>2195.31</ele>
        <time>2019-09-14T10:05:09Z</time>
      </trkpt>
      <trkpt lat="42.87171" lon="0.26059">
        <ele>2193.87</ele>
        <time>2019-09-14T10:05:16Z</time>
      </trkpt>
      <trkpt lat="42.87172" lon="0.26058">
        <ele>2193.39</ele>
        <time>2019-09-14T10:05:28Z</time>
      </trkpt>
      <trkpt lat="42.87173" lon="0.26057">
        <ele>2193.87</ele>
        <time>2019-09-14T10:05:35Z</time>
      </trkpt>
      <trkpt lat="42.87173" lon="0.26054">
        <ele>2193.39</ele>
        <time>2019-09-14T10:05:43Z</time>
      </trkpt>
      <trkpt lat="42.87174" lon="0.26054">
        <ele>2193.87</ele>
        <time>2019-09-14T10:05:54Z</time>
      </trkpt>
      <trkpt lat="42.87174" lon="0.26053">
        <ele>2193.39</ele>
        <time>2019-09-14T10:06:09Z</time>
      </trkpt>
      <trkpt lat="42.87175" lon="0.26052">
        <ele>2192.42</ele>
        <time>2019-09-14T10:06:21Z</time>
      </trkpt>
      <trkpt lat="42.87175" lon="0.2605">
        <ele>2190.98</ele>
        <time>2019-09-14T10:06:30Z</time>
      </trkpt>
      <trkpt lat="42.87175" lon="0.26049">
        <ele>2190.98</ele>
        <time>2019-09-14T10:06:36Z</time>
      </trkpt>
      <trkpt lat="42.87175" lon="0.26048">
        <ele>2189.54</ele>
        <time>2019-09-14T10:06:43Z</time>
      </trkpt>
      <trkpt lat="42.87175" lon="0.26047">
        <ele>2187.62</ele>
        <time>2019-09-14T10:06:51Z</time>
      </trkpt>
      <trkpt lat="42.87175" lon="0.26047">
        <ele>2187.14</ele>
        <time>2019-09-14T10:06:57Z</time>
      </trkpt>
      <trkpt lat="42.87174" lon="0.26047">
        <ele>2187.14</ele>
        <time>2019-09-14T10:07:06Z</time>
      </trkpt>
      <trkpt lat="42.87175" lon="0.26047">
        <ele>2187.14</ele>
        <time>2019-09-14T10:07:16Z</time>
      </trkpt>
      <trkpt lat="42.87175" lon="0.26046">
        <ele>2186.66</ele>
        <time>2019-09-14T10:07:34Z</time>
      </trkpt>
      <trkpt lat="42.87175" lon="0.26046">
        <ele>2186.66</ele>
        <time>2019-09-14T10:07:44Z</time>
      </trkpt>
      <trkpt lat="42.87175" lon="0.26045">
        <ele>2186.66</ele>
        <time>2019-09-14T10:07:53Z</time>
      </trkpt>
      <trkpt lat="42.87176" lon="0.26045">
        <ele>2186.18</ele>
        <time>2019-09-14T10:08:02Z</time>
      </trkpt>
      <trkpt lat="42.87176" lon="0.26044">
        <ele>2184.73</ele>
        <time>2019-09-14T10:08:10Z</time>
      </trkpt>
      <trkpt lat="42.87176" lon="0.26042">
        <ele>2183.77</ele>
        <time>2019-09-14T10:08:16Z</time>
      </trkpt>
      <trkpt lat="42.87176" lon="0.26041">
        <ele>2181.37</ele>
        <time>2019-09-14T10:08:23Z</time>
      </trkpt>
      <trkpt lat="42.87176" lon="0.26039">
        <ele>2180.41</ele>
        <time>2019-09-14T10:08:29Z</time>
      </trkpt>
      <trkpt lat="42.87175" lon="0.26039">
        <ele>2179.45</ele>
        <time>2019-09-14T10:08:36Z</time>
      </trkpt>
      <trkpt lat="42.87175" lon="0.26039">
        <ele>2178</ele>
        <time>2019-09-14T10:08:42Z</time>
      </trkpt>
      <trkpt lat="42.87174" lon="0.26038">
        <ele>2176.08</ele>
        <time>2019-09-14T10:08:49Z</time>
      </trkpt>
      <trkpt lat="42.87174" lon="0.26038">
        <ele>2175.12</ele>
        <time>2019-09-14T10:08:55Z</time>
      </trkpt>
      <trkpt lat="42.87171" lon="0.26036">
        <ele>2172.72</ele>
        <time>2019-09-14T10:09:02Z</time>
      </trkpt>
      <trkpt lat="42.87168" lon="0.26032">
        <ele>2171.27</ele>
        <time>2019-09-14T10:09:09Z</time>
      </trkpt>
      <trkpt lat="42.87166" lon="0.2603">
        <ele>2169.35</ele>
        <time>2019-09-14T10:09:16Z</time>
      </trkpt>
      <trkpt lat="42.87165" lon="0.26028">
        <ele>2167.91</ele>
        <time>2019-09-14T10:09:21Z</time>
      </trkpt>
      <trkpt lat="42.87164" lon="0.26027">
        <ele>2165.99</ele>
        <time>2019-09-14T10:09:27Z</time>
      </trkpt>
      <trkpt lat="42.87163" lon="0.26025">
        <ele>2164.55</ele>
        <time>2019-09-14T10:09:33Z</time>
      </trkpt>
      <trkpt lat="42.87162" lon="0.26023">
        <ele>2163.58</ele>
        <time>2019-09-14T10:09:39Z</time>
      </trkpt>
      <trkpt lat="42.8716" lon="0.26022">
        <ele>2161.18</ele>
        <time>2019-09-14T10:09:48Z</time>
      </trkpt>
      <trkpt lat="42.87157" lon="0.2602">
        <ele>2159.74</ele>
        <time>2019-09-14T10:09:54Z</time>
      </trkpt>
      <trkpt lat="42.87156" lon="0.26018">
        <ele>2159.74</ele>
        <time>2019-09-14T10:10:03Z</time>
      </trkpt>
      <trkpt lat="42.87153" lon="0.26017">
        <ele>2159.74</ele>
        <time>2019-09-14T10:10:22Z</time>
      </trkpt>
      <trkpt lat="42.87153" lon="0.26016">
        <ele>2159.26</ele>
        <time>2019-09-14T10:10:34Z</time>
      </trkpt>
      <trkpt lat="42.87152" lon="0.26015">
        <ele>2157.82</ele>
        <time>2019-09-14T10:10:41Z</time>
      </trkpt>
      <trkpt lat="42.87151" lon="0.26015">
        <ele>2156.86</ele>
        <time>2019-09-14T10:10:42Z</time>
      </trkpt>
      <trkpt lat="42.87146" lon="0.26012">
        <ele>2155.89</ele>
        <time>2019-09-14T10:10:49Z</time>
      </trkpt>
      <trkpt lat="42.87144" lon="0.26011">
        <ele>2153.01</ele>
        <time>2019-09-14T10:10:57Z</time>
      </trkpt>
      <trkpt lat="42.87143" lon="0.26009">
        <ele>2152.05</ele>
        <time>2019-09-14T10:11:03Z</time>
      </trkpt>
      <trkpt lat="42.87139" lon="0.26008">
        <ele>2150.13</ele>
        <time>2019-09-14T10:11:08Z</time>
      </trkpt>
      <trkpt lat="42.87134" lon="0.26004">
        <ele>2148.2</ele>
        <time>2019-09-14T10:11:15Z</time>
      </trkpt>
      <trkpt lat="42.87132" lon="0.26003">
        <ele>2146.28</ele>
        <time>2019-09-14T10:11:22Z</time>
      </trkpt>
      <trkpt lat="42.8713" lon="0.26001">
        <ele>2144.36</ele>
        <time>2019-09-14T10:11:28Z</time>
      </trkpt>
      <trkpt lat="42.87127" lon="0.25999">
        <ele>2142.92</ele>
        <time>2019-09-14T10:11:31Z</time>
      </trkpt>
      <trkpt lat="42.87123" lon="0.25996">
        <ele>2141.47</ele>
        <time>2019-09-14T10:11:37Z</time>
      </trkpt>
      <trkpt lat="42.87121" lon="0.25994">
        <ele>2138.59</ele>
        <time>2019-09-14T10:11:44Z</time>
      </trkpt>
      <trkpt lat="42.8712" lon="0.25994">
        <ele>2138.11</ele>
        <time>2019-09-14T10:11:46Z</time>
      </trkpt>
      <trkpt lat="42.87113" lon="0.25992">
        <ele>2136.19</ele>
        <time>2019-09-14T10:11:53Z</time>
      </trkpt>
      <trkpt lat="42.87108" lon="0.25991">
        <ele>2134.74</ele>
        <time>2019-09-14T10:11:58Z</time>
      </trkpt>
      <trkpt lat="42.87103" lon="0.2599">
        <ele>2132.82</ele>
        <time>2019-09-14T10:12:03Z</time>
      </trkpt>
      <trkpt lat="42.87099" lon="0.25993">
        <ele>2129.94</ele>
        <time>2019-09-14T10:12:10Z</time>
      </trkpt>
      <trkpt lat="42.87096" lon="0.25994">
        <ele>2128.02</ele>
        <time>2019-09-14T10:12:16Z</time>
      </trkpt>
      <trkpt lat="42.87095" lon="0.25994">
        <ele>2127.53</ele>
        <time>2019-09-14T10:12:18Z</time>
      </trkpt>
      <trkpt lat="42.87089" lon="0.25994">
        <ele>2126.09</ele>
        <time>2019-09-14T10:12:26Z</time>
      </trkpt>
      <trkpt lat="42.87089" lon="0.25994">
        <ele>2126.09</ele>
        <time>2019-09-14T10:12:35Z</time>
      </trkpt>
      <trkpt lat="42.87089" lon="0.25997">
        <ele>2126.09</ele>
        <time>2019-09-14T10:12:51Z</time>
      </trkpt>
      <trkpt lat="42.87089" lon="0.25997">
        <ele>2125.61</ele>
        <time>2019-09-14T10:13:01Z</time>
      </trkpt>
      <trkpt lat="42.87086" lon="0.25999">
        <ele>2124.65</ele>
        <time>2019-09-14T10:13:08Z</time>
      </trkpt>
      <trkpt lat="42.87083" lon="0.25997">
        <ele>2124.65</ele>
        <time>2019-09-14T10:13:21Z</time>
      </trkpt>
      <trkpt lat="42.87082" lon="0.25997">
        <ele>2124.65</ele>
        <time>2019-09-14T10:13:38Z</time>
      </trkpt>
      <trkpt lat="42.87081" lon="0.25997">
        <ele>2124.17</ele>
        <time>2019-09-14T10:13:53Z</time>
      </trkpt>
      <trkpt lat="42.87079" lon="0.25998">
        <ele>2124.17</ele>
        <time>2019-09-14T10:14:11Z</time>
      </trkpt>
      <trkpt lat="42.87078" lon="0.25997">
        <ele>2122.25</ele>
        <time>2019-09-14T10:14:23Z</time>
      </trkpt>
      <trkpt lat="42.87078" lon="0.25999">
        <ele>2121.29</ele>
        <time>2019-09-14T10:14:28Z</time>
      </trkpt>
      <trkpt lat="42.87077" lon="0.25999">
        <ele>2120.32</ele>
        <time>2019-09-14T10:14:35Z</time>
      </trkpt>
      <trkpt lat="42.87076" lon="0.25999">
        <ele>2118.88</ele>
        <time>2019-09-14T10:14:43Z</time>
      </trkpt>
      <trkpt lat="42.87075" lon="0.25998">
        <ele>2116.96</ele>
        <time>2019-09-14T10:14:51Z</time>
      </trkpt>
      <trkpt lat="42.87071" lon="0.25997">
        <ele>2115.04</ele>
        <time>2019-09-14T10:14:58Z</time>
      </trkpt>
      <trkpt lat="42.87068" lon="0.25996">
        <ele>2113.12</ele>
        <time>2019-09-14T10:15:06Z</time>
      </trkpt>
      <trkpt lat="42.87065" lon="0.25997">
        <ele>2112.15</ele>
        <time>2019-09-14T10:15:09Z</time>
      </trkpt>
      <trkpt lat="42.8706" lon="0.25999">
        <ele>2110.71</ele>
        <time>2019-09-14T10:15:15Z</time>
      </trkpt>
      <trkpt lat="42.87057" lon="0.26">
        <ele>2109.75</ele>
        <time>2019-09-14T10:15:18Z</time>
      </trkpt>
      <trkpt lat="42.87052" lon="0.26001">
        <ele>2108.31</ele>
        <time>2019-09-14T10:15:24Z</time>
      </trkpt>
      <trkpt lat="42.87051" lon="0.26002">
        <ele>2106.39</ele>
        <time>2019-09-14T10:15:31Z</time>
      </trkpt>
      <trkpt lat="42.8705" lon="0.26002">
        <ele>2105.91</ele>
        <time>2019-09-14T10:15:32Z</time>
      </trkpt>
      <trkpt lat="42.87047" lon="0.26003">
        <ele>2104.46</ele>
        <time>2019-09-14T10:15:39Z</time>
      </trkpt>
      <trkpt lat="42.8704" lon="0.26008">
        <ele>2103.02</ele>
        <time>2019-09-14T10:15:47Z</time>
      </trkpt>
      <trkpt lat="42.87034" lon="0.26013">
        <ele>2102.54</ele>
        <time>2019-09-14T10:15:53Z</time>
      </trkpt>
      <trkpt lat="42.87024" lon="0.26017">
        <ele>2100.14</ele>
        <time>2019-09-14T10:16:02Z</time>
      </trkpt>
      <trkpt lat="42.87018" lon="0.26018">
        <ele>2098.7</ele>
        <time>2019-09-14T10:16:09Z</time>
      </trkpt>
      <trkpt lat="42.87018" lon="0.26018">
        <ele>2098.21</ele>
        <time>2019-09-14T10:16:10Z</time>
      </trkpt>
      <trkpt lat="42.87014" lon="0.26014">
        <ele>2096.77</ele>
        <time>2019-09-14T10:16:17Z</time>
      </trkpt>
      <trkpt lat="42.87011" lon="0.26018">
        <ele>2094.37</ele>
        <time>2019-09-14T10:16:24Z</time>
      </trkpt>
      <trkpt lat="42.87007" lon="0.26019">
        <ele>2092.45</ele>
        <time>2019-09-14T10:16:31Z</time>
      </trkpt>
      <trkpt lat="42.87006" lon="0.26019">
        <ele>2091.97</ele>
        <time>2019-09-14T10:16:40Z</time>
      </trkpt>
      <trkpt lat="42.87004" lon="0.2602">
        <ele>2089.56</ele>
        <time>2019-09-14T10:16:48Z</time>
      </trkpt>
      <trkpt lat="42.87" lon="0.26024">
        <ele>2088.12</ele>
        <time>2019-09-14T10:16:53Z</time>
      </trkpt>
      <trkpt lat="42.86997" lon="0.26023">
        <ele>2085.72</ele>
        <time>2019-09-14T10:17:01Z</time>
      </trkpt>
      <trkpt lat="42.86993" lon="0.26023">
        <ele>2083.31</ele>
        <time>2019-09-14T10:17:08Z</time>
      </trkpt>
      <trkpt lat="42.86993" lon="0.26024">
        <ele>2081.87</ele>
        <time>2019-09-14T10:17:12Z</time>
      </trkpt>
      <trkpt lat="42.86989" lon="0.26026">
        <ele>2080.43</ele>
        <time>2019-09-14T10:17:16Z</time>
      </trkpt>
      <trkpt lat="42.86985" lon="0.26032">
        <ele>2079.95</ele>
        <time>2019-09-14T10:17:21Z</time>
      </trkpt>
      <trkpt lat="42.86979" lon="0.26036">
        <ele>2077.55</ele>
        <time>2019-09-14T10:17:29Z</time>
      </trkpt>
      <trkpt lat="42.86976" lon="0.26041">
        <ele>2076.1</ele>
        <time>2019-09-14T10:17:35Z</time>
      </trkpt>
      <trkpt lat="42.86969" lon="0.26041">
        <ele>2073.7</ele>
        <time>2019-09-14T10:17:43Z</time>
      </trkpt>
      <trkpt lat="42.86967" lon="0.26042">
        <ele>2071.78</ele>
        <time>2019-09-14T10:17:50Z</time>
      </trkpt>
      <trkpt lat="42.86965" lon="0.26045">
        <ele>2071.78</ele>
        <time>2019-09-14T10:17:53Z</time>
      </trkpt>
      <trkpt lat="42.86963" lon="0.26052">
        <ele>2069.38</ele>
        <time>2019-09-14T10:18:00Z</time>
      </trkpt>
      <trkpt lat="42.86961" lon="0.26056">
        <ele>2068.41</ele>
        <time>2019-09-14T10:18:05Z</time>
      </trkpt>
      <trkpt lat="42.86956" lon="0.26063">
        <ele>2066.01</ele>
        <time>2019-09-14T10:18:13Z</time>
      </trkpt>
      <trkpt lat="42.86955" lon="0.26063">
        <ele>2065.53</ele>
        <time>2019-09-14T10:18:14Z</time>
      </trkpt>
      <trkpt lat="42.86952" lon="0.26067">
        <ele>2063.61</ele>
        <time>2019-09-14T10:18:22Z</time>
      </trkpt>
      <trkpt lat="42.86947" lon="0.26071">
        <ele>2061.2</ele>
        <time>2019-09-14T10:18:29Z</time>
      </trkpt>
      <trkpt lat="42.86941" lon="0.26073">
        <ele>2060.24</ele>
        <time>2019-09-14T10:18:35Z</time>
      </trkpt>
      <trkpt lat="42.86933" lon="0.26076">
        <ele>2057.84</ele>
        <time>2019-09-14T10:18:44Z</time>
      </trkpt>
      <trkpt lat="42.86927" lon="0.26077">
        <ele>2055.92</ele>
        <time>2019-09-14T10:18:51Z</time>
      </trkpt>
      <trkpt lat="42.86924" lon="0.26081">
        <ele>2054.47</ele>
        <time>2019-09-14T10:18:56Z</time>
      </trkpt>
      <trkpt lat="42.8692" lon="0.26082">
        <ele>2053.03</ele>
        <time>2019-09-14T10:19:01Z</time>
      </trkpt>
      <trkpt lat="42.86913" lon="0.2609">
        <ele>2050.63</ele>
        <time>2019-09-14T10:19:10Z</time>
      </trkpt>
      <trkpt lat="42.86908" lon="0.26095">
        <ele>2048.71</ele>
        <time>2019-09-14T10:19:18Z</time>
      </trkpt>
      <trkpt lat="42.86903" lon="0.26099">
        <ele>2046.3</ele>
        <time>2019-09-14T10:19:27Z</time>
      </trkpt>
      <trkpt lat="42.86902" lon="0.26101">
        <ele>2045.82</ele>
        <time>2019-09-14T10:19:29Z</time>
      </trkpt>
      <trkpt lat="42.86896" lon="0.26106">
        <ele>2042.94</ele>
        <time>2019-09-14T10:19:38Z</time>
      </trkpt>
      <trkpt lat="42.86889" lon="0.2611">
        <ele>2040.54</ele>
        <time>2019-09-14T10:19:47Z</time>
      </trkpt>
      <trkpt lat="42.86883" lon="0.26113">
        <ele>2038.61</ele>
        <time>2019-09-14T10:19:56Z</time>
      </trkpt>
      <trkpt lat="42.86878" lon="0.26118">
        <ele>2036.21</ele>
        <time>2019-09-14T10:20:03Z</time>
      </trkpt>
      <trkpt lat="42.86872" lon="0.26127">
        <ele>2033.81</ele>
        <time>2019-09-14T10:20:12Z</time>
      </trkpt>
      <trkpt lat="42.86872" lon="0.26128">
        <ele>2033.33</ele>
        <time>2019-09-14T10:20:13Z</time>
      </trkpt>
      <trkpt lat="42.8687" lon="0.26133">
        <ele>2032.36</ele>
        <time>2019-09-14T10:20:18Z</time>
      </trkpt>
      <trkpt lat="42.86864" lon="0.2614">
        <ele>2029.48</ele>
        <time>2019-09-14T10:20:27Z</time>
      </trkpt>
      <trkpt lat="42.86857" lon="0.26146">
        <ele>2027.08</ele>
        <time>2019-09-14T10:20:36Z</time>
      </trkpt>
      <trkpt lat="42.86854" lon="0.2615">
        <ele>2025.64</ele>
        <time>2019-09-14T10:20:41Z</time>
      </trkpt>
      <trkpt lat="42.86851" lon="0.26152">
        <ele>2024.67</ele>
        <time>2019-09-14T10:20:44Z</time>
      </trkpt>
      <trkpt lat="42.86849" lon="0.26155">
        <ele>2024.19</ele>
        <time>2019-09-14T10:20:47Z</time>
      </trkpt>
      <trkpt lat="42.86847" lon="0.26157">
        <ele>2023.23</ele>
        <time>2019-09-14T10:20:49Z</time>
      </trkpt>
      <trkpt lat="42.86842" lon="0.26165">
        <ele>2021.79</ele>
        <time>2019-09-14T10:20:55Z</time>
      </trkpt>
      <trkpt lat="42.86838" lon="0.26172">
        <ele>2019.87</ele>
        <time>2019-09-14T10:21:01Z</time>
      </trkpt>
      <trkpt lat="42.86835" lon="0.26179">
        <ele>2018.43</ele>
        <time>2019-09-14T10:21:07Z</time>
      </trkpt>
      <trkpt lat="42.8683" lon="0.26187">
        <ele>2015.54</ele>
        <time>2019-09-14T10:21:15Z</time>
      </trkpt>
      <trkpt lat="42.86828" lon="0.26193">
        <ele>2013.62</ele>
        <time>2019-09-14T10:21:22Z</time>
      </trkpt>
      <trkpt lat="42.86821" lon="0.26203">
        <ele>2010.73</ele>
        <time>2019-09-14T10:21:31Z</time>
      </trkpt>
      <trkpt lat="42.86821" lon="0.26204">
        <ele>2010.25</ele>
        <time>2019-09-14T10:21:32Z</time>
      </trkpt>
      <trkpt lat="42.86817" lon="0.26208">
        <ele>2009.29</ele>
        <time>2019-09-14T10:21:36Z</time>
      </trkpt>
      <trkpt lat="42.86814" lon="0.2621">
        <ele>2007.85</ele>
        <time>2019-09-14T10:21:41Z</time>
      </trkpt>
      <trkpt lat="42.86809" lon="0.26221">
        <ele>2004.97</ele>
        <time>2019-09-14T10:21:51Z</time>
      </trkpt>
      <trkpt lat="42.86805" lon="0.26225">
        <ele>2002.56</ele>
        <time>2019-09-14T10:21:59Z</time>
      </trkpt>
      <trkpt lat="42.86797" lon="0.26231">
        <ele>1999.68</ele>
        <time>2019-09-14T10:22:08Z</time>
      </trkpt>
      <trkpt lat="42.86792" lon="0.26235">
        <ele>1998.24</ele>
        <time>2019-09-14T10:22:14Z</time>
      </trkpt>
      <trkpt lat="42.86785" lon="0.2624">
        <ele>1996.8</ele>
        <time>2019-09-14T10:22:23Z</time>
      </trkpt>
      <trkpt lat="42.8678" lon="0.26245">
        <ele>1995.35</ele>
        <time>2019-09-14T10:22:32Z</time>
      </trkpt>
      <trkpt lat="42.86775" lon="0.26252">
        <ele>1993.43</ele>
        <time>2019-09-14T10:22:40Z</time>
      </trkpt>
      <trkpt lat="42.8677" lon="0.26257">
        <ele>1991.51</ele>
        <time>2019-09-14T10:22:48Z</time>
      </trkpt>
      <trkpt lat="42.86765" lon="0.26266">
        <ele>1989.1</ele>
        <time>2019-09-14T10:22:58Z</time>
      </trkpt>
      <trkpt lat="42.86761" lon="0.2627">
        <ele>1988.14</ele>
        <time>2019-09-14T10:23:03Z</time>
      </trkpt>
      <trkpt lat="42.86755" lon="0.26278">
        <ele>1986.7</ele>
        <time>2019-09-14T10:23:12Z</time>
      </trkpt>
      <trkpt lat="42.86755" lon="0.2628">
        <ele>1986.22</ele>
        <time>2019-09-14T10:23:14Z</time>
      </trkpt>
      <trkpt lat="42.86754" lon="0.2629">
        <ele>1984.3</ele>
        <time>2019-09-14T10:23:22Z</time>
      </trkpt>
      <trkpt lat="42.86754" lon="0.2629">
        <ele>1984.3</ele>
        <time>2019-09-14T10:23:23Z</time>
      </trkpt>
      <trkpt lat="42.86752" lon="0.26292">
        <ele>1984.78</ele>
        <time>2019-09-14T10:23:26Z</time>
      </trkpt>
      <trkpt lat="42.86749" lon="0.26295">
        <ele>1984.78</ele>
        <time>2019-09-14T10:23:29Z</time>
      </trkpt>
      <trkpt lat="42.86746" lon="0.2631">
        <ele>1983.82</ele>
        <time>2019-09-14T10:23:39Z</time>
      </trkpt>
      <trkpt lat="42.86746" lon="0.26312">
        <ele>1983.34</ele>
        <time>2019-09-14T10:23:40Z</time>
      </trkpt>
      <trkpt lat="42.86743" lon="0.26321">
        <ele>1981.9</ele>
        <time>2019-09-14T10:23:49Z</time>
      </trkpt>
      <trkpt lat="42.86742" lon="0.26327">
        <ele>1980.93</ele>
        <time>2019-09-14T10:23:56Z</time>
      </trkpt>
      <trkpt lat="42.86741" lon="0.26328">
        <ele>1981.41</ele>
        <time>2019-09-14T10:23:57Z</time>
      </trkpt>
      <trkpt lat="42.86737" lon="0.2633">
        <ele>1979.97</ele>
        <time>2019-09-14T10:24:05Z</time>
      </trkpt>
      <trkpt lat="42.86734" lon="0.26332">
        <ele>1978.05</ele>
        <time>2019-09-14T10:24:13Z</time>
      </trkpt>
      <trkpt lat="42.8673" lon="0.26333">
        <ele>1975.17</ele>
        <time>2019-09-14T10:24:21Z</time>
      </trkpt>
      <trkpt lat="42.86727" lon="0.26332">
        <ele>1974.2</ele>
        <time>2019-09-14T10:24:28Z</time>
      </trkpt>
      <trkpt lat="42.86726" lon="0.2633">
        <ele>1973.24</ele>
        <time>2019-09-14T10:24:31Z</time>
      </trkpt>
      <trkpt lat="42.86717" lon="0.26327">
        <ele>1969.4</ele>
        <time>2019-09-14T10:24:41Z</time>
      </trkpt>
      <trkpt lat="42.86713" lon="0.26326">
        <ele>1967.48</ele>
        <time>2019-09-14T10:24:47Z</time>
      </trkpt>
      <trkpt lat="42.86713" lon="0.26327">
        <ele>1967.48</ele>
        <time>2019-09-14T10:24:49Z</time>
      </trkpt>
      <trkpt lat="42.86708" lon="0.26328">
        <ele>1965.55</ele>
        <time>2019-09-14T10:24:57Z</time>
      </trkpt>
      <trkpt lat="42.86705" lon="0.26328">
        <ele>1963.63</ele>
        <time>2019-09-14T10:25:02Z</time>
      </trkpt>
      <trkpt lat="42.86699" lon="0.2633">
        <ele>1960.75</ele>
        <time>2019-09-14T10:25:12Z</time>
      </trkpt>
      <trkpt lat="42.86696" lon="0.26331">
        <ele>1959.78</ele>
        <time>2019-09-14T10:25:17Z</time>
      </trkpt>
      <trkpt lat="42.86693" lon="0.26334">
        <ele>1958.82</ele>
        <time>2019-09-14T10:25:21Z</time>
      </trkpt>
      <trkpt lat="42.86689" lon="0.2634">
        <ele>1956.9</ele>
        <time>2019-09-14T10:25:29Z</time>
      </trkpt>
      <trkpt lat="42.86686" lon="0.26344">
        <ele>1955.46</ele>
        <time>2019-09-14T10:25:33Z</time>
      </trkpt>
      <trkpt lat="42.86682" lon="0.26348">
        <ele>1954.5</ele>
        <time>2019-09-14T10:25:40Z</time>
      </trkpt>
      <trkpt lat="42.86677" lon="0.2635">
        <ele>1952.09</ele>
        <time>2019-09-14T10:25:48Z</time>
      </trkpt>
      <trkpt lat="42.86673" lon="0.26354">
        <ele>1950.65</ele>
        <time>2019-09-14T10:25:55Z</time>
      </trkpt>
      <trkpt lat="42.86669" lon="0.26356">
        <ele>1948.25</ele>
        <time>2019-09-14T10:26:02Z</time>
      </trkpt>
      <trkpt lat="42.86664" lon="0.26361">
        <ele>1945.85</ele>
        <time>2019-09-14T10:26:10Z</time>
      </trkpt>
      <trkpt lat="42.8666" lon="0.26359">
        <ele>1944.4</ele>
        <time>2019-09-14T10:26:17Z</time>
      </trkpt>
      <trkpt lat="42.86658" lon="0.26362">
        <ele>1942.96</ele>
        <time>2019-09-14T10:26:22Z</time>
      </trkpt>
      <trkpt lat="42.86654" lon="0.26367">
        <ele>1941.52</ele>
        <time>2019-09-14T10:26:28Z</time>
      </trkpt>
      <trkpt lat="42.86652" lon="0.26368">
        <ele>1940.56</ele>
        <time>2019-09-14T10:26:32Z</time>
      </trkpt>
      <trkpt lat="42.86647" lon="0.26369">
        <ele>1938.64</ele>
        <time>2019-09-14T10:26:39Z</time>
      </trkpt>
      <trkpt lat="42.86642" lon="0.26369">
        <ele>1936.23</ele>
        <time>2019-09-14T10:26:48Z</time>
      </trkpt>
      <trkpt lat="42.86638" lon="0.26368">
        <ele>1934.31</ele>
        <time>2019-09-14T10:26:55Z</time>
      </trkpt>
      <trkpt lat="42.86635" lon="0.26371">
        <ele>1932.87</ele>
        <time>2019-09-14T10:27:02Z</time>
      </trkpt>
      <trkpt lat="42.86632" lon="0.26366">
        <ele>1931.43</ele>
        <time>2019-09-14T10:27:09Z</time>
      </trkpt>
      <trkpt lat="42.86629" lon="0.26367">
        <ele>1929.5</ele>
        <time>2019-09-14T10:27:15Z</time>
      </trkpt>
      <trkpt lat="42.86626" lon="0.26367">
        <ele>1927.58</ele>
        <time>2019-09-14T10:27:22Z</time>
      </trkpt>
      <trkpt lat="42.86621" lon="0.26365">
        <ele>1925.66</ele>
        <time>2019-09-14T10:27:30Z</time>
      </trkpt>
      <trkpt lat="42.86619" lon="0.2637">
        <ele>1923.74</ele>
        <time>2019-09-14T10:27:37Z</time>
      </trkpt>
      <trkpt lat="42.86614" lon="0.26368">
        <ele>1921.33</ele>
        <time>2019-09-14T10:27:44Z</time>
      </trkpt>
      <trkpt lat="42.86611" lon="0.26375">
        <ele>1919.41</ele>
        <time>2019-09-14T10:27:51Z</time>
      </trkpt>
      <trkpt lat="42.86606" lon="0.26373">
        <ele>1917.49</ele>
        <time>2019-09-14T10:28:00Z</time>
      </trkpt>
      <trkpt lat="42.86604" lon="0.26376">
        <ele>1916.04</ele>
        <time>2019-09-14T10:28:04Z</time>
      </trkpt>
      <trkpt lat="42.86599" lon="0.26382">
        <ele>1914.12</ele>
        <time>2019-09-14T10:28:11Z</time>
      </trkpt>
      <trkpt lat="42.86593" lon="0.26386">
        <ele>1912.2</ele>
        <time>2019-09-14T10:28:18Z</time>
      </trkpt>
      <trkpt lat="42.86588" lon="0.26393">
        <ele>1910.28</ele>
        <time>2019-09-14T10:28:26Z</time>
      </trkpt>
      <trkpt lat="42.86587" lon="0.26395">
        <ele>1909.8</ele>
        <time>2019-09-14T10:28:28Z</time>
      </trkpt>
      <trkpt lat="42.86585" lon="0.26397">
        <ele>1908.83</ele>
        <time>2019-09-14T10:28:31Z</time>
      </trkpt>
      <trkpt lat="42.8658" lon="0.264">
        <ele>1907.39</ele>
        <time>2019-09-14T10:28:39Z</time>
      </trkpt>
      <trkpt lat="42.86575" lon="0.26402">
        <ele>1905.47</ele>
        <time>2019-09-14T10:28:47Z</time>
      </trkpt>
      <trkpt lat="42.86571" lon="0.264">
        <ele>1902.59</ele>
        <time>2019-09-14T10:28:55Z</time>
      </trkpt>
      <trkpt lat="42.86567" lon="0.26402">
        <ele>1901.14</ele>
        <time>2019-09-14T10:29:02Z</time>
      </trkpt>
      <trkpt lat="42.86562" lon="0.26402">
        <ele>1899.22</ele>
        <time>2019-09-14T10:29:09Z</time>
      </trkpt>
      <trkpt lat="42.86559" lon="0.26401">
        <ele>1897.78</ele>
        <time>2019-09-14T10:29:15Z</time>
      </trkpt>
      <trkpt lat="42.86555" lon="0.26402">
        <ele>1895.86</ele>
        <time>2019-09-14T10:29:23Z</time>
      </trkpt>
      <trkpt lat="42.86553" lon="0.26404">
        <ele>1894.42</ele>
        <time>2019-09-14T10:29:29Z</time>
      </trkpt>
      <trkpt lat="42.86552" lon="0.26406">
        <ele>1892.97</ele>
        <time>2019-09-14T10:29:34Z</time>
      </trkpt>
      <trkpt lat="42.86548" lon="0.2641">
        <ele>1892.49</ele>
        <time>2019-09-14T10:29:40Z</time>
      </trkpt>
      <trkpt lat="42.86542" lon="0.26411">
        <ele>1890.57</ele>
        <time>2019-09-14T10:29:47Z</time>
      </trkpt>
      <trkpt lat="42.8654" lon="0.26414">
        <ele>1889.61</ele>
        <time>2019-09-14T10:29:53Z</time>
      </trkpt>
      <trkpt lat="42.86535" lon="0.26412">
        <ele>1888.17</ele>
        <time>2019-09-14T10:29:59Z</time>
      </trkpt>
      <trkpt lat="42.86529" lon="0.26413">
        <ele>1886.24</ele>
        <time>2019-09-14T10:30:06Z</time>
      </trkpt>
      <trkpt lat="42.86527" lon="0.26412">
        <ele>1884.8</ele>
        <time>2019-09-14T10:30:10Z</time>
      </trkpt>
      <trkpt lat="42.86517" lon="0.26408">
        <ele>1882.4</ele>
        <time>2019-09-14T10:30:19Z</time>
      </trkpt>
      <trkpt lat="42.8651" lon="0.26408">
        <ele>1880.96</ele>
        <time>2019-09-14T10:30:26Z</time>
      </trkpt>
      <trkpt lat="42.86503" lon="0.26408">
        <ele>1879.03</ele>
        <time>2019-09-14T10:30:34Z</time>
      </trkpt>
      <trkpt lat="42.86497" lon="0.26407">
        <ele>1877.59</ele>
        <time>2019-09-14T10:30:41Z</time>
      </trkpt>
      <trkpt lat="42.86494" lon="0.26405">
        <ele>1876.63</ele>
        <time>2019-09-14T10:30:45Z</time>
      </trkpt>
      <trkpt lat="42.86489" lon="0.26406">
        <ele>1875.19</ele>
        <time>2019-09-14T10:30:49Z</time>
      </trkpt>
      <trkpt lat="42.86483" lon="0.26405">
        <ele>1873.75</ele>
        <time>2019-09-14T10:30:56Z</time>
      </trkpt>
      <trkpt lat="42.86477" lon="0.26406">
        <ele>1871.82</ele>
        <time>2019-09-14T10:31:04Z</time>
      </trkpt>
      <trkpt lat="42.86476" lon="0.26407">
        <ele>1871.34</ele>
        <time>2019-09-14T10:31:06Z</time>
      </trkpt>
      <trkpt lat="42.86472" lon="0.26408">
        <ele>1869.9</ele>
        <time>2019-09-14T10:31:10Z</time>
      </trkpt>
      <trkpt lat="42.86465" lon="0.26406">
        <ele>1867.5</ele>
        <time>2019-09-14T10:31:18Z</time>
      </trkpt>
      <trkpt lat="42.86464" lon="0.26406">
        <ele>1867.5</ele>
        <time>2019-09-14T10:31:19Z</time>
      </trkpt>
      <trkpt lat="42.86456" lon="0.26403">
        <ele>1864.13</ele>
        <time>2019-09-14T10:31:28Z</time>
      </trkpt>
      <trkpt lat="42.86451" lon="0.26403">
        <ele>1862.21</ele>
        <time>2019-09-14T10:31:36Z</time>
      </trkpt>
      <trkpt lat="42.86445" lon="0.26402">
        <ele>1860.29</ele>
        <time>2019-09-14T10:31:44Z</time>
      </trkpt>
      <trkpt lat="42.86442" lon="0.26402">
        <ele>1858.85</ele>
        <time>2019-09-14T10:31:48Z</time>
      </trkpt>
      <trkpt lat="42.86435" lon="0.26402">
        <ele>1856.44</ele>
        <time>2019-09-14T10:31:57Z</time>
      </trkpt>
      <trkpt lat="42.86433" lon="0.264">
        <ele>1855</ele>
        <time>2019-09-14T10:32:00Z</time>
      </trkpt>
      <trkpt lat="42.86429" lon="0.26398">
        <ele>1853.56</ele>
        <time>2019-09-14T10:32:06Z</time>
      </trkpt>
      <trkpt lat="42.86426" lon="0.26399">
        <ele>1851.64</ele>
        <time>2019-09-14T10:32:14Z</time>
      </trkpt>
      <trkpt lat="42.86422" lon="0.26396">
        <ele>1849.71</ele>
        <time>2019-09-14T10:32:21Z</time>
      </trkpt>
      <trkpt lat="42.86418" lon="0.26391">
        <ele>1847.31</ele>
        <time>2019-09-14T10:32:28Z</time>
      </trkpt>
      <trkpt lat="42.86416" lon="0.26387">
        <ele>1845.39</ele>
        <time>2019-09-14T10:32:34Z</time>
      </trkpt>
      <trkpt lat="42.86411" lon="0.26384">
        <ele>1842.5</ele>
        <time>2019-09-14T10:32:43Z</time>
      </trkpt>
      <trkpt lat="42.86406" lon="0.26382">
        <ele>1840.58</ele>
        <time>2019-09-14T10:32:49Z</time>
      </trkpt>
      <trkpt lat="42.86399" lon="0.26379">
        <ele>1838.18</ele>
        <time>2019-09-14T10:32:58Z</time>
      </trkpt>
      <trkpt lat="42.86395" lon="0.26377">
        <ele>1835.77</ele>
        <time>2019-09-14T10:33:06Z</time>
      </trkpt>
      <trkpt lat="42.86394" lon="0.26377">
        <ele>1835.77</ele>
        <time>2019-09-14T10:33:07Z</time>
      </trkpt>
      <trkpt lat="42.86392" lon="0.26376">
        <ele>1834.81</ele>
        <time>2019-09-14T10:33:10Z</time>
      </trkpt>
      <trkpt lat="42.86387" lon="0.26374">
        <ele>1833.37</ele>
        <time>2019-09-14T10:33:17Z</time>
      </trkpt>
      <trkpt lat="42.86385" lon="0.26374">
        <ele>1832.41</ele>
        <time>2019-09-14T10:33:20Z</time>
      </trkpt>
      <trkpt lat="42.86382" lon="0.26371">
        <ele>1830.49</ele>
        <time>2019-09-14T10:33:27Z</time>
      </trkpt>
      <trkpt lat="42.8638" lon="0.26371">
        <ele>1830.01</ele>
        <time>2019-09-14T10:33:29Z</time>
      </trkpt>
      <trkpt lat="42.86375" lon="0.26367">
        <ele>1827.6</ele>
        <time>2019-09-14T10:33:36Z</time>
      </trkpt>
      <trkpt lat="42.86373" lon="0.26364">
        <ele>1826.64</ele>
        <time>2019-09-14T10:33:40Z</time>
      </trkpt>
      <trkpt lat="42.86367" lon="0.2636">
        <ele>1823.76</ele>
        <time>2019-09-14T10:33:48Z</time>
      </trkpt>
      <trkpt lat="42.86365" lon="0.26355">
        <ele>1821.84</ele>
        <time>2019-09-14T10:33:54Z</time>
      </trkpt>
      <trkpt lat="42.86356" lon="0.26351">
        <ele>1819.43</ele>
        <time>2019-09-14T10:34:03Z</time>
      </trkpt>
      <trkpt lat="42.8635" lon="0.26347">
        <ele>1817.51</ele>
        <time>2019-09-14T10:34:10Z</time>
      </trkpt>
      <trkpt lat="42.86346" lon="0.26346">
        <ele>1816.55</ele>
        <time>2019-09-14T10:34:15Z</time>
      </trkpt>
      <trkpt lat="42.86343" lon="0.26343">
        <ele>1815.11</ele>
        <time>2019-09-14T10:34:18Z</time>
      </trkpt>
      <trkpt lat="42.86336" lon="0.26341">
        <ele>1813.18</ele>
        <time>2019-09-14T10:34:26Z</time>
      </trkpt>
      <trkpt lat="42.8633" lon="0.26338">
        <ele>1811.74</ele>
        <time>2019-09-14T10:34:34Z</time>
      </trkpt>
      <trkpt lat="42.86327" lon="0.26335">
        <ele>1810.3</ele>
        <time>2019-09-14T10:34:40Z</time>
      </trkpt>
      <trkpt lat="42.86326" lon="0.26335">
        <ele>1809.34</ele>
        <time>2019-09-14T10:34:48Z</time>
      </trkpt>
      <trkpt lat="42.86326" lon="0.26335">
        <ele>1809.82</ele>
        <time>2019-09-14T10:34:50Z</time>
      </trkpt>
      <trkpt lat="42.86327" lon="0.26336">
        <ele>1810.3</ele>
        <time>2019-09-14T10:34:57Z</time>
      </trkpt>
      <trkpt lat="42.86326" lon="0.26337">
        <ele>1810.3</ele>
        <time>2019-09-14T10:35:10Z</time>
      </trkpt>
      <trkpt lat="42.86326" lon="0.26337">
        <ele>1809.82</ele>
        <time>2019-09-14T10:35:19Z</time>
      </trkpt>
      <trkpt lat="42.86322" lon="0.26332">
        <ele>1807.42</ele>
        <time>2019-09-14T10:35:26Z</time>
      </trkpt>
      <trkpt lat="42.86317" lon="0.26329">
        <ele>1805.97</ele>
        <time>2019-09-14T10:35:32Z</time>
      </trkpt>
      <trkpt lat="42.86314" lon="0.26325">
        <ele>1804.53</ele>
        <time>2019-09-14T10:35:36Z</time>
      </trkpt>
      <trkpt lat="42.86307" lon="0.2632">
        <ele>1801.65</ele>
        <time>2019-09-14T10:35:44Z</time>
      </trkpt>
      <trkpt lat="42.86303" lon="0.26315">
        <ele>1800.21</ele>
        <time>2019-09-14T10:35:50Z</time>
      </trkpt>
      <trkpt lat="42.86295" lon="0.26308">
        <ele>1797.32</ele>
        <time>2019-09-14T10:35:59Z</time>
      </trkpt>
      <trkpt lat="42.86291" lon="0.26301">
        <ele>1794.92</ele>
        <time>2019-09-14T10:36:07Z</time>
      </trkpt>
      <trkpt lat="42.86285" lon="0.26297">
        <ele>1793</ele>
        <time>2019-09-14T10:36:14Z</time>
      </trkpt>
      <trkpt lat="42.8628" lon="0.26292">
        <ele>1790.11</ele>
        <time>2019-09-14T10:36:22Z</time>
      </trkpt>
      <trkpt lat="42.86277" lon="0.26289">
        <ele>1788.19</ele>
        <time>2019-09-14T10:36:26Z</time>
      </trkpt>
      <trkpt lat="42.86275" lon="0.26287">
        <ele>1787.23</ele>
        <time>2019-09-14T10:36:28Z</time>
      </trkpt>
      <trkpt lat="42.86273" lon="0.26281">
        <ele>1784.82</ele>
        <time>2019-09-14T10:36:35Z</time>
      </trkpt>
      <trkpt lat="42.86272" lon="0.26281">
        <ele>1784.34</ele>
        <time>2019-09-14T10:36:36Z</time>
      </trkpt>
      <trkpt lat="42.86267" lon="0.26273">
        <ele>1782.42</ele>
        <time>2019-09-14T10:36:43Z</time>
      </trkpt>
      <trkpt lat="42.86262" lon="0.26268">
        <ele>1780.02</ele>
        <time>2019-09-14T10:36:50Z</time>
      </trkpt>
      <trkpt lat="42.86261" lon="0.26266">
        <ele>1778.58</ele>
        <time>2019-09-14T10:36:54Z</time>
      </trkpt>
      <trkpt lat="42.86257" lon="0.26262">
        <ele>1776.65</ele>
        <time>2019-09-14T10:36:59Z</time>
      </trkpt>
      <trkpt lat="42.86256" lon="0.26259">
        <ele>1776.17</ele>
        <time>2019-09-14T10:37:01Z</time>
      </trkpt>
      <trkpt lat="42.86251" lon="0.26253">
        <ele>1773.77</ele>
        <time>2019-09-14T10:37:10Z</time>
      </trkpt>
      <trkpt lat="42.86251" lon="0.26248">
        <ele>1771.37</ele>
        <time>2019-09-14T10:37:17Z</time>
      </trkpt>
      <trkpt lat="42.86251" lon="0.26247">
        <ele>1770.89</ele>
        <time>2019-09-14T10:37:18Z</time>
      </trkpt>
      <trkpt lat="42.86249" lon="0.26243">
        <ele>1769.92</ele>
        <time>2019-09-14T10:37:21Z</time>
      </trkpt>
      <trkpt lat="42.86244" lon="0.26233">
        <ele>1766.56</ele>
        <time>2019-09-14T10:37:30Z</time>
      </trkpt>
      <trkpt lat="42.86239" lon="0.26228">
        <ele>1764.64</ele>
        <time>2019-09-14T10:37:38Z</time>
      </trkpt>
      <trkpt lat="42.86237" lon="0.26221">
        <ele>1761.75</ele>
        <time>2019-09-14T10:37:45Z</time>
      </trkpt>
      <trkpt lat="42.86232" lon="0.26212">
        <ele>1758.87</ele>
        <time>2019-09-14T10:37:54Z</time>
      </trkpt>
      <trkpt lat="42.86227" lon="0.26207">
        <ele>1755.99</ele>
        <time>2019-09-14T10:38:02Z</time>
      </trkpt>
      <trkpt lat="42.86224" lon="0.26202">
        <ele>1753.58</ele>
        <time>2019-09-14T10:38:09Z</time>
      </trkpt>
      <trkpt lat="42.86221" lon="0.262">
        <ele>1752.62</ele>
        <time>2019-09-14T10:38:13Z</time>
      </trkpt>
      <trkpt lat="42.86218" lon="0.26194">
        <ele>1750.22</ele>
        <time>2019-09-14T10:38:20Z</time>
      </trkpt>
      <trkpt lat="42.86215" lon="0.26191">
        <ele>1747.81</ele>
        <time>2019-09-14T10:38:25Z</time>
      </trkpt>
      <trkpt lat="42.86212" lon="0.26188">
        <ele>1746.37</ele>
        <time>2019-09-14T10:38:30Z</time>
      </trkpt>
      <trkpt lat="42.86205" lon="0.26187">
        <ele>1743.97</ele>
        <time>2019-09-14T10:38:38Z</time>
      </trkpt>
      <trkpt lat="42.86198" lon="0.26185">
        <ele>1742.05</ele>
        <time>2019-09-14T10:38:46Z</time>
      </trkpt>
      <trkpt lat="42.86191" lon="0.26185">
        <ele>1740.12</ele>
        <time>2019-09-14T10:38:54Z</time>
      </trkpt>
      <trkpt lat="42.86184" lon="0.26185">
        <ele>1738.2</ele>
        <time>2019-09-14T10:39:02Z</time>
      </trkpt>
      <trkpt lat="42.86183" lon="0.26185">
        <ele>1737.72</ele>
        <time>2019-09-14T10:39:03Z</time>
      </trkpt>
      <trkpt lat="42.86177" lon="0.26187">
        <ele>1735.8</ele>
        <time>2019-09-14T10:39:11Z</time>
      </trkpt>
      <trkpt lat="42.8617" lon="0.26187">
        <ele>1733.39</ele>
        <time>2019-09-14T10:39:19Z</time>
      </trkpt>
      <trkpt lat="42.86166" lon="0.26189">
        <ele>1732.43</ele>
        <time>2019-09-14T10:39:23Z</time>
      </trkpt>
      <trkpt lat="42.86161" lon="0.2619">
        <ele>1730.99</ele>
        <time>2019-09-14T10:39:30Z</time>
      </trkpt>
      <trkpt lat="42.86154" lon="0.26192">
        <ele>1729.55</ele>
        <time>2019-09-14T10:39:40Z</time>
      </trkpt>
      <trkpt lat="42.86151" lon="0.26193">
        <ele>1728.11</ele>
        <time>2019-09-14T10:39:44Z</time>
      </trkpt>
      <trkpt lat="42.86144" lon="0.26189">
        <ele>1725.7</ele>
        <time>2019-09-14T10:39:53Z</time>
      </trkpt>
      <trkpt lat="42.8614" lon="0.2619">
        <ele>1724.74</ele>
        <time>2019-09-14T10:39:58Z</time>
      </trkpt>
      <trkpt lat="42.86131" lon="0.26191">
        <ele>1722.82</ele>
        <time>2019-09-14T10:40:07Z</time>
      </trkpt>
      <trkpt lat="42.86124" lon="0.26192">
        <ele>1720.9</ele>
        <time>2019-09-14T10:40:16Z</time>
      </trkpt>
      <trkpt lat="42.86115" lon="0.26193">
        <ele>1718.97</ele>
        <time>2019-09-14T10:40:24Z</time>
      </trkpt>
      <trkpt lat="42.86106" lon="0.26198">
        <ele>1716.57</ele>
        <time>2019-09-14T10:40:35Z</time>
      </trkpt>
      <trkpt lat="42.86099" lon="0.26198">
        <ele>1714.65</ele>
        <time>2019-09-14T10:40:44Z</time>
      </trkpt>
      <trkpt lat="42.86091" lon="0.26198">
        <ele>1711.76</ele>
        <time>2019-09-14T10:40:54Z</time>
      </trkpt>
      <trkpt lat="42.86083" lon="0.26202">
        <ele>1709.84</ele>
        <time>2019-09-14T10:41:03Z</time>
      </trkpt>
      <trkpt lat="42.86076" lon="0.26208">
        <ele>1707.92</ele>
        <time>2019-09-14T10:41:11Z</time>
      </trkpt>
      <trkpt lat="42.86071" lon="0.2621">
        <ele>1706</ele>
        <time>2019-09-14T10:41:17Z</time>
      </trkpt>
      <trkpt lat="42.86063" lon="0.26208">
        <ele>1704.07</ele>
        <time>2019-09-14T10:41:26Z</time>
      </trkpt>
      <trkpt lat="42.86054" lon="0.26213">
        <ele>1701.67</ele>
        <time>2019-09-14T10:41:35Z</time>
      </trkpt>
      <trkpt lat="42.86047" lon="0.26218">
        <ele>1699.75</ele>
        <time>2019-09-14T10:41:42Z</time>
      </trkpt>
      <trkpt lat="42.86039" lon="0.26223">
        <ele>1697.83</ele>
        <time>2019-09-14T10:41:50Z</time>
      </trkpt>
      <trkpt lat="42.86034" lon="0.26229">
        <ele>1696.86</ele>
        <time>2019-09-14T10:41:56Z</time>
      </trkpt>
      <trkpt lat="42.86026" lon="0.26234">
        <ele>1695.42</ele>
        <time>2019-09-14T10:42:03Z</time>
      </trkpt>
      <trkpt lat="42.86018" lon="0.26241">
        <ele>1693.02</ele>
        <time>2019-09-14T10:42:11Z</time>
      </trkpt>
      <trkpt lat="42.86018" lon="0.26244">
        <ele>1692.54</ele>
        <time>2019-09-14T10:42:17Z</time>
      </trkpt>
      <trkpt lat="42.86019" lon="0.26241">
        <ele>1692.54</ele>
        <time>2019-09-14T10:42:32Z</time>
      </trkpt>
      <trkpt lat="42.86019" lon="0.26242">
        <ele>1692.54</ele>
        <time>2019-09-14T10:42:34Z</time>
      </trkpt>
      <trkpt lat="42.86013" lon="0.26253">
        <ele>1691.58</ele>
        <time>2019-09-14T10:42:41Z</time>
      </trkpt>
      <trkpt lat="42.86005" lon="0.26261">
        <ele>1688.69</ele>
        <time>2019-09-14T10:42:49Z</time>
      </trkpt>
      <trkpt lat="42.86003" lon="0.2626">
        <ele>1688.21</ele>
        <time>2019-09-14T10:42:56Z</time>
      </trkpt>
      <trkpt lat="42.86002" lon="0.2626">
        <ele>1688.21</ele>
        <time>2019-09-14T10:43:10Z</time>
      </trkpt>
      <trkpt lat="42.86" lon="0.26261">
        <ele>1687.73</ele>
        <time>2019-09-14T10:43:18Z</time>
      </trkpt>
      <trkpt lat="42.85997" lon="0.26264">
        <ele>1686.77</ele>
        <time>2019-09-14T10:43:21Z</time>
      </trkpt>
      <trkpt lat="42.85996" lon="0.26269">
        <ele>1686.29</ele>
        <time>2019-09-14T10:43:24Z</time>
      </trkpt>
      <trkpt lat="42.85988" lon="0.26276">
        <ele>1684.37</ele>
        <time>2019-09-14T10:43:31Z</time>
      </trkpt>
      <trkpt lat="42.85986" lon="0.26277">
        <ele>1683.89</ele>
        <time>2019-09-14T10:43:32Z</time>
      </trkpt>
      <trkpt lat="42.85975" lon="0.26283">
        <ele>1681</ele>
        <time>2019-09-14T10:43:41Z</time>
      </trkpt>
      <trkpt lat="42.85974" lon="0.26283">
        <ele>1681.48</ele>
        <time>2019-09-14T10:43:42Z</time>
      </trkpt>
      <trkpt lat="42.85965" lon="0.26284">
        <ele>1679.08</ele>
        <time>2019-09-14T10:43:49Z</time>
      </trkpt>
      <trkpt lat="42.85954" lon="0.26289">
        <ele>1676.2</ele>
        <time>2019-09-14T10:43:58Z</time>
      </trkpt>
      <trkpt lat="42.85943" lon="0.26294">
        <ele>1674.75</ele>
        <time>2019-09-14T10:44:06Z</time>
      </trkpt>
      <trkpt lat="42.85935" lon="0.263">
        <ele>1673.31</ele>
        <time>2019-09-14T10:44:14Z</time>
      </trkpt>
      <trkpt lat="42.85929" lon="0.26304">
        <ele>1672.83</ele>
        <time>2019-09-14T10:44:20Z</time>
      </trkpt>
      <trkpt lat="42.85928" lon="0.26303">
        <ele>1672.35</ele>
        <time>2019-09-14T10:44:21Z</time>
      </trkpt>
      <trkpt lat="42.85924" lon="0.26304">
        <ele>1671.39</ele>
        <time>2019-09-14T10:44:25Z</time>
      </trkpt>
      <trkpt lat="42.85914" lon="0.26306">
        <ele>1669.47</ele>
        <time>2019-09-14T10:44:34Z</time>
      </trkpt>
      <trkpt lat="42.85906" lon="0.26311">
        <ele>1667.54</ele>
        <time>2019-09-14T10:44:41Z</time>
      </trkpt>
      <trkpt lat="42.85902" lon="0.26313">
        <ele>1666.58</ele>
        <time>2019-09-14T10:44:46Z</time>
      </trkpt>
      <trkpt lat="42.85898" lon="0.26316">
        <ele>1665.62</ele>
        <time>2019-09-14T10:44:50Z</time>
      </trkpt>
      <trkpt lat="42.85892" lon="0.26322">
        <ele>1663.22</ele>
        <time>2019-09-14T10:44:57Z</time>
      </trkpt>
      <trkpt lat="42.85884" lon="0.26329">
        <ele>1661.3</ele>
        <time>2019-09-14T10:45:05Z</time>
      </trkpt>
      <trkpt lat="42.85877" lon="0.26338">
        <ele>1658.89</ele>
        <time>2019-09-14T10:45:15Z</time>
      </trkpt>
      <trkpt lat="42.85875" lon="0.26342">
        <ele>1657.93</ele>
        <time>2019-09-14T10:45:18Z</time>
      </trkpt>
      <trkpt lat="42.85872" lon="0.26349">
        <ele>1656.49</ele>
        <time>2019-09-14T10:45:25Z</time>
      </trkpt>
      <trkpt lat="42.85869" lon="0.26351">
        <ele>1655.05</ele>
        <time>2019-09-14T10:45:33Z</time>
      </trkpt>
      <trkpt lat="42.85863" lon="0.26353">
        <ele>1653.6</ele>
        <time>2019-09-14T10:45:41Z</time>
      </trkpt>
      <trkpt lat="42.85859" lon="0.26352">
        <ele>1651.68</ele>
        <time>2019-09-14T10:45:48Z</time>
      </trkpt>
      <trkpt lat="42.85857" lon="0.26356">
        <ele>1649.28</ele>
        <time>2019-09-14T10:45:55Z</time>
      </trkpt>
      <trkpt lat="42.85852" lon="0.2636">
        <ele>1647.36</ele>
        <time>2019-09-14T10:46:02Z</time>
      </trkpt>
      <trkpt lat="42.85849" lon="0.26362">
        <ele>1645.43</ele>
        <time>2019-09-14T10:46:08Z</time>
      </trkpt>
      <trkpt lat="42.85845" lon="0.26367">
        <ele>1643.99</ele>
        <time>2019-09-14T10:46:15Z</time>
      </trkpt>
      <trkpt lat="42.8584" lon="0.26371">
        <ele>1642.55</ele>
        <time>2019-09-14T10:46:23Z</time>
      </trkpt>
      <trkpt lat="42.8584" lon="0.26372">
        <ele>1641.59</ele>
        <time>2019-09-14T10:46:25Z</time>
      </trkpt>
      <trkpt lat="42.85836" lon="0.26381">
        <ele>1639.19</ele>
        <time>2019-09-14T10:46:34Z</time>
      </trkpt>
      <trkpt lat="42.85832" lon="0.26385">
        <ele>1637.74</ele>
        <time>2019-09-14T10:46:40Z</time>
      </trkpt>
      <trkpt lat="42.85832" lon="0.2639">
        <ele>1636.78</ele>
        <time>2019-09-14T10:46:45Z</time>
      </trkpt>
      <trkpt lat="42.85831" lon="0.26393">
        <ele>1635.34</ele>
        <time>2019-09-14T10:46:50Z</time>
      </trkpt>
      <trkpt lat="42.8583" lon="0.26393">
        <ele>1635.34</ele>
        <time>2019-09-14T10:46:51Z</time>
      </trkpt>
      <trkpt lat="42.85826" lon="0.26398">
        <ele>1633.42</ele>
        <time>2019-09-14T10:46:58Z</time>
      </trkpt>
      <trkpt lat="42.85822" lon="0.26403">
        <ele>1631.01</ele>
        <time>2019-09-14T10:47:06Z</time>
      </trkpt>
      <trkpt lat="42.85819" lon="0.26409">
        <ele>1629.57</ele>
        <time>2019-09-14T10:47:13Z</time>
      </trkpt>
      <trkpt lat="42.85817" lon="0.26412">
        <ele>1627.17</ele>
        <time>2019-09-14T10:47:19Z</time>
      </trkpt>
      <trkpt lat="42.85816" lon="0.26416">
        <ele>1627.17</ele>
        <time>2019-09-14T10:47:28Z</time>
      </trkpt>
      <trkpt lat="42.85812" lon="0.26425">
        <ele>1625.25</ele>
        <time>2019-09-14T10:47:36Z</time>
      </trkpt>
      <trkpt lat="42.85811" lon="0.2643">
        <ele>1623.8</ele>
        <time>2019-09-14T10:47:42Z</time>
      </trkpt>
      <trkpt lat="42.85808" lon="0.26439">
        <ele>1621.4</ele>
        <time>2019-09-14T10:47:50Z</time>
      </trkpt>
      <trkpt lat="42.85806" lon="0.26449">
        <ele>1619.48</ele>
        <time>2019-09-14T10:47:57Z</time>
      </trkpt>
      <trkpt lat="42.85804" lon="0.26457">
        <ele>1617.56</ele>
        <time>2019-09-14T10:48:04Z</time>
      </trkpt>
      <trkpt lat="42.85803" lon="0.26462">
        <ele>1616.11</ele>
        <time>2019-09-14T10:48:10Z</time>
      </trkpt>
      <trkpt lat="42.85799" lon="0.26469">
        <ele>1614.67</ele>
        <time>2019-09-14T10:48:15Z</time>
      </trkpt>
      <trkpt lat="42.85798" lon="0.26476">
        <ele>1613.71</ele>
        <time>2019-09-14T10:48:19Z</time>
      </trkpt>
      <trkpt lat="42.85794" lon="0.26488">
        <ele>1611.31</ele>
        <time>2019-09-14T10:48:28Z</time>
      </trkpt>
      <trkpt lat="42.85791" lon="0.26497">
        <ele>1608.9</ele>
        <time>2019-09-14T10:48:35Z</time>
      </trkpt>
      <trkpt lat="42.85789" lon="0.26504">
        <ele>1607.46</ele>
        <time>2019-09-14T10:48:41Z</time>
      </trkpt>
      <trkpt lat="42.85784" lon="0.26516">
        <ele>1604.58</ele>
        <time>2019-09-14T10:48:51Z</time>
      </trkpt>
      <trkpt lat="42.8578" lon="0.26521">
        <ele>1603.14</ele>
        <time>2019-09-14T10:48:58Z</time>
      </trkpt>
      <trkpt lat="42.85779" lon="0.26526">
        <ele>1601.21</ele>
        <time>2019-09-14T10:49:05Z</time>
      </trkpt>
      <trkpt lat="42.85776" lon="0.26535">
        <ele>1598.81</ele>
        <time>2019-09-14T10:49:13Z</time>
      </trkpt>
      <trkpt lat="42.85774" lon="0.26541">
        <ele>1596.89</ele>
        <time>2019-09-14T10:49:21Z</time>
      </trkpt>
      <trkpt lat="42.85771" lon="0.26545">
        <ele>1594.96</ele>
        <time>2019-09-14T10:49:29Z</time>
      </trkpt>
      <trkpt lat="42.85768" lon="0.26554">
        <ele>1593.04</ele>
        <time>2019-09-14T10:49:37Z</time>
      </trkpt>
      <trkpt lat="42.85765" lon="0.26561">
        <ele>1591.12</ele>
        <time>2019-09-14T10:49:45Z</time>
      </trkpt>
      <trkpt lat="42.85764" lon="0.26567">
        <ele>1588.72</ele>
        <time>2019-09-14T10:49:52Z</time>
      </trkpt>
      <trkpt lat="42.85764" lon="0.26567">
        <ele>1588.72</ele>
        <time>2019-09-14T10:49:53Z</time>
      </trkpt>
      <trkpt lat="42.85762" lon="0.26575">
        <ele>1586.79</ele>
        <time>2019-09-14T10:49:59Z</time>
      </trkpt>
      <trkpt lat="42.85759" lon="0.26584">
        <ele>1584.87</ele>
        <time>2019-09-14T10:50:06Z</time>
      </trkpt>
      <trkpt lat="42.85756" lon="0.26592">
        <ele>1582.47</ele>
        <time>2019-09-14T10:50:14Z</time>
      </trkpt>
      <trkpt lat="42.85754" lon="0.26593">
        <ele>1581.51</ele>
        <time>2019-09-14T10:50:21Z</time>
      </trkpt>
      <trkpt lat="42.85753" lon="0.26593">
        <ele>1580.06</ele>
        <time>2019-09-14T10:50:28Z</time>
      </trkpt>
      <trkpt lat="42.85752" lon="0.26593">
        <ele>1579.1</ele>
        <time>2019-09-14T10:50:37Z</time>
      </trkpt>
      <trkpt lat="42.8575" lon="0.26595">
        <ele>1578.14</ele>
        <time>2019-09-14T10:50:49Z</time>
      </trkpt>
      <trkpt lat="42.85749" lon="0.26604">
        <ele>1576.7</ele>
        <time>2019-09-14T10:50:56Z</time>
      </trkpt>
      <trkpt lat="42.85748" lon="0.26615">
        <ele>1575.74</ele>
        <time>2019-09-14T10:51:02Z</time>
      </trkpt>
      <trkpt lat="42.85747" lon="0.26627">
        <ele>1574.3</ele>
        <time>2019-09-14T10:51:11Z</time>
      </trkpt>
      <trkpt lat="42.85747" lon="0.26627">
        <ele>1574.78</ele>
        <time>2019-09-14T10:51:18Z</time>
      </trkpt>
      <trkpt lat="42.85747" lon="0.26626">
        <ele>1574.78</ele>
        <time>2019-09-14T10:51:31Z</time>
      </trkpt>
      <trkpt lat="42.85747" lon="0.26626">
        <ele>1574.3</ele>
        <time>2019-09-14T10:51:40Z</time>
      </trkpt>
      <trkpt lat="42.85743" lon="0.26635">
        <ele>1572.85</ele>
        <time>2019-09-14T10:51:48Z</time>
      </trkpt>
      <trkpt lat="42.85743" lon="0.26636">
        <ele>1572.37</ele>
        <time>2019-09-14T10:51:49Z</time>
      </trkpt>
      <trkpt lat="42.8574" lon="0.26648">
        <ele>1570.93</ele>
        <time>2019-09-14T10:51:55Z</time>
      </trkpt>
      <trkpt lat="42.85735" lon="0.26657">
        <ele>1570.45</ele>
        <time>2019-09-14T10:52:02Z</time>
      </trkpt>
      <trkpt lat="42.85734" lon="0.2666">
        <ele>1570.45</ele>
        <time>2019-09-14T10:52:05Z</time>
      </trkpt>
      <trkpt lat="42.85731" lon="0.26666">
        <ele>1569.97</ele>
        <time>2019-09-14T10:52:13Z</time>
      </trkpt>
      <trkpt lat="42.85731" lon="0.26669">
        <ele>1569.97</ele>
        <time>2019-09-14T10:52:15Z</time>
      </trkpt>
      <trkpt lat="42.8573" lon="0.26684">
        <ele>1568.53</ele>
        <time>2019-09-14T10:52:25Z</time>
      </trkpt>
      <trkpt lat="42.85729" lon="0.26693">
        <ele>1567.09</ele>
        <time>2019-09-14T10:52:34Z</time>
      </trkpt>
      <trkpt lat="42.85724" lon="0.26699">
        <ele>1565.64</ele>
        <time>2019-09-14T10:52:41Z</time>
      </trkpt>
      <trkpt lat="42.85722" lon="0.26702">
        <ele>1564.68</ele>
        <time>2019-09-14T10:52:46Z</time>
      </trkpt>
      <trkpt lat="42.85719" lon="0.26704">
        <ele>1564.2</ele>
        <time>2019-09-14T10:52:49Z</time>
      </trkpt>
      <trkpt lat="42.85712" lon="0.26716">
        <ele>1562.28</ele>
        <time>2019-09-14T10:52:58Z</time>
      </trkpt>
      <trkpt lat="42.85711" lon="0.26717">
        <ele>1562.28</ele>
        <time>2019-09-14T10:52:59Z</time>
      </trkpt>
      <trkpt lat="42.85705" lon="0.26724">
        <ele>1560.84</ele>
        <time>2019-09-14T10:53:06Z</time>
      </trkpt>
      <trkpt lat="42.85697" lon="0.26727">
        <ele>1559.88</ele>
        <time>2019-09-14T10:53:12Z</time>
      </trkpt>
      <trkpt lat="42.85692" lon="0.26736">
        <ele>1557.95</ele>
        <time>2019-09-14T10:53:19Z</time>
      </trkpt>
      <trkpt lat="42.85691" lon="0.2675">
        <ele>1555.07</ele>
        <time>2019-09-14T10:53:29Z</time>
      </trkpt>
      <trkpt lat="42.8569" lon="0.26752">
        <ele>1555.07</ele>
        <time>2019-09-14T10:53:30Z</time>
      </trkpt>
      <trkpt lat="42.85686" lon="0.2676">
        <ele>1552.19</ele>
        <time>2019-09-14T10:53:39Z</time>
      </trkpt>
      <trkpt lat="42.85684" lon="0.26771">
        <ele>1549.78</ele>
        <time>2019-09-14T10:53:47Z</time>
      </trkpt>
      <trkpt lat="42.85681" lon="0.26782">
        <ele>1547.86</ele>
        <time>2019-09-14T10:53:55Z</time>
      </trkpt>
      <trkpt lat="42.85678" lon="0.26787">
        <ele>1546.42</ele>
        <time>2019-09-14T10:53:59Z</time>
      </trkpt>
      <trkpt lat="42.85676" lon="0.26789">
        <ele>1545.94</ele>
        <time>2019-09-14T10:54:02Z</time>
      </trkpt>
      <trkpt lat="42.85671" lon="0.26795">
        <ele>1544.01</ele>
        <time>2019-09-14T10:54:10Z</time>
      </trkpt>
      <trkpt lat="42.85666" lon="0.26801">
        <ele>1542.09</ele>
        <time>2019-09-14T10:54:18Z</time>
      </trkpt>
      <trkpt lat="42.85663" lon="0.26808">
        <ele>1540.17</ele>
        <time>2019-09-14T10:54:26Z</time>
      </trkpt>
      <trkpt lat="42.85661" lon="0.26816">
        <ele>1538.73</ele>
        <time>2019-09-14T10:54:32Z</time>
      </trkpt>
      <trkpt lat="42.85659" lon="0.26822">
        <ele>1537.29</ele>
        <time>2019-09-14T10:54:39Z</time>
      </trkpt>
      <trkpt lat="42.85654" lon="0.26828">
        <ele>1534.88</ele>
        <time>2019-09-14T10:54:47Z</time>
      </trkpt>
      <trkpt lat="42.85651" lon="0.26833">
        <ele>1533.92</ele>
        <time>2019-09-14T10:54:52Z</time>
      </trkpt>
      <trkpt lat="42.85647" lon="0.26835">
        <ele>1532</ele>
        <time>2019-09-14T10:54:59Z</time>
      </trkpt>
      <trkpt lat="42.85642" lon="0.26839">
        <ele>1530.56</ele>
        <time>2019-09-14T10:55:06Z</time>
      </trkpt>
      <trkpt lat="42.85638" lon="0.26844">
        <ele>1528.63</ele>
        <time>2019-09-14T10:55:13Z</time>
      </trkpt>
      <trkpt lat="42.85631" lon="0.26846">
        <ele>1526.23</ele>
        <time>2019-09-14T10:55:22Z</time>
      </trkpt>
      <trkpt lat="42.85629" lon="0.26847">
        <ele>1525.27</ele>
        <time>2019-09-14T10:55:29Z</time>
      </trkpt>
      <trkpt lat="42.85624" lon="0.26851">
        <ele>1523.83</ele>
        <time>2019-09-14T10:55:36Z</time>
      </trkpt>
      <trkpt lat="42.85618" lon="0.26858">
        <ele>1521.42</ele>
        <time>2019-09-14T10:55:45Z</time>
      </trkpt>
      <trkpt lat="42.85614" lon="0.26865">
        <ele>1519.5</ele>
        <time>2019-09-14T10:55:53Z</time>
      </trkpt>
      <trkpt lat="42.85609" lon="0.26867">
        <ele>1518.54</ele>
        <time>2019-09-14T10:55:57Z</time>
      </trkpt>
      <trkpt lat="42.85602" lon="0.26878">
        <ele>1516.14</ele>
        <time>2019-09-14T10:56:07Z</time>
      </trkpt>
      <trkpt lat="42.85599" lon="0.26887">
        <ele>1513.73</ele>
        <time>2019-09-14T10:56:15Z</time>
      </trkpt>
      <trkpt lat="42.85596" lon="0.26897">
        <ele>1511.81</ele>
        <time>2019-09-14T10:56:23Z</time>
      </trkpt>
      <trkpt lat="42.85594" lon="0.26906">
        <ele>1509.89</ele>
        <time>2019-09-14T10:56:31Z</time>
      </trkpt>
      <trkpt lat="42.85592" lon="0.26917">
        <ele>1508.45</ele>
        <time>2019-09-14T10:56:39Z</time>
      </trkpt>
      <trkpt lat="42.8559" lon="0.26924">
        <ele>1507</ele>
        <time>2019-09-14T10:56:45Z</time>
      </trkpt>
      <trkpt lat="42.85582" lon="0.26931">
        <ele>1505.56</ele>
        <time>2019-09-14T10:56:53Z</time>
      </trkpt>
      <trkpt lat="42.85581" lon="0.26932">
        <ele>1505.08</ele>
        <time>2019-09-14T10:57:00Z</time>
      </trkpt>
      <trkpt lat="42.85583" lon="0.26931">
        <ele>1505.56</ele>
        <time>2019-09-14T10:57:07Z</time>
      </trkpt>
      <trkpt lat="42.85584" lon="0.26929">
        <ele>1505.56</ele>
        <time>2019-09-14T10:57:15Z</time>
      </trkpt>
      <trkpt lat="42.85584" lon="0.26929">
        <ele>1505.56</ele>
        <time>2019-09-14T10:57:18Z</time>
      </trkpt>
      <trkpt lat="42.8558" lon="0.26933">
        <ele>1504.12</ele>
        <time>2019-09-14T10:57:25Z</time>
      </trkpt>
      <trkpt lat="42.85574" lon="0.26939">
        <ele>1503.64</ele>
        <time>2019-09-14T10:57:32Z</time>
      </trkpt>
      <trkpt lat="42.85566" lon="0.26948">
        <ele>1501.72</ele>
        <time>2019-09-14T10:57:41Z</time>
      </trkpt>
      <trkpt lat="42.85559" lon="0.26955">
        <ele>1500.27</ele>
        <time>2019-09-14T10:57:48Z</time>
      </trkpt>
      <trkpt lat="42.85556" lon="0.2696">
        <ele>1499.79</ele>
        <time>2019-09-14T10:57:54Z</time>
      </trkpt>
      <trkpt lat="42.85549" lon="0.26969">
        <ele>1497.87</ele>
        <time>2019-09-14T10:58:02Z</time>
      </trkpt>
      <trkpt lat="42.85545" lon="0.26974">
        <ele>1496.91</ele>
        <time>2019-09-14T10:58:07Z</time>
      </trkpt>
      <trkpt lat="42.85537" lon="0.26985">
        <ele>1494.99</ele>
        <time>2019-09-14T10:58:16Z</time>
      </trkpt>
      <trkpt lat="42.85532" lon="0.26995">
        <ele>1493.06</ele>
        <time>2019-09-14T10:58:23Z</time>
      </trkpt>
      <trkpt lat="42.85532" lon="0.26996">
        <ele>1493.06</ele>
        <time>2019-09-14T10:58:24Z</time>
      </trkpt>
      <trkpt lat="42.8553" lon="0.27002">
        <ele>1492.1</ele>
        <time>2019-09-14T10:58:29Z</time>
      </trkpt>
      <trkpt lat="42.85526" lon="0.27012">
        <ele>1490.18</ele>
        <time>2019-09-14T10:58:35Z</time>
      </trkpt>
      <trkpt lat="42.85523" lon="0.27024">
        <ele>1488.74</ele>
        <time>2019-09-14T10:58:42Z</time>
      </trkpt>
      <trkpt lat="42.85521" lon="0.27027">
        <ele>1488.26</ele>
        <time>2019-09-14T10:58:44Z</time>
      </trkpt>
      <trkpt lat="42.85517" lon="0.27041">
        <ele>1486.34</ele>
        <time>2019-09-14T10:58:52Z</time>
      </trkpt>
      <trkpt lat="42.85516" lon="0.27042">
        <ele>1485.85</ele>
        <time>2019-09-14T10:58:53Z</time>
      </trkpt>
      <trkpt lat="42.85508" lon="0.27052">
        <ele>1484.41</ele>
        <time>2019-09-14T10:59:01Z</time>
      </trkpt>
      <trkpt lat="42.85505" lon="0.27057">
        <ele>1483.45</ele>
        <time>2019-09-14T10:59:05Z</time>
      </trkpt>
      <trkpt lat="42.85505" lon="0.27061">
        <ele>1482.49</ele>
        <time>2019-09-14T10:59:08Z</time>
      </trkpt>
      <trkpt lat="42.85504" lon="0.2707">
        <ele>1481.53</ele>
        <time>2019-09-14T10:59:13Z</time>
      </trkpt>
      <trkpt lat="42.855" lon="0.27078">
        <ele>1480.09</ele>
        <time>2019-09-14T10:59:19Z</time>
      </trkpt>
      <trkpt lat="42.85492" lon="0.27086">
        <ele>1478.16</ele>
        <time>2019-09-14T10:59:28Z</time>
      </trkpt>
      <trkpt lat="42.85485" lon="0.27093">
        <ele>1477.2</ele>
        <time>2019-09-14T10:59:35Z</time>
      </trkpt>
      <trkpt lat="42.85484" lon="0.27096">
        <ele>1476.72</ele>
        <time>2019-09-14T10:59:37Z</time>
      </trkpt>
      <trkpt lat="42.85484" lon="0.27102">
        <ele>1475.76</ele>
        <time>2019-09-14T10:59:44Z</time>
      </trkpt>
      <trkpt lat="42.85484" lon="0.27103">
        <ele>1475.28</ele>
        <time>2019-09-14T10:59:45Z</time>
      </trkpt>
      <trkpt lat="42.85483" lon="0.27107">
        <ele>1475.28</ele>
        <time>2019-09-14T10:59:47Z</time>
      </trkpt>
      <trkpt lat="42.8548" lon="0.27112">
        <ele>1473.84</ele>
        <time>2019-09-14T10:59:51Z</time>
      </trkpt>
      <trkpt lat="42.8547" lon="0.27122">
        <ele>1472.4</ele>
        <time>2019-09-14T10:59:59Z</time>
      </trkpt>
      <trkpt lat="42.85457" lon="0.27132">
        <ele>1470.47</ele>
        <time>2019-09-14T11:00:07Z</time>
      </trkpt>
      <trkpt lat="42.8545" lon="0.27137">
        <ele>1469.99</ele>
        <time>2019-09-14T11:00:11Z</time>
      </trkpt>
      <trkpt lat="42.85443" lon="0.27147">
        <ele>1468.07</ele>
        <time>2019-09-14T11:00:19Z</time>
      </trkpt>
      <trkpt lat="42.85438" lon="0.27159">
        <ele>1466.63</ele>
        <time>2019-09-14T11:00:26Z</time>
      </trkpt>
      <trkpt lat="42.85437" lon="0.2716">
        <ele>1466.63</ele>
        <time>2019-09-14T11:00:27Z</time>
      </trkpt>
      <trkpt lat="42.85432" lon="0.27173">
        <ele>1465.19</ele>
        <time>2019-09-14T11:00:35Z</time>
      </trkpt>
      <trkpt lat="42.85428" lon="0.27181">
        <ele>1464.71</ele>
        <time>2019-09-14T11:00:40Z</time>
      </trkpt>
      <trkpt lat="42.85425" lon="0.27196">
        <ele>1464.23</ele>
        <time>2019-09-14T11:00:48Z</time>
      </trkpt>
      <trkpt lat="42.85419" lon="0.27209">
        <ele>1463.74</ele>
        <time>2019-09-14T11:00:57Z</time>
      </trkpt>
      <trkpt lat="42.85413" lon="0.27216">
        <ele>1463.26</ele>
        <time>2019-09-14T11:01:04Z</time>
      </trkpt>
      <trkpt lat="42.85407" lon="0.27222">
        <ele>1463.26</ele>
        <time>2019-09-14T11:01:10Z</time>
      </trkpt>
      <trkpt lat="42.85406" lon="0.27224">
        <ele>1463.26</ele>
        <time>2019-09-14T11:01:11Z</time>
      </trkpt>
      <trkpt lat="42.85399" lon="0.27231">
        <ele>1462.3</ele>
        <time>2019-09-14T11:01:18Z</time>
      </trkpt>
      <trkpt lat="42.85393" lon="0.27241">
        <ele>1461.34</ele>
        <time>2019-09-14T11:01:26Z</time>
      </trkpt>
      <trkpt lat="42.85388" lon="0.27248">
        <ele>1460.86</ele>
        <time>2019-09-14T11:01:33Z</time>
      </trkpt>
      <trkpt lat="42.85382" lon="0.27256">
        <ele>1459.9</ele>
        <time>2019-09-14T11:01:40Z</time>
      </trkpt>
      <trkpt lat="42.85377" lon="0.27264">
        <ele>1459.9</ele>
        <time>2019-09-14T11:01:47Z</time>
      </trkpt>
      <trkpt lat="42.85371" lon="0.27268">
        <ele>1459.42</ele>
        <time>2019-09-14T11:01:53Z</time>
      </trkpt>
      <trkpt lat="42.85365" lon="0.27272">
        <ele>1458.94</ele>
        <time>2019-09-14T11:01:58Z</time>
      </trkpt>
      <trkpt lat="42.85357" lon="0.27282">
        <ele>1457.98</ele>
        <time>2019-09-14T11:02:05Z</time>
      </trkpt>
      <trkpt lat="42.85356" lon="0.27284">
        <ele>1457.98</ele>
        <time>2019-09-14T11:02:06Z</time>
      </trkpt>
      <trkpt lat="42.85354" lon="0.27289">
        <ele>1457.5</ele>
        <time>2019-09-14T11:02:09Z</time>
      </trkpt>
      <trkpt lat="42.85349" lon="0.273">
        <ele>1456.53</ele>
        <time>2019-09-14T11:02:17Z</time>
      </trkpt>
      <trkpt lat="42.85346" lon="0.27305">
        <ele>1456.53</ele>
        <time>2019-09-14T11:02:20Z</time>
      </trkpt>
      <trkpt lat="42.85343" lon="0.27309">
        <ele>1457.5</ele>
        <time>2019-09-14T11:02:24Z</time>
      </trkpt>
      <trkpt lat="42.8534" lon="0.27313">
        <ele>1456.05</ele>
        <time>2019-09-14T11:02:26Z</time>
      </trkpt>
      <trkpt lat="42.85332" lon="0.27326">
        <ele>1455.09</ele>
        <time>2019-09-14T11:02:35Z</time>
      </trkpt>
      <trkpt lat="42.85329" lon="0.27329">
        <ele>1454.61</ele>
        <time>2019-09-14T11:02:38Z</time>
      </trkpt>
      <trkpt lat="42.85323" lon="0.27341">
        <ele>1454.13</ele>
        <time>2019-09-14T11:02:47Z</time>
      </trkpt>
      <trkpt lat="42.85323" lon="0.27343">
        <ele>1454.13</ele>
        <time>2019-09-14T11:02:49Z</time>
      </trkpt>
      <trkpt lat="42.8532" lon="0.27349">
        <ele>1453.65</ele>
        <time>2019-09-14T11:02:54Z</time>
      </trkpt>
      <trkpt lat="42.85319" lon="0.27356">
        <ele>1453.17</ele>
        <time>2019-09-14T11:03:00Z</time>
      </trkpt>
      <trkpt lat="42.85308" lon="0.27361">
        <ele>1452.21</ele>
        <time>2019-09-14T11:03:07Z</time>
      </trkpt>
      <trkpt lat="42.85297" lon="0.27368">
        <ele>1451.25</ele>
        <time>2019-09-14T11:03:13Z</time>
      </trkpt>
      <trkpt lat="42.85287" lon="0.27378">
        <ele>1449.81</ele>
        <time>2019-09-14T11:03:21Z</time>
      </trkpt>
      <trkpt lat="42.8528" lon="0.27387">
        <ele>1448.84</ele>
        <time>2019-09-14T11:03:28Z</time>
      </trkpt>
      <trkpt lat="42.85275" lon="0.27397">
        <ele>1447.4</ele>
        <time>2019-09-14T11:03:36Z</time>
      </trkpt>
      <trkpt lat="42.85271" lon="0.27405">
        <ele>1446.44</ele>
        <time>2019-09-14T11:03:41Z</time>
      </trkpt>
      <trkpt lat="42.85267" lon="0.27411">
        <ele>1445.96</ele>
        <time>2019-09-14T11:03:45Z</time>
      </trkpt>
      <trkpt lat="42.85263" lon="0.27416">
        <ele>1445.48</ele>
        <time>2019-09-14T11:03:49Z</time>
      </trkpt>
      <trkpt lat="42.85253" lon="0.27429">
        <ele>1443.56</ele>
        <time>2019-09-14T11:03:59Z</time>
      </trkpt>
      <trkpt lat="42.85251" lon="0.27433">
        <ele>1443.56</ele>
        <time>2019-09-14T11:04:02Z</time>
      </trkpt>
      <trkpt lat="42.85244" lon="0.27442">
        <ele>1442.11</ele>
        <time>2019-09-14T11:04:09Z</time>
      </trkpt>
      <trkpt lat="42.85234" lon="0.27453">
        <ele>1441.15</ele>
        <time>2019-09-14T11:04:17Z</time>
      </trkpt>
      <trkpt lat="42.85225" lon="0.27469">
        <ele>1439.23</ele>
        <time>2019-09-14T11:04:28Z</time>
      </trkpt>
      <trkpt lat="42.8522" lon="0.27478">
        <ele>1437.79</ele>
        <time>2019-09-14T11:04:35Z</time>
      </trkpt>
      <trkpt lat="42.85215" lon="0.27489">
        <ele>1436.83</ele>
        <time>2019-09-14T11:04:43Z</time>
      </trkpt>
      <trkpt lat="42.85213" lon="0.27493">
        <ele>1437.31</ele>
        <time>2019-09-14T11:04:50Z</time>
      </trkpt>
      <trkpt lat="42.85213" lon="0.27493">
        <ele>1436.35</ele>
        <time>2019-09-14T11:04:57Z</time>
      </trkpt>
      <trkpt lat="42.85211" lon="0.27496">
        <ele>1436.35</ele>
        <time>2019-09-14T11:05:07Z</time>
      </trkpt>
      <trkpt lat="42.85208" lon="0.27502">
        <ele>1435.39</ele>
        <time>2019-09-14T11:05:14Z</time>
      </trkpt>
      <trkpt lat="42.85201" lon="0.27516">
        <ele>1433.94</ele>
        <time>2019-09-14T11:05:23Z</time>
      </trkpt>
      <trkpt lat="42.85196" lon="0.27523">
        <ele>1432.98</ele>
        <time>2019-09-14T11:05:28Z</time>
      </trkpt>
      <trkpt lat="42.85188" lon="0.27536">
        <ele>1432.02</ele>
        <time>2019-09-14T11:05:37Z</time>
      </trkpt>
      <trkpt lat="42.85182" lon="0.27548">
        <ele>1430.58</ele>
        <time>2019-09-14T11:05:45Z</time>
      </trkpt>
      <trkpt lat="42.85174" lon="0.27559">
        <ele>1429.62</ele>
        <time>2019-09-14T11:05:53Z</time>
      </trkpt>
      <trkpt lat="42.85174" lon="0.2756">
        <ele>1429.14</ele>
        <time>2019-09-14T11:05:54Z</time>
      </trkpt>
      <trkpt lat="42.85166" lon="0.27577">
        <ele>1428.18</ele>
        <time>2019-09-14T11:06:04Z</time>
      </trkpt>
      <trkpt lat="42.85158" lon="0.27591">
        <ele>1428.18</ele>
        <time>2019-09-14T11:06:13Z</time>
      </trkpt>
      <trkpt lat="42.85156" lon="0.27597">
        <ele>1426.25</ele>
        <time>2019-09-14T11:06:17Z</time>
      </trkpt>
      <trkpt lat="42.85148" lon="0.27608">
        <ele>1424.81</ele>
        <time>2019-09-14T11:06:25Z</time>
      </trkpt>
      <trkpt lat="42.85143" lon="0.2762">
        <ele>1423.37</ele>
        <time>2019-09-14T11:06:33Z</time>
      </trkpt>
      <trkpt lat="42.85142" lon="0.27621">
        <ele>1422.89</ele>
        <time>2019-09-14T11:06:34Z</time>
      </trkpt>
      <trkpt lat="42.85137" lon="0.27629">
        <ele>1421.45</ele>
        <time>2019-09-14T11:06:41Z</time>
      </trkpt>
      <trkpt lat="42.85137" lon="0.27633">
        <ele>1420.49</ele>
        <time>2019-09-14T11:06:49Z</time>
      </trkpt>
      <trkpt lat="42.85137" lon="0.27633">
        <ele>1420.49</ele>
        <time>2019-09-14T11:07:02Z</time>
      </trkpt>
      <trkpt lat="42.85133" lon="0.27641">
        <ele>1418.56</ele>
        <time>2019-09-14T11:07:09Z</time>
      </trkpt>
      <trkpt lat="42.85131" lon="0.27644">
        <ele>1414.72</ele>
        <time>2019-09-14T11:07:11Z</time>
      </trkpt>
      <trkpt lat="42.8513" lon="0.27645">
        <ele>1420.49</ele>
        <time>2019-09-14T11:07:12Z</time>
      </trkpt>
      <trkpt lat="42.85126" lon="0.27648">
        <ele>1415.2</ele>
        <time>2019-09-14T11:07:16Z</time>
      </trkpt>
      <trkpt lat="42.85125" lon="0.27649">
        <ele>1420</ele>
        <time>2019-09-14T11:07:17Z</time>
      </trkpt>
      <trkpt lat="42.85123" lon="0.27651">
        <ele>1418.08</ele>
        <time>2019-09-14T11:07:24Z</time>
      </trkpt>
    </trkseg>
  </trk>
</gpx>